<?xml version="1.0" encoding="UTF-8" standalone="no" ?>
<gpx xmlns="http://www.topografix.com/GPX/1/1" xmlns:xsi="http://www.w3.org/2001/XMLSchema-instance" xsi:schemaLocation="http://www.topografix.com/GPX/1/1 http://www.topografix.com/GPX/1/1/gpx.xsd" version="1.1" creator="VisuGPX - https://www.visugpx.com">
  <metadata>
    <name>Autour d\'Etling</name>
    <desc><![CDATA[Marche de 10 km autour d\'Etling , à partir de Spicheren]]></desc>
  </metadata>
  <trk>
    <name><![CDATA[Autour d\'Etling_1]]></name>
    <cmt><![CDATA[Autour d'Etzling
]]></cmt>
    <trkseg>
      <trkpt lat="49.191" lon="6.96477">
        <ele>314</ele>
        <time>2010-12-05T07:57:45Z</time>
      </trkpt>
      <trkpt lat="49.1909" lon="6.96438">
        <ele>308</ele>
        <time>2010-12-05T08:01:02Z</time>
      </trkpt>
      <trkpt lat="49.19089" lon="6.96436">
        <ele>308</ele>
        <time>2010-12-05T08:01:04Z</time>
      </trkpt>
      <trkpt lat="49.19087" lon="6.96435">
        <ele>308</ele>
        <time>2010-12-05T08:01:06Z</time>
      </trkpt>
      <trkpt lat="49.19085" lon="6.96434">
        <ele>308</ele>
        <time>2010-12-05T08:01:08Z</time>
      </trkpt>
      <trkpt lat="49.19083" lon="6.96432">
        <ele>308</ele>
        <time>2010-12-05T08:01:10Z</time>
      </trkpt>
      <trkpt lat="49.19081" lon="6.9643">
        <ele>308</ele>
        <time>2010-12-05T08:01:12Z</time>
      </trkpt>
      <trkpt lat="49.1908" lon="6.96428">
        <ele>308</ele>
        <time>2010-12-05T08:01:14Z</time>
      </trkpt>
      <trkpt lat="49.19078" lon="6.96425">
        <ele>308</ele>
        <time>2010-12-05T08:01:16Z</time>
      </trkpt>
      <trkpt lat="49.19077" lon="6.96423">
        <ele>308</ele>
        <time>2010-12-05T08:01:18Z</time>
      </trkpt>
      <trkpt lat="49.19075" lon="6.96422">
        <ele>308</ele>
        <time>2010-12-05T08:01:20Z</time>
      </trkpt>
      <trkpt lat="49.19073" lon="6.96422">
        <ele>308</ele>
        <time>2010-12-05T08:01:21Z</time>
      </trkpt>
      <trkpt lat="49.19072" lon="6.96421">
        <ele>308</ele>
        <time>2010-12-05T08:01:23Z</time>
      </trkpt>
      <trkpt lat="49.1907" lon="6.96421">
        <ele>308</ele>
        <time>2010-12-05T08:01:25Z</time>
      </trkpt>
      <trkpt lat="49.19069" lon="6.9642">
        <ele>308</ele>
        <time>2010-12-05T08:01:27Z</time>
      </trkpt>
      <trkpt lat="49.19067" lon="6.96419">
        <ele>308</ele>
        <time>2010-12-05T08:01:28Z</time>
      </trkpt>
      <trkpt lat="49.19066" lon="6.96417">
        <ele>308</ele>
        <time>2010-12-05T08:01:30Z</time>
      </trkpt>
      <trkpt lat="49.19064" lon="6.96415">
        <ele>308</ele>
        <time>2010-12-05T08:01:32Z</time>
      </trkpt>
      <trkpt lat="49.19063" lon="6.96412">
        <ele>308</ele>
        <time>2010-12-05T08:01:34Z</time>
      </trkpt>
      <trkpt lat="49.19062" lon="6.9641">
        <ele>308</ele>
        <time>2010-12-05T08:01:35Z</time>
      </trkpt>
      <trkpt lat="49.19062" lon="6.96408">
        <ele>308</ele>
        <time>2010-12-05T08:01:36Z</time>
      </trkpt>
      <trkpt lat="49.19061" lon="6.96405">
        <ele>308</ele>
        <time>2010-12-05T08:01:38Z</time>
      </trkpt>
      <trkpt lat="49.19061" lon="6.96403">
        <ele>309</ele>
        <time>2010-12-05T08:01:39Z</time>
      </trkpt>
      <trkpt lat="49.19061" lon="6.96401">
        <ele>309</ele>
        <time>2010-12-05T08:01:40Z</time>
      </trkpt>
      <trkpt lat="49.1906" lon="6.96399">
        <ele>309</ele>
        <time>2010-12-05T08:01:41Z</time>
      </trkpt>
      <trkpt lat="49.1906" lon="6.96398">
        <ele>310</ele>
        <time>2010-12-05T08:01:42Z</time>
      </trkpt>
      <trkpt lat="49.1906" lon="6.96396">
        <ele>310</ele>
        <time>2010-12-05T08:01:43Z</time>
      </trkpt>
      <trkpt lat="49.19059" lon="6.96393">
        <ele>311</ele>
        <time>2010-12-05T08:01:45Z</time>
      </trkpt>
      <trkpt lat="49.19059" lon="6.96391">
        <ele>311</ele>
        <time>2010-12-05T08:01:46Z</time>
      </trkpt>
      <trkpt lat="49.19058" lon="6.96389">
        <ele>311</ele>
        <time>2010-12-05T08:01:47Z</time>
      </trkpt>
      <trkpt lat="49.19057" lon="6.96386">
        <ele>311</ele>
        <time>2010-12-05T08:01:49Z</time>
      </trkpt>
      <trkpt lat="49.19056" lon="6.96383">
        <ele>312</ele>
        <time>2010-12-05T08:01:51Z</time>
      </trkpt>
      <trkpt lat="49.19056" lon="6.96381">
        <ele>312</ele>
        <time>2010-12-05T08:01:52Z</time>
      </trkpt>
      <trkpt lat="49.19056" lon="6.96379">
        <ele>312</ele>
        <time>2010-12-05T08:01:53Z</time>
      </trkpt>
      <trkpt lat="49.19055" lon="6.96378">
        <ele>312</ele>
        <time>2010-12-05T08:01:54Z</time>
      </trkpt>
      <trkpt lat="49.19054" lon="6.96375">
        <ele>312</ele>
        <time>2010-12-05T08:01:56Z</time>
      </trkpt>
      <trkpt lat="49.19053" lon="6.96373">
        <ele>313</ele>
        <time>2010-12-05T08:01:57Z</time>
      </trkpt>
      <trkpt lat="49.19053" lon="6.9637">
        <ele>313</ele>
        <time>2010-12-05T08:01:59Z</time>
      </trkpt>
      <trkpt lat="49.19051" lon="6.96367">
        <ele>313</ele>
        <time>2010-12-05T08:02:01Z</time>
      </trkpt>
      <trkpt lat="49.1905" lon="6.96364">
        <ele>313</ele>
        <time>2010-12-05T08:02:03Z</time>
      </trkpt>
      <trkpt lat="49.1905" lon="6.96362">
        <ele>313</ele>
        <time>2010-12-05T08:02:04Z</time>
      </trkpt>
      <trkpt lat="49.19049" lon="6.96359">
        <ele>313</ele>
        <time>2010-12-05T08:02:06Z</time>
      </trkpt>
      <trkpt lat="49.19048" lon="6.96357">
        <ele>314</ele>
        <time>2010-12-05T08:02:08Z</time>
      </trkpt>
      <trkpt lat="49.19048" lon="6.96355">
        <ele>314</ele>
        <time>2010-12-05T08:02:09Z</time>
      </trkpt>
      <trkpt lat="49.19048" lon="6.96353">
        <ele>314</ele>
        <time>2010-12-05T08:02:10Z</time>
      </trkpt>
      <trkpt lat="49.19048" lon="6.96352">
        <ele>314</ele>
        <time>2010-12-05T08:02:11Z</time>
      </trkpt>
      <trkpt lat="49.19048" lon="6.96348">
        <ele>314</ele>
        <time>2010-12-05T08:02:13Z</time>
      </trkpt>
      <trkpt lat="49.19049" lon="6.96346">
        <ele>314</ele>
        <time>2010-12-05T08:02:15Z</time>
      </trkpt>
      <trkpt lat="49.1905" lon="6.96343">
        <ele>314</ele>
        <time>2010-12-05T08:02:18Z</time>
      </trkpt>
      <trkpt lat="49.19051" lon="6.9634">
        <ele>314</ele>
        <time>2010-12-05T08:02:19Z</time>
      </trkpt>
      <trkpt lat="49.19052" lon="6.96337">
        <ele>314</ele>
        <time>2010-12-05T08:02:21Z</time>
      </trkpt>
      <trkpt lat="49.19052" lon="6.96335">
        <ele>314</ele>
        <time>2010-12-05T08:02:22Z</time>
      </trkpt>
      <trkpt lat="49.19053" lon="6.96332">
        <ele>314</ele>
        <time>2010-12-05T08:02:24Z</time>
      </trkpt>
      <trkpt lat="49.19054" lon="6.9633">
        <ele>314</ele>
        <time>2010-12-05T08:02:26Z</time>
      </trkpt>
      <trkpt lat="49.19056" lon="6.96327">
        <ele>314</ele>
        <time>2010-12-05T08:02:28Z</time>
      </trkpt>
      <trkpt lat="49.19056" lon="6.96325">
        <ele>314</ele>
        <time>2010-12-05T08:02:29Z</time>
      </trkpt>
      <trkpt lat="49.19058" lon="6.96322">
        <ele>314</ele>
        <time>2010-12-05T08:02:31Z</time>
      </trkpt>
      <trkpt lat="49.19059" lon="6.9632">
        <ele>314</ele>
        <time>2010-12-05T08:02:33Z</time>
      </trkpt>
      <trkpt lat="49.19061" lon="6.96317">
        <ele>314</ele>
        <time>2010-12-05T08:02:35Z</time>
      </trkpt>
      <trkpt lat="49.19062" lon="6.96314">
        <ele>314</ele>
        <time>2010-12-05T08:02:37Z</time>
      </trkpt>
      <trkpt lat="49.19064" lon="6.96313">
        <ele>314</ele>
        <time>2010-12-05T08:02:38Z</time>
      </trkpt>
      <trkpt lat="49.19064" lon="6.96311">
        <ele>314</ele>
        <time>2010-12-05T08:02:39Z</time>
      </trkpt>
      <trkpt lat="49.19065" lon="6.96309">
        <ele>314</ele>
        <time>2010-12-05T08:02:40Z</time>
      </trkpt>
      <trkpt lat="49.19067" lon="6.96306">
        <ele>314</ele>
        <time>2010-12-05T08:02:42Z</time>
      </trkpt>
      <trkpt lat="49.19068" lon="6.96304">
        <ele>314</ele>
        <time>2010-12-05T08:02:44Z</time>
      </trkpt>
      <trkpt lat="49.1907" lon="6.96301">
        <ele>315</ele>
        <time>2010-12-05T08:02:46Z</time>
      </trkpt>
      <trkpt lat="49.19071" lon="6.96299">
        <ele>315</ele>
        <time>2010-12-05T08:02:47Z</time>
      </trkpt>
      <trkpt lat="49.19072" lon="6.96296">
        <ele>315</ele>
        <time>2010-12-05T08:02:49Z</time>
      </trkpt>
      <trkpt lat="49.19074" lon="6.96293">
        <ele>315</ele>
        <time>2010-12-05T08:02:51Z</time>
      </trkpt>
      <trkpt lat="49.19075" lon="6.9629">
        <ele>315</ele>
        <time>2010-12-05T08:02:53Z</time>
      </trkpt>
      <trkpt lat="49.19076" lon="6.96289">
        <ele>315</ele>
        <time>2010-12-05T08:02:55Z</time>
      </trkpt>
      <trkpt lat="49.19077" lon="6.96287">
        <ele>315</ele>
        <time>2010-12-05T08:02:55Z</time>
      </trkpt>
      <trkpt lat="49.19079" lon="6.96284">
        <ele>315</ele>
        <time>2010-12-05T08:02:57Z</time>
      </trkpt>
      <trkpt lat="49.1908" lon="6.96282">
        <ele>315</ele>
        <time>2010-12-05T08:02:58Z</time>
      </trkpt>
      <trkpt lat="49.19081" lon="6.9628">
        <ele>315</ele>
        <time>2010-12-05T08:03:00Z</time>
      </trkpt>
      <trkpt lat="49.19083" lon="6.96277">
        <ele>316</ele>
        <time>2010-12-05T08:03:02Z</time>
      </trkpt>
      <trkpt lat="49.19084" lon="6.96274">
        <ele>316</ele>
        <time>2010-12-05T08:03:04Z</time>
      </trkpt>
      <trkpt lat="49.19085" lon="6.9627">
        <ele>316</ele>
        <time>2010-12-05T08:03:06Z</time>
      </trkpt>
      <trkpt lat="49.19087" lon="6.96268">
        <ele>316</ele>
        <time>2010-12-05T08:03:08Z</time>
      </trkpt>
      <trkpt lat="49.19088" lon="6.96265">
        <ele>316</ele>
        <time>2010-12-05T08:03:10Z</time>
      </trkpt>
      <trkpt lat="49.19089" lon="6.96263">
        <ele>316</ele>
        <time>2010-12-05T08:03:11Z</time>
      </trkpt>
      <trkpt lat="49.1909" lon="6.96261">
        <ele>317</ele>
        <time>2010-12-05T08:03:12Z</time>
      </trkpt>
      <trkpt lat="49.19091" lon="6.96258">
        <ele>317</ele>
        <time>2010-12-05T08:03:14Z</time>
      </trkpt>
      <trkpt lat="49.19092" lon="6.96257">
        <ele>317</ele>
        <time>2010-12-05T08:03:15Z</time>
      </trkpt>
      <trkpt lat="49.19094" lon="6.96254">
        <ele>317</ele>
        <time>2010-12-05T08:03:17Z</time>
      </trkpt>
      <trkpt lat="49.19095" lon="6.96251">
        <ele>318</ele>
        <time>2010-12-05T08:03:19Z</time>
      </trkpt>
      <trkpt lat="49.19096" lon="6.96248">
        <ele>318</ele>
        <time>2010-12-05T08:03:21Z</time>
      </trkpt>
      <trkpt lat="49.19098" lon="6.96245">
        <ele>318</ele>
        <time>2010-12-05T08:03:23Z</time>
      </trkpt>
      <trkpt lat="49.19099" lon="6.96243">
        <ele>318</ele>
        <time>2010-12-05T08:03:25Z</time>
      </trkpt>
      <trkpt lat="49.19101" lon="6.9624">
        <ele>318</ele>
        <time>2010-12-05T08:03:27Z</time>
      </trkpt>
      <trkpt lat="49.19103" lon="6.96237">
        <ele>318</ele>
        <time>2010-12-05T08:03:29Z</time>
      </trkpt>
      <trkpt lat="49.19104" lon="6.96234">
        <ele>318</ele>
        <time>2010-12-05T08:03:31Z</time>
      </trkpt>
      <trkpt lat="49.19105" lon="6.96233">
        <ele>318</ele>
        <time>2010-12-05T08:03:32Z</time>
      </trkpt>
      <trkpt lat="49.19106" lon="6.96231">
        <ele>318</ele>
        <time>2010-12-05T08:03:33Z</time>
      </trkpt>
      <trkpt lat="49.19107" lon="6.96229">
        <ele>318</ele>
        <time>2010-12-05T08:03:34Z</time>
      </trkpt>
      <trkpt lat="49.19109" lon="6.96226">
        <ele>318</ele>
        <time>2010-12-05T08:03:36Z</time>
      </trkpt>
      <trkpt lat="49.1911" lon="6.96223">
        <ele>319</ele>
        <time>2010-12-05T08:03:38Z</time>
      </trkpt>
      <trkpt lat="49.19112" lon="6.9622">
        <ele>319</ele>
        <time>2010-12-05T08:03:40Z</time>
      </trkpt>
      <trkpt lat="49.19113" lon="6.96219">
        <ele>319</ele>
        <time>2010-12-05T08:03:41Z</time>
      </trkpt>
      <trkpt lat="49.19115" lon="6.96216">
        <ele>319</ele>
        <time>2010-12-05T08:03:43Z</time>
      </trkpt>
      <trkpt lat="49.19116" lon="6.96213">
        <ele>319</ele>
        <time>2010-12-05T08:03:45Z</time>
      </trkpt>
      <trkpt lat="49.19118" lon="6.9621">
        <ele>319</ele>
        <time>2010-12-05T08:03:47Z</time>
      </trkpt>
      <trkpt lat="49.1912" lon="6.96207">
        <ele>319</ele>
        <time>2010-12-05T08:03:49Z</time>
      </trkpt>
      <trkpt lat="49.19121" lon="6.96204">
        <ele>319</ele>
        <time>2010-12-05T08:03:51Z</time>
      </trkpt>
      <trkpt lat="49.19122" lon="6.96202">
        <ele>319</ele>
        <time>2010-12-05T08:03:53Z</time>
      </trkpt>
      <trkpt lat="49.19123" lon="6.962">
        <ele>319</ele>
        <time>2010-12-05T08:03:54Z</time>
      </trkpt>
      <trkpt lat="49.19124" lon="6.96198">
        <ele>319</ele>
        <time>2010-12-05T08:03:55Z</time>
      </trkpt>
      <trkpt lat="49.19125" lon="6.96197">
        <ele>319</ele>
        <time>2010-12-05T08:03:57Z</time>
      </trkpt>
      <trkpt lat="49.19126" lon="6.96193">
        <ele>319</ele>
        <time>2010-12-05T08:03:58Z</time>
      </trkpt>
      <trkpt lat="49.19127" lon="6.96192">
        <ele>319</ele>
        <time>2010-12-05T08:03:59Z</time>
      </trkpt>
      <trkpt lat="49.19127" lon="6.96189">
        <ele>319</ele>
        <time>2010-12-05T08:04:00Z</time>
      </trkpt>
      <trkpt lat="49.19127" lon="6.96187">
        <ele>319</ele>
        <time>2010-12-05T08:04:01Z</time>
      </trkpt>
      <trkpt lat="49.19126" lon="6.96186">
        <ele>319</ele>
        <time>2010-12-05T08:04:02Z</time>
      </trkpt>
      <trkpt lat="49.19125" lon="6.96184">
        <ele>319</ele>
        <time>2010-12-05T08:04:03Z</time>
      </trkpt>
      <trkpt lat="49.19124" lon="6.96181">
        <ele>319</ele>
        <time>2010-12-05T08:04:05Z</time>
      </trkpt>
      <trkpt lat="49.19122" lon="6.96178">
        <ele>319</ele>
        <time>2010-12-05T08:04:07Z</time>
      </trkpt>
      <trkpt lat="49.1912" lon="6.96176">
        <ele>319</ele>
        <time>2010-12-05T08:04:09Z</time>
      </trkpt>
      <trkpt lat="49.19118" lon="6.96174">
        <ele>319</ele>
        <time>2010-12-05T08:04:11Z</time>
      </trkpt>
      <trkpt lat="49.19116" lon="6.96172">
        <ele>319</ele>
        <time>2010-12-05T08:04:13Z</time>
      </trkpt>
      <trkpt lat="49.19115" lon="6.96171">
        <ele>319</ele>
        <time>2010-12-05T08:04:14Z</time>
      </trkpt>
      <trkpt lat="49.19114" lon="6.96169">
        <ele>319</ele>
        <time>2010-12-05T08:04:16Z</time>
      </trkpt>
      <trkpt lat="49.19112" lon="6.96167">
        <ele>319</ele>
        <time>2010-12-05T08:04:18Z</time>
      </trkpt>
      <trkpt lat="49.1911" lon="6.96165">
        <ele>319</ele>
        <time>2010-12-05T08:04:20Z</time>
      </trkpt>
      <trkpt lat="49.19108" lon="6.96163">
        <ele>319</ele>
        <time>2010-12-05T08:04:22Z</time>
      </trkpt>
      <trkpt lat="49.19107" lon="6.96161">
        <ele>320</ele>
        <time>2010-12-05T08:04:24Z</time>
      </trkpt>
      <trkpt lat="49.19105" lon="6.96159">
        <ele>320</ele>
        <time>2010-12-05T08:04:26Z</time>
      </trkpt>
      <trkpt lat="49.19103" lon="6.96157">
        <ele>320</ele>
        <time>2010-12-05T08:04:28Z</time>
      </trkpt>
      <trkpt lat="49.19101" lon="6.96155">
        <ele>320</ele>
        <time>2010-12-05T08:04:30Z</time>
      </trkpt>
      <trkpt lat="49.191" lon="6.96152">
        <ele>321</ele>
        <time>2010-12-05T08:04:32Z</time>
      </trkpt>
      <trkpt lat="49.19098" lon="6.9615">
        <ele>321</ele>
        <time>2010-12-05T08:04:34Z</time>
      </trkpt>
      <trkpt lat="49.19097" lon="6.96148">
        <ele>322</ele>
        <time>2010-12-05T08:04:36Z</time>
      </trkpt>
      <trkpt lat="49.19095" lon="6.96145">
        <ele>322</ele>
        <time>2010-12-05T08:04:38Z</time>
      </trkpt>
      <trkpt lat="49.19094" lon="6.96142">
        <ele>323</ele>
        <time>2010-12-05T08:04:40Z</time>
      </trkpt>
      <trkpt lat="49.19093" lon="6.9614">
        <ele>323</ele>
        <time>2010-12-05T08:04:42Z</time>
      </trkpt>
      <trkpt lat="49.19091" lon="6.96137">
        <ele>323</ele>
        <time>2010-12-05T08:04:44Z</time>
      </trkpt>
      <trkpt lat="49.19091" lon="6.96134">
        <ele>323</ele>
        <time>2010-12-05T08:04:46Z</time>
      </trkpt>
      <trkpt lat="49.1909" lon="6.96131">
        <ele>323</ele>
        <time>2010-12-05T08:04:48Z</time>
      </trkpt>
      <trkpt lat="49.19089" lon="6.96129">
        <ele>323</ele>
        <time>2010-12-05T08:04:49Z</time>
      </trkpt>
      <trkpt lat="49.19088" lon="6.96126">
        <ele>323</ele>
        <time>2010-12-05T08:04:51Z</time>
      </trkpt>
      <trkpt lat="49.19086" lon="6.96123">
        <ele>324</ele>
        <time>2010-12-05T08:04:53Z</time>
      </trkpt>
      <trkpt lat="49.19085" lon="6.96121">
        <ele>324</ele>
        <time>2010-12-05T08:04:55Z</time>
      </trkpt>
      <trkpt lat="49.19084" lon="6.96118">
        <ele>325</ele>
        <time>2010-12-05T08:04:57Z</time>
      </trkpt>
      <trkpt lat="49.19083" lon="6.96115">
        <ele>325</ele>
        <time>2010-12-05T08:04:59Z</time>
      </trkpt>
      <trkpt lat="49.19081" lon="6.96112">
        <ele>326</ele>
        <time>2010-12-05T08:05:01Z</time>
      </trkpt>
      <trkpt lat="49.1908" lon="6.96111">
        <ele>326</ele>
        <time>2010-12-05T08:05:02Z</time>
      </trkpt>
      <trkpt lat="49.19079" lon="6.96108">
        <ele>327</ele>
        <time>2010-12-05T08:05:04Z</time>
      </trkpt>
      <trkpt lat="49.19078" lon="6.96105">
        <ele>327</ele>
        <time>2010-12-05T08:05:06Z</time>
      </trkpt>
      <trkpt lat="49.19077" lon="6.96102">
        <ele>328</ele>
        <time>2010-12-05T08:05:08Z</time>
      </trkpt>
      <trkpt lat="49.19075" lon="6.96099">
        <ele>328</ele>
        <time>2010-12-05T08:05:10Z</time>
      </trkpt>
      <trkpt lat="49.19074" lon="6.96097">
        <ele>328</ele>
        <time>2010-12-05T08:05:12Z</time>
      </trkpt>
      <trkpt lat="49.19072" lon="6.96094">
        <ele>328</ele>
        <time>2010-12-05T08:05:14Z</time>
      </trkpt>
      <trkpt lat="49.19071" lon="6.96091">
        <ele>329</ele>
        <time>2010-12-05T08:05:16Z</time>
      </trkpt>
      <trkpt lat="49.19069" lon="6.96089">
        <ele>330</ele>
        <time>2010-12-05T08:05:18Z</time>
      </trkpt>
      <trkpt lat="49.19068" lon="6.96086">
        <ele>330</ele>
        <time>2010-12-05T08:05:20Z</time>
      </trkpt>
      <trkpt lat="49.19066" lon="6.96083">
        <ele>331</ele>
        <time>2010-12-05T08:05:22Z</time>
      </trkpt>
      <trkpt lat="49.19064" lon="6.96081">
        <ele>331</ele>
        <time>2010-12-05T08:05:24Z</time>
      </trkpt>
      <trkpt lat="49.19062" lon="6.96079">
        <ele>331</ele>
        <time>2010-12-05T08:05:26Z</time>
      </trkpt>
      <trkpt lat="49.1906" lon="6.96076">
        <ele>331</ele>
        <time>2010-12-05T08:05:28Z</time>
      </trkpt>
      <trkpt lat="49.19058" lon="6.96074">
        <ele>331</ele>
        <time>2010-12-05T08:05:30Z</time>
      </trkpt>
      <trkpt lat="49.19056" lon="6.96071">
        <ele>331</ele>
        <time>2010-12-05T08:05:32Z</time>
      </trkpt>
      <trkpt lat="49.19054" lon="6.96069">
        <ele>331</ele>
        <time>2010-12-05T08:05:34Z</time>
      </trkpt>
      <trkpt lat="49.19052" lon="6.96067">
        <ele>331</ele>
        <time>2010-12-05T08:05:36Z</time>
      </trkpt>
      <trkpt lat="49.1905" lon="6.96066">
        <ele>331</ele>
        <time>2010-12-05T08:05:38Z</time>
      </trkpt>
      <trkpt lat="49.19048" lon="6.96063">
        <ele>331</ele>
        <time>2010-12-05T08:05:40Z</time>
      </trkpt>
      <trkpt lat="49.19046" lon="6.96061">
        <ele>331</ele>
        <time>2010-12-05T08:05:42Z</time>
      </trkpt>
      <trkpt lat="49.19044" lon="6.96059">
        <ele>331</ele>
        <time>2010-12-05T08:05:44Z</time>
      </trkpt>
      <trkpt lat="49.19043" lon="6.96058">
        <ele>331</ele>
        <time>2010-12-05T08:05:45Z</time>
      </trkpt>
      <trkpt lat="49.19041" lon="6.96057">
        <ele>331</ele>
        <time>2010-12-05T08:05:46Z</time>
      </trkpt>
      <trkpt lat="49.1904" lon="6.96055">
        <ele>331</ele>
        <time>2010-12-05T08:05:48Z</time>
      </trkpt>
      <trkpt lat="49.19038" lon="6.96053">
        <ele>331</ele>
        <time>2010-12-05T08:05:50Z</time>
      </trkpt>
      <trkpt lat="49.19036" lon="6.96052">
        <ele>331</ele>
        <time>2010-12-05T08:05:51Z</time>
      </trkpt>
      <trkpt lat="49.19034" lon="6.9605">
        <ele>331</ele>
        <time>2010-12-05T08:05:53Z</time>
      </trkpt>
      <trkpt lat="49.19032" lon="6.96048">
        <ele>331</ele>
        <time>2010-12-05T08:05:55Z</time>
      </trkpt>
      <trkpt lat="49.1903" lon="6.96046">
        <ele>331</ele>
        <time>2010-12-05T08:05:57Z</time>
      </trkpt>
      <trkpt lat="49.19028" lon="6.96044">
        <ele>331</ele>
        <time>2010-12-05T08:05:59Z</time>
      </trkpt>
      <trkpt lat="49.19026" lon="6.96042">
        <ele>332</ele>
        <time>2010-12-05T08:06:01Z</time>
      </trkpt>
      <trkpt lat="49.19025" lon="6.9604">
        <ele>332</ele>
        <time>2010-12-05T08:06:02Z</time>
      </trkpt>
      <trkpt lat="49.19023" lon="6.96039">
        <ele>332</ele>
        <time>2010-12-05T08:06:04Z</time>
      </trkpt>
      <trkpt lat="49.19022" lon="6.96038">
        <ele>332</ele>
        <time>2010-12-05T08:06:05Z</time>
      </trkpt>
      <trkpt lat="49.19021" lon="6.96037">
        <ele>332</ele>
        <time>2010-12-05T08:06:06Z</time>
      </trkpt>
      <trkpt lat="49.19019" lon="6.96035">
        <ele>332</ele>
        <time>2010-12-05T08:06:08Z</time>
      </trkpt>
      <trkpt lat="49.19018" lon="6.96034">
        <ele>332</ele>
        <time>2010-12-05T08:06:09Z</time>
      </trkpt>
      <trkpt lat="49.19016" lon="6.96032">
        <ele>332</ele>
        <time>2010-12-05T08:06:11Z</time>
      </trkpt>
      <trkpt lat="49.19014" lon="6.96029">
        <ele>332</ele>
        <time>2010-12-05T08:06:13Z</time>
      </trkpt>
      <trkpt lat="49.19012" lon="6.96028">
        <ele>332</ele>
        <time>2010-12-05T08:06:14Z</time>
      </trkpt>
      <trkpt lat="49.19011" lon="6.96027">
        <ele>333</ele>
        <time>2010-12-05T08:06:15Z</time>
      </trkpt>
      <trkpt lat="49.19009" lon="6.96025">
        <ele>333</ele>
        <time>2010-12-05T08:06:17Z</time>
      </trkpt>
      <trkpt lat="49.19007" lon="6.96023">
        <ele>333</ele>
        <time>2010-12-05T08:06:19Z</time>
      </trkpt>
      <trkpt lat="49.19005" lon="6.96021">
        <ele>333</ele>
        <time>2010-12-05T08:06:21Z</time>
      </trkpt>
      <trkpt lat="49.19004" lon="6.9602">
        <ele>334</ele>
        <time>2010-12-05T08:06:22Z</time>
      </trkpt>
      <trkpt lat="49.19003" lon="6.96018">
        <ele>334</ele>
        <time>2010-12-05T08:06:23Z</time>
      </trkpt>
      <trkpt lat="49.19001" lon="6.96016">
        <ele>334</ele>
        <time>2010-12-05T08:06:25Z</time>
      </trkpt>
      <trkpt lat="49.18999" lon="6.96014">
        <ele>334</ele>
        <time>2010-12-05T08:06:27Z</time>
      </trkpt>
      <trkpt lat="49.18996" lon="6.96012">
        <ele>334</ele>
        <time>2010-12-05T08:06:29Z</time>
      </trkpt>
      <trkpt lat="49.18995" lon="6.9601">
        <ele>334</ele>
        <time>2010-12-05T08:06:31Z</time>
      </trkpt>
      <trkpt lat="49.18993" lon="6.96008">
        <ele>334</ele>
        <time>2010-12-05T08:06:33Z</time>
      </trkpt>
      <trkpt lat="49.18991" lon="6.96006">
        <ele>334</ele>
        <time>2010-12-05T08:06:35Z</time>
      </trkpt>
      <trkpt lat="49.1899" lon="6.96005">
        <ele>334</ele>
        <time>2010-12-05T08:06:36Z</time>
      </trkpt>
      <trkpt lat="49.18988" lon="6.96003">
        <ele>335</ele>
        <time>2010-12-05T08:06:37Z</time>
      </trkpt>
      <trkpt lat="49.18986" lon="6.96001">
        <ele>335</ele>
        <time>2010-12-05T08:06:39Z</time>
      </trkpt>
      <trkpt lat="49.18984" lon="6.96">
        <ele>335</ele>
        <time>2010-12-05T08:06:41Z</time>
      </trkpt>
      <trkpt lat="49.18982" lon="6.95997">
        <ele>335</ele>
        <time>2010-12-05T08:06:43Z</time>
      </trkpt>
      <trkpt lat="49.18981" lon="6.95996">
        <ele>335</ele>
        <time>2010-12-05T08:06:44Z</time>
      </trkpt>
      <trkpt lat="49.18979" lon="6.95994">
        <ele>335</ele>
        <time>2010-12-05T08:06:46Z</time>
      </trkpt>
      <trkpt lat="49.18977" lon="6.95993">
        <ele>336</ele>
        <time>2010-12-05T08:06:48Z</time>
      </trkpt>
      <trkpt lat="49.18975" lon="6.95991">
        <ele>336</ele>
        <time>2010-12-05T08:06:50Z</time>
      </trkpt>
      <trkpt lat="49.18973" lon="6.95988">
        <ele>336</ele>
        <time>2010-12-05T08:06:52Z</time>
      </trkpt>
      <trkpt lat="49.18971" lon="6.95986">
        <ele>336</ele>
        <time>2010-12-05T08:06:54Z</time>
      </trkpt>
      <trkpt lat="49.18969" lon="6.95984">
        <ele>336</ele>
        <time>2010-12-05T08:06:56Z</time>
      </trkpt>
      <trkpt lat="49.18967" lon="6.95982">
        <ele>336</ele>
        <time>2010-12-05T08:06:58Z</time>
      </trkpt>
      <trkpt lat="49.18966" lon="6.95981">
        <ele>336</ele>
        <time>2010-12-05T08:06:59Z</time>
      </trkpt>
      <trkpt lat="49.18964" lon="6.95979">
        <ele>336</ele>
        <time>2010-12-05T08:07:01Z</time>
      </trkpt>
      <trkpt lat="49.18962" lon="6.95977">
        <ele>336</ele>
        <time>2010-12-05T08:07:03Z</time>
      </trkpt>
      <trkpt lat="49.1896" lon="6.95975">
        <ele>336</ele>
        <time>2010-12-05T08:07:05Z</time>
      </trkpt>
      <trkpt lat="49.18958" lon="6.95972">
        <ele>336</ele>
        <time>2010-12-05T08:07:07Z</time>
      </trkpt>
      <trkpt lat="49.18957" lon="6.95972">
        <ele>336</ele>
        <time>2010-12-05T08:07:08Z</time>
      </trkpt>
      <trkpt lat="49.18955" lon="6.95969">
        <ele>336</ele>
        <time>2010-12-05T08:07:10Z</time>
      </trkpt>
      <trkpt lat="49.18953" lon="6.95968">
        <ele>336</ele>
        <time>2010-12-05T08:07:12Z</time>
      </trkpt>
      <trkpt lat="49.18951" lon="6.95966">
        <ele>336</ele>
        <time>2010-12-05T08:07:14Z</time>
      </trkpt>
      <trkpt lat="49.18949" lon="6.95964">
        <ele>336</ele>
        <time>2010-12-05T08:07:16Z</time>
      </trkpt>
      <trkpt lat="49.18948" lon="6.95963">
        <ele>336</ele>
        <time>2010-12-05T08:07:17Z</time>
      </trkpt>
      <trkpt lat="49.18946" lon="6.9596">
        <ele>336</ele>
        <time>2010-12-05T08:07:19Z</time>
      </trkpt>
      <trkpt lat="49.18944" lon="6.95958">
        <ele>336</ele>
        <time>2010-12-05T08:07:21Z</time>
      </trkpt>
      <trkpt lat="49.18942" lon="6.95956">
        <ele>336</ele>
        <time>2010-12-05T08:07:23Z</time>
      </trkpt>
      <trkpt lat="49.1894" lon="6.95955">
        <ele>336</ele>
        <time>2010-12-05T08:07:25Z</time>
      </trkpt>
      <trkpt lat="49.18938" lon="6.95952">
        <ele>336</ele>
        <time>2010-12-05T08:07:27Z</time>
      </trkpt>
      <trkpt lat="49.18937" lon="6.9595">
        <ele>336</ele>
        <time>2010-12-05T08:07:29Z</time>
      </trkpt>
      <trkpt lat="49.18935" lon="6.95949">
        <ele>336</ele>
        <time>2010-12-05T08:07:32Z</time>
      </trkpt>
      <trkpt lat="49.18934" lon="6.95948">
        <ele>336</ele>
        <time>2010-12-05T08:07:32Z</time>
      </trkpt>
      <trkpt lat="49.18932" lon="6.95947">
        <ele>336</ele>
        <time>2010-12-05T08:07:34Z</time>
      </trkpt>
      <trkpt lat="49.1893" lon="6.95948">
        <ele>336</ele>
        <time>2010-12-05T08:07:36Z</time>
      </trkpt>
      <trkpt lat="49.18928" lon="6.9595">
        <ele>337</ele>
        <time>2010-12-05T08:07:38Z</time>
      </trkpt>
      <trkpt lat="49.18926" lon="6.95952">
        <ele>337</ele>
        <time>2010-12-05T08:07:40Z</time>
      </trkpt>
      <trkpt lat="49.18924" lon="6.95955">
        <ele>337</ele>
        <time>2010-12-05T08:07:42Z</time>
      </trkpt>
      <trkpt lat="49.18923" lon="6.95957">
        <ele>337</ele>
        <time>2010-12-05T08:07:44Z</time>
      </trkpt>
      <trkpt lat="49.18922" lon="6.95961">
        <ele>337</ele>
        <time>2010-12-05T08:07:46Z</time>
      </trkpt>
      <trkpt lat="49.18921" lon="6.95962">
        <ele>337</ele>
        <time>2010-12-05T08:07:47Z</time>
      </trkpt>
      <trkpt lat="49.1892" lon="6.95965">
        <ele>337</ele>
        <time>2010-12-05T08:07:49Z</time>
      </trkpt>
      <trkpt lat="49.18919" lon="6.95968">
        <ele>337</ele>
        <time>2010-12-05T08:07:51Z</time>
      </trkpt>
      <trkpt lat="49.18919" lon="6.9597">
        <ele>337</ele>
        <time>2010-12-05T08:07:52Z</time>
      </trkpt>
      <trkpt lat="49.18918" lon="6.95971">
        <ele>337</ele>
        <time>2010-12-05T08:07:53Z</time>
      </trkpt>
      <trkpt lat="49.18917" lon="6.95973">
        <ele>337</ele>
        <time>2010-12-05T08:07:54Z</time>
      </trkpt>
      <trkpt lat="49.18917" lon="6.95975">
        <ele>337</ele>
        <time>2010-12-05T08:07:55Z</time>
      </trkpt>
      <trkpt lat="49.18916" lon="6.95978">
        <ele>337</ele>
        <time>2010-12-05T08:07:57Z</time>
      </trkpt>
      <trkpt lat="49.18914" lon="6.95981">
        <ele>337</ele>
        <time>2010-12-05T08:07:59Z</time>
      </trkpt>
      <trkpt lat="49.18913" lon="6.95983">
        <ele>337</ele>
        <time>2010-12-05T08:08:00Z</time>
      </trkpt>
      <trkpt lat="49.18913" lon="6.95985">
        <ele>338</ele>
        <time>2010-12-05T08:08:01Z</time>
      </trkpt>
      <trkpt lat="49.18912" lon="6.95986">
        <ele>338</ele>
        <time>2010-12-05T08:08:02Z</time>
      </trkpt>
      <trkpt lat="49.1891" lon="6.95989">
        <ele>338</ele>
        <time>2010-12-05T08:08:04Z</time>
      </trkpt>
      <trkpt lat="49.18908" lon="6.95991">
        <ele>338</ele>
        <time>2010-12-05T08:08:06Z</time>
      </trkpt>
      <trkpt lat="49.18906" lon="6.95993">
        <ele>338</ele>
        <time>2010-12-05T08:08:08Z</time>
      </trkpt>
      <trkpt lat="49.18904" lon="6.95995">
        <ele>338</ele>
        <time>2010-12-05T08:08:10Z</time>
      </trkpt>
      <trkpt lat="49.18902" lon="6.95996">
        <ele>338</ele>
        <time>2010-12-05T08:08:12Z</time>
      </trkpt>
      <trkpt lat="49.18901" lon="6.95996">
        <ele>338</ele>
        <time>2010-12-05T08:08:13Z</time>
      </trkpt>
      <trkpt lat="49.189" lon="6.95996">
        <ele>338</ele>
        <time>2010-12-05T08:08:14Z</time>
      </trkpt>
      <trkpt lat="49.18898" lon="6.95996">
        <ele>338</ele>
        <time>2010-12-05T08:08:15Z</time>
      </trkpt>
      <trkpt lat="49.18896" lon="6.95995">
        <ele>338</ele>
        <time>2010-12-05T08:08:17Z</time>
      </trkpt>
      <trkpt lat="49.18895" lon="6.95994">
        <ele>338</ele>
        <time>2010-12-05T08:08:18Z</time>
      </trkpt>
      <trkpt lat="49.18893" lon="6.95992">
        <ele>338</ele>
        <time>2010-12-05T08:08:20Z</time>
      </trkpt>
      <trkpt lat="49.18892" lon="6.95991">
        <ele>338</ele>
        <time>2010-12-05T08:08:21Z</time>
      </trkpt>
      <trkpt lat="49.1889" lon="6.9599">
        <ele>338</ele>
        <time>2010-12-05T08:08:23Z</time>
      </trkpt>
      <trkpt lat="49.18888" lon="6.95988">
        <ele>338</ele>
        <time>2010-12-05T08:08:25Z</time>
      </trkpt>
      <trkpt lat="49.18887" lon="6.95987">
        <ele>338</ele>
        <time>2010-12-05T08:08:26Z</time>
      </trkpt>
      <trkpt lat="49.18885" lon="6.95986">
        <ele>338</ele>
        <time>2010-12-05T08:08:27Z</time>
      </trkpt>
      <trkpt lat="49.18884" lon="6.95985">
        <ele>338</ele>
        <time>2010-12-05T08:08:28Z</time>
      </trkpt>
      <trkpt lat="49.18882" lon="6.95983">
        <ele>338</ele>
        <time>2010-12-05T08:08:30Z</time>
      </trkpt>
      <trkpt lat="49.1888" lon="6.95981">
        <ele>338</ele>
        <time>2010-12-05T08:08:32Z</time>
      </trkpt>
      <trkpt lat="49.18879" lon="6.95981">
        <ele>338</ele>
        <time>2010-12-05T08:08:33Z</time>
      </trkpt>
      <trkpt lat="49.18878" lon="6.95979">
        <ele>338</ele>
        <time>2010-12-05T08:08:34Z</time>
      </trkpt>
      <trkpt lat="49.18876" lon="6.95978">
        <ele>338</ele>
        <time>2010-12-05T08:08:36Z</time>
      </trkpt>
      <trkpt lat="49.18874" lon="6.95976">
        <ele>338</ele>
        <time>2010-12-05T08:08:38Z</time>
      </trkpt>
      <trkpt lat="49.18872" lon="6.95975">
        <ele>338</ele>
        <time>2010-12-05T08:08:39Z</time>
      </trkpt>
      <trkpt lat="49.18871" lon="6.95974">
        <ele>338</ele>
        <time>2010-12-05T08:08:40Z</time>
      </trkpt>
      <trkpt lat="49.1887" lon="6.95973">
        <ele>338</ele>
        <time>2010-12-05T08:08:41Z</time>
      </trkpt>
      <trkpt lat="49.18868" lon="6.95972">
        <ele>338</ele>
        <time>2010-12-05T08:08:42Z</time>
      </trkpt>
      <trkpt lat="49.18867" lon="6.95971">
        <ele>338</ele>
        <time>2010-12-05T08:08:43Z</time>
      </trkpt>
      <trkpt lat="49.18865" lon="6.95969">
        <ele>338</ele>
        <time>2010-12-05T08:08:45Z</time>
      </trkpt>
      <trkpt lat="49.18863" lon="6.95967">
        <ele>338</ele>
        <time>2010-12-05T08:08:47Z</time>
      </trkpt>
      <trkpt lat="49.18862" lon="6.95966">
        <ele>338</ele>
        <time>2010-12-05T08:08:48Z</time>
      </trkpt>
      <trkpt lat="49.18861" lon="6.95965">
        <ele>338</ele>
        <time>2010-12-05T08:08:49Z</time>
      </trkpt>
      <trkpt lat="49.18858" lon="6.95963">
        <ele>338</ele>
        <time>2010-12-05T08:08:51Z</time>
      </trkpt>
      <trkpt lat="49.18856" lon="6.95962">
        <ele>338</ele>
        <time>2010-12-05T08:08:53Z</time>
      </trkpt>
      <trkpt lat="49.18855" lon="6.95961">
        <ele>338</ele>
        <time>2010-12-05T08:08:54Z</time>
      </trkpt>
      <trkpt lat="49.18853" lon="6.9596">
        <ele>338</ele>
        <time>2010-12-05T08:08:56Z</time>
      </trkpt>
      <trkpt lat="49.18852" lon="6.95959">
        <ele>338</ele>
        <time>2010-12-05T08:08:57Z</time>
      </trkpt>
      <trkpt lat="49.1885" lon="6.95958">
        <ele>338</ele>
        <time>2010-12-05T08:08:59Z</time>
      </trkpt>
      <trkpt lat="49.18848" lon="6.95956">
        <ele>338</ele>
        <time>2010-12-05T08:09:01Z</time>
      </trkpt>
      <trkpt lat="49.18846" lon="6.95955">
        <ele>339</ele>
        <time>2010-12-05T08:09:03Z</time>
      </trkpt>
      <trkpt lat="49.18844" lon="6.95954">
        <ele>339</ele>
        <time>2010-12-05T08:09:05Z</time>
      </trkpt>
      <trkpt lat="49.18842" lon="6.95952">
        <ele>340</ele>
        <time>2010-12-05T08:09:07Z</time>
      </trkpt>
      <trkpt lat="49.1884" lon="6.95951">
        <ele>340</ele>
        <time>2010-12-05T08:09:09Z</time>
      </trkpt>
      <trkpt lat="49.18837" lon="6.95949">
        <ele>340</ele>
        <time>2010-12-05T08:09:11Z</time>
      </trkpt>
      <trkpt lat="49.18836" lon="6.95948">
        <ele>341</ele>
        <time>2010-12-05T08:09:13Z</time>
      </trkpt>
      <trkpt lat="49.18834" lon="6.95946">
        <ele>341</ele>
        <time>2010-12-05T08:09:15Z</time>
      </trkpt>
      <trkpt lat="49.18833" lon="6.95945">
        <ele>341</ele>
        <time>2010-12-05T08:09:16Z</time>
      </trkpt>
      <trkpt lat="49.18831" lon="6.95944">
        <ele>341</ele>
        <time>2010-12-05T08:09:17Z</time>
      </trkpt>
      <trkpt lat="49.1883" lon="6.95943">
        <ele>341</ele>
        <time>2010-12-05T08:09:18Z</time>
      </trkpt>
      <trkpt lat="49.18828" lon="6.95941">
        <ele>341</ele>
        <time>2010-12-05T08:09:20Z</time>
      </trkpt>
      <trkpt lat="49.18827" lon="6.95938">
        <ele>341</ele>
        <time>2010-12-05T08:09:22Z</time>
      </trkpt>
      <trkpt lat="49.18825" lon="6.95935">
        <ele>341</ele>
        <time>2010-12-05T08:09:24Z</time>
      </trkpt>
      <trkpt lat="49.18824" lon="6.95932">
        <ele>341</ele>
        <time>2010-12-05T08:09:26Z</time>
      </trkpt>
      <trkpt lat="49.18823" lon="6.95931">
        <ele>341</ele>
        <time>2010-12-05T08:09:27Z</time>
      </trkpt>
      <trkpt lat="49.18822" lon="6.95929">
        <ele>341</ele>
        <time>2010-12-05T08:09:28Z</time>
      </trkpt>
      <trkpt lat="49.18821" lon="6.95926">
        <ele>341</ele>
        <time>2010-12-05T08:09:30Z</time>
      </trkpt>
      <trkpt lat="49.1882" lon="6.95923">
        <ele>342</ele>
        <time>2010-12-05T08:09:32Z</time>
      </trkpt>
      <trkpt lat="49.18819" lon="6.9592">
        <ele>342</ele>
        <time>2010-12-05T08:09:34Z</time>
      </trkpt>
      <trkpt lat="49.18819" lon="6.95918">
        <ele>342</ele>
        <time>2010-12-05T08:09:35Z</time>
      </trkpt>
      <trkpt lat="49.18818" lon="6.95916">
        <ele>342</ele>
        <time>2010-12-05T08:09:36Z</time>
      </trkpt>
      <trkpt lat="49.18817" lon="6.95914">
        <ele>342</ele>
        <time>2010-12-05T08:09:38Z</time>
      </trkpt>
      <trkpt lat="49.18817" lon="6.95911">
        <ele>342</ele>
        <time>2010-12-05T08:09:40Z</time>
      </trkpt>
      <trkpt lat="49.18818" lon="6.95908">
        <ele>342</ele>
        <time>2010-12-05T08:09:42Z</time>
      </trkpt>
      <trkpt lat="49.18819" lon="6.95906">
        <ele>342</ele>
        <time>2010-12-05T08:09:44Z</time>
      </trkpt>
      <trkpt lat="49.1882" lon="6.95903">
        <ele>342</ele>
        <time>2010-12-05T08:09:46Z</time>
      </trkpt>
      <trkpt lat="49.18821" lon="6.95901">
        <ele>342</ele>
        <time>2010-12-05T08:09:48Z</time>
      </trkpt>
      <trkpt lat="49.18823" lon="6.95898">
        <ele>342</ele>
        <time>2010-12-05T08:09:50Z</time>
      </trkpt>
      <trkpt lat="49.18824" lon="6.95895">
        <ele>342</ele>
        <time>2010-12-05T08:09:52Z</time>
      </trkpt>
      <trkpt lat="49.18825" lon="6.95893">
        <ele>342</ele>
        <time>2010-12-05T08:09:54Z</time>
      </trkpt>
      <trkpt lat="49.18826" lon="6.9589">
        <ele>342</ele>
        <time>2010-12-05T08:09:56Z</time>
      </trkpt>
      <trkpt lat="49.18827" lon="6.95889">
        <ele>342</ele>
        <time>2010-12-05T08:09:57Z</time>
      </trkpt>
      <trkpt lat="49.18827" lon="6.95887">
        <ele>342</ele>
        <time>2010-12-05T08:09:58Z</time>
      </trkpt>
      <trkpt lat="49.18829" lon="6.95884">
        <ele>342</ele>
        <time>2010-12-05T08:10:00Z</time>
      </trkpt>
      <trkpt lat="49.18829" lon="6.95881">
        <ele>342</ele>
        <time>2010-12-05T08:10:02Z</time>
      </trkpt>
      <trkpt lat="49.1883" lon="6.9588">
        <ele>342</ele>
        <time>2010-12-05T08:10:03Z</time>
      </trkpt>
      <trkpt lat="49.1883" lon="6.95878">
        <ele>342</ele>
        <time>2010-12-05T08:10:04Z</time>
      </trkpt>
      <trkpt lat="49.18831" lon="6.95875">
        <ele>342</ele>
        <time>2010-12-05T08:10:06Z</time>
      </trkpt>
      <trkpt lat="49.18832" lon="6.95872">
        <ele>342</ele>
        <time>2010-12-05T08:10:08Z</time>
      </trkpt>
      <trkpt lat="49.18832" lon="6.9587">
        <ele>342</ele>
        <time>2010-12-05T08:10:10Z</time>
      </trkpt>
      <trkpt lat="49.18833" lon="6.95868">
        <ele>342</ele>
        <time>2010-12-05T08:10:12Z</time>
      </trkpt>
      <trkpt lat="49.18834" lon="6.95865">
        <ele>342</ele>
        <time>2010-12-05T08:10:15Z</time>
      </trkpt>
      <trkpt lat="49.18835" lon="6.95863">
        <ele>342</ele>
        <time>2010-12-05T08:10:17Z</time>
      </trkpt>
      <trkpt lat="49.18836" lon="6.9586">
        <ele>342</ele>
        <time>2010-12-05T08:10:19Z</time>
      </trkpt>
      <trkpt lat="49.18836" lon="6.95858">
        <ele>342</ele>
        <time>2010-12-05T08:10:20Z</time>
      </trkpt>
      <trkpt lat="49.18837" lon="6.95856">
        <ele>342</ele>
        <time>2010-12-05T08:10:22Z</time>
      </trkpt>
      <trkpt lat="49.18839" lon="6.95853">
        <ele>342</ele>
        <time>2010-12-05T08:10:24Z</time>
      </trkpt>
      <trkpt lat="49.1884" lon="6.9585">
        <ele>342</ele>
        <time>2010-12-05T08:10:26Z</time>
      </trkpt>
      <trkpt lat="49.1884" lon="6.95848">
        <ele>342</ele>
        <time>2010-12-05T08:10:27Z</time>
      </trkpt>
      <trkpt lat="49.18841" lon="6.95847">
        <ele>342</ele>
        <time>2010-12-05T08:10:28Z</time>
      </trkpt>
      <trkpt lat="49.18841" lon="6.95845">
        <ele>342</ele>
        <time>2010-12-05T08:10:29Z</time>
      </trkpt>
      <trkpt lat="49.18842" lon="6.95842">
        <ele>342</ele>
        <time>2010-12-05T08:10:31Z</time>
      </trkpt>
      <trkpt lat="49.18843" lon="6.95838">
        <ele>342</ele>
        <time>2010-12-05T08:10:33Z</time>
      </trkpt>
      <trkpt lat="49.18844" lon="6.95835">
        <ele>342</ele>
        <time>2010-12-05T08:10:35Z</time>
      </trkpt>
      <trkpt lat="49.18845" lon="6.95832">
        <ele>342</ele>
        <time>2010-12-05T08:10:37Z</time>
      </trkpt>
      <trkpt lat="49.18846" lon="6.9583">
        <ele>342</ele>
        <time>2010-12-05T08:10:38Z</time>
      </trkpt>
      <trkpt lat="49.18847" lon="6.95829">
        <ele>342</ele>
        <time>2010-12-05T08:10:39Z</time>
      </trkpt>
      <trkpt lat="49.18847" lon="6.95827">
        <ele>342</ele>
        <time>2010-12-05T08:10:40Z</time>
      </trkpt>
      <trkpt lat="49.18848" lon="6.95825">
        <ele>342</ele>
        <time>2010-12-05T08:10:41Z</time>
      </trkpt>
      <trkpt lat="49.18849" lon="6.95822">
        <ele>342</ele>
        <time>2010-12-05T08:10:43Z</time>
      </trkpt>
      <trkpt lat="49.1885" lon="6.95819">
        <ele>342</ele>
        <time>2010-12-05T08:10:45Z</time>
      </trkpt>
      <trkpt lat="49.18851" lon="6.95817">
        <ele>342</ele>
        <time>2010-12-05T08:10:47Z</time>
      </trkpt>
      <trkpt lat="49.18852" lon="6.95814">
        <ele>342</ele>
        <time>2010-12-05T08:10:49Z</time>
      </trkpt>
      <trkpt lat="49.18852" lon="6.95812">
        <ele>342</ele>
        <time>2010-12-05T08:10:50Z</time>
      </trkpt>
      <trkpt lat="49.18853" lon="6.9581">
        <ele>342</ele>
        <time>2010-12-05T08:10:51Z</time>
      </trkpt>
      <trkpt lat="49.18853" lon="6.95808">
        <ele>342</ele>
        <time>2010-12-05T08:10:52Z</time>
      </trkpt>
      <trkpt lat="49.18854" lon="6.95807">
        <ele>342</ele>
        <time>2010-12-05T08:10:53Z</time>
      </trkpt>
      <trkpt lat="49.18855" lon="6.95803">
        <ele>342</ele>
        <time>2010-12-05T08:10:55Z</time>
      </trkpt>
      <trkpt lat="49.18856" lon="6.95801">
        <ele>341</ele>
        <time>2010-12-05T08:10:57Z</time>
      </trkpt>
      <trkpt lat="49.18858" lon="6.95798">
        <ele>341</ele>
        <time>2010-12-05T08:10:59Z</time>
      </trkpt>
      <trkpt lat="49.18858" lon="6.95796">
        <ele>341</ele>
        <time>2010-12-05T08:11:00Z</time>
      </trkpt>
      <trkpt lat="49.18859" lon="6.95793">
        <ele>341</ele>
        <time>2010-12-05T08:11:02Z</time>
      </trkpt>
      <trkpt lat="49.1886" lon="6.9579">
        <ele>340</ele>
        <time>2010-12-05T08:11:04Z</time>
      </trkpt>
      <trkpt lat="49.18861" lon="6.95788">
        <ele>340</ele>
        <time>2010-12-05T08:11:05Z</time>
      </trkpt>
      <trkpt lat="49.18861" lon="6.95787">
        <ele>340</ele>
        <time>2010-12-05T08:11:06Z</time>
      </trkpt>
      <trkpt lat="49.18862" lon="6.95785">
        <ele>340</ele>
        <time>2010-12-05T08:11:07Z</time>
      </trkpt>
      <trkpt lat="49.18862" lon="6.95783">
        <ele>340</ele>
        <time>2010-12-05T08:11:08Z</time>
      </trkpt>
      <trkpt lat="49.18863" lon="6.95782">
        <ele>340</ele>
        <time>2010-12-05T08:11:09Z</time>
      </trkpt>
      <trkpt lat="49.18864" lon="6.95779">
        <ele>339</ele>
        <time>2010-12-05T08:11:11Z</time>
      </trkpt>
      <trkpt lat="49.18865" lon="6.95777">
        <ele>339</ele>
        <time>2010-12-05T08:11:13Z</time>
      </trkpt>
      <trkpt lat="49.18865" lon="6.95775">
        <ele>339</ele>
        <time>2010-12-05T08:11:14Z</time>
      </trkpt>
      <trkpt lat="49.18866" lon="6.95773">
        <ele>339</ele>
        <time>2010-12-05T08:11:15Z</time>
      </trkpt>
      <trkpt lat="49.18866" lon="6.95771">
        <ele>339</ele>
        <time>2010-12-05T08:11:16Z</time>
      </trkpt>
      <trkpt lat="49.18866" lon="6.95769">
        <ele>339</ele>
        <time>2010-12-05T08:11:17Z</time>
      </trkpt>
      <trkpt lat="49.18867" lon="6.95767">
        <ele>339</ele>
        <time>2010-12-05T08:11:18Z</time>
      </trkpt>
      <trkpt lat="49.18867" lon="6.95765">
        <ele>339</ele>
        <time>2010-12-05T08:11:19Z</time>
      </trkpt>
      <trkpt lat="49.18868" lon="6.95763">
        <ele>339</ele>
        <time>2010-12-05T08:11:20Z</time>
      </trkpt>
      <trkpt lat="49.18869" lon="6.95761">
        <ele>339</ele>
        <time>2010-12-05T08:11:21Z</time>
      </trkpt>
      <trkpt lat="49.18869" lon="6.9576">
        <ele>339</ele>
        <time>2010-12-05T08:11:22Z</time>
      </trkpt>
      <trkpt lat="49.1887" lon="6.95758">
        <ele>339</ele>
        <time>2010-12-05T08:11:23Z</time>
      </trkpt>
      <trkpt lat="49.18871" lon="6.95756">
        <ele>339</ele>
        <time>2010-12-05T08:11:24Z</time>
      </trkpt>
      <trkpt lat="49.18872" lon="6.95753">
        <ele>339</ele>
        <time>2010-12-05T08:11:26Z</time>
      </trkpt>
      <trkpt lat="49.18872" lon="6.95751">
        <ele>338</ele>
        <time>2010-12-05T08:11:27Z</time>
      </trkpt>
      <trkpt lat="49.18873" lon="6.95749">
        <ele>338</ele>
        <time>2010-12-05T08:11:28Z</time>
      </trkpt>
      <trkpt lat="49.18874" lon="6.95747">
        <ele>338</ele>
        <time>2010-12-05T08:11:29Z</time>
      </trkpt>
      <trkpt lat="49.18875" lon="6.95745">
        <ele>338</ele>
        <time>2010-12-05T08:11:30Z</time>
      </trkpt>
      <trkpt lat="49.18876" lon="6.95743">
        <ele>337</ele>
        <time>2010-12-05T08:11:32Z</time>
      </trkpt>
      <trkpt lat="49.18877" lon="6.95742">
        <ele>337</ele>
        <time>2010-12-05T08:11:34Z</time>
      </trkpt>
      <trkpt lat="49.18877" lon="6.9574">
        <ele>337</ele>
        <time>2010-12-05T08:11:37Z</time>
      </trkpt>
      <trkpt lat="49.18878" lon="6.95738">
        <ele>337</ele>
        <time>2010-12-05T08:11:38Z</time>
      </trkpt>
      <trkpt lat="49.18879" lon="6.95736">
        <ele>337</ele>
        <time>2010-12-05T08:11:39Z</time>
      </trkpt>
      <trkpt lat="49.18879" lon="6.95734">
        <ele>337</ele>
        <time>2010-12-05T08:11:40Z</time>
      </trkpt>
      <trkpt lat="49.1888" lon="6.95732">
        <ele>337</ele>
        <time>2010-12-05T08:11:41Z</time>
      </trkpt>
      <trkpt lat="49.1888" lon="6.95731">
        <ele>336</ele>
        <time>2010-12-05T08:11:42Z</time>
      </trkpt>
      <trkpt lat="49.18881" lon="6.95729">
        <ele>336</ele>
        <time>2010-12-05T08:11:43Z</time>
      </trkpt>
      <trkpt lat="49.18881" lon="6.95727">
        <ele>336</ele>
        <time>2010-12-05T08:11:44Z</time>
      </trkpt>
      <trkpt lat="49.18882" lon="6.95725">
        <ele>336</ele>
        <time>2010-12-05T08:11:45Z</time>
      </trkpt>
      <trkpt lat="49.18882" lon="6.95724">
        <ele>336</ele>
        <time>2010-12-05T08:11:46Z</time>
      </trkpt>
      <trkpt lat="49.18883" lon="6.95722">
        <ele>335</ele>
        <time>2010-12-05T08:11:47Z</time>
      </trkpt>
      <trkpt lat="49.18884" lon="6.9572">
        <ele>335</ele>
        <time>2010-12-05T08:11:48Z</time>
      </trkpt>
      <trkpt lat="49.18884" lon="6.95719">
        <ele>335</ele>
        <time>2010-12-05T08:11:49Z</time>
      </trkpt>
      <trkpt lat="49.18885" lon="6.95717">
        <ele>335</ele>
        <time>2010-12-05T08:11:50Z</time>
      </trkpt>
      <trkpt lat="49.18885" lon="6.95715">
        <ele>335</ele>
        <time>2010-12-05T08:11:51Z</time>
      </trkpt>
      <trkpt lat="49.18886" lon="6.95714">
        <ele>334</ele>
        <time>2010-12-05T08:11:52Z</time>
      </trkpt>
      <trkpt lat="49.18887" lon="6.95711">
        <ele>334</ele>
        <time>2010-12-05T08:11:53Z</time>
      </trkpt>
      <trkpt lat="49.18887" lon="6.95709">
        <ele>334</ele>
        <time>2010-12-05T08:11:54Z</time>
      </trkpt>
      <trkpt lat="49.18887" lon="6.95708">
        <ele>334</ele>
        <time>2010-12-05T08:11:55Z</time>
      </trkpt>
      <trkpt lat="49.18888" lon="6.95705">
        <ele>334</ele>
        <time>2010-12-05T08:11:57Z</time>
      </trkpt>
      <trkpt lat="49.18889" lon="6.95701">
        <ele>333</ele>
        <time>2010-12-05T08:11:59Z</time>
      </trkpt>
      <trkpt lat="49.18891" lon="6.95698">
        <ele>333</ele>
        <time>2010-12-05T08:12:01Z</time>
      </trkpt>
      <trkpt lat="49.18892" lon="6.95695">
        <ele>333</ele>
        <time>2010-12-05T08:12:03Z</time>
      </trkpt>
      <trkpt lat="49.18892" lon="6.95693">
        <ele>333</ele>
        <time>2010-12-05T08:12:04Z</time>
      </trkpt>
      <trkpt lat="49.18893" lon="6.9569">
        <ele>333</ele>
        <time>2010-12-05T08:12:06Z</time>
      </trkpt>
      <trkpt lat="49.18893" lon="6.95688">
        <ele>332</ele>
        <time>2010-12-05T08:12:07Z</time>
      </trkpt>
      <trkpt lat="49.18894" lon="6.95686">
        <ele>332</ele>
        <time>2010-12-05T08:12:08Z</time>
      </trkpt>
      <trkpt lat="49.18895" lon="6.95685">
        <ele>332</ele>
        <time>2010-12-05T08:12:09Z</time>
      </trkpt>
      <trkpt lat="49.18896" lon="6.95682">
        <ele>332</ele>
        <time>2010-12-05T08:12:11Z</time>
      </trkpt>
      <trkpt lat="49.18896" lon="6.9568">
        <ele>332</ele>
        <time>2010-12-05T08:12:12Z</time>
      </trkpt>
      <trkpt lat="49.18897" lon="6.95678">
        <ele>332</ele>
        <time>2010-12-05T08:12:13Z</time>
      </trkpt>
      <trkpt lat="49.18897" lon="6.95676">
        <ele>332</ele>
        <time>2010-12-05T08:12:14Z</time>
      </trkpt>
      <trkpt lat="49.18898" lon="6.95675">
        <ele>332</ele>
        <time>2010-12-05T08:12:15Z</time>
      </trkpt>
      <trkpt lat="49.18898" lon="6.95673">
        <ele>331</ele>
        <time>2010-12-05T08:12:16Z</time>
      </trkpt>
      <trkpt lat="49.18899" lon="6.95671">
        <ele>331</ele>
        <time>2010-12-05T08:12:17Z</time>
      </trkpt>
      <trkpt lat="49.189" lon="6.95669">
        <ele>331</ele>
        <time>2010-12-05T08:12:18Z</time>
      </trkpt>
      <trkpt lat="49.189" lon="6.95667">
        <ele>331</ele>
        <time>2010-12-05T08:12:19Z</time>
      </trkpt>
      <trkpt lat="49.18901" lon="6.95664">
        <ele>331</ele>
        <time>2010-12-05T08:12:21Z</time>
      </trkpt>
      <trkpt lat="49.18902" lon="6.95662">
        <ele>331</ele>
        <time>2010-12-05T08:12:22Z</time>
      </trkpt>
      <trkpt lat="49.18902" lon="6.95661">
        <ele>330</ele>
        <time>2010-12-05T08:12:23Z</time>
      </trkpt>
      <trkpt lat="49.18903" lon="6.95659">
        <ele>330</ele>
        <time>2010-12-05T08:12:24Z</time>
      </trkpt>
      <trkpt lat="49.18904" lon="6.95656">
        <ele>330</ele>
        <time>2010-12-05T08:12:26Z</time>
      </trkpt>
      <trkpt lat="49.18905" lon="6.95654">
        <ele>330</ele>
        <time>2010-12-05T08:12:27Z</time>
      </trkpt>
      <trkpt lat="49.18905" lon="6.95652">
        <ele>330</ele>
        <time>2010-12-05T08:12:28Z</time>
      </trkpt>
      <trkpt lat="49.18906" lon="6.95651">
        <ele>330</ele>
        <time>2010-12-05T08:12:29Z</time>
      </trkpt>
      <trkpt lat="49.18906" lon="6.95649">
        <ele>330</ele>
        <time>2010-12-05T08:12:30Z</time>
      </trkpt>
      <trkpt lat="49.18907" lon="6.95647">
        <ele>330</ele>
        <time>2010-12-05T08:12:31Z</time>
      </trkpt>
      <trkpt lat="49.18908" lon="6.95644">
        <ele>329</ele>
        <time>2010-12-05T08:12:33Z</time>
      </trkpt>
      <trkpt lat="49.18909" lon="6.95642">
        <ele>329</ele>
        <time>2010-12-05T08:12:34Z</time>
      </trkpt>
      <trkpt lat="49.18909" lon="6.9564">
        <ele>329</ele>
        <time>2010-12-05T08:12:35Z</time>
      </trkpt>
      <trkpt lat="49.1891" lon="6.95639">
        <ele>329</ele>
        <time>2010-12-05T08:12:36Z</time>
      </trkpt>
      <trkpt lat="49.18911" lon="6.95637">
        <ele>329</ele>
        <time>2010-12-05T08:12:37Z</time>
      </trkpt>
      <trkpt lat="49.18911" lon="6.95635">
        <ele>329</ele>
        <time>2010-12-05T08:12:38Z</time>
      </trkpt>
      <trkpt lat="49.18912" lon="6.95634">
        <ele>329</ele>
        <time>2010-12-05T08:12:39Z</time>
      </trkpt>
      <trkpt lat="49.18913" lon="6.95631">
        <ele>328</ele>
        <time>2010-12-05T08:12:41Z</time>
      </trkpt>
      <trkpt lat="49.18914" lon="6.95628">
        <ele>328</ele>
        <time>2010-12-05T08:12:43Z</time>
      </trkpt>
      <trkpt lat="49.18915" lon="6.95626">
        <ele>328</ele>
        <time>2010-12-05T08:12:44Z</time>
      </trkpt>
      <trkpt lat="49.18916" lon="6.95624">
        <ele>328</ele>
        <time>2010-12-05T08:12:45Z</time>
      </trkpt>
      <trkpt lat="49.18917" lon="6.95621">
        <ele>327</ele>
        <time>2010-12-05T08:12:47Z</time>
      </trkpt>
      <trkpt lat="49.18917" lon="6.95619">
        <ele>327</ele>
        <time>2010-12-05T08:12:48Z</time>
      </trkpt>
      <trkpt lat="49.18919" lon="6.95616">
        <ele>327</ele>
        <time>2010-12-05T08:12:50Z</time>
      </trkpt>
      <trkpt lat="49.18919" lon="6.95614">
        <ele>327</ele>
        <time>2010-12-05T08:12:51Z</time>
      </trkpt>
      <trkpt lat="49.1892" lon="6.95612">
        <ele>327</ele>
        <time>2010-12-05T08:12:52Z</time>
      </trkpt>
      <trkpt lat="49.1892" lon="6.95611">
        <ele>327</ele>
        <time>2010-12-05T08:12:53Z</time>
      </trkpt>
      <trkpt lat="49.18921" lon="6.95608">
        <ele>327</ele>
        <time>2010-12-05T08:12:55Z</time>
      </trkpt>
      <trkpt lat="49.18922" lon="6.95605">
        <ele>327</ele>
        <time>2010-12-05T08:12:57Z</time>
      </trkpt>
      <trkpt lat="49.18923" lon="6.95603">
        <ele>326</ele>
        <time>2010-12-05T08:12:59Z</time>
      </trkpt>
      <trkpt lat="49.18924" lon="6.956">
        <ele>326</ele>
        <time>2010-12-05T08:13:01Z</time>
      </trkpt>
      <trkpt lat="49.18925" lon="6.95598">
        <ele>326</ele>
        <time>2010-12-05T08:13:02Z</time>
      </trkpt>
      <trkpt lat="49.18926" lon="6.95596">
        <ele>325</ele>
        <time>2010-12-05T08:13:04Z</time>
      </trkpt>
      <trkpt lat="49.18926" lon="6.95594">
        <ele>325</ele>
        <time>2010-12-05T08:13:07Z</time>
      </trkpt>
      <trkpt lat="49.18927" lon="6.95591">
        <ele>325</ele>
        <time>2010-12-05T08:13:09Z</time>
      </trkpt>
      <trkpt lat="49.18927" lon="6.95589">
        <ele>325</ele>
        <time>2010-12-05T08:13:10Z</time>
      </trkpt>
      <trkpt lat="49.18928" lon="6.95587">
        <ele>325</ele>
        <time>2010-12-05T08:13:11Z</time>
      </trkpt>
      <trkpt lat="49.18929" lon="6.95584">
        <ele>325</ele>
        <time>2010-12-05T08:13:13Z</time>
      </trkpt>
      <trkpt lat="49.18929" lon="6.95582">
        <ele>325</ele>
        <time>2010-12-05T08:13:15Z</time>
      </trkpt>
      <trkpt lat="49.1893" lon="6.95579">
        <ele>324</ele>
        <time>2010-12-05T08:13:17Z</time>
      </trkpt>
      <trkpt lat="49.1893" lon="6.95577">
        <ele>324</ele>
        <time>2010-12-05T08:13:18Z</time>
      </trkpt>
      <trkpt lat="49.18931" lon="6.95576">
        <ele>324</ele>
        <time>2010-12-05T08:13:19Z</time>
      </trkpt>
      <trkpt lat="49.18931" lon="6.95574">
        <ele>324</ele>
        <time>2010-12-05T08:13:20Z</time>
      </trkpt>
      <trkpt lat="49.18932" lon="6.95572">
        <ele>324</ele>
        <time>2010-12-05T08:13:21Z</time>
      </trkpt>
      <trkpt lat="49.18932" lon="6.95571">
        <ele>324</ele>
        <time>2010-12-05T08:13:22Z</time>
      </trkpt>
      <trkpt lat="49.18934" lon="6.95568">
        <ele>323</ele>
        <time>2010-12-05T08:13:24Z</time>
      </trkpt>
      <trkpt lat="49.18935" lon="6.95565">
        <ele>323</ele>
        <time>2010-12-05T08:13:26Z</time>
      </trkpt>
      <trkpt lat="49.18935" lon="6.95563">
        <ele>323</ele>
        <time>2010-12-05T08:13:27Z</time>
      </trkpt>
      <trkpt lat="49.18936" lon="6.95561">
        <ele>323</ele>
        <time>2010-12-05T08:13:28Z</time>
      </trkpt>
      <trkpt lat="49.18937" lon="6.95559">
        <ele>323</ele>
        <time>2010-12-05T08:13:29Z</time>
      </trkpt>
      <trkpt lat="49.18938" lon="6.95556">
        <ele>323</ele>
        <time>2010-12-05T08:13:31Z</time>
      </trkpt>
      <trkpt lat="49.18939" lon="6.95553">
        <ele>323</ele>
        <time>2010-12-05T08:13:33Z</time>
      </trkpt>
      <trkpt lat="49.18939" lon="6.95551">
        <ele>323</ele>
        <time>2010-12-05T08:13:34Z</time>
      </trkpt>
      <trkpt lat="49.18939" lon="6.9555">
        <ele>323</ele>
        <time>2010-12-05T08:13:35Z</time>
      </trkpt>
      <trkpt lat="49.1894" lon="6.95547">
        <ele>323</ele>
        <time>2010-12-05T08:13:37Z</time>
      </trkpt>
      <trkpt lat="49.18942" lon="6.95543">
        <ele>323</ele>
        <time>2010-12-05T08:13:39Z</time>
      </trkpt>
      <trkpt lat="49.18942" lon="6.95542">
        <ele>323</ele>
        <time>2010-12-05T08:13:40Z</time>
      </trkpt>
      <trkpt lat="49.18943" lon="6.95539">
        <ele>322</ele>
        <time>2010-12-05T08:13:42Z</time>
      </trkpt>
      <trkpt lat="49.18945" lon="6.95536">
        <ele>322</ele>
        <time>2010-12-05T08:13:44Z</time>
      </trkpt>
      <trkpt lat="49.18946" lon="6.95533">
        <ele>321</ele>
        <time>2010-12-05T08:13:46Z</time>
      </trkpt>
      <trkpt lat="49.18946" lon="6.95531">
        <ele>321</ele>
        <time>2010-12-05T08:13:47Z</time>
      </trkpt>
      <trkpt lat="49.18947" lon="6.95529">
        <ele>321</ele>
        <time>2010-12-05T08:13:48Z</time>
      </trkpt>
      <trkpt lat="49.18948" lon="6.95526">
        <ele>321</ele>
        <time>2010-12-05T08:13:50Z</time>
      </trkpt>
      <trkpt lat="49.18948" lon="6.95524">
        <ele>321</ele>
        <time>2010-12-05T08:13:51Z</time>
      </trkpt>
      <trkpt lat="49.18949" lon="6.95522">
        <ele>321</ele>
        <time>2010-12-05T08:13:52Z</time>
      </trkpt>
      <trkpt lat="49.18949" lon="6.9552">
        <ele>321</ele>
        <time>2010-12-05T08:13:53Z</time>
      </trkpt>
      <trkpt lat="49.18949" lon="6.95518">
        <ele>321</ele>
        <time>2010-12-05T08:13:55Z</time>
      </trkpt>
      <trkpt lat="49.18948" lon="6.95516">
        <ele>321</ele>
        <time>2010-12-05T08:13:57Z</time>
      </trkpt>
      <trkpt lat="49.18948" lon="6.95514">
        <ele>321</ele>
        <time>2010-12-05T08:13:59Z</time>
      </trkpt>
      <trkpt lat="49.18949" lon="6.95511">
        <ele>321</ele>
        <time>2010-12-05T08:14:01Z</time>
      </trkpt>
      <trkpt lat="49.18949" lon="6.95509">
        <ele>321</ele>
        <time>2010-12-05T08:14:03Z</time>
      </trkpt>
      <trkpt lat="49.18949" lon="6.95507">
        <ele>321</ele>
        <time>2010-12-05T08:14:06Z</time>
      </trkpt>
      <trkpt lat="49.18949" lon="6.95505">
        <ele>321</ele>
        <time>2010-12-05T08:14:08Z</time>
      </trkpt>
      <trkpt lat="49.18951" lon="6.95504">
        <ele>321</ele>
        <time>2010-12-05T08:14:09Z</time>
      </trkpt>
      <trkpt lat="49.18952" lon="6.95505">
        <ele>321</ele>
        <time>2010-12-05T08:14:11Z</time>
      </trkpt>
      <trkpt lat="49.18952" lon="6.95503">
        <ele>321</ele>
        <time>2010-12-05T08:14:18Z</time>
      </trkpt>
      <trkpt lat="49.18952" lon="6.955">
        <ele>321</ele>
        <time>2010-12-05T08:14:20Z</time>
      </trkpt>
      <trkpt lat="49.18952" lon="6.95498">
        <ele>321</ele>
        <time>2010-12-05T08:14:21Z</time>
      </trkpt>
      <trkpt lat="49.18952" lon="6.95495">
        <ele>321</ele>
        <time>2010-12-05T08:14:23Z</time>
      </trkpt>
      <trkpt lat="49.18952" lon="6.95492">
        <ele>321</ele>
        <time>2010-12-05T08:14:25Z</time>
      </trkpt>
      <trkpt lat="49.18952" lon="6.95491">
        <ele>321</ele>
        <time>2010-12-05T08:14:26Z</time>
      </trkpt>
      <trkpt lat="49.18952" lon="6.95487">
        <ele>321</ele>
        <time>2010-12-05T08:14:28Z</time>
      </trkpt>
      <trkpt lat="49.18952" lon="6.95485">
        <ele>321</ele>
        <time>2010-12-05T08:14:30Z</time>
      </trkpt>
      <trkpt lat="49.18952" lon="6.95483">
        <ele>321</ele>
        <time>2010-12-05T08:14:31Z</time>
      </trkpt>
      <trkpt lat="49.18952" lon="6.9548">
        <ele>321</ele>
        <time>2010-12-05T08:14:33Z</time>
      </trkpt>
      <trkpt lat="49.18952" lon="6.95477">
        <ele>321</ele>
        <time>2010-12-05T08:14:35Z</time>
      </trkpt>
      <trkpt lat="49.18952" lon="6.95475">
        <ele>321</ele>
        <time>2010-12-05T08:14:36Z</time>
      </trkpt>
      <trkpt lat="49.18952" lon="6.95473">
        <ele>321</ele>
        <time>2010-12-05T08:14:37Z</time>
      </trkpt>
      <trkpt lat="49.18952" lon="6.95472">
        <ele>321</ele>
        <time>2010-12-05T08:14:38Z</time>
      </trkpt>
      <trkpt lat="49.18952" lon="6.9547">
        <ele>321</ele>
        <time>2010-12-05T08:14:39Z</time>
      </trkpt>
      <trkpt lat="49.18952" lon="6.95467">
        <ele>321</ele>
        <time>2010-12-05T08:14:41Z</time>
      </trkpt>
      <trkpt lat="49.18952" lon="6.95465">
        <ele>321</ele>
        <time>2010-12-05T08:14:43Z</time>
      </trkpt>
      <trkpt lat="49.18952" lon="6.95463">
        <ele>321</ele>
        <time>2010-12-05T08:14:43Z</time>
      </trkpt>
      <trkpt lat="49.18952" lon="6.95462">
        <ele>321</ele>
        <time>2010-12-05T08:14:44Z</time>
      </trkpt>
      <trkpt lat="49.18952" lon="6.95458">
        <ele>321</ele>
        <time>2010-12-05T08:14:46Z</time>
      </trkpt>
      <trkpt lat="49.18952" lon="6.95456">
        <ele>321</ele>
        <time>2010-12-05T08:14:47Z</time>
      </trkpt>
      <trkpt lat="49.18952" lon="6.95455">
        <ele>321</ele>
        <time>2010-12-05T08:14:48Z</time>
      </trkpt>
      <trkpt lat="49.18952" lon="6.95452">
        <ele>321</ele>
        <time>2010-12-05T08:14:50Z</time>
      </trkpt>
      <trkpt lat="49.18952" lon="6.9545">
        <ele>321</ele>
        <time>2010-12-05T08:14:51Z</time>
      </trkpt>
      <trkpt lat="49.18952" lon="6.95448">
        <ele>321</ele>
        <time>2010-12-05T08:14:52Z</time>
      </trkpt>
      <trkpt lat="49.18952" lon="6.95445">
        <ele>321</ele>
        <time>2010-12-05T08:14:54Z</time>
      </trkpt>
      <trkpt lat="49.18952" lon="6.95442">
        <ele>321</ele>
        <time>2010-12-05T08:14:56Z</time>
      </trkpt>
      <trkpt lat="49.18952" lon="6.9544">
        <ele>321</ele>
        <time>2010-12-05T08:14:57Z</time>
      </trkpt>
      <trkpt lat="49.18952" lon="6.95438">
        <ele>321</ele>
        <time>2010-12-05T08:14:59Z</time>
      </trkpt>
      <trkpt lat="49.18952" lon="6.95435">
        <ele>321</ele>
        <time>2010-12-05T08:15:01Z</time>
      </trkpt>
      <trkpt lat="49.18952" lon="6.95433">
        <ele>321</ele>
        <time>2010-12-05T08:15:02Z</time>
      </trkpt>
      <trkpt lat="49.18952" lon="6.95431">
        <ele>321</ele>
        <time>2010-12-05T08:15:03Z</time>
      </trkpt>
      <trkpt lat="49.18952" lon="6.95429">
        <ele>321</ele>
        <time>2010-12-05T08:15:05Z</time>
      </trkpt>
      <trkpt lat="49.18952" lon="6.95425">
        <ele>321</ele>
        <time>2010-12-05T08:15:07Z</time>
      </trkpt>
      <trkpt lat="49.18952" lon="6.95424">
        <ele>321</ele>
        <time>2010-12-05T08:15:08Z</time>
      </trkpt>
      <trkpt lat="49.18952" lon="6.95421">
        <ele>321</ele>
        <time>2010-12-05T08:15:10Z</time>
      </trkpt>
      <trkpt lat="49.18952" lon="6.95418">
        <ele>321</ele>
        <time>2010-12-05T08:15:12Z</time>
      </trkpt>
      <trkpt lat="49.18952" lon="6.95415">
        <ele>321</ele>
        <time>2010-12-05T08:15:14Z</time>
      </trkpt>
      <trkpt lat="49.18951" lon="6.95412">
        <ele>321</ele>
        <time>2010-12-05T08:15:16Z</time>
      </trkpt>
      <trkpt lat="49.18951" lon="6.9541">
        <ele>321</ele>
        <time>2010-12-05T08:15:17Z</time>
      </trkpt>
      <trkpt lat="49.18951" lon="6.95408">
        <ele>321</ele>
        <time>2010-12-05T08:15:18Z</time>
      </trkpt>
      <trkpt lat="49.18951" lon="6.95405">
        <ele>321</ele>
        <time>2010-12-05T08:15:20Z</time>
      </trkpt>
      <trkpt lat="49.18951" lon="6.95402">
        <ele>321</ele>
        <time>2010-12-05T08:15:22Z</time>
      </trkpt>
      <trkpt lat="49.18951" lon="6.954">
        <ele>321</ele>
        <time>2010-12-05T08:15:24Z</time>
      </trkpt>
      <trkpt lat="49.18951" lon="6.95397">
        <ele>321</ele>
        <time>2010-12-05T08:15:26Z</time>
      </trkpt>
      <trkpt lat="49.18951" lon="6.95395">
        <ele>321</ele>
        <time>2010-12-05T08:15:27Z</time>
      </trkpt>
      <trkpt lat="49.18951" lon="6.95393">
        <ele>321</ele>
        <time>2010-12-05T08:15:28Z</time>
      </trkpt>
      <trkpt lat="49.18951" lon="6.95392">
        <ele>321</ele>
        <time>2010-12-05T08:15:29Z</time>
      </trkpt>
      <trkpt lat="49.1895" lon="6.95389">
        <ele>321</ele>
        <time>2010-12-05T08:15:31Z</time>
      </trkpt>
      <trkpt lat="49.1895" lon="6.95386">
        <ele>321</ele>
        <time>2010-12-05T08:15:33Z</time>
      </trkpt>
      <trkpt lat="49.1895" lon="6.95384">
        <ele>321</ele>
        <time>2010-12-05T08:15:34Z</time>
      </trkpt>
      <trkpt lat="49.1895" lon="6.95381">
        <ele>321</ele>
        <time>2010-12-05T08:15:36Z</time>
      </trkpt>
      <trkpt lat="49.1895" lon="6.95378">
        <ele>321</ele>
        <time>2010-12-05T08:15:38Z</time>
      </trkpt>
      <trkpt lat="49.18949" lon="6.95376">
        <ele>321</ele>
        <time>2010-12-05T08:15:39Z</time>
      </trkpt>
      <trkpt lat="49.18949" lon="6.95375">
        <ele>321</ele>
        <time>2010-12-05T08:15:40Z</time>
      </trkpt>
      <trkpt lat="49.18949" lon="6.95373">
        <ele>321</ele>
        <time>2010-12-05T08:15:41Z</time>
      </trkpt>
      <trkpt lat="49.18949" lon="6.95371">
        <ele>321</ele>
        <time>2010-12-05T08:15:43Z</time>
      </trkpt>
      <trkpt lat="49.18948" lon="6.95368">
        <ele>321</ele>
        <time>2010-12-05T08:15:45Z</time>
      </trkpt>
      <trkpt lat="49.18948" lon="6.95366">
        <ele>321</ele>
        <time>2010-12-05T08:15:46Z</time>
      </trkpt>
      <trkpt lat="49.18948" lon="6.95363">
        <ele>321</ele>
        <time>2010-12-05T08:15:48Z</time>
      </trkpt>
      <trkpt lat="49.18948" lon="6.9536">
        <ele>321</ele>
        <time>2010-12-05T08:15:50Z</time>
      </trkpt>
      <trkpt lat="49.18948" lon="6.95358">
        <ele>321</ele>
        <time>2010-12-05T08:15:52Z</time>
      </trkpt>
      <trkpt lat="49.18948" lon="6.95355">
        <ele>322</ele>
        <time>2010-12-05T08:15:54Z</time>
      </trkpt>
      <trkpt lat="49.18948" lon="6.95354">
        <ele>322</ele>
        <time>2010-12-05T08:15:55Z</time>
      </trkpt>
      <trkpt lat="49.18948" lon="6.95351">
        <ele>322</ele>
        <time>2010-12-05T08:15:57Z</time>
      </trkpt>
      <trkpt lat="49.18948" lon="6.95348">
        <ele>322</ele>
        <time>2010-12-05T08:15:59Z</time>
      </trkpt>
      <trkpt lat="49.18948" lon="6.95345">
        <ele>322</ele>
        <time>2010-12-05T08:16:01Z</time>
      </trkpt>
      <trkpt lat="49.18947" lon="6.95342">
        <ele>322</ele>
        <time>2010-12-05T08:16:03Z</time>
      </trkpt>
      <trkpt lat="49.18947" lon="6.95339">
        <ele>323</ele>
        <time>2010-12-05T08:16:05Z</time>
      </trkpt>
      <trkpt lat="49.18947" lon="6.95336">
        <ele>323</ele>
        <time>2010-12-05T08:16:07Z</time>
      </trkpt>
      <trkpt lat="49.18947" lon="6.95333">
        <ele>323</ele>
        <time>2010-12-05T08:16:09Z</time>
      </trkpt>
      <trkpt lat="49.18947" lon="6.9533">
        <ele>323</ele>
        <time>2010-12-05T08:16:11Z</time>
      </trkpt>
      <trkpt lat="49.18947" lon="6.95328">
        <ele>323</ele>
        <time>2010-12-05T08:16:13Z</time>
      </trkpt>
      <trkpt lat="49.18947" lon="6.95324">
        <ele>323</ele>
        <time>2010-12-05T08:16:15Z</time>
      </trkpt>
      <trkpt lat="49.18947" lon="6.95323">
        <ele>323</ele>
        <time>2010-12-05T08:16:16Z</time>
      </trkpt>
      <trkpt lat="49.18947" lon="6.95321">
        <ele>323</ele>
        <time>2010-12-05T08:16:17Z</time>
      </trkpt>
      <trkpt lat="49.18947" lon="6.95319">
        <ele>323</ele>
        <time>2010-12-05T08:16:18Z</time>
      </trkpt>
      <trkpt lat="49.18947" lon="6.95316">
        <ele>323</ele>
        <time>2010-12-05T08:16:20Z</time>
      </trkpt>
      <trkpt lat="49.18947" lon="6.95313">
        <ele>323</ele>
        <time>2010-12-05T08:16:22Z</time>
      </trkpt>
      <trkpt lat="49.18947" lon="6.95311">
        <ele>323</ele>
        <time>2010-12-05T08:16:23Z</time>
      </trkpt>
      <trkpt lat="49.18946" lon="6.95309">
        <ele>324</ele>
        <time>2010-12-05T08:16:25Z</time>
      </trkpt>
      <trkpt lat="49.18946" lon="6.95306">
        <ele>324</ele>
        <time>2010-12-05T08:16:27Z</time>
      </trkpt>
      <trkpt lat="49.18945" lon="6.95304">
        <ele>324</ele>
        <time>2010-12-05T08:16:28Z</time>
      </trkpt>
      <trkpt lat="49.18945" lon="6.95303">
        <ele>324</ele>
        <time>2010-12-05T08:16:29Z</time>
      </trkpt>
      <trkpt lat="49.18945" lon="6.953">
        <ele>324</ele>
        <time>2010-12-05T08:16:31Z</time>
      </trkpt>
      <trkpt lat="49.18944" lon="6.95297">
        <ele>324</ele>
        <time>2010-12-05T08:16:33Z</time>
      </trkpt>
      <trkpt lat="49.18944" lon="6.95295">
        <ele>324</ele>
        <time>2010-12-05T08:16:34Z</time>
      </trkpt>
      <trkpt lat="49.18943" lon="6.95294">
        <ele>324</ele>
        <time>2010-12-05T08:16:35Z</time>
      </trkpt>
      <trkpt lat="49.18943" lon="6.95292">
        <ele>324</ele>
        <time>2010-12-05T08:16:36Z</time>
      </trkpt>
      <trkpt lat="49.18943" lon="6.9529">
        <ele>324</ele>
        <time>2010-12-05T08:16:37Z</time>
      </trkpt>
      <trkpt lat="49.18943" lon="6.95288">
        <ele>324</ele>
        <time>2010-12-05T08:16:39Z</time>
      </trkpt>
      <trkpt lat="49.18942" lon="6.95285">
        <ele>324</ele>
        <time>2010-12-05T08:16:41Z</time>
      </trkpt>
      <trkpt lat="49.18942" lon="6.95282">
        <ele>324</ele>
        <time>2010-12-05T08:16:43Z</time>
      </trkpt>
      <trkpt lat="49.18942" lon="6.95281">
        <ele>324</ele>
        <time>2010-12-05T08:16:44Z</time>
      </trkpt>
      <trkpt lat="49.18941" lon="6.95278">
        <ele>324</ele>
        <time>2010-12-05T08:16:46Z</time>
      </trkpt>
      <trkpt lat="49.18941" lon="6.95274">
        <ele>324</ele>
        <time>2010-12-05T08:16:48Z</time>
      </trkpt>
      <trkpt lat="49.18941" lon="6.95272">
        <ele>324</ele>
        <time>2010-12-05T08:16:50Z</time>
      </trkpt>
      <trkpt lat="49.1894" lon="6.95269">
        <ele>324</ele>
        <time>2010-12-05T08:16:52Z</time>
      </trkpt>
      <trkpt lat="49.1894" lon="6.95267">
        <ele>324</ele>
        <time>2010-12-05T08:16:53Z</time>
      </trkpt>
      <trkpt lat="49.1894" lon="6.95265">
        <ele>324</ele>
        <time>2010-12-05T08:16:54Z</time>
      </trkpt>
      <trkpt lat="49.1894" lon="6.95262">
        <ele>324</ele>
        <time>2010-12-05T08:16:56Z</time>
      </trkpt>
      <trkpt lat="49.1894" lon="6.95259">
        <ele>324</ele>
        <time>2010-12-05T08:16:58Z</time>
      </trkpt>
      <trkpt lat="49.18939" lon="6.95256">
        <ele>324</ele>
        <time>2010-12-05T08:17:00Z</time>
      </trkpt>
      <trkpt lat="49.18939" lon="6.95253">
        <ele>325</ele>
        <time>2010-12-05T08:17:02Z</time>
      </trkpt>
      <trkpt lat="49.18938" lon="6.95251">
        <ele>325</ele>
        <time>2010-12-05T08:17:04Z</time>
      </trkpt>
      <trkpt lat="49.18938" lon="6.95248">
        <ele>325</ele>
        <time>2010-12-05T08:17:06Z</time>
      </trkpt>
      <trkpt lat="49.18938" lon="6.95245">
        <ele>325</ele>
        <time>2010-12-05T08:17:08Z</time>
      </trkpt>
      <trkpt lat="49.18938" lon="6.95241">
        <ele>325</ele>
        <time>2010-12-05T08:17:10Z</time>
      </trkpt>
      <trkpt lat="49.18938" lon="6.9524">
        <ele>325</ele>
        <time>2010-12-05T08:17:11Z</time>
      </trkpt>
      <trkpt lat="49.18937" lon="6.95238">
        <ele>325</ele>
        <time>2010-12-05T08:17:12Z</time>
      </trkpt>
      <trkpt lat="49.18937" lon="6.95235">
        <ele>326</ele>
        <time>2010-12-05T08:17:14Z</time>
      </trkpt>
      <trkpt lat="49.18937" lon="6.95232">
        <ele>326</ele>
        <time>2010-12-05T08:17:16Z</time>
      </trkpt>
      <trkpt lat="49.18936" lon="6.95231">
        <ele>326</ele>
        <time>2010-12-05T08:17:17Z</time>
      </trkpt>
      <trkpt lat="49.18936" lon="6.95229">
        <ele>326</ele>
        <time>2010-12-05T08:17:18Z</time>
      </trkpt>
      <trkpt lat="49.18936" lon="6.95226">
        <ele>326</ele>
        <time>2010-12-05T08:17:20Z</time>
      </trkpt>
      <trkpt lat="49.18935" lon="6.95223">
        <ele>326</ele>
        <time>2010-12-05T08:17:22Z</time>
      </trkpt>
      <trkpt lat="49.18935" lon="6.9522">
        <ele>326</ele>
        <time>2010-12-05T08:17:24Z</time>
      </trkpt>
      <trkpt lat="49.18935" lon="6.95219">
        <ele>327</ele>
        <time>2010-12-05T08:17:25Z</time>
      </trkpt>
      <trkpt lat="49.18934" lon="6.95215">
        <ele>327</ele>
        <time>2010-12-05T08:17:27Z</time>
      </trkpt>
      <trkpt lat="49.18934" lon="6.95214">
        <ele>327</ele>
        <time>2010-12-05T08:17:28Z</time>
      </trkpt>
      <trkpt lat="49.18933" lon="6.95211">
        <ele>327</ele>
        <time>2010-12-05T08:17:30Z</time>
      </trkpt>
      <trkpt lat="49.18932" lon="6.95208">
        <ele>327</ele>
        <time>2010-12-05T08:17:32Z</time>
      </trkpt>
      <trkpt lat="49.18932" lon="6.95206">
        <ele>327</ele>
        <time>2010-12-05T08:17:33Z</time>
      </trkpt>
      <trkpt lat="49.18931" lon="6.95203">
        <ele>328</ele>
        <time>2010-12-05T08:17:35Z</time>
      </trkpt>
      <trkpt lat="49.18931" lon="6.952">
        <ele>328</ele>
        <time>2010-12-05T08:17:37Z</time>
      </trkpt>
      <trkpt lat="49.1893" lon="6.95198">
        <ele>328</ele>
        <time>2010-12-05T08:17:39Z</time>
      </trkpt>
      <trkpt lat="49.18929" lon="6.95195">
        <ele>328</ele>
        <time>2010-12-05T08:17:41Z</time>
      </trkpt>
      <trkpt lat="49.18928" lon="6.95192">
        <ele>328</ele>
        <time>2010-12-05T08:17:43Z</time>
      </trkpt>
      <trkpt lat="49.18927" lon="6.9519">
        <ele>328</ele>
        <time>2010-12-05T08:17:45Z</time>
      </trkpt>
      <trkpt lat="49.18927" lon="6.95187">
        <ele>328</ele>
        <time>2010-12-05T08:17:47Z</time>
      </trkpt>
      <trkpt lat="49.18927" lon="6.95184">
        <ele>328</ele>
        <time>2010-12-05T08:17:49Z</time>
      </trkpt>
      <trkpt lat="49.18927" lon="6.95182">
        <ele>329</ele>
        <time>2010-12-05T08:17:50Z</time>
      </trkpt>
      <trkpt lat="49.18926" lon="6.95179">
        <ele>329</ele>
        <time>2010-12-05T08:17:52Z</time>
      </trkpt>
      <trkpt lat="49.18927" lon="6.95176">
        <ele>329</ele>
        <time>2010-12-05T08:17:54Z</time>
      </trkpt>
      <trkpt lat="49.18927" lon="6.95174">
        <ele>329</ele>
        <time>2010-12-05T08:17:55Z</time>
      </trkpt>
      <trkpt lat="49.18927" lon="6.95172">
        <ele>329</ele>
        <time>2010-12-05T08:17:56Z</time>
      </trkpt>
      <trkpt lat="49.18927" lon="6.9517">
        <ele>329</ele>
        <time>2010-12-05T08:17:57Z</time>
      </trkpt>
      <trkpt lat="49.18928" lon="6.95168">
        <ele>329</ele>
        <time>2010-12-05T08:17:59Z</time>
      </trkpt>
      <trkpt lat="49.18929" lon="6.95165">
        <ele>329</ele>
        <time>2010-12-05T08:18:01Z</time>
      </trkpt>
      <trkpt lat="49.1893" lon="6.95162">
        <ele>329</ele>
        <time>2010-12-05T08:18:03Z</time>
      </trkpt>
      <trkpt lat="49.1893" lon="6.95159">
        <ele>330</ele>
        <time>2010-12-05T08:18:05Z</time>
      </trkpt>
      <trkpt lat="49.18931" lon="6.95156">
        <ele>330</ele>
        <time>2010-12-05T08:18:07Z</time>
      </trkpt>
      <trkpt lat="49.18932" lon="6.95154">
        <ele>330</ele>
        <time>2010-12-05T08:18:09Z</time>
      </trkpt>
      <trkpt lat="49.18933" lon="6.95151">
        <ele>331</ele>
        <time>2010-12-05T08:18:11Z</time>
      </trkpt>
      <trkpt lat="49.18934" lon="6.95148">
        <ele>331</ele>
        <time>2010-12-05T08:18:13Z</time>
      </trkpt>
      <trkpt lat="49.18935" lon="6.95146">
        <ele>332</ele>
        <time>2010-12-05T08:18:15Z</time>
      </trkpt>
      <trkpt lat="49.18936" lon="6.95143">
        <ele>332</ele>
        <time>2010-12-05T08:18:17Z</time>
      </trkpt>
      <trkpt lat="49.18937" lon="6.95141">
        <ele>332</ele>
        <time>2010-12-05T08:18:19Z</time>
      </trkpt>
      <trkpt lat="49.18938" lon="6.95138">
        <ele>332</ele>
        <time>2010-12-05T08:18:21Z</time>
      </trkpt>
      <trkpt lat="49.18939" lon="6.95135">
        <ele>333</ele>
        <time>2010-12-05T08:18:23Z</time>
      </trkpt>
      <trkpt lat="49.1894" lon="6.95132">
        <ele>333</ele>
        <time>2010-12-05T08:18:25Z</time>
      </trkpt>
      <trkpt lat="49.18941" lon="6.9513">
        <ele>334</ele>
        <time>2010-12-05T08:18:27Z</time>
      </trkpt>
      <trkpt lat="49.18941" lon="6.95127">
        <ele>334</ele>
        <time>2010-12-05T08:18:29Z</time>
      </trkpt>
      <trkpt lat="49.18943" lon="6.95125">
        <ele>334</ele>
        <time>2010-12-05T08:18:31Z</time>
      </trkpt>
      <trkpt lat="49.18943" lon="6.95123">
        <ele>334</ele>
        <time>2010-12-05T08:18:33Z</time>
      </trkpt>
      <trkpt lat="49.18943" lon="6.9512">
        <ele>334</ele>
        <time>2010-12-05T08:18:35Z</time>
      </trkpt>
      <trkpt lat="49.18943" lon="6.95118">
        <ele>334</ele>
        <time>2010-12-05T08:18:37Z</time>
      </trkpt>
      <trkpt lat="49.18942" lon="6.95115">
        <ele>334</ele>
        <time>2010-12-05T08:18:39Z</time>
      </trkpt>
      <trkpt lat="49.18941" lon="6.95113">
        <ele>334</ele>
        <time>2010-12-05T08:18:41Z</time>
      </trkpt>
      <trkpt lat="49.1894" lon="6.9511">
        <ele>334</ele>
        <time>2010-12-05T08:18:43Z</time>
      </trkpt>
      <trkpt lat="49.18938" lon="6.95108">
        <ele>334</ele>
        <time>2010-12-05T08:18:45Z</time>
      </trkpt>
      <trkpt lat="49.18937" lon="6.95106">
        <ele>334</ele>
        <time>2010-12-05T08:18:47Z</time>
      </trkpt>
      <trkpt lat="49.18936" lon="6.95103">
        <ele>334</ele>
        <time>2010-12-05T08:18:49Z</time>
      </trkpt>
      <trkpt lat="49.18935" lon="6.951">
        <ele>334</ele>
        <time>2010-12-05T08:18:51Z</time>
      </trkpt>
      <trkpt lat="49.18935" lon="6.95098">
        <ele>334</ele>
        <time>2010-12-05T08:18:52Z</time>
      </trkpt>
      <trkpt lat="49.18935" lon="6.95097">
        <ele>334</ele>
        <time>2010-12-05T08:18:53Z</time>
      </trkpt>
      <trkpt lat="49.18935" lon="6.95095">
        <ele>334</ele>
        <time>2010-12-05T08:18:54Z</time>
      </trkpt>
      <trkpt lat="49.18935" lon="6.95093">
        <ele>334</ele>
        <time>2010-12-05T08:18:56Z</time>
      </trkpt>
      <trkpt lat="49.18934" lon="6.9509">
        <ele>334</ele>
        <time>2010-12-05T08:18:58Z</time>
      </trkpt>
      <trkpt lat="49.18934" lon="6.95087">
        <ele>334</ele>
        <time>2010-12-05T08:19:00Z</time>
      </trkpt>
      <trkpt lat="49.18934" lon="6.95085">
        <ele>334</ele>
        <time>2010-12-05T08:19:02Z</time>
      </trkpt>
      <trkpt lat="49.18935" lon="6.95082">
        <ele>334</ele>
        <time>2010-12-05T08:19:04Z</time>
      </trkpt>
      <trkpt lat="49.18936" lon="6.95079">
        <ele>334</ele>
        <time>2010-12-05T08:19:06Z</time>
      </trkpt>
      <trkpt lat="49.18937" lon="6.95077">
        <ele>334</ele>
        <time>2010-12-05T08:19:08Z</time>
      </trkpt>
      <trkpt lat="49.18937" lon="6.95075">
        <ele>334</ele>
        <time>2010-12-05T08:19:12Z</time>
      </trkpt>
      <trkpt lat="49.18936" lon="6.95073">
        <ele>334</ele>
        <time>2010-12-05T08:19:15Z</time>
      </trkpt>
      <trkpt lat="49.18936" lon="6.9507">
        <ele>334</ele>
        <time>2010-12-05T08:19:17Z</time>
      </trkpt>
      <trkpt lat="49.18935" lon="6.95067">
        <ele>334</ele>
        <time>2010-12-05T08:19:19Z</time>
      </trkpt>
      <trkpt lat="49.18935" lon="6.95065">
        <ele>334</ele>
        <time>2010-12-05T08:19:21Z</time>
      </trkpt>
      <trkpt lat="49.18934" lon="6.95062">
        <ele>334</ele>
        <time>2010-12-05T08:19:23Z</time>
      </trkpt>
      <trkpt lat="49.18934" lon="6.9506">
        <ele>334</ele>
        <time>2010-12-05T08:19:25Z</time>
      </trkpt>
      <trkpt lat="49.18933" lon="6.95058">
        <ele>334</ele>
        <time>2010-12-05T08:19:27Z</time>
      </trkpt>
      <trkpt lat="49.18932" lon="6.95055">
        <ele>334</ele>
        <time>2010-12-05T08:19:29Z</time>
      </trkpt>
      <trkpt lat="49.18932" lon="6.95053">
        <ele>334</ele>
        <time>2010-12-05T08:19:31Z</time>
      </trkpt>
      <trkpt lat="49.18932" lon="6.95051">
        <ele>334</ele>
        <time>2010-12-05T08:19:33Z</time>
      </trkpt>
      <trkpt lat="49.18932" lon="6.95049">
        <ele>334</ele>
        <time>2010-12-05T08:19:35Z</time>
      </trkpt>
      <trkpt lat="49.18933" lon="6.95048">
        <ele>334</ele>
        <time>2010-12-05T08:19:38Z</time>
      </trkpt>
      <trkpt lat="49.18935" lon="6.95048">
        <ele>334</ele>
        <time>2010-12-05T08:19:40Z</time>
      </trkpt>
      <trkpt lat="49.18937" lon="6.95047">
        <ele>334</ele>
        <time>2010-12-05T08:19:42Z</time>
      </trkpt>
      <trkpt lat="49.18938" lon="6.95045">
        <ele>334</ele>
        <time>2010-12-05T08:19:44Z</time>
      </trkpt>
      <trkpt lat="49.1894" lon="6.95044">
        <ele>334</ele>
        <time>2010-12-05T08:19:46Z</time>
      </trkpt>
      <trkpt lat="49.18941" lon="6.95041">
        <ele>334</ele>
        <time>2010-12-05T08:19:49Z</time>
      </trkpt>
      <trkpt lat="49.18943" lon="6.95039">
        <ele>334</ele>
        <time>2010-12-05T08:19:52Z</time>
      </trkpt>
      <trkpt lat="49.18944" lon="6.95037">
        <ele>334</ele>
        <time>2010-12-05T08:19:53Z</time>
      </trkpt>
      <trkpt lat="49.18945" lon="6.95035">
        <ele>334</ele>
        <time>2010-12-05T08:19:54Z</time>
      </trkpt>
      <trkpt lat="49.18946" lon="6.95032">
        <ele>336</ele>
        <time>2010-12-05T08:19:56Z</time>
      </trkpt>
      <trkpt lat="49.18947" lon="6.95029">
        <ele>338</ele>
        <time>2010-12-05T08:19:58Z</time>
      </trkpt>
      <trkpt lat="49.18948" lon="6.95027">
        <ele>340</ele>
        <time>2010-12-05T08:20:00Z</time>
      </trkpt>
      <trkpt lat="49.1895" lon="6.95025">
        <ele>340</ele>
        <time>2010-12-05T08:20:02Z</time>
      </trkpt>
      <trkpt lat="49.18951" lon="6.95023">
        <ele>341</ele>
        <time>2010-12-05T08:20:04Z</time>
      </trkpt>
      <trkpt lat="49.18951" lon="6.95021">
        <ele>341</ele>
        <time>2010-12-05T08:20:06Z</time>
      </trkpt>
      <trkpt lat="49.18951" lon="6.95019">
        <ele>341</ele>
        <time>2010-12-05T08:20:08Z</time>
      </trkpt>
      <trkpt lat="49.18953" lon="6.95018">
        <ele>341</ele>
        <time>2010-12-05T08:20:10Z</time>
      </trkpt>
      <trkpt lat="49.18954" lon="6.95016">
        <ele>341</ele>
        <time>2010-12-05T08:20:12Z</time>
      </trkpt>
      <trkpt lat="49.18955" lon="6.95014">
        <ele>341</ele>
        <time>2010-12-05T08:20:14Z</time>
      </trkpt>
      <trkpt lat="49.18955" lon="6.95013">
        <ele>341</ele>
        <time>2010-12-05T08:20:15Z</time>
      </trkpt>
      <trkpt lat="49.18954" lon="6.9501">
        <ele>341</ele>
        <time>2010-12-05T08:20:16Z</time>
      </trkpt>
      <trkpt lat="49.18954" lon="6.95007">
        <ele>341</ele>
        <time>2010-12-05T08:20:18Z</time>
      </trkpt>
      <trkpt lat="49.18953" lon="6.95006">
        <ele>341</ele>
        <time>2010-12-05T08:20:19Z</time>
      </trkpt>
      <trkpt lat="49.18953" lon="6.95003">
        <ele>341</ele>
        <time>2010-12-05T08:20:21Z</time>
      </trkpt>
      <trkpt lat="49.18953" lon="6.95001">
        <ele>341</ele>
        <time>2010-12-05T08:20:22Z</time>
      </trkpt>
      <trkpt lat="49.18953" lon="6.94999">
        <ele>341</ele>
        <time>2010-12-05T08:20:23Z</time>
      </trkpt>
      <trkpt lat="49.18953" lon="6.94997">
        <ele>341</ele>
        <time>2010-12-05T08:20:24Z</time>
      </trkpt>
      <trkpt lat="49.18954" lon="6.94994">
        <ele>341</ele>
        <time>2010-12-05T08:20:26Z</time>
      </trkpt>
      <trkpt lat="49.18955" lon="6.94992">
        <ele>341</ele>
        <time>2010-12-05T08:20:28Z</time>
      </trkpt>
      <trkpt lat="49.18956" lon="6.94989">
        <ele>341</ele>
        <time>2010-12-05T08:20:30Z</time>
      </trkpt>
      <trkpt lat="49.18957" lon="6.94986">
        <ele>341</ele>
        <time>2010-12-05T08:20:32Z</time>
      </trkpt>
      <trkpt lat="49.18957" lon="6.94984">
        <ele>341</ele>
        <time>2010-12-05T08:20:33Z</time>
      </trkpt>
      <trkpt lat="49.18957" lon="6.94982">
        <ele>341</ele>
        <time>2010-12-05T08:20:34Z</time>
      </trkpt>
      <trkpt lat="49.18957" lon="6.94981">
        <ele>341</ele>
        <time>2010-12-05T08:20:35Z</time>
      </trkpt>
      <trkpt lat="49.18958" lon="6.94978">
        <ele>341</ele>
        <time>2010-12-05T08:20:37Z</time>
      </trkpt>
      <trkpt lat="49.18958" lon="6.94975">
        <ele>342</ele>
        <time>2010-12-05T08:20:39Z</time>
      </trkpt>
      <trkpt lat="49.18959" lon="6.94972">
        <ele>343</ele>
        <time>2010-12-05T08:20:41Z</time>
      </trkpt>
      <trkpt lat="49.1896" lon="6.9497">
        <ele>343</ele>
        <time>2010-12-05T08:20:43Z</time>
      </trkpt>
      <trkpt lat="49.1896" lon="6.94967">
        <ele>344</ele>
        <time>2010-12-05T08:20:45Z</time>
      </trkpt>
      <trkpt lat="49.18961" lon="6.94965">
        <ele>344</ele>
        <time>2010-12-05T08:20:47Z</time>
      </trkpt>
      <trkpt lat="49.18961" lon="6.94962">
        <ele>344</ele>
        <time>2010-12-05T08:20:49Z</time>
      </trkpt>
      <trkpt lat="49.18961" lon="6.94961">
        <ele>344</ele>
        <time>2010-12-05T08:20:50Z</time>
      </trkpt>
      <trkpt lat="49.18963" lon="6.94958">
        <ele>344</ele>
        <time>2010-12-05T08:20:52Z</time>
      </trkpt>
      <trkpt lat="49.18965" lon="6.94956">
        <ele>345</ele>
        <time>2010-12-05T08:20:54Z</time>
      </trkpt>
      <trkpt lat="49.18966" lon="6.94953">
        <ele>345</ele>
        <time>2010-12-05T08:20:56Z</time>
      </trkpt>
      <trkpt lat="49.18967" lon="6.94951">
        <ele>345</ele>
        <time>2010-12-05T08:20:57Z</time>
      </trkpt>
      <trkpt lat="49.18968" lon="6.9495">
        <ele>345</ele>
        <time>2010-12-05T08:20:58Z</time>
      </trkpt>
      <trkpt lat="49.18969" lon="6.94948">
        <ele>345</ele>
        <time>2010-12-05T08:20:59Z</time>
      </trkpt>
      <trkpt lat="49.18969" lon="6.94946">
        <ele>346</ele>
        <time>2010-12-05T08:21:00Z</time>
      </trkpt>
      <trkpt lat="49.1897" lon="6.94944">
        <ele>346</ele>
        <time>2010-12-05T08:21:01Z</time>
      </trkpt>
      <trkpt lat="49.18971" lon="6.94941">
        <ele>346</ele>
        <time>2010-12-05T08:21:03Z</time>
      </trkpt>
      <trkpt lat="49.18973" lon="6.94939">
        <ele>347</ele>
        <time>2010-12-05T08:21:05Z</time>
      </trkpt>
      <trkpt lat="49.18973" lon="6.94937">
        <ele>347</ele>
        <time>2010-12-05T08:21:06Z</time>
      </trkpt>
      <trkpt lat="49.18974" lon="6.94935">
        <ele>347</ele>
        <time>2010-12-05T08:21:07Z</time>
      </trkpt>
      <trkpt lat="49.18974" lon="6.94933">
        <ele>347</ele>
        <time>2010-12-05T08:21:08Z</time>
      </trkpt>
      <trkpt lat="49.18975" lon="6.94931">
        <ele>347</ele>
        <time>2010-12-05T08:21:10Z</time>
      </trkpt>
      <trkpt lat="49.18975" lon="6.94929">
        <ele>347</ele>
        <time>2010-12-05T08:21:11Z</time>
      </trkpt>
      <trkpt lat="49.18976" lon="6.94927">
        <ele>347</ele>
        <time>2010-12-05T08:21:12Z</time>
      </trkpt>
      <trkpt lat="49.18977" lon="6.94925">
        <ele>347</ele>
        <time>2010-12-05T08:21:13Z</time>
      </trkpt>
      <trkpt lat="49.18977" lon="6.94923">
        <ele>347</ele>
        <time>2010-12-05T08:21:14Z</time>
      </trkpt>
      <trkpt lat="49.18978" lon="6.9492">
        <ele>347</ele>
        <time>2010-12-05T08:21:16Z</time>
      </trkpt>
      <trkpt lat="49.18979" lon="6.94919">
        <ele>347</ele>
        <time>2010-12-05T08:21:17Z</time>
      </trkpt>
      <trkpt lat="49.1898" lon="6.94916">
        <ele>347</ele>
        <time>2010-12-05T08:21:19Z</time>
      </trkpt>
      <trkpt lat="49.1898" lon="6.94913">
        <ele>347</ele>
        <time>2010-12-05T08:21:21Z</time>
      </trkpt>
      <trkpt lat="49.18981" lon="6.94911">
        <ele>347</ele>
        <time>2010-12-05T08:21:22Z</time>
      </trkpt>
      <trkpt lat="49.18981" lon="6.94909">
        <ele>347</ele>
        <time>2010-12-05T08:21:23Z</time>
      </trkpt>
      <trkpt lat="49.18981" lon="6.94905">
        <ele>347</ele>
        <time>2010-12-05T08:21:25Z</time>
      </trkpt>
      <trkpt lat="49.18981" lon="6.94903">
        <ele>347</ele>
        <time>2010-12-05T08:21:26Z</time>
      </trkpt>
      <trkpt lat="49.18982" lon="6.94901">
        <ele>347</ele>
        <time>2010-12-05T08:21:28Z</time>
      </trkpt>
      <trkpt lat="49.18982" lon="6.94899">
        <ele>347</ele>
        <time>2010-12-05T08:21:29Z</time>
      </trkpt>
      <trkpt lat="49.18982" lon="6.94897">
        <ele>347</ele>
        <time>2010-12-05T08:21:30Z</time>
      </trkpt>
      <trkpt lat="49.18983" lon="6.94894">
        <ele>347</ele>
        <time>2010-12-05T08:21:32Z</time>
      </trkpt>
      <trkpt lat="49.18984" lon="6.94891">
        <ele>347</ele>
        <time>2010-12-05T08:21:34Z</time>
      </trkpt>
      <trkpt lat="49.18983" lon="6.94888">
        <ele>347</ele>
        <time>2010-12-05T08:21:36Z</time>
      </trkpt>
      <trkpt lat="49.18983" lon="6.94885">
        <ele>347</ele>
        <time>2010-12-05T08:21:38Z</time>
      </trkpt>
      <trkpt lat="49.18982" lon="6.94883">
        <ele>347</ele>
        <time>2010-12-05T08:21:40Z</time>
      </trkpt>
      <trkpt lat="49.1898" lon="6.94881">
        <ele>347</ele>
        <time>2010-12-05T08:21:42Z</time>
      </trkpt>
      <trkpt lat="49.18979" lon="6.94878">
        <ele>347</ele>
        <time>2010-12-05T08:21:44Z</time>
      </trkpt>
      <trkpt lat="49.18978" lon="6.94876">
        <ele>347</ele>
        <time>2010-12-05T08:21:46Z</time>
      </trkpt>
      <trkpt lat="49.18976" lon="6.94874">
        <ele>347</ele>
        <time>2010-12-05T08:21:48Z</time>
      </trkpt>
      <trkpt lat="49.18975" lon="6.94872">
        <ele>346</ele>
        <time>2010-12-05T08:21:50Z</time>
      </trkpt>
      <trkpt lat="49.18973" lon="6.94869">
        <ele>346</ele>
        <time>2010-12-05T08:21:52Z</time>
      </trkpt>
      <trkpt lat="49.18972" lon="6.94867">
        <ele>346</ele>
        <time>2010-12-05T08:21:54Z</time>
      </trkpt>
      <trkpt lat="49.1897" lon="6.94865">
        <ele>346</ele>
        <time>2010-12-05T08:21:56Z</time>
      </trkpt>
      <trkpt lat="49.18969" lon="6.94863">
        <ele>346</ele>
        <time>2010-12-05T08:21:58Z</time>
      </trkpt>
      <trkpt lat="49.18967" lon="6.94861">
        <ele>345</ele>
        <time>2010-12-05T08:22:00Z</time>
      </trkpt>
      <trkpt lat="49.18966" lon="6.94859">
        <ele>345</ele>
        <time>2010-12-05T08:22:02Z</time>
      </trkpt>
      <trkpt lat="49.18964" lon="6.94858">
        <ele>344</ele>
        <time>2010-12-05T08:22:04Z</time>
      </trkpt>
      <trkpt lat="49.18963" lon="6.94855">
        <ele>344</ele>
        <time>2010-12-05T08:22:06Z</time>
      </trkpt>
      <trkpt lat="49.18961" lon="6.94853">
        <ele>344</ele>
        <time>2010-12-05T08:22:08Z</time>
      </trkpt>
      <trkpt lat="49.1896" lon="6.94851">
        <ele>344</ele>
        <time>2010-12-05T08:22:10Z</time>
      </trkpt>
      <trkpt lat="49.18959" lon="6.94849">
        <ele>344</ele>
        <time>2010-12-05T08:22:12Z</time>
      </trkpt>
      <trkpt lat="49.18957" lon="6.94848">
        <ele>344</ele>
        <time>2010-12-05T08:22:14Z</time>
      </trkpt>
      <trkpt lat="49.18956" lon="6.94846">
        <ele>344</ele>
        <time>2010-12-05T08:22:16Z</time>
      </trkpt>
      <trkpt lat="49.18955" lon="6.94844">
        <ele>344</ele>
        <time>2010-12-05T08:22:18Z</time>
      </trkpt>
      <trkpt lat="49.18953" lon="6.94841">
        <ele>344</ele>
        <time>2010-12-05T08:22:20Z</time>
      </trkpt>
      <trkpt lat="49.18952" lon="6.94839">
        <ele>344</ele>
        <time>2010-12-05T08:22:22Z</time>
      </trkpt>
      <trkpt lat="49.18951" lon="6.94837">
        <ele>344</ele>
        <time>2010-12-05T08:22:24Z</time>
      </trkpt>
      <trkpt lat="49.1895" lon="6.94835">
        <ele>344</ele>
        <time>2010-12-05T08:22:26Z</time>
      </trkpt>
      <trkpt lat="49.18949" lon="6.94833">
        <ele>344</ele>
        <time>2010-12-05T08:22:28Z</time>
      </trkpt>
      <trkpt lat="49.18947" lon="6.9483">
        <ele>344</ele>
        <time>2010-12-05T08:22:30Z</time>
      </trkpt>
      <trkpt lat="49.18945" lon="6.94828">
        <ele>344</ele>
        <time>2010-12-05T08:22:32Z</time>
      </trkpt>
      <trkpt lat="49.18944" lon="6.94825">
        <ele>344</ele>
        <time>2010-12-05T08:22:34Z</time>
      </trkpt>
      <trkpt lat="49.18943" lon="6.94823">
        <ele>344</ele>
        <time>2010-12-05T08:22:36Z</time>
      </trkpt>
      <trkpt lat="49.18942" lon="6.9482">
        <ele>344</ele>
        <time>2010-12-05T08:22:38Z</time>
      </trkpt>
      <trkpt lat="49.1894" lon="6.94817">
        <ele>344</ele>
        <time>2010-12-05T08:22:40Z</time>
      </trkpt>
      <trkpt lat="49.18939" lon="6.94815">
        <ele>344</ele>
        <time>2010-12-05T08:22:42Z</time>
      </trkpt>
      <trkpt lat="49.18938" lon="6.94813">
        <ele>344</ele>
        <time>2010-12-05T08:22:44Z</time>
      </trkpt>
      <trkpt lat="49.18936" lon="6.9481">
        <ele>344</ele>
        <time>2010-12-05T08:22:46Z</time>
      </trkpt>
      <trkpt lat="49.18935" lon="6.94808">
        <ele>344</ele>
        <time>2010-12-05T08:22:48Z</time>
      </trkpt>
      <trkpt lat="49.18934" lon="6.94806">
        <ele>344</ele>
        <time>2010-12-05T08:22:50Z</time>
      </trkpt>
      <trkpt lat="49.18932" lon="6.94804">
        <ele>344</ele>
        <time>2010-12-05T08:22:52Z</time>
      </trkpt>
      <trkpt lat="49.18931" lon="6.94802">
        <ele>344</ele>
        <time>2010-12-05T08:22:54Z</time>
      </trkpt>
      <trkpt lat="49.18929" lon="6.948">
        <ele>344</ele>
        <time>2010-12-05T08:22:56Z</time>
      </trkpt>
      <trkpt lat="49.18927" lon="6.94797">
        <ele>344</ele>
        <time>2010-12-05T08:22:58Z</time>
      </trkpt>
      <trkpt lat="49.18926" lon="6.94795">
        <ele>344</ele>
        <time>2010-12-05T08:23:00Z</time>
      </trkpt>
      <trkpt lat="49.18924" lon="6.94794">
        <ele>344</ele>
        <time>2010-12-05T08:23:02Z</time>
      </trkpt>
      <trkpt lat="49.18923" lon="6.94791">
        <ele>344</ele>
        <time>2010-12-05T08:23:04Z</time>
      </trkpt>
      <trkpt lat="49.18923" lon="6.94789">
        <ele>344</ele>
        <time>2010-12-05T08:23:05Z</time>
      </trkpt>
      <trkpt lat="49.18922" lon="6.94787">
        <ele>344</ele>
        <time>2010-12-05T08:23:07Z</time>
      </trkpt>
      <trkpt lat="49.18921" lon="6.94785">
        <ele>344</ele>
        <time>2010-12-05T08:23:08Z</time>
      </trkpt>
      <trkpt lat="49.18919" lon="6.94782">
        <ele>344</ele>
        <time>2010-12-05T08:23:10Z</time>
      </trkpt>
      <trkpt lat="49.18918" lon="6.9478">
        <ele>344</ele>
        <time>2010-12-05T08:23:12Z</time>
      </trkpt>
      <trkpt lat="49.18917" lon="6.94777">
        <ele>344</ele>
        <time>2010-12-05T08:23:14Z</time>
      </trkpt>
      <trkpt lat="49.18916" lon="6.94775">
        <ele>344</ele>
        <time>2010-12-05T08:23:16Z</time>
      </trkpt>
      <trkpt lat="49.18914" lon="6.94772">
        <ele>344</ele>
        <time>2010-12-05T08:23:18Z</time>
      </trkpt>
      <trkpt lat="49.18913" lon="6.9477">
        <ele>344</ele>
        <time>2010-12-05T08:23:20Z</time>
      </trkpt>
      <trkpt lat="49.18911" lon="6.94768">
        <ele>344</ele>
        <time>2010-12-05T08:23:22Z</time>
      </trkpt>
      <trkpt lat="49.1891" lon="6.94766">
        <ele>344</ele>
        <time>2010-12-05T08:23:24Z</time>
      </trkpt>
      <trkpt lat="49.18908" lon="6.94764">
        <ele>344</ele>
        <time>2010-12-05T08:23:26Z</time>
      </trkpt>
      <trkpt lat="49.18906" lon="6.94762">
        <ele>344</ele>
        <time>2010-12-05T08:23:28Z</time>
      </trkpt>
      <trkpt lat="49.18904" lon="6.9476">
        <ele>344</ele>
        <time>2010-12-05T08:23:30Z</time>
      </trkpt>
      <trkpt lat="49.18903" lon="6.94757">
        <ele>344</ele>
        <time>2010-12-05T08:23:32Z</time>
      </trkpt>
      <trkpt lat="49.18902" lon="6.94756">
        <ele>344</ele>
        <time>2010-12-05T08:23:33Z</time>
      </trkpt>
      <trkpt lat="49.18901" lon="6.94753">
        <ele>344</ele>
        <time>2010-12-05T08:23:35Z</time>
      </trkpt>
      <trkpt lat="49.189" lon="6.94751">
        <ele>344</ele>
        <time>2010-12-05T08:23:38Z</time>
      </trkpt>
      <trkpt lat="49.18898" lon="6.94748">
        <ele>344</ele>
        <time>2010-12-05T08:23:40Z</time>
      </trkpt>
      <trkpt lat="49.18897" lon="6.94746">
        <ele>344</ele>
        <time>2010-12-05T08:23:41Z</time>
      </trkpt>
      <trkpt lat="49.18897" lon="6.94744">
        <ele>344</ele>
        <time>2010-12-05T08:23:42Z</time>
      </trkpt>
      <trkpt lat="49.18896" lon="6.94742">
        <ele>344</ele>
        <time>2010-12-05T08:23:43Z</time>
      </trkpt>
      <trkpt lat="49.18896" lon="6.94739">
        <ele>344</ele>
        <time>2010-12-05T08:23:44Z</time>
      </trkpt>
      <trkpt lat="49.18896" lon="6.94737">
        <ele>344</ele>
        <time>2010-12-05T08:23:45Z</time>
      </trkpt>
      <trkpt lat="49.18896" lon="6.94736">
        <ele>344</ele>
        <time>2010-12-05T08:23:46Z</time>
      </trkpt>
      <trkpt lat="49.18895" lon="6.94734">
        <ele>345</ele>
        <time>2010-12-05T08:23:47Z</time>
      </trkpt>
      <trkpt lat="49.18895" lon="6.94732">
        <ele>345</ele>
        <time>2010-12-05T08:23:48Z</time>
      </trkpt>
      <trkpt lat="49.18895" lon="6.9473">
        <ele>345</ele>
        <time>2010-12-05T08:23:50Z</time>
      </trkpt>
      <trkpt lat="49.18894" lon="6.94727">
        <ele>346</ele>
        <time>2010-12-05T08:23:52Z</time>
      </trkpt>
      <trkpt lat="49.18893" lon="6.94725">
        <ele>347</ele>
        <time>2010-12-05T08:24:15Z</time>
      </trkpt>
      <trkpt lat="49.18893" lon="6.94723">
        <ele>347</ele>
        <time>2010-12-05T08:24:17Z</time>
      </trkpt>
      <trkpt lat="49.18893" lon="6.94721">
        <ele>347</ele>
        <time>2010-12-05T08:24:18Z</time>
      </trkpt>
      <trkpt lat="49.18893" lon="6.94719">
        <ele>347</ele>
        <time>2010-12-05T08:24:19Z</time>
      </trkpt>
      <trkpt lat="49.18892" lon="6.94718">
        <ele>347</ele>
        <time>2010-12-05T08:24:20Z</time>
      </trkpt>
      <trkpt lat="49.18892" lon="6.94716">
        <ele>347</ele>
        <time>2010-12-05T08:24:21Z</time>
      </trkpt>
      <trkpt lat="49.18892" lon="6.94713">
        <ele>347</ele>
        <time>2010-12-05T08:24:23Z</time>
      </trkpt>
      <trkpt lat="49.18892" lon="6.9471">
        <ele>347</ele>
        <time>2010-12-05T08:24:25Z</time>
      </trkpt>
      <trkpt lat="49.18892" lon="6.94708">
        <ele>347</ele>
        <time>2010-12-05T08:24:26Z</time>
      </trkpt>
      <trkpt lat="49.18892" lon="6.94706">
        <ele>347</ele>
        <time>2010-12-05T08:24:27Z</time>
      </trkpt>
      <trkpt lat="49.18891" lon="6.94704">
        <ele>347</ele>
        <time>2010-12-05T08:24:29Z</time>
      </trkpt>
      <trkpt lat="49.18891" lon="6.94701">
        <ele>347</ele>
        <time>2010-12-05T08:24:31Z</time>
      </trkpt>
      <trkpt lat="49.18891" lon="6.94699">
        <ele>347</ele>
        <time>2010-12-05T08:24:32Z</time>
      </trkpt>
      <trkpt lat="49.18891" lon="6.94697">
        <ele>347</ele>
        <time>2010-12-05T08:24:34Z</time>
      </trkpt>
      <trkpt lat="49.18891" lon="6.94695">
        <ele>347</ele>
        <time>2010-12-05T08:24:35Z</time>
      </trkpt>
      <trkpt lat="49.18891" lon="6.94693">
        <ele>347</ele>
        <time>2010-12-05T08:24:36Z</time>
      </trkpt>
      <trkpt lat="49.18891" lon="6.94691">
        <ele>347</ele>
        <time>2010-12-05T08:24:37Z</time>
      </trkpt>
      <trkpt lat="49.18891" lon="6.9469">
        <ele>347</ele>
        <time>2010-12-05T08:24:38Z</time>
      </trkpt>
      <trkpt lat="49.18891" lon="6.94688">
        <ele>347</ele>
        <time>2010-12-05T08:24:39Z</time>
      </trkpt>
      <trkpt lat="49.18891" lon="6.94685">
        <ele>347</ele>
        <time>2010-12-05T08:24:41Z</time>
      </trkpt>
      <trkpt lat="49.18891" lon="6.94683">
        <ele>347</ele>
        <time>2010-12-05T08:24:42Z</time>
      </trkpt>
      <trkpt lat="49.18892" lon="6.94681">
        <ele>347</ele>
        <time>2010-12-05T08:24:43Z</time>
      </trkpt>
      <trkpt lat="49.18892" lon="6.94679">
        <ele>347</ele>
        <time>2010-12-05T08:24:44Z</time>
      </trkpt>
      <trkpt lat="49.18891" lon="6.94677">
        <ele>347</ele>
        <time>2010-12-05T08:24:45Z</time>
      </trkpt>
      <trkpt lat="49.18891" lon="6.94676">
        <ele>347</ele>
        <time>2010-12-05T08:24:46Z</time>
      </trkpt>
      <trkpt lat="49.18891" lon="6.94673">
        <ele>347</ele>
        <time>2010-12-05T08:24:48Z</time>
      </trkpt>
      <trkpt lat="49.1889" lon="6.94671">
        <ele>347</ele>
        <time>2010-12-05T08:24:49Z</time>
      </trkpt>
      <trkpt lat="49.1889" lon="6.94669">
        <ele>347</ele>
        <time>2010-12-05T08:24:51Z</time>
      </trkpt>
      <trkpt lat="49.18889" lon="6.94666">
        <ele>348</ele>
        <time>2010-12-05T08:24:53Z</time>
      </trkpt>
      <trkpt lat="49.18888" lon="6.94663">
        <ele>348</ele>
        <time>2010-12-05T08:24:55Z</time>
      </trkpt>
      <trkpt lat="49.18887" lon="6.94661">
        <ele>348</ele>
        <time>2010-12-05T08:24:57Z</time>
      </trkpt>
      <trkpt lat="49.18885" lon="6.94659">
        <ele>348</ele>
        <time>2010-12-05T08:24:59Z</time>
      </trkpt>
      <trkpt lat="49.18885" lon="6.94657">
        <ele>348</ele>
        <time>2010-12-05T08:25:01Z</time>
      </trkpt>
      <trkpt lat="49.18884" lon="6.94655">
        <ele>348</ele>
        <time>2010-12-05T08:25:03Z</time>
      </trkpt>
      <trkpt lat="49.18882" lon="6.94654">
        <ele>348</ele>
        <time>2010-12-05T08:25:05Z</time>
      </trkpt>
      <trkpt lat="49.18881" lon="6.94651">
        <ele>348</ele>
        <time>2010-12-05T08:25:07Z</time>
      </trkpt>
      <trkpt lat="49.1888" lon="6.94649">
        <ele>348</ele>
        <time>2010-12-05T08:25:08Z</time>
      </trkpt>
      <trkpt lat="49.1888" lon="6.94647">
        <ele>348</ele>
        <time>2010-12-05T08:25:10Z</time>
      </trkpt>
      <trkpt lat="49.18879" lon="6.94644">
        <ele>348</ele>
        <time>2010-12-05T08:25:12Z</time>
      </trkpt>
      <trkpt lat="49.18879" lon="6.94642">
        <ele>348</ele>
        <time>2010-12-05T08:25:13Z</time>
      </trkpt>
      <trkpt lat="49.18879" lon="6.94639">
        <ele>348</ele>
        <time>2010-12-05T08:25:15Z</time>
      </trkpt>
      <trkpt lat="49.18879" lon="6.94636">
        <ele>348</ele>
        <time>2010-12-05T08:25:17Z</time>
      </trkpt>
      <trkpt lat="49.18878" lon="6.94634">
        <ele>348</ele>
        <time>2010-12-05T08:25:18Z</time>
      </trkpt>
      <trkpt lat="49.18878" lon="6.94632">
        <ele>348</ele>
        <time>2010-12-05T08:25:19Z</time>
      </trkpt>
      <trkpt lat="49.18879" lon="6.94631">
        <ele>348</ele>
        <time>2010-12-05T08:25:20Z</time>
      </trkpt>
      <trkpt lat="49.18879" lon="6.94629">
        <ele>348</ele>
        <time>2010-12-05T08:25:21Z</time>
      </trkpt>
      <trkpt lat="49.18879" lon="6.94627">
        <ele>348</ele>
        <time>2010-12-05T08:25:22Z</time>
      </trkpt>
      <trkpt lat="49.18878" lon="6.94625">
        <ele>348</ele>
        <time>2010-12-05T08:25:24Z</time>
      </trkpt>
      <trkpt lat="49.18878" lon="6.94622">
        <ele>349</ele>
        <time>2010-12-05T08:25:26Z</time>
      </trkpt>
      <trkpt lat="49.18877" lon="6.94619">
        <ele>349</ele>
        <time>2010-12-05T08:25:28Z</time>
      </trkpt>
      <trkpt lat="49.18876" lon="6.94615">
        <ele>349</ele>
        <time>2010-12-05T08:25:30Z</time>
      </trkpt>
      <trkpt lat="49.18876" lon="6.94613">
        <ele>349</ele>
        <time>2010-12-05T08:25:32Z</time>
      </trkpt>
      <trkpt lat="49.18876" lon="6.9461">
        <ele>349</ele>
        <time>2010-12-05T08:25:34Z</time>
      </trkpt>
      <trkpt lat="49.18876" lon="6.94608">
        <ele>349</ele>
        <time>2010-12-05T08:25:35Z</time>
      </trkpt>
      <trkpt lat="49.18876" lon="6.94606">
        <ele>349</ele>
        <time>2010-12-05T08:25:36Z</time>
      </trkpt>
      <trkpt lat="49.18876" lon="6.94603">
        <ele>350</ele>
        <time>2010-12-05T08:25:38Z</time>
      </trkpt>
      <trkpt lat="49.18875" lon="6.946">
        <ele>350</ele>
        <time>2010-12-05T08:25:40Z</time>
      </trkpt>
      <trkpt lat="49.18875" lon="6.94598">
        <ele>351</ele>
        <time>2010-12-05T08:25:42Z</time>
      </trkpt>
      <trkpt lat="49.18874" lon="6.94596">
        <ele>351</ele>
        <time>2010-12-05T08:25:45Z</time>
      </trkpt>
      <trkpt lat="49.18874" lon="6.94594">
        <ele>351</ele>
        <time>2010-12-05T08:25:47Z</time>
      </trkpt>
      <trkpt lat="49.18874" lon="6.94591">
        <ele>351</ele>
        <time>2010-12-05T08:25:49Z</time>
      </trkpt>
      <trkpt lat="49.18873" lon="6.94588">
        <ele>352</ele>
        <time>2010-12-05T08:25:51Z</time>
      </trkpt>
      <trkpt lat="49.18874" lon="6.94587">
        <ele>352</ele>
        <time>2010-12-05T08:25:53Z</time>
      </trkpt>
      <trkpt lat="49.18873" lon="6.94584">
        <ele>352</ele>
        <time>2010-12-05T08:25:55Z</time>
      </trkpt>
      <trkpt lat="49.18872" lon="6.94582">
        <ele>352</ele>
        <time>2010-12-05T08:25:56Z</time>
      </trkpt>
      <trkpt lat="49.18872" lon="6.9458">
        <ele>352</ele>
        <time>2010-12-05T08:25:57Z</time>
      </trkpt>
      <trkpt lat="49.18872" lon="6.94578">
        <ele>352</ele>
        <time>2010-12-05T08:25:59Z</time>
      </trkpt>
      <trkpt lat="49.18871" lon="6.94576">
        <ele>353</ele>
        <time>2010-12-05T08:26:01Z</time>
      </trkpt>
      <trkpt lat="49.18871" lon="6.94573">
        <ele>353</ele>
        <time>2010-12-05T08:26:03Z</time>
      </trkpt>
      <trkpt lat="49.1887" lon="6.94571">
        <ele>353</ele>
        <time>2010-12-05T08:26:05Z</time>
      </trkpt>
      <trkpt lat="49.18869" lon="6.94569">
        <ele>354</ele>
        <time>2010-12-05T08:26:07Z</time>
      </trkpt>
      <trkpt lat="49.18869" lon="6.94567">
        <ele>355</ele>
        <time>2010-12-05T08:26:08Z</time>
      </trkpt>
      <trkpt lat="49.18869" lon="6.94565">
        <ele>355</ele>
        <time>2010-12-05T08:26:09Z</time>
      </trkpt>
      <trkpt lat="49.18869" lon="6.94563">
        <ele>356</ele>
        <time>2010-12-05T08:26:10Z</time>
      </trkpt>
      <trkpt lat="49.18869" lon="6.9456">
        <ele>357</ele>
        <time>2010-12-05T08:26:12Z</time>
      </trkpt>
      <trkpt lat="49.18868" lon="6.94558">
        <ele>357</ele>
        <time>2010-12-05T08:26:13Z</time>
      </trkpt>
      <trkpt lat="49.18867" lon="6.94557">
        <ele>357</ele>
        <time>2010-12-05T08:26:14Z</time>
      </trkpt>
      <trkpt lat="49.18867" lon="6.94555">
        <ele>357</ele>
        <time>2010-12-05T08:26:15Z</time>
      </trkpt>
      <trkpt lat="49.18866" lon="6.94553">
        <ele>357</ele>
        <time>2010-12-05T08:26:16Z</time>
      </trkpt>
      <trkpt lat="49.18866" lon="6.94551">
        <ele>357</ele>
        <time>2010-12-05T08:26:17Z</time>
      </trkpt>
      <trkpt lat="49.18867" lon="6.94549">
        <ele>358</ele>
        <time>2010-12-05T08:26:18Z</time>
      </trkpt>
      <trkpt lat="49.18867" lon="6.94547">
        <ele>358</ele>
        <time>2010-12-05T08:26:19Z</time>
      </trkpt>
      <trkpt lat="49.18866" lon="6.94544">
        <ele>360</ele>
        <time>2010-12-05T08:26:21Z</time>
      </trkpt>
      <trkpt lat="49.18865" lon="6.94543">
        <ele>360</ele>
        <time>2010-12-05T08:26:23Z</time>
      </trkpt>
      <trkpt lat="49.18864" lon="6.9454">
        <ele>360</ele>
        <time>2010-12-05T08:26:25Z</time>
      </trkpt>
      <trkpt lat="49.18864" lon="6.94537">
        <ele>360</ele>
        <time>2010-12-05T08:26:27Z</time>
      </trkpt>
      <trkpt lat="49.18864" lon="6.94534">
        <ele>361</ele>
        <time>2010-12-05T08:26:29Z</time>
      </trkpt>
      <trkpt lat="49.18863" lon="6.94531">
        <ele>361</ele>
        <time>2010-12-05T08:26:31Z</time>
      </trkpt>
      <trkpt lat="49.18862" lon="6.94529">
        <ele>361</ele>
        <time>2010-12-05T08:26:33Z</time>
      </trkpt>
      <trkpt lat="49.18861" lon="6.94526">
        <ele>361</ele>
        <time>2010-12-05T08:26:35Z</time>
      </trkpt>
      <trkpt lat="49.18861" lon="6.94523">
        <ele>361</ele>
        <time>2010-12-05T08:26:37Z</time>
      </trkpt>
      <trkpt lat="49.1886" lon="6.94521">
        <ele>361</ele>
        <time>2010-12-05T08:26:39Z</time>
      </trkpt>
      <trkpt lat="49.1886" lon="6.94519">
        <ele>361</ele>
        <time>2010-12-05T08:26:40Z</time>
      </trkpt>
      <trkpt lat="49.1886" lon="6.94517">
        <ele>361</ele>
        <time>2010-12-05T08:26:42Z</time>
      </trkpt>
      <trkpt lat="49.18859" lon="6.94514">
        <ele>361</ele>
        <time>2010-12-05T08:26:43Z</time>
      </trkpt>
      <trkpt lat="49.18859" lon="6.94512">
        <ele>361</ele>
        <time>2010-12-05T08:26:44Z</time>
      </trkpt>
      <trkpt lat="49.18858" lon="6.9451">
        <ele>361</ele>
        <time>2010-12-05T08:26:46Z</time>
      </trkpt>
      <trkpt lat="49.18857" lon="6.94506">
        <ele>361</ele>
        <time>2010-12-05T08:26:48Z</time>
      </trkpt>
      <trkpt lat="49.18857" lon="6.94504">
        <ele>361</ele>
        <time>2010-12-05T08:26:50Z</time>
      </trkpt>
      <trkpt lat="49.18856" lon="6.94501">
        <ele>361</ele>
        <time>2010-12-05T08:26:52Z</time>
      </trkpt>
      <trkpt lat="49.18855" lon="6.94498">
        <ele>361</ele>
        <time>2010-12-05T08:26:54Z</time>
      </trkpt>
      <trkpt lat="49.18855" lon="6.94496">
        <ele>361</ele>
        <time>2010-12-05T08:26:56Z</time>
      </trkpt>
      <trkpt lat="49.18853" lon="6.94493">
        <ele>361</ele>
        <time>2010-12-05T08:26:58Z</time>
      </trkpt>
      <trkpt lat="49.18853" lon="6.94491">
        <ele>361</ele>
        <time>2010-12-05T08:27:00Z</time>
      </trkpt>
      <trkpt lat="49.18852" lon="6.94489">
        <ele>361</ele>
        <time>2010-12-05T08:27:01Z</time>
      </trkpt>
      <trkpt lat="49.18852" lon="6.94486">
        <ele>361</ele>
        <time>2010-12-05T08:27:03Z</time>
      </trkpt>
      <trkpt lat="49.18851" lon="6.94485">
        <ele>361</ele>
        <time>2010-12-05T08:27:04Z</time>
      </trkpt>
      <trkpt lat="49.18852" lon="6.94483">
        <ele>362</ele>
        <time>2010-12-05T08:27:05Z</time>
      </trkpt>
      <trkpt lat="49.18851" lon="6.9448">
        <ele>362</ele>
        <time>2010-12-05T08:27:07Z</time>
      </trkpt>
      <trkpt lat="49.1885" lon="6.94477">
        <ele>362</ele>
        <time>2010-12-05T08:27:09Z</time>
      </trkpt>
      <trkpt lat="49.18849" lon="6.94476">
        <ele>362</ele>
        <time>2010-12-05T08:27:10Z</time>
      </trkpt>
      <trkpt lat="49.18848" lon="6.94473">
        <ele>362</ele>
        <time>2010-12-05T08:27:12Z</time>
      </trkpt>
      <trkpt lat="49.18847" lon="6.9447">
        <ele>362</ele>
        <time>2010-12-05T08:27:14Z</time>
      </trkpt>
      <trkpt lat="49.18846" lon="6.94468">
        <ele>362</ele>
        <time>2010-12-05T08:27:16Z</time>
      </trkpt>
      <trkpt lat="49.18845" lon="6.94465">
        <ele>362</ele>
        <time>2010-12-05T08:27:18Z</time>
      </trkpt>
      <trkpt lat="49.18843" lon="6.94463">
        <ele>362</ele>
        <time>2010-12-05T08:27:20Z</time>
      </trkpt>
      <trkpt lat="49.18842" lon="6.9446">
        <ele>362</ele>
        <time>2010-12-05T08:27:22Z</time>
      </trkpt>
      <trkpt lat="49.1884" lon="6.94458">
        <ele>362</ele>
        <time>2010-12-05T08:27:24Z</time>
      </trkpt>
      <trkpt lat="49.18839" lon="6.94455">
        <ele>362</ele>
        <time>2010-12-05T08:27:26Z</time>
      </trkpt>
      <trkpt lat="49.18838" lon="6.94453">
        <ele>362</ele>
        <time>2010-12-05T08:27:28Z</time>
      </trkpt>
      <trkpt lat="49.18837" lon="6.9445">
        <ele>362</ele>
        <time>2010-12-05T08:27:30Z</time>
      </trkpt>
      <trkpt lat="49.18836" lon="6.94448">
        <ele>362</ele>
        <time>2010-12-05T08:27:32Z</time>
      </trkpt>
      <trkpt lat="49.18836" lon="6.94446">
        <ele>362</ele>
        <time>2010-12-05T08:27:34Z</time>
      </trkpt>
      <trkpt lat="49.18835" lon="6.94443">
        <ele>362</ele>
        <time>2010-12-05T08:27:36Z</time>
      </trkpt>
      <trkpt lat="49.18834" lon="6.9444">
        <ele>362</ele>
        <time>2010-12-05T08:27:38Z</time>
      </trkpt>
      <trkpt lat="49.18834" lon="6.94437">
        <ele>362</ele>
        <time>2010-12-05T08:27:40Z</time>
      </trkpt>
      <trkpt lat="49.18832" lon="6.94435">
        <ele>362</ele>
        <time>2010-12-05T08:27:42Z</time>
      </trkpt>
      <trkpt lat="49.18832" lon="6.94432">
        <ele>362</ele>
        <time>2010-12-05T08:27:43Z</time>
      </trkpt>
      <trkpt lat="49.18831" lon="6.9443">
        <ele>362</ele>
        <time>2010-12-05T08:27:45Z</time>
      </trkpt>
      <trkpt lat="49.18829" lon="6.94427">
        <ele>362</ele>
        <time>2010-12-05T08:27:47Z</time>
      </trkpt>
      <trkpt lat="49.18828" lon="6.94425">
        <ele>362</ele>
        <time>2010-12-05T08:27:49Z</time>
      </trkpt>
      <trkpt lat="49.18827" lon="6.94423">
        <ele>364</ele>
        <time>2010-12-05T08:27:52Z</time>
      </trkpt>
      <trkpt lat="49.18825" lon="6.94424">
        <ele>364</ele>
        <time>2010-12-05T08:27:54Z</time>
      </trkpt>
      <trkpt lat="49.18824" lon="6.94427">
        <ele>364</ele>
        <time>2010-12-05T08:27:56Z</time>
      </trkpt>
      <trkpt lat="49.18823" lon="6.94429">
        <ele>364</ele>
        <time>2010-12-05T08:27:57Z</time>
      </trkpt>
      <trkpt lat="49.18822" lon="6.94431">
        <ele>364</ele>
        <time>2010-12-05T08:27:58Z</time>
      </trkpt>
      <trkpt lat="49.1882" lon="6.94433">
        <ele>364</ele>
        <time>2010-12-05T08:28:00Z</time>
      </trkpt>
      <trkpt lat="49.18819" lon="6.94434">
        <ele>364</ele>
        <time>2010-12-05T08:28:02Z</time>
      </trkpt>
      <trkpt lat="49.18818" lon="6.94436">
        <ele>364</ele>
        <time>2010-12-05T08:28:04Z</time>
      </trkpt>
      <trkpt lat="49.18816" lon="6.94437">
        <ele>364</ele>
        <time>2010-12-05T08:28:06Z</time>
      </trkpt>
      <trkpt lat="49.18815" lon="6.94437">
        <ele>364</ele>
        <time>2010-12-05T08:28:08Z</time>
      </trkpt>
      <trkpt lat="49.18813" lon="6.94437">
        <ele>364</ele>
        <time>2010-12-05T08:28:10Z</time>
      </trkpt>
      <trkpt lat="49.18812" lon="6.94438">
        <ele>363</ele>
        <time>2010-12-05T08:28:12Z</time>
      </trkpt>
      <trkpt lat="49.1881" lon="6.94437">
        <ele>362</ele>
        <time>2010-12-05T08:28:14Z</time>
      </trkpt>
      <trkpt lat="49.18809" lon="6.94437">
        <ele>362</ele>
        <time>2010-12-05T08:28:15Z</time>
      </trkpt>
      <trkpt lat="49.18807" lon="6.94437">
        <ele>361</ele>
        <time>2010-12-05T08:28:17Z</time>
      </trkpt>
      <trkpt lat="49.18805" lon="6.94437">
        <ele>360</ele>
        <time>2010-12-05T08:28:19Z</time>
      </trkpt>
      <trkpt lat="49.18804" lon="6.94436">
        <ele>359</ele>
        <time>2010-12-05T08:28:21Z</time>
      </trkpt>
      <trkpt lat="49.18802" lon="6.94436">
        <ele>359</ele>
        <time>2010-12-05T08:28:23Z</time>
      </trkpt>
      <trkpt lat="49.188" lon="6.94436">
        <ele>359</ele>
        <time>2010-12-05T08:28:25Z</time>
      </trkpt>
      <trkpt lat="49.18798" lon="6.94435">
        <ele>358</ele>
        <time>2010-12-05T08:28:27Z</time>
      </trkpt>
      <trkpt lat="49.18796" lon="6.94435">
        <ele>358</ele>
        <time>2010-12-05T08:28:29Z</time>
      </trkpt>
      <trkpt lat="49.18795" lon="6.94435">
        <ele>357</ele>
        <time>2010-12-05T08:28:31Z</time>
      </trkpt>
      <trkpt lat="49.18793" lon="6.94436">
        <ele>357</ele>
        <time>2010-12-05T08:28:32Z</time>
      </trkpt>
      <trkpt lat="49.18792" lon="6.94436">
        <ele>357</ele>
        <time>2010-12-05T08:28:33Z</time>
      </trkpt>
      <trkpt lat="49.18791" lon="6.94436">
        <ele>356</ele>
        <time>2010-12-05T08:28:34Z</time>
      </trkpt>
      <trkpt lat="49.1879" lon="6.94437">
        <ele>356</ele>
        <time>2010-12-05T08:28:35Z</time>
      </trkpt>
      <trkpt lat="49.18788" lon="6.94438">
        <ele>355</ele>
        <time>2010-12-05T08:28:37Z</time>
      </trkpt>
      <trkpt lat="49.18786" lon="6.94439">
        <ele>354</ele>
        <time>2010-12-05T08:28:39Z</time>
      </trkpt>
      <trkpt lat="49.18784" lon="6.94439">
        <ele>354</ele>
        <time>2010-12-05T08:28:40Z</time>
      </trkpt>
      <trkpt lat="49.18782" lon="6.94439">
        <ele>353</ele>
        <time>2010-12-05T08:28:41Z</time>
      </trkpt>
      <trkpt lat="49.18781" lon="6.94439">
        <ele>353</ele>
        <time>2010-12-05T08:28:42Z</time>
      </trkpt>
      <trkpt lat="49.18779" lon="6.94439">
        <ele>353</ele>
        <time>2010-12-05T08:28:43Z</time>
      </trkpt>
      <trkpt lat="49.18778" lon="6.94438">
        <ele>353</ele>
        <time>2010-12-05T08:28:44Z</time>
      </trkpt>
      <trkpt lat="49.18776" lon="6.94438">
        <ele>353</ele>
        <time>2010-12-05T08:28:45Z</time>
      </trkpt>
      <trkpt lat="49.18775" lon="6.94438">
        <ele>353</ele>
        <time>2010-12-05T08:28:46Z</time>
      </trkpt>
      <trkpt lat="49.18774" lon="6.94437">
        <ele>353</ele>
        <time>2010-12-05T08:28:47Z</time>
      </trkpt>
      <trkpt lat="49.18773" lon="6.94436">
        <ele>353</ele>
        <time>2010-12-05T08:28:48Z</time>
      </trkpt>
      <trkpt lat="49.18771" lon="6.94436">
        <ele>353</ele>
        <time>2010-12-05T08:28:49Z</time>
      </trkpt>
      <trkpt lat="49.18769" lon="6.94437">
        <ele>353</ele>
        <time>2010-12-05T08:28:51Z</time>
      </trkpt>
      <trkpt lat="49.18768" lon="6.94437">
        <ele>353</ele>
        <time>2010-12-05T08:28:52Z</time>
      </trkpt>
      <trkpt lat="49.18766" lon="6.94437">
        <ele>353</ele>
        <time>2010-12-05T08:28:54Z</time>
      </trkpt>
      <trkpt lat="49.18764" lon="6.94437">
        <ele>353</ele>
        <time>2010-12-05T08:28:56Z</time>
      </trkpt>
      <trkpt lat="49.18762" lon="6.94437">
        <ele>352</ele>
        <time>2010-12-05T08:28:58Z</time>
      </trkpt>
      <trkpt lat="49.18761" lon="6.94437">
        <ele>352</ele>
        <time>2010-12-05T08:28:59Z</time>
      </trkpt>
      <trkpt lat="49.1876" lon="6.94437">
        <ele>352</ele>
        <time>2010-12-05T08:29:00Z</time>
      </trkpt>
      <trkpt lat="49.18758" lon="6.94437">
        <ele>352</ele>
        <time>2010-12-05T08:29:01Z</time>
      </trkpt>
      <trkpt lat="49.18756" lon="6.94437">
        <ele>352</ele>
        <time>2010-12-05T08:29:03Z</time>
      </trkpt>
      <trkpt lat="49.18754" lon="6.94437">
        <ele>352</ele>
        <time>2010-12-05T08:29:05Z</time>
      </trkpt>
      <trkpt lat="49.18753" lon="6.94437">
        <ele>352</ele>
        <time>2010-12-05T08:29:06Z</time>
      </trkpt>
      <trkpt lat="49.1875" lon="6.94436">
        <ele>352</ele>
        <time>2010-12-05T08:29:08Z</time>
      </trkpt>
      <trkpt lat="49.18748" lon="6.94436">
        <ele>352</ele>
        <time>2010-12-05T08:29:10Z</time>
      </trkpt>
      <trkpt lat="49.18747" lon="6.94435">
        <ele>352</ele>
        <time>2010-12-05T08:29:11Z</time>
      </trkpt>
      <trkpt lat="49.18745" lon="6.94436">
        <ele>352</ele>
        <time>2010-12-05T08:29:12Z</time>
      </trkpt>
      <trkpt lat="49.18744" lon="6.94436">
        <ele>352</ele>
        <time>2010-12-05T08:29:13Z</time>
      </trkpt>
      <trkpt lat="49.18743" lon="6.94436">
        <ele>352</ele>
        <time>2010-12-05T08:29:14Z</time>
      </trkpt>
      <trkpt lat="49.18741" lon="6.94437">
        <ele>352</ele>
        <time>2010-12-05T08:29:16Z</time>
      </trkpt>
      <trkpt lat="49.18739" lon="6.94438">
        <ele>352</ele>
        <time>2010-12-05T08:29:18Z</time>
      </trkpt>
      <trkpt lat="49.18737" lon="6.94438">
        <ele>352</ele>
        <time>2010-12-05T08:29:19Z</time>
      </trkpt>
      <trkpt lat="49.18736" lon="6.94439">
        <ele>352</ele>
        <time>2010-12-05T08:29:20Z</time>
      </trkpt>
      <trkpt lat="49.18734" lon="6.9444">
        <ele>352</ele>
        <time>2010-12-05T08:29:22Z</time>
      </trkpt>
      <trkpt lat="49.18733" lon="6.94441">
        <ele>352</ele>
        <time>2010-12-05T08:29:24Z</time>
      </trkpt>
      <trkpt lat="49.18731" lon="6.94442">
        <ele>352</ele>
        <time>2010-12-05T08:29:25Z</time>
      </trkpt>
      <trkpt lat="49.18729" lon="6.94442">
        <ele>352</ele>
        <time>2010-12-05T08:29:27Z</time>
      </trkpt>
      <trkpt lat="49.18728" lon="6.94442">
        <ele>352</ele>
        <time>2010-12-05T08:29:28Z</time>
      </trkpt>
      <trkpt lat="49.18726" lon="6.94443">
        <ele>352</ele>
        <time>2010-12-05T08:29:30Z</time>
      </trkpt>
      <trkpt lat="49.18725" lon="6.94443">
        <ele>352</ele>
        <time>2010-12-05T08:29:31Z</time>
      </trkpt>
      <trkpt lat="49.18724" lon="6.94444">
        <ele>352</ele>
        <time>2010-12-05T08:29:32Z</time>
      </trkpt>
      <trkpt lat="49.18723" lon="6.94445">
        <ele>352</ele>
        <time>2010-12-05T08:29:33Z</time>
      </trkpt>
      <trkpt lat="49.18721" lon="6.94446">
        <ele>351</ele>
        <time>2010-12-05T08:29:35Z</time>
      </trkpt>
      <trkpt lat="49.1872" lon="6.94446">
        <ele>351</ele>
        <time>2010-12-05T08:29:36Z</time>
      </trkpt>
      <trkpt lat="49.18718" lon="6.94447">
        <ele>351</ele>
        <time>2010-12-05T08:29:38Z</time>
      </trkpt>
      <trkpt lat="49.18716" lon="6.94448">
        <ele>351</ele>
        <time>2010-12-05T08:29:40Z</time>
      </trkpt>
      <trkpt lat="49.18715" lon="6.94448">
        <ele>351</ele>
        <time>2010-12-05T08:29:41Z</time>
      </trkpt>
      <trkpt lat="49.18713" lon="6.94449">
        <ele>350</ele>
        <time>2010-12-05T08:29:43Z</time>
      </trkpt>
      <trkpt lat="49.18711" lon="6.9445">
        <ele>350</ele>
        <time>2010-12-05T08:29:45Z</time>
      </trkpt>
      <trkpt lat="49.18709" lon="6.94451">
        <ele>350</ele>
        <time>2010-12-05T08:29:47Z</time>
      </trkpt>
      <trkpt lat="49.18708" lon="6.94452">
        <ele>350</ele>
        <time>2010-12-05T08:29:49Z</time>
      </trkpt>
      <trkpt lat="49.18706" lon="6.94453">
        <ele>350</ele>
        <time>2010-12-05T08:29:51Z</time>
      </trkpt>
      <trkpt lat="49.18704" lon="6.94456">
        <ele>350</ele>
        <time>2010-12-05T08:29:53Z</time>
      </trkpt>
      <trkpt lat="49.18702" lon="6.94457">
        <ele>350</ele>
        <time>2010-12-05T08:29:55Z</time>
      </trkpt>
      <trkpt lat="49.18701" lon="6.94459">
        <ele>350</ele>
        <time>2010-12-05T08:29:56Z</time>
      </trkpt>
      <trkpt lat="49.187" lon="6.94461">
        <ele>350</ele>
        <time>2010-12-05T08:29:57Z</time>
      </trkpt>
      <trkpt lat="49.18699" lon="6.94463">
        <ele>350</ele>
        <time>2010-12-05T08:29:59Z</time>
      </trkpt>
      <trkpt lat="49.18697" lon="6.94465">
        <ele>350</ele>
        <time>2010-12-05T08:30:01Z</time>
      </trkpt>
      <trkpt lat="49.18695" lon="6.94466">
        <ele>350</ele>
        <time>2010-12-05T08:30:02Z</time>
      </trkpt>
      <trkpt lat="49.18694" lon="6.94468">
        <ele>350</ele>
        <time>2010-12-05T08:30:03Z</time>
      </trkpt>
      <trkpt lat="49.18692" lon="6.94471">
        <ele>350</ele>
        <time>2010-12-05T08:30:04Z</time>
      </trkpt>
      <trkpt lat="49.1869" lon="6.94473">
        <ele>350</ele>
        <time>2010-12-05T08:30:05Z</time>
      </trkpt>
      <trkpt lat="49.18689" lon="6.94475">
        <ele>350</ele>
        <time>2010-12-05T08:30:06Z</time>
      </trkpt>
      <trkpt lat="49.18688" lon="6.94477">
        <ele>350</ele>
        <time>2010-12-05T08:30:07Z</time>
      </trkpt>
      <trkpt lat="49.18687" lon="6.94479">
        <ele>350</ele>
        <time>2010-12-05T08:30:08Z</time>
      </trkpt>
      <trkpt lat="49.18686" lon="6.94481">
        <ele>350</ele>
        <time>2010-12-05T08:30:09Z</time>
      </trkpt>
      <trkpt lat="49.18685" lon="6.94485">
        <ele>351</ele>
        <time>2010-12-05T08:30:11Z</time>
      </trkpt>
      <trkpt lat="49.18684" lon="6.94487">
        <ele>352</ele>
        <time>2010-12-05T08:30:13Z</time>
      </trkpt>
      <trkpt lat="49.18684" lon="6.9449">
        <ele>352</ele>
        <time>2010-12-05T08:30:15Z</time>
      </trkpt>
      <trkpt lat="49.18684" lon="6.94493">
        <ele>353</ele>
        <time>2010-12-05T08:30:18Z</time>
      </trkpt>
      <trkpt lat="49.18684" lon="6.94495">
        <ele>353</ele>
        <time>2010-12-05T08:30:18Z</time>
      </trkpt>
      <trkpt lat="49.18684" lon="6.94497">
        <ele>354</ele>
        <time>2010-12-05T08:30:19Z</time>
      </trkpt>
      <trkpt lat="49.18683" lon="6.94501">
        <ele>354</ele>
        <time>2010-12-05T08:30:21Z</time>
      </trkpt>
      <trkpt lat="49.18682" lon="6.94503">
        <ele>354</ele>
        <time>2010-12-05T08:30:23Z</time>
      </trkpt>
      <trkpt lat="49.18681" lon="6.94505">
        <ele>354</ele>
        <time>2010-12-05T08:30:26Z</time>
      </trkpt>
      <trkpt lat="49.1868" lon="6.94508">
        <ele>354</ele>
        <time>2010-12-05T08:30:29Z</time>
      </trkpt>
      <trkpt lat="49.1868" lon="6.9451">
        <ele>354</ele>
        <time>2010-12-05T08:30:30Z</time>
      </trkpt>
      <trkpt lat="49.1868" lon="6.94512">
        <ele>354</ele>
        <time>2010-12-05T08:30:32Z</time>
      </trkpt>
      <trkpt lat="49.18678" lon="6.94515">
        <ele>354</ele>
        <time>2010-12-05T08:30:34Z</time>
      </trkpt>
      <trkpt lat="49.18677" lon="6.94516">
        <ele>354</ele>
        <time>2010-12-05T08:30:35Z</time>
      </trkpt>
      <trkpt lat="49.18676" lon="6.94519">
        <ele>354</ele>
        <time>2010-12-05T08:30:37Z</time>
      </trkpt>
      <trkpt lat="49.18676" lon="6.9452">
        <ele>354</ele>
        <time>2010-12-05T08:30:38Z</time>
      </trkpt>
      <trkpt lat="49.18675" lon="6.94522">
        <ele>354</ele>
        <time>2010-12-05T08:30:40Z</time>
      </trkpt>
      <trkpt lat="49.18673" lon="6.94523">
        <ele>354</ele>
        <time>2010-12-05T08:30:43Z</time>
      </trkpt>
      <trkpt lat="49.18672" lon="6.94523">
        <ele>354</ele>
        <time>2010-12-05T08:30:44Z</time>
      </trkpt>
      <trkpt lat="49.18671" lon="6.94522">
        <ele>354</ele>
        <time>2010-12-05T08:30:46Z</time>
      </trkpt>
      <trkpt lat="49.1867" lon="6.9452">
        <ele>354</ele>
        <time>2010-12-05T08:30:48Z</time>
      </trkpt>
      <trkpt lat="49.18669" lon="6.94519">
        <ele>354</ele>
        <time>2010-12-05T08:30:50Z</time>
      </trkpt>
      <trkpt lat="49.18668" lon="6.94517">
        <ele>354</ele>
        <time>2010-12-05T08:30:52Z</time>
      </trkpt>
      <trkpt lat="49.18666" lon="6.94516">
        <ele>354</ele>
        <time>2010-12-05T08:30:54Z</time>
      </trkpt>
      <trkpt lat="49.18665" lon="6.94518">
        <ele>354</ele>
        <time>2010-12-05T08:30:56Z</time>
      </trkpt>
      <trkpt lat="49.18664" lon="6.9452">
        <ele>354</ele>
        <time>2010-12-05T08:30:58Z</time>
      </trkpt>
      <trkpt lat="49.18662" lon="6.94522">
        <ele>354</ele>
        <time>2010-12-05T08:31:00Z</time>
      </trkpt>
      <trkpt lat="49.1866" lon="6.94523">
        <ele>353</ele>
        <time>2010-12-05T08:31:02Z</time>
      </trkpt>
      <trkpt lat="49.18659" lon="6.94522">
        <ele>353</ele>
        <time>2010-12-05T08:31:04Z</time>
      </trkpt>
      <trkpt lat="49.18657" lon="6.94521">
        <ele>353</ele>
        <time>2010-12-05T08:31:06Z</time>
      </trkpt>
      <trkpt lat="49.18655" lon="6.9452">
        <ele>352</ele>
        <time>2010-12-05T08:31:08Z</time>
      </trkpt>
      <trkpt lat="49.18654" lon="6.9452">
        <ele>352</ele>
        <time>2010-12-05T08:31:09Z</time>
      </trkpt>
      <trkpt lat="49.18653" lon="6.94521">
        <ele>352</ele>
        <time>2010-12-05T08:31:10Z</time>
      </trkpt>
      <trkpt lat="49.1865" lon="6.94522">
        <ele>352</ele>
        <time>2010-12-05T08:31:12Z</time>
      </trkpt>
      <trkpt lat="49.18648" lon="6.94522">
        <ele>352</ele>
        <time>2010-12-05T08:31:13Z</time>
      </trkpt>
      <trkpt lat="49.18647" lon="6.94522">
        <ele>352</ele>
        <time>2010-12-05T08:31:14Z</time>
      </trkpt>
      <trkpt lat="49.18645" lon="6.94523">
        <ele>352</ele>
        <time>2010-12-05T08:31:16Z</time>
      </trkpt>
      <trkpt lat="49.18644" lon="6.94524">
        <ele>352</ele>
        <time>2010-12-05T08:31:18Z</time>
      </trkpt>
      <trkpt lat="49.18642" lon="6.94524">
        <ele>352</ele>
        <time>2010-12-05T08:31:20Z</time>
      </trkpt>
      <trkpt lat="49.1864" lon="6.94524">
        <ele>352</ele>
        <time>2010-12-05T08:31:22Z</time>
      </trkpt>
      <trkpt lat="49.18639" lon="6.94524">
        <ele>352</ele>
        <time>2010-12-05T08:31:23Z</time>
      </trkpt>
      <trkpt lat="49.18638" lon="6.94524">
        <ele>352</ele>
        <time>2010-12-05T08:31:24Z</time>
      </trkpt>
      <trkpt lat="49.18636" lon="6.94525">
        <ele>352</ele>
        <time>2010-12-05T08:31:25Z</time>
      </trkpt>
      <trkpt lat="49.18635" lon="6.94526">
        <ele>352</ele>
        <time>2010-12-05T08:31:27Z</time>
      </trkpt>
      <trkpt lat="49.18634" lon="6.94526">
        <ele>352</ele>
        <time>2010-12-05T08:31:29Z</time>
      </trkpt>
      <trkpt lat="49.18633" lon="6.94526">
        <ele>352</ele>
        <time>2010-12-05T08:31:31Z</time>
      </trkpt>
      <trkpt lat="49.18631" lon="6.94527">
        <ele>352</ele>
        <time>2010-12-05T08:31:34Z</time>
      </trkpt>
      <trkpt lat="49.1863" lon="6.94528">
        <ele>352</ele>
        <time>2010-12-05T08:31:38Z</time>
      </trkpt>
      <trkpt lat="49.18629" lon="6.94529">
        <ele>352</ele>
        <time>2010-12-05T08:31:45Z</time>
      </trkpt>
      <trkpt lat="49.18628" lon="6.94528">
        <ele>353</ele>
        <time>2010-12-05T08:31:56Z</time>
      </trkpt>
      <trkpt lat="49.18627" lon="6.94528">
        <ele>357</ele>
        <time>2010-12-05T08:32:02Z</time>
      </trkpt>
      <trkpt lat="49.18626" lon="6.94529">
        <ele>361</ele>
        <time>2010-12-05T08:32:09Z</time>
      </trkpt>
      <trkpt lat="49.18625" lon="6.94528">
        <ele>362</ele>
        <time>2010-12-05T08:32:11Z</time>
      </trkpt>
      <trkpt lat="49.18623" lon="6.94527">
        <ele>362</ele>
        <time>2010-12-05T08:32:13Z</time>
      </trkpt>
      <trkpt lat="49.18622" lon="6.94526">
        <ele>362</ele>
        <time>2010-12-05T08:32:16Z</time>
      </trkpt>
      <trkpt lat="49.1862" lon="6.94526">
        <ele>362</ele>
        <time>2010-12-05T08:32:18Z</time>
      </trkpt>
      <trkpt lat="49.18618" lon="6.94528">
        <ele>362</ele>
        <time>2010-12-05T08:32:20Z</time>
      </trkpt>
      <trkpt lat="49.18617" lon="6.9453">
        <ele>362</ele>
        <time>2010-12-05T08:32:22Z</time>
      </trkpt>
      <trkpt lat="49.18615" lon="6.94531">
        <ele>362</ele>
        <time>2010-12-05T08:32:24Z</time>
      </trkpt>
      <trkpt lat="49.18613" lon="6.94531">
        <ele>362</ele>
        <time>2010-12-05T08:32:26Z</time>
      </trkpt>
      <trkpt lat="49.18612" lon="6.94532">
        <ele>362</ele>
        <time>2010-12-05T08:32:28Z</time>
      </trkpt>
      <trkpt lat="49.18611" lon="6.94534">
        <ele>362</ele>
        <time>2010-12-05T08:32:29Z</time>
      </trkpt>
      <trkpt lat="49.1861" lon="6.94535">
        <ele>362</ele>
        <time>2010-12-05T08:32:32Z</time>
      </trkpt>
      <trkpt lat="49.1861" lon="6.94538">
        <ele>362</ele>
        <time>2010-12-05T08:32:35Z</time>
      </trkpt>
      <trkpt lat="49.18611" lon="6.94541">
        <ele>362</ele>
        <time>2010-12-05T08:32:37Z</time>
      </trkpt>
      <trkpt lat="49.18613" lon="6.94543">
        <ele>362</ele>
        <time>2010-12-05T08:32:39Z</time>
      </trkpt>
      <trkpt lat="49.18614" lon="6.94546">
        <ele>362</ele>
        <time>2010-12-05T08:32:41Z</time>
      </trkpt>
      <trkpt lat="49.18616" lon="6.94549">
        <ele>362</ele>
        <time>2010-12-05T08:32:43Z</time>
      </trkpt>
      <trkpt lat="49.18617" lon="6.94552">
        <ele>362</ele>
        <time>2010-12-05T08:32:45Z</time>
      </trkpt>
      <trkpt lat="49.18618" lon="6.94554">
        <ele>361</ele>
        <time>2010-12-05T08:32:47Z</time>
      </trkpt>
      <trkpt lat="49.18618" lon="6.94557">
        <ele>361</ele>
        <time>2010-12-05T08:32:49Z</time>
      </trkpt>
      <trkpt lat="49.18619" lon="6.94559">
        <ele>361</ele>
        <time>2010-12-05T08:32:51Z</time>
      </trkpt>
      <trkpt lat="49.18619" lon="6.94561">
        <ele>361</ele>
        <time>2010-12-05T08:32:52Z</time>
      </trkpt>
      <trkpt lat="49.18619" lon="6.94563">
        <ele>361</ele>
        <time>2010-12-05T08:32:53Z</time>
      </trkpt>
      <trkpt lat="49.1862" lon="6.94565">
        <ele>360</ele>
        <time>2010-12-05T08:32:54Z</time>
      </trkpt>
      <trkpt lat="49.1862" lon="6.94567">
        <ele>360</ele>
        <time>2010-12-05T08:32:56Z</time>
      </trkpt>
      <trkpt lat="49.1862" lon="6.94569">
        <ele>360</ele>
        <time>2010-12-05T08:32:57Z</time>
      </trkpt>
      <trkpt lat="49.18619" lon="6.9457">
        <ele>360</ele>
        <time>2010-12-05T08:32:58Z</time>
      </trkpt>
      <trkpt lat="49.18619" lon="6.94572">
        <ele>360</ele>
        <time>2010-12-05T08:32:59Z</time>
      </trkpt>
      <trkpt lat="49.18619" lon="6.94574">
        <ele>360</ele>
        <time>2010-12-05T08:33:00Z</time>
      </trkpt>
      <trkpt lat="49.1862" lon="6.94576">
        <ele>359</ele>
        <time>2010-12-05T08:33:01Z</time>
      </trkpt>
      <trkpt lat="49.18619" lon="6.94578">
        <ele>359</ele>
        <time>2010-12-05T08:33:02Z</time>
      </trkpt>
      <trkpt lat="49.18619" lon="6.9458">
        <ele>359</ele>
        <time>2010-12-05T08:33:03Z</time>
      </trkpt>
      <trkpt lat="49.18618" lon="6.94583">
        <ele>358</ele>
        <time>2010-12-05T08:33:05Z</time>
      </trkpt>
      <trkpt lat="49.18617" lon="6.94585">
        <ele>358</ele>
        <time>2010-12-05T08:33:07Z</time>
      </trkpt>
      <trkpt lat="49.18616" lon="6.94588">
        <ele>358</ele>
        <time>2010-12-05T08:33:09Z</time>
      </trkpt>
      <trkpt lat="49.18617" lon="6.9459">
        <ele>358</ele>
        <time>2010-12-05T08:33:11Z</time>
      </trkpt>
      <trkpt lat="49.18616" lon="6.94592">
        <ele>358</ele>
        <time>2010-12-05T08:33:13Z</time>
      </trkpt>
      <trkpt lat="49.18615" lon="6.94593">
        <ele>358</ele>
        <time>2010-12-05T08:33:15Z</time>
      </trkpt>
      <trkpt lat="49.18615" lon="6.94596">
        <ele>358</ele>
        <time>2010-12-05T08:33:17Z</time>
      </trkpt>
      <trkpt lat="49.18613" lon="6.94598">
        <ele>358</ele>
        <time>2010-12-05T08:33:19Z</time>
      </trkpt>
      <trkpt lat="49.18613" lon="6.94599">
        <ele>358</ele>
        <time>2010-12-05T08:33:21Z</time>
      </trkpt>
      <trkpt lat="49.18615" lon="6.94597">
        <ele>358</ele>
        <time>2010-12-05T08:33:27Z</time>
      </trkpt>
      <trkpt lat="49.18615" lon="6.94595">
        <ele>358</ele>
        <time>2010-12-05T08:33:29Z</time>
      </trkpt>
      <trkpt lat="49.18616" lon="6.94595">
        <ele>358</ele>
        <time>2010-12-05T08:33:30Z</time>
      </trkpt>
      <trkpt lat="49.18618" lon="6.94596">
        <ele>358</ele>
        <time>2010-12-05T08:33:32Z</time>
      </trkpt>
      <trkpt lat="49.18619" lon="6.94595">
        <ele>358</ele>
        <time>2010-12-05T08:33:35Z</time>
      </trkpt>
      <trkpt lat="49.1862" lon="6.94597">
        <ele>358</ele>
        <time>2010-12-05T08:33:40Z</time>
      </trkpt>
      <trkpt lat="49.1862" lon="6.94599">
        <ele>358</ele>
        <time>2010-12-05T08:33:41Z</time>
      </trkpt>
      <trkpt lat="49.1862" lon="6.94601">
        <ele>358</ele>
        <time>2010-12-05T08:33:44Z</time>
      </trkpt>
      <trkpt lat="49.18619" lon="6.94604">
        <ele>358</ele>
        <time>2010-12-05T08:33:47Z</time>
      </trkpt>
      <trkpt lat="49.18618" lon="6.94606">
        <ele>358</ele>
        <time>2010-12-05T08:33:49Z</time>
      </trkpt>
      <trkpt lat="49.18617" lon="6.94607">
        <ele>358</ele>
        <time>2010-12-05T08:33:53Z</time>
      </trkpt>
      <trkpt lat="49.18615" lon="6.94609">
        <ele>358</ele>
        <time>2010-12-05T08:33:55Z</time>
      </trkpt>
      <trkpt lat="49.18614" lon="6.9461">
        <ele>357</ele>
        <time>2010-12-05T08:33:57Z</time>
      </trkpt>
      <trkpt lat="49.18613" lon="6.94612">
        <ele>357</ele>
        <time>2010-12-05T08:33:59Z</time>
      </trkpt>
      <trkpt lat="49.18612" lon="6.94615">
        <ele>357</ele>
        <time>2010-12-05T08:34:01Z</time>
      </trkpt>
      <trkpt lat="49.18611" lon="6.94613">
        <ele>357</ele>
        <time>2010-12-05T08:34:04Z</time>
      </trkpt>
      <trkpt lat="49.1861" lon="6.94616">
        <ele>357</ele>
        <time>2010-12-05T08:34:07Z</time>
      </trkpt>
      <trkpt lat="49.18609" lon="6.94615">
        <ele>357</ele>
        <time>2010-12-05T08:34:15Z</time>
      </trkpt>
      <trkpt lat="49.1861" lon="6.94617">
        <ele>357</ele>
        <time>2010-12-05T08:34:19Z</time>
      </trkpt>
      <trkpt lat="49.1861" lon="6.94615">
        <ele>357</ele>
        <time>2010-12-05T08:34:30Z</time>
      </trkpt>
      <trkpt lat="49.18611" lon="6.94614">
        <ele>359</ele>
        <time>2010-12-05T08:34:39Z</time>
      </trkpt>
      <trkpt lat="49.18609" lon="6.94614">
        <ele>360</ele>
        <time>2010-12-05T08:34:47Z</time>
      </trkpt>
      <trkpt lat="49.18608" lon="6.94615">
        <ele>363</ele>
        <time>2010-12-05T08:34:54Z</time>
      </trkpt>
      <trkpt lat="49.18607" lon="6.94616">
        <ele>363</ele>
        <time>2010-12-05T08:34:57Z</time>
      </trkpt>
      <trkpt lat="49.18605" lon="6.94617">
        <ele>363</ele>
        <time>2010-12-05T08:35:00Z</time>
      </trkpt>
      <trkpt lat="49.18603" lon="6.94617">
        <ele>363</ele>
        <time>2010-12-05T08:35:03Z</time>
      </trkpt>
      <trkpt lat="49.18601" lon="6.94616">
        <ele>363</ele>
        <time>2010-12-05T08:35:05Z</time>
      </trkpt>
      <trkpt lat="49.186" lon="6.94616">
        <ele>363</ele>
        <time>2010-12-05T08:35:06Z</time>
      </trkpt>
      <trkpt lat="49.18598" lon="6.94617">
        <ele>363</ele>
        <time>2010-12-05T08:35:08Z</time>
      </trkpt>
      <trkpt lat="49.18597" lon="6.94617">
        <ele>362</ele>
        <time>2010-12-05T08:35:09Z</time>
      </trkpt>
      <trkpt lat="49.18595" lon="6.94617">
        <ele>361</ele>
        <time>2010-12-05T08:35:11Z</time>
      </trkpt>
      <trkpt lat="49.18593" lon="6.94618">
        <ele>361</ele>
        <time>2010-12-05T08:35:13Z</time>
      </trkpt>
      <trkpt lat="49.18592" lon="6.94618">
        <ele>360</ele>
        <time>2010-12-05T08:35:14Z</time>
      </trkpt>
      <trkpt lat="49.18591" lon="6.94618">
        <ele>360</ele>
        <time>2010-12-05T08:35:15Z</time>
      </trkpt>
      <trkpt lat="49.18589" lon="6.94618">
        <ele>360</ele>
        <time>2010-12-05T08:35:17Z</time>
      </trkpt>
      <trkpt lat="49.18588" lon="6.94618">
        <ele>359</ele>
        <time>2010-12-05T08:35:19Z</time>
      </trkpt>
      <trkpt lat="49.18586" lon="6.94618">
        <ele>359</ele>
        <time>2010-12-05T08:35:21Z</time>
      </trkpt>
      <trkpt lat="49.18585" lon="6.94619">
        <ele>358</ele>
        <time>2010-12-05T08:35:23Z</time>
      </trkpt>
      <trkpt lat="49.18583" lon="6.9462">
        <ele>358</ele>
        <time>2010-12-05T08:35:25Z</time>
      </trkpt>
      <trkpt lat="49.18581" lon="6.94622">
        <ele>358</ele>
        <time>2010-12-05T08:35:26Z</time>
      </trkpt>
      <trkpt lat="49.18579" lon="6.94623">
        <ele>358</ele>
        <time>2010-12-05T08:35:28Z</time>
      </trkpt>
      <trkpt lat="49.18577" lon="6.94625">
        <ele>358</ele>
        <time>2010-12-05T08:35:29Z</time>
      </trkpt>
      <trkpt lat="49.18576" lon="6.94626">
        <ele>358</ele>
        <time>2010-12-05T08:35:30Z</time>
      </trkpt>
      <trkpt lat="49.18576" lon="6.94628">
        <ele>358</ele>
        <time>2010-12-05T08:35:31Z</time>
      </trkpt>
      <trkpt lat="49.18575" lon="6.94632">
        <ele>358</ele>
        <time>2010-12-05T08:35:33Z</time>
      </trkpt>
      <trkpt lat="49.18573" lon="6.94633">
        <ele>358</ele>
        <time>2010-12-05T08:35:35Z</time>
      </trkpt>
      <trkpt lat="49.18571" lon="6.94633">
        <ele>358</ele>
        <time>2010-12-05T08:35:36Z</time>
      </trkpt>
      <trkpt lat="49.1857" lon="6.94634">
        <ele>358</ele>
        <time>2010-12-05T08:35:37Z</time>
      </trkpt>
      <trkpt lat="49.18568" lon="6.94636">
        <ele>358</ele>
        <time>2010-12-05T08:35:39Z</time>
      </trkpt>
      <trkpt lat="49.18566" lon="6.94636">
        <ele>358</ele>
        <time>2010-12-05T08:35:41Z</time>
      </trkpt>
      <trkpt lat="49.18565" lon="6.94638">
        <ele>358</ele>
        <time>2010-12-05T08:35:44Z</time>
      </trkpt>
      <trkpt lat="49.18563" lon="6.9464">
        <ele>358</ele>
        <time>2010-12-05T08:35:46Z</time>
      </trkpt>
      <trkpt lat="49.18561" lon="6.9464">
        <ele>358</ele>
        <time>2010-12-05T08:35:48Z</time>
      </trkpt>
      <trkpt lat="49.1856" lon="6.94641">
        <ele>358</ele>
        <time>2010-12-05T08:35:58Z</time>
      </trkpt>
      <trkpt lat="49.18558" lon="6.94641">
        <ele>358</ele>
        <time>2010-12-05T08:36:00Z</time>
      </trkpt>
      <trkpt lat="49.18556" lon="6.94642">
        <ele>358</ele>
        <time>2010-12-05T08:36:02Z</time>
      </trkpt>
      <trkpt lat="49.18554" lon="6.94641">
        <ele>358</ele>
        <time>2010-12-05T08:36:04Z</time>
      </trkpt>
      <trkpt lat="49.18552" lon="6.94643">
        <ele>358</ele>
        <time>2010-12-05T08:36:06Z</time>
      </trkpt>
      <trkpt lat="49.1855" lon="6.94644">
        <ele>358</ele>
        <time>2010-12-05T08:36:08Z</time>
      </trkpt>
      <trkpt lat="49.18549" lon="6.94644">
        <ele>358</ele>
        <time>2010-12-05T08:36:10Z</time>
      </trkpt>
      <trkpt lat="49.18547" lon="6.94644">
        <ele>357</ele>
        <time>2010-12-05T08:36:12Z</time>
      </trkpt>
      <trkpt lat="49.18545" lon="6.94646">
        <ele>357</ele>
        <time>2010-12-05T08:36:14Z</time>
      </trkpt>
      <trkpt lat="49.18543" lon="6.94646">
        <ele>357</ele>
        <time>2010-12-05T08:36:16Z</time>
      </trkpt>
      <trkpt lat="49.18542" lon="6.94647">
        <ele>356</ele>
        <time>2010-12-05T08:36:19Z</time>
      </trkpt>
      <trkpt lat="49.1854" lon="6.9465">
        <ele>355</ele>
        <time>2010-12-05T08:36:21Z</time>
      </trkpt>
      <trkpt lat="49.18539" lon="6.94652">
        <ele>355</ele>
        <time>2010-12-05T08:36:23Z</time>
      </trkpt>
      <trkpt lat="49.18537" lon="6.94653">
        <ele>355</ele>
        <time>2010-12-05T08:36:24Z</time>
      </trkpt>
      <trkpt lat="49.18536" lon="6.94654">
        <ele>355</ele>
        <time>2010-12-05T08:36:25Z</time>
      </trkpt>
      <trkpt lat="49.18535" lon="6.94654">
        <ele>355</ele>
        <time>2010-12-05T08:36:26Z</time>
      </trkpt>
      <trkpt lat="49.18533" lon="6.94654">
        <ele>355</ele>
        <time>2010-12-05T08:36:27Z</time>
      </trkpt>
      <trkpt lat="49.18531" lon="6.94655">
        <ele>355</ele>
        <time>2010-12-05T08:36:29Z</time>
      </trkpt>
      <trkpt lat="49.18529" lon="6.94656">
        <ele>355</ele>
        <time>2010-12-05T08:36:31Z</time>
      </trkpt>
      <trkpt lat="49.18526" lon="6.94657">
        <ele>354</ele>
        <time>2010-12-05T08:36:33Z</time>
      </trkpt>
      <trkpt lat="49.18525" lon="6.94658">
        <ele>354</ele>
        <time>2010-12-05T08:36:35Z</time>
      </trkpt>
      <trkpt lat="49.18523" lon="6.9466">
        <ele>353</ele>
        <time>2010-12-05T08:36:37Z</time>
      </trkpt>
      <trkpt lat="49.18522" lon="6.94662">
        <ele>352</ele>
        <time>2010-12-05T08:36:38Z</time>
      </trkpt>
      <trkpt lat="49.18521" lon="6.94664">
        <ele>352</ele>
        <time>2010-12-05T08:36:39Z</time>
      </trkpt>
      <trkpt lat="49.1852" lon="6.94666">
        <ele>352</ele>
        <time>2010-12-05T08:36:40Z</time>
      </trkpt>
      <trkpt lat="49.18518" lon="6.94668">
        <ele>352</ele>
        <time>2010-12-05T08:36:42Z</time>
      </trkpt>
      <trkpt lat="49.18516" lon="6.94671">
        <ele>352</ele>
        <time>2010-12-05T08:36:44Z</time>
      </trkpt>
      <trkpt lat="49.18515" lon="6.94673">
        <ele>352</ele>
        <time>2010-12-05T08:36:45Z</time>
      </trkpt>
      <trkpt lat="49.18513" lon="6.94676">
        <ele>352</ele>
        <time>2010-12-05T08:36:47Z</time>
      </trkpt>
      <trkpt lat="49.18512" lon="6.94678">
        <ele>352</ele>
        <time>2010-12-05T08:36:48Z</time>
      </trkpt>
      <trkpt lat="49.18512" lon="6.9468">
        <ele>352</ele>
        <time>2010-12-05T08:36:49Z</time>
      </trkpt>
      <trkpt lat="49.1851" lon="6.94683">
        <ele>352</ele>
        <time>2010-12-05T08:36:51Z</time>
      </trkpt>
      <trkpt lat="49.18509" lon="6.94685">
        <ele>352</ele>
        <time>2010-12-05T08:36:52Z</time>
      </trkpt>
      <trkpt lat="49.18508" lon="6.94686">
        <ele>352</ele>
        <time>2010-12-05T08:36:53Z</time>
      </trkpt>
      <trkpt lat="49.18506" lon="6.94688">
        <ele>352</ele>
        <time>2010-12-05T08:36:55Z</time>
      </trkpt>
      <trkpt lat="49.18505" lon="6.94689">
        <ele>352</ele>
        <time>2010-12-05T08:36:56Z</time>
      </trkpt>
      <trkpt lat="49.18504" lon="6.94689">
        <ele>352</ele>
        <time>2010-12-05T08:36:57Z</time>
      </trkpt>
      <trkpt lat="49.18502" lon="6.9469">
        <ele>352</ele>
        <time>2010-12-05T08:36:59Z</time>
      </trkpt>
      <trkpt lat="49.185" lon="6.9469">
        <ele>352</ele>
        <time>2010-12-05T08:37:01Z</time>
      </trkpt>
      <trkpt lat="49.18499" lon="6.94691">
        <ele>352</ele>
        <time>2010-12-05T08:37:02Z</time>
      </trkpt>
      <trkpt lat="49.18496" lon="6.94691">
        <ele>352</ele>
        <time>2010-12-05T08:37:04Z</time>
      </trkpt>
      <trkpt lat="49.18495" lon="6.94691">
        <ele>352</ele>
        <time>2010-12-05T08:37:06Z</time>
      </trkpt>
      <trkpt lat="49.18493" lon="6.94691">
        <ele>352</ele>
        <time>2010-12-05T08:37:07Z</time>
      </trkpt>
      <trkpt lat="49.18491" lon="6.94691">
        <ele>352</ele>
        <time>2010-12-05T08:37:08Z</time>
      </trkpt>
      <trkpt lat="49.18489" lon="6.94691">
        <ele>352</ele>
        <time>2010-12-05T08:37:09Z</time>
      </trkpt>
      <trkpt lat="49.18488" lon="6.94692">
        <ele>352</ele>
        <time>2010-12-05T08:37:10Z</time>
      </trkpt>
      <trkpt lat="49.18486" lon="6.94693">
        <ele>351</ele>
        <time>2010-12-05T08:37:12Z</time>
      </trkpt>
      <trkpt lat="49.18484" lon="6.94693">
        <ele>351</ele>
        <time>2010-12-05T08:37:13Z</time>
      </trkpt>
      <trkpt lat="49.18483" lon="6.94693">
        <ele>351</ele>
        <time>2010-12-05T08:37:14Z</time>
      </trkpt>
      <trkpt lat="49.18481" lon="6.94694">
        <ele>351</ele>
        <time>2010-12-05T08:37:15Z</time>
      </trkpt>
      <trkpt lat="49.1848" lon="6.94695">
        <ele>351</ele>
        <time>2010-12-05T08:37:16Z</time>
      </trkpt>
      <trkpt lat="49.18478" lon="6.94697">
        <ele>351</ele>
        <time>2010-12-05T08:37:18Z</time>
      </trkpt>
      <trkpt lat="49.18476" lon="6.94697">
        <ele>351</ele>
        <time>2010-12-05T08:37:19Z</time>
      </trkpt>
      <trkpt lat="49.18475" lon="6.94697">
        <ele>351</ele>
        <time>2010-12-05T08:37:20Z</time>
      </trkpt>
      <trkpt lat="49.18473" lon="6.94697">
        <ele>350</ele>
        <time>2010-12-05T08:37:22Z</time>
      </trkpt>
      <trkpt lat="49.18471" lon="6.94698">
        <ele>350</ele>
        <time>2010-12-05T08:37:24Z</time>
      </trkpt>
      <trkpt lat="49.1847" lon="6.94698">
        <ele>350</ele>
        <time>2010-12-05T08:37:25Z</time>
      </trkpt>
      <trkpt lat="49.18468" lon="6.94699">
        <ele>350</ele>
        <time>2010-12-05T08:37:26Z</time>
      </trkpt>
      <trkpt lat="49.18466" lon="6.94699">
        <ele>350</ele>
        <time>2010-12-05T08:37:28Z</time>
      </trkpt>
      <trkpt lat="49.18465" lon="6.94699">
        <ele>350</ele>
        <time>2010-12-05T08:37:30Z</time>
      </trkpt>
      <trkpt lat="49.18462" lon="6.947">
        <ele>350</ele>
        <time>2010-12-05T08:37:32Z</time>
      </trkpt>
      <trkpt lat="49.1846" lon="6.94702">
        <ele>350</ele>
        <time>2010-12-05T08:37:34Z</time>
      </trkpt>
      <trkpt lat="49.18459" lon="6.94703">
        <ele>350</ele>
        <time>2010-12-05T08:37:36Z</time>
      </trkpt>
      <trkpt lat="49.18458" lon="6.94705">
        <ele>350</ele>
        <time>2010-12-05T08:37:37Z</time>
      </trkpt>
      <trkpt lat="49.18457" lon="6.94707">
        <ele>350</ele>
        <time>2010-12-05T08:37:38Z</time>
      </trkpt>
      <trkpt lat="49.18456" lon="6.94708">
        <ele>350</ele>
        <time>2010-12-05T08:37:39Z</time>
      </trkpt>
      <trkpt lat="49.18455" lon="6.94709">
        <ele>350</ele>
        <time>2010-12-05T08:37:40Z</time>
      </trkpt>
      <trkpt lat="49.18454" lon="6.94709">
        <ele>350</ele>
        <time>2010-12-05T08:37:41Z</time>
      </trkpt>
      <trkpt lat="49.18452" lon="6.9471">
        <ele>350</ele>
        <time>2010-12-05T08:37:42Z</time>
      </trkpt>
      <trkpt lat="49.18451" lon="6.94711">
        <ele>350</ele>
        <time>2010-12-05T08:37:43Z</time>
      </trkpt>
      <trkpt lat="49.18449" lon="6.94711">
        <ele>350</ele>
        <time>2010-12-05T08:37:45Z</time>
      </trkpt>
      <trkpt lat="49.18447" lon="6.94712">
        <ele>350</ele>
        <time>2010-12-05T08:37:46Z</time>
      </trkpt>
      <trkpt lat="49.18445" lon="6.94711">
        <ele>350</ele>
        <time>2010-12-05T08:37:48Z</time>
      </trkpt>
      <trkpt lat="49.18444" lon="6.94712">
        <ele>350</ele>
        <time>2010-12-05T08:37:49Z</time>
      </trkpt>
      <trkpt lat="49.18442" lon="6.94712">
        <ele>350</ele>
        <time>2010-12-05T08:37:50Z</time>
      </trkpt>
      <trkpt lat="49.18441" lon="6.94713">
        <ele>350</ele>
        <time>2010-12-05T08:37:51Z</time>
      </trkpt>
      <trkpt lat="49.18439" lon="6.94714">
        <ele>350</ele>
        <time>2010-12-05T08:37:52Z</time>
      </trkpt>
      <trkpt lat="49.18438" lon="6.94715">
        <ele>350</ele>
        <time>2010-12-05T08:37:53Z</time>
      </trkpt>
      <trkpt lat="49.18435" lon="6.94717">
        <ele>350</ele>
        <time>2010-12-05T08:37:55Z</time>
      </trkpt>
      <trkpt lat="49.18434" lon="6.94717">
        <ele>350</ele>
        <time>2010-12-05T08:37:56Z</time>
      </trkpt>
      <trkpt lat="49.18433" lon="6.94717">
        <ele>350</ele>
        <time>2010-12-05T08:37:57Z</time>
      </trkpt>
      <trkpt lat="49.18431" lon="6.94717">
        <ele>351</ele>
        <time>2010-12-05T08:37:59Z</time>
      </trkpt>
      <trkpt lat="49.1843" lon="6.94717">
        <ele>351</ele>
        <time>2010-12-05T08:38:00Z</time>
      </trkpt>
      <trkpt lat="49.18428" lon="6.94718">
        <ele>351</ele>
        <time>2010-12-05T08:38:01Z</time>
      </trkpt>
      <trkpt lat="49.18427" lon="6.94719">
        <ele>351</ele>
        <time>2010-12-05T08:38:02Z</time>
      </trkpt>
      <trkpt lat="49.18425" lon="6.9472">
        <ele>351</ele>
        <time>2010-12-05T08:38:03Z</time>
      </trkpt>
      <trkpt lat="49.18424" lon="6.94721">
        <ele>351</ele>
        <time>2010-12-05T08:38:04Z</time>
      </trkpt>
      <trkpt lat="49.18422" lon="6.94722">
        <ele>351</ele>
        <time>2010-12-05T08:38:06Z</time>
      </trkpt>
      <trkpt lat="49.18421" lon="6.94723">
        <ele>351</ele>
        <time>2010-12-05T08:38:08Z</time>
      </trkpt>
      <trkpt lat="49.1842" lon="6.94724">
        <ele>351</ele>
        <time>2010-12-05T08:38:09Z</time>
      </trkpt>
      <trkpt lat="49.18419" lon="6.94724">
        <ele>351</ele>
        <time>2010-12-05T08:38:10Z</time>
      </trkpt>
      <trkpt lat="49.18417" lon="6.94724">
        <ele>351</ele>
        <time>2010-12-05T08:38:12Z</time>
      </trkpt>
      <trkpt lat="49.18415" lon="6.94725">
        <ele>351</ele>
        <time>2010-12-05T08:38:14Z</time>
      </trkpt>
      <trkpt lat="49.18414" lon="6.94726">
        <ele>351</ele>
        <time>2010-12-05T08:38:18Z</time>
      </trkpt>
      <trkpt lat="49.18412" lon="6.94727">
        <ele>351</ele>
        <time>2010-12-05T08:38:20Z</time>
      </trkpt>
      <trkpt lat="49.1841" lon="6.94728">
        <ele>351</ele>
        <time>2010-12-05T08:38:21Z</time>
      </trkpt>
      <trkpt lat="49.18409" lon="6.94728">
        <ele>351</ele>
        <time>2010-12-05T08:38:22Z</time>
      </trkpt>
      <trkpt lat="49.18407" lon="6.94729">
        <ele>351</ele>
        <time>2010-12-05T08:38:24Z</time>
      </trkpt>
      <trkpt lat="49.18406" lon="6.94729">
        <ele>351</ele>
        <time>2010-12-05T08:38:25Z</time>
      </trkpt>
      <trkpt lat="49.18404" lon="6.94729">
        <ele>351</ele>
        <time>2010-12-05T08:38:27Z</time>
      </trkpt>
      <trkpt lat="49.18402" lon="6.9473">
        <ele>351</ele>
        <time>2010-12-05T08:38:28Z</time>
      </trkpt>
      <trkpt lat="49.18401" lon="6.94729">
        <ele>351</ele>
        <time>2010-12-05T08:38:29Z</time>
      </trkpt>
      <trkpt lat="49.184" lon="6.94729">
        <ele>351</ele>
        <time>2010-12-05T08:38:30Z</time>
      </trkpt>
      <trkpt lat="49.18399" lon="6.9473">
        <ele>351</ele>
        <time>2010-12-05T08:38:31Z</time>
      </trkpt>
      <trkpt lat="49.18398" lon="6.9473">
        <ele>351</ele>
        <time>2010-12-05T08:38:32Z</time>
      </trkpt>
      <trkpt lat="49.18396" lon="6.9473">
        <ele>351</ele>
        <time>2010-12-05T08:38:33Z</time>
      </trkpt>
      <trkpt lat="49.18395" lon="6.94731">
        <ele>351</ele>
        <time>2010-12-05T08:38:34Z</time>
      </trkpt>
      <trkpt lat="49.18394" lon="6.94731">
        <ele>351</ele>
        <time>2010-12-05T08:38:35Z</time>
      </trkpt>
      <trkpt lat="49.18392" lon="6.94732">
        <ele>351</ele>
        <time>2010-12-05T08:38:37Z</time>
      </trkpt>
      <trkpt lat="49.1839" lon="6.94734">
        <ele>351</ele>
        <time>2010-12-05T08:38:39Z</time>
      </trkpt>
      <trkpt lat="49.18388" lon="6.94736">
        <ele>351</ele>
        <time>2010-12-05T08:38:41Z</time>
      </trkpt>
      <trkpt lat="49.18387" lon="6.94738">
        <ele>351</ele>
        <time>2010-12-05T08:38:43Z</time>
      </trkpt>
      <trkpt lat="49.18385" lon="6.94741">
        <ele>351</ele>
        <time>2010-12-05T08:38:45Z</time>
      </trkpt>
      <trkpt lat="49.18383" lon="6.94744">
        <ele>350</ele>
        <time>2010-12-05T08:38:47Z</time>
      </trkpt>
      <trkpt lat="49.18382" lon="6.94746">
        <ele>350</ele>
        <time>2010-12-05T08:38:48Z</time>
      </trkpt>
      <trkpt lat="49.18381" lon="6.94748">
        <ele>350</ele>
        <time>2010-12-05T08:38:49Z</time>
      </trkpt>
      <trkpt lat="49.1838" lon="6.94751">
        <ele>350</ele>
        <time>2010-12-05T08:38:51Z</time>
      </trkpt>
      <trkpt lat="49.18379" lon="6.94753">
        <ele>350</ele>
        <time>2010-12-05T08:38:52Z</time>
      </trkpt>
      <trkpt lat="49.18377" lon="6.94754">
        <ele>349</ele>
        <time>2010-12-05T08:38:54Z</time>
      </trkpt>
      <trkpt lat="49.18375" lon="6.94755">
        <ele>349</ele>
        <time>2010-12-05T08:38:55Z</time>
      </trkpt>
      <trkpt lat="49.18374" lon="6.94757">
        <ele>349</ele>
        <time>2010-12-05T08:38:56Z</time>
      </trkpt>
      <trkpt lat="49.18372" lon="6.94757">
        <ele>349</ele>
        <time>2010-12-05T08:38:58Z</time>
      </trkpt>
      <trkpt lat="49.1837" lon="6.94759">
        <ele>349</ele>
        <time>2010-12-05T08:39:00Z</time>
      </trkpt>
      <trkpt lat="49.18369" lon="6.94761">
        <ele>349</ele>
        <time>2010-12-05T08:39:02Z</time>
      </trkpt>
      <trkpt lat="49.18368" lon="6.94763">
        <ele>349</ele>
        <time>2010-12-05T08:39:04Z</time>
      </trkpt>
      <trkpt lat="49.18366" lon="6.94763">
        <ele>349</ele>
        <time>2010-12-05T08:39:06Z</time>
      </trkpt>
      <trkpt lat="49.18364" lon="6.94766">
        <ele>349</ele>
        <time>2010-12-05T08:39:07Z</time>
      </trkpt>
      <trkpt lat="49.18364" lon="6.94768">
        <ele>349</ele>
        <time>2010-12-05T08:39:08Z</time>
      </trkpt>
      <trkpt lat="49.18363" lon="6.94771">
        <ele>349</ele>
        <time>2010-12-05T08:39:10Z</time>
      </trkpt>
      <trkpt lat="49.18362" lon="6.94773">
        <ele>349</ele>
        <time>2010-12-05T08:39:11Z</time>
      </trkpt>
      <trkpt lat="49.18362" lon="6.94775">
        <ele>349</ele>
        <time>2010-12-05T08:39:12Z</time>
      </trkpt>
      <trkpt lat="49.18362" lon="6.94777">
        <ele>349</ele>
        <time>2010-12-05T08:39:13Z</time>
      </trkpt>
      <trkpt lat="49.18364" lon="6.94778">
        <ele>349</ele>
        <time>2010-12-05T08:39:15Z</time>
      </trkpt>
      <trkpt lat="49.18365" lon="6.94779">
        <ele>349</ele>
        <time>2010-12-05T08:39:17Z</time>
      </trkpt>
      <trkpt lat="49.18366" lon="6.94782">
        <ele>349</ele>
        <time>2010-12-05T08:39:19Z</time>
      </trkpt>
      <trkpt lat="49.18368" lon="6.94784">
        <ele>349</ele>
        <time>2010-12-05T08:39:21Z</time>
      </trkpt>
      <trkpt lat="49.18369" lon="6.94785">
        <ele>349</ele>
        <time>2010-12-05T08:39:22Z</time>
      </trkpt>
      <trkpt lat="49.18371" lon="6.94787">
        <ele>349</ele>
        <time>2010-12-05T08:39:23Z</time>
      </trkpt>
      <trkpt lat="49.18373" lon="6.94789">
        <ele>349</ele>
        <time>2010-12-05T08:39:25Z</time>
      </trkpt>
      <trkpt lat="49.18374" lon="6.9479">
        <ele>349</ele>
        <time>2010-12-05T08:39:26Z</time>
      </trkpt>
      <trkpt lat="49.18375" lon="6.94791">
        <ele>349</ele>
        <time>2010-12-05T08:39:28Z</time>
      </trkpt>
      <trkpt lat="49.18376" lon="6.94792">
        <ele>349</ele>
        <time>2010-12-05T08:39:29Z</time>
      </trkpt>
      <trkpt lat="49.18378" lon="6.94793">
        <ele>349</ele>
        <time>2010-12-05T08:39:30Z</time>
      </trkpt>
      <trkpt lat="49.18379" lon="6.94795">
        <ele>349</ele>
        <time>2010-12-05T08:39:31Z</time>
      </trkpt>
      <trkpt lat="49.1838" lon="6.94796">
        <ele>349</ele>
        <time>2010-12-05T08:39:32Z</time>
      </trkpt>
      <trkpt lat="49.18382" lon="6.94797">
        <ele>349</ele>
        <time>2010-12-05T08:39:34Z</time>
      </trkpt>
      <trkpt lat="49.18384" lon="6.94797">
        <ele>347</ele>
        <time>2010-12-05T08:39:38Z</time>
      </trkpt>
      <trkpt lat="49.18386" lon="6.94799">
        <ele>346</ele>
        <time>2010-12-05T08:39:40Z</time>
      </trkpt>
      <trkpt lat="49.18387" lon="6.94802">
        <ele>346</ele>
        <time>2010-12-05T08:39:42Z</time>
      </trkpt>
      <trkpt lat="49.18388" lon="6.94803">
        <ele>346</ele>
        <time>2010-12-05T08:39:43Z</time>
      </trkpt>
      <trkpt lat="49.18388" lon="6.94805">
        <ele>346</ele>
        <time>2010-12-05T08:39:44Z</time>
      </trkpt>
      <trkpt lat="49.1839" lon="6.94807">
        <ele>346</ele>
        <time>2010-12-05T08:39:46Z</time>
      </trkpt>
      <trkpt lat="49.18391" lon="6.94809">
        <ele>346</ele>
        <time>2010-12-05T08:39:48Z</time>
      </trkpt>
      <trkpt lat="49.18392" lon="6.9481">
        <ele>346</ele>
        <time>2010-12-05T08:39:50Z</time>
      </trkpt>
      <trkpt lat="49.18393" lon="6.94812">
        <ele>346</ele>
        <time>2010-12-05T08:39:52Z</time>
      </trkpt>
      <trkpt lat="49.18395" lon="6.94814">
        <ele>346</ele>
        <time>2010-12-05T08:39:54Z</time>
      </trkpt>
      <trkpt lat="49.18396" lon="6.94816">
        <ele>346</ele>
        <time>2010-12-05T08:39:56Z</time>
      </trkpt>
      <trkpt lat="49.18396" lon="6.94818">
        <ele>346</ele>
        <time>2010-12-05T08:39:58Z</time>
      </trkpt>
      <trkpt lat="49.18399" lon="6.9482">
        <ele>346</ele>
        <time>2010-12-05T08:40:00Z</time>
      </trkpt>
      <trkpt lat="49.184" lon="6.94821">
        <ele>346</ele>
        <time>2010-12-05T08:40:02Z</time>
      </trkpt>
      <trkpt lat="49.18401" lon="6.94823">
        <ele>346</ele>
        <time>2010-12-05T08:40:04Z</time>
      </trkpt>
      <trkpt lat="49.18402" lon="6.94823">
        <ele>346</ele>
        <time>2010-12-05T08:40:06Z</time>
      </trkpt>
      <trkpt lat="49.18403" lon="6.94823">
        <ele>346</ele>
        <time>2010-12-05T08:40:07Z</time>
      </trkpt>
      <trkpt lat="49.18405" lon="6.94826">
        <ele>346</ele>
        <time>2010-12-05T08:40:10Z</time>
      </trkpt>
      <trkpt lat="49.18407" lon="6.94828">
        <ele>346</ele>
        <time>2010-12-05T08:40:12Z</time>
      </trkpt>
      <trkpt lat="49.18408" lon="6.94829">
        <ele>345</ele>
        <time>2010-12-05T08:40:24Z</time>
      </trkpt>
      <trkpt lat="49.18409" lon="6.94828">
        <ele>345</ele>
        <time>2010-12-05T08:40:28Z</time>
      </trkpt>
      <trkpt lat="49.18408" lon="6.94828">
        <ele>345</ele>
        <time>2010-12-05T08:40:48Z</time>
      </trkpt>
      <trkpt lat="49.18407" lon="6.94826">
        <ele>345</ele>
        <time>2010-12-05T08:41:11Z</time>
      </trkpt>
      <trkpt lat="49.18405" lon="6.94825">
        <ele>345</ele>
        <time>2010-12-05T08:41:13Z</time>
      </trkpt>
      <trkpt lat="49.18404" lon="6.94824">
        <ele>345</ele>
        <time>2010-12-05T08:41:16Z</time>
      </trkpt>
      <trkpt lat="49.18402" lon="6.94823">
        <ele>345</ele>
        <time>2010-12-05T08:41:18Z</time>
      </trkpt>
      <trkpt lat="49.18401" lon="6.94821">
        <ele>345</ele>
        <time>2010-12-05T08:41:21Z</time>
      </trkpt>
      <trkpt lat="49.184" lon="6.94819">
        <ele>345</ele>
        <time>2010-12-05T08:41:23Z</time>
      </trkpt>
      <trkpt lat="49.18398" lon="6.94817">
        <ele>345</ele>
        <time>2010-12-05T08:41:25Z</time>
      </trkpt>
      <trkpt lat="49.18396" lon="6.94816">
        <ele>345</ele>
        <time>2010-12-05T08:41:27Z</time>
      </trkpt>
      <trkpt lat="49.18395" lon="6.94814">
        <ele>345</ele>
        <time>2010-12-05T08:41:28Z</time>
      </trkpt>
      <trkpt lat="49.18393" lon="6.94814">
        <ele>345</ele>
        <time>2010-12-05T08:41:29Z</time>
      </trkpt>
      <trkpt lat="49.18392" lon="6.94813">
        <ele>345</ele>
        <time>2010-12-05T08:41:31Z</time>
      </trkpt>
      <trkpt lat="49.18391" lon="6.9481">
        <ele>345</ele>
        <time>2010-12-05T08:41:33Z</time>
      </trkpt>
      <trkpt lat="49.18389" lon="6.94808">
        <ele>345</ele>
        <time>2010-12-05T08:41:35Z</time>
      </trkpt>
      <trkpt lat="49.18388" lon="6.94808">
        <ele>345</ele>
        <time>2010-12-05T08:41:36Z</time>
      </trkpt>
      <trkpt lat="49.18386" lon="6.94806">
        <ele>345</ele>
        <time>2010-12-05T08:41:38Z</time>
      </trkpt>
      <trkpt lat="49.18385" lon="6.94804">
        <ele>345</ele>
        <time>2010-12-05T08:41:40Z</time>
      </trkpt>
      <trkpt lat="49.18384" lon="6.94802">
        <ele>345</ele>
        <time>2010-12-05T08:41:42Z</time>
      </trkpt>
      <trkpt lat="49.18384" lon="6.948">
        <ele>345</ele>
        <time>2010-12-05T08:41:44Z</time>
      </trkpt>
      <trkpt lat="49.18383" lon="6.948">
        <ele>345</ele>
        <time>2010-12-05T08:41:46Z</time>
      </trkpt>
      <trkpt lat="49.18381" lon="6.94799">
        <ele>345</ele>
        <time>2010-12-05T08:41:48Z</time>
      </trkpt>
      <trkpt lat="49.18379" lon="6.94798">
        <ele>345</ele>
        <time>2010-12-05T08:41:49Z</time>
      </trkpt>
      <trkpt lat="49.18378" lon="6.94798">
        <ele>345</ele>
        <time>2010-12-05T08:41:50Z</time>
      </trkpt>
      <trkpt lat="49.18375" lon="6.94796">
        <ele>345</ele>
        <time>2010-12-05T08:41:52Z</time>
      </trkpt>
      <trkpt lat="49.18373" lon="6.94794">
        <ele>345</ele>
        <time>2010-12-05T08:41:54Z</time>
      </trkpt>
      <trkpt lat="49.18371" lon="6.94792">
        <ele>345</ele>
        <time>2010-12-05T08:41:56Z</time>
      </trkpt>
      <trkpt lat="49.1837" lon="6.94791">
        <ele>345</ele>
        <time>2010-12-05T08:41:57Z</time>
      </trkpt>
      <trkpt lat="49.18368" lon="6.94789">
        <ele>345</ele>
        <time>2010-12-05T08:41:58Z</time>
      </trkpt>
      <trkpt lat="49.18367" lon="6.94788">
        <ele>345</ele>
        <time>2010-12-05T08:41:59Z</time>
      </trkpt>
      <trkpt lat="49.18366" lon="6.94787">
        <ele>345</ele>
        <time>2010-12-05T08:42:00Z</time>
      </trkpt>
      <trkpt lat="49.18364" lon="6.94785">
        <ele>345</ele>
        <time>2010-12-05T08:42:02Z</time>
      </trkpt>
      <trkpt lat="49.18362" lon="6.94784">
        <ele>345</ele>
        <time>2010-12-05T08:42:03Z</time>
      </trkpt>
      <trkpt lat="49.18361" lon="6.94782">
        <ele>345</ele>
        <time>2010-12-05T08:42:05Z</time>
      </trkpt>
      <trkpt lat="49.18359" lon="6.9478">
        <ele>345</ele>
        <time>2010-12-05T08:42:07Z</time>
      </trkpt>
      <trkpt lat="49.18357" lon="6.94779">
        <ele>345</ele>
        <time>2010-12-05T08:42:08Z</time>
      </trkpt>
      <trkpt lat="49.18356" lon="6.94779">
        <ele>345</ele>
        <time>2010-12-05T08:42:09Z</time>
      </trkpt>
      <trkpt lat="49.18355" lon="6.94778">
        <ele>345</ele>
        <time>2010-12-05T08:42:10Z</time>
      </trkpt>
      <trkpt lat="49.18353" lon="6.94776">
        <ele>345</ele>
        <time>2010-12-05T08:42:12Z</time>
      </trkpt>
      <trkpt lat="49.18351" lon="6.94775">
        <ele>345</ele>
        <time>2010-12-05T08:42:13Z</time>
      </trkpt>
      <trkpt lat="49.1835" lon="6.94772">
        <ele>345</ele>
        <time>2010-12-05T08:42:15Z</time>
      </trkpt>
      <trkpt lat="49.18348" lon="6.9477">
        <ele>345</ele>
        <time>2010-12-05T08:42:17Z</time>
      </trkpt>
      <trkpt lat="49.18347" lon="6.94768">
        <ele>345</ele>
        <time>2010-12-05T08:42:19Z</time>
      </trkpt>
      <trkpt lat="49.18346" lon="6.94768">
        <ele>345</ele>
        <time>2010-12-05T08:42:20Z</time>
      </trkpt>
      <trkpt lat="49.18344" lon="6.94767">
        <ele>345</ele>
        <time>2010-12-05T08:42:21Z</time>
      </trkpt>
      <trkpt lat="49.18343" lon="6.94766">
        <ele>345</ele>
        <time>2010-12-05T08:42:22Z</time>
      </trkpt>
      <trkpt lat="49.18342" lon="6.94764">
        <ele>345</ele>
        <time>2010-12-05T08:42:24Z</time>
      </trkpt>
      <trkpt lat="49.1834" lon="6.94762">
        <ele>345</ele>
        <time>2010-12-05T08:42:26Z</time>
      </trkpt>
      <trkpt lat="49.18338" lon="6.9476">
        <ele>345</ele>
        <time>2010-12-05T08:42:28Z</time>
      </trkpt>
      <trkpt lat="49.18337" lon="6.94758">
        <ele>345</ele>
        <time>2010-12-05T08:42:30Z</time>
      </trkpt>
      <trkpt lat="49.18335" lon="6.94756">
        <ele>345</ele>
        <time>2010-12-05T08:42:32Z</time>
      </trkpt>
      <trkpt lat="49.18334" lon="6.94754">
        <ele>345</ele>
        <time>2010-12-05T08:42:34Z</time>
      </trkpt>
      <trkpt lat="49.18333" lon="6.94753">
        <ele>345</ele>
        <time>2010-12-05T08:42:35Z</time>
      </trkpt>
      <trkpt lat="49.18331" lon="6.94751">
        <ele>345</ele>
        <time>2010-12-05T08:42:36Z</time>
      </trkpt>
      <trkpt lat="49.1833" lon="6.9475">
        <ele>345</ele>
        <time>2010-12-05T08:42:37Z</time>
      </trkpt>
      <trkpt lat="49.18329" lon="6.94748">
        <ele>345</ele>
        <time>2010-12-05T08:42:38Z</time>
      </trkpt>
      <trkpt lat="49.18328" lon="6.94747">
        <ele>345</ele>
        <time>2010-12-05T08:42:39Z</time>
      </trkpt>
      <trkpt lat="49.18326" lon="6.94744">
        <ele>345</ele>
        <time>2010-12-05T08:42:41Z</time>
      </trkpt>
      <trkpt lat="49.18325" lon="6.94742">
        <ele>345</ele>
        <time>2010-12-05T08:42:43Z</time>
      </trkpt>
      <trkpt lat="49.18324" lon="6.94741">
        <ele>345</ele>
        <time>2010-12-05T08:42:44Z</time>
      </trkpt>
      <trkpt lat="49.18322" lon="6.94738">
        <ele>345</ele>
        <time>2010-12-05T08:42:46Z</time>
      </trkpt>
      <trkpt lat="49.1832" lon="6.94736">
        <ele>345</ele>
        <time>2010-12-05T08:42:48Z</time>
      </trkpt>
      <trkpt lat="49.18318" lon="6.94734">
        <ele>346</ele>
        <time>2010-12-05T08:42:50Z</time>
      </trkpt>
      <trkpt lat="49.18316" lon="6.94733">
        <ele>346</ele>
        <time>2010-12-05T08:42:52Z</time>
      </trkpt>
      <trkpt lat="49.18314" lon="6.94731">
        <ele>346</ele>
        <time>2010-12-05T08:42:53Z</time>
      </trkpt>
      <trkpt lat="49.18313" lon="6.94731">
        <ele>346</ele>
        <time>2010-12-05T08:42:54Z</time>
      </trkpt>
      <trkpt lat="49.18311" lon="6.9473">
        <ele>346</ele>
        <time>2010-12-05T08:42:55Z</time>
      </trkpt>
      <trkpt lat="49.1831" lon="6.94729">
        <ele>346</ele>
        <time>2010-12-05T08:42:56Z</time>
      </trkpt>
      <trkpt lat="49.18308" lon="6.94727">
        <ele>346</ele>
        <time>2010-12-05T08:42:57Z</time>
      </trkpt>
      <trkpt lat="49.18307" lon="6.94726">
        <ele>346</ele>
        <time>2010-12-05T08:42:58Z</time>
      </trkpt>
      <trkpt lat="49.18306" lon="6.94724">
        <ele>346</ele>
        <time>2010-12-05T08:43:00Z</time>
      </trkpt>
      <trkpt lat="49.18304" lon="6.94723">
        <ele>346</ele>
        <time>2010-12-05T08:43:01Z</time>
      </trkpt>
      <trkpt lat="49.18303" lon="6.94722">
        <ele>346</ele>
        <time>2010-12-05T08:43:02Z</time>
      </trkpt>
      <trkpt lat="49.18302" lon="6.94722">
        <ele>346</ele>
        <time>2010-12-05T08:43:03Z</time>
      </trkpt>
      <trkpt lat="49.18301" lon="6.94721">
        <ele>346</ele>
        <time>2010-12-05T08:43:05Z</time>
      </trkpt>
      <trkpt lat="49.18298" lon="6.9472">
        <ele>346</ele>
        <time>2010-12-05T08:43:07Z</time>
      </trkpt>
      <trkpt lat="49.18297" lon="6.94719">
        <ele>346</ele>
        <time>2010-12-05T08:43:08Z</time>
      </trkpt>
      <trkpt lat="49.18296" lon="6.94718">
        <ele>346</ele>
        <time>2010-12-05T08:43:09Z</time>
      </trkpt>
      <trkpt lat="49.18295" lon="6.94717">
        <ele>346</ele>
        <time>2010-12-05T08:43:10Z</time>
      </trkpt>
      <trkpt lat="49.18293" lon="6.94716">
        <ele>346</ele>
        <time>2010-12-05T08:43:11Z</time>
      </trkpt>
      <trkpt lat="49.18292" lon="6.94715">
        <ele>346</ele>
        <time>2010-12-05T08:43:12Z</time>
      </trkpt>
      <trkpt lat="49.18291" lon="6.94715">
        <ele>346</ele>
        <time>2010-12-05T08:43:13Z</time>
      </trkpt>
      <trkpt lat="49.1829" lon="6.94714">
        <ele>346</ele>
        <time>2010-12-05T08:43:14Z</time>
      </trkpt>
      <trkpt lat="49.18288" lon="6.94713">
        <ele>346</ele>
        <time>2010-12-05T08:43:16Z</time>
      </trkpt>
      <trkpt lat="49.18286" lon="6.94711">
        <ele>346</ele>
        <time>2010-12-05T08:43:18Z</time>
      </trkpt>
      <trkpt lat="49.18284" lon="6.94708">
        <ele>346</ele>
        <time>2010-12-05T08:43:20Z</time>
      </trkpt>
      <trkpt lat="49.18282" lon="6.94706">
        <ele>346</ele>
        <time>2010-12-05T08:43:22Z</time>
      </trkpt>
      <trkpt lat="49.18281" lon="6.94706">
        <ele>346</ele>
        <time>2010-12-05T08:43:23Z</time>
      </trkpt>
      <trkpt lat="49.18279" lon="6.94705">
        <ele>346</ele>
        <time>2010-12-05T08:43:25Z</time>
      </trkpt>
      <trkpt lat="49.18277" lon="6.94703">
        <ele>346</ele>
        <time>2010-12-05T08:43:27Z</time>
      </trkpt>
      <trkpt lat="49.18276" lon="6.94702">
        <ele>346</ele>
        <time>2010-12-05T08:43:28Z</time>
      </trkpt>
      <trkpt lat="49.18275" lon="6.94702">
        <ele>346</ele>
        <time>2010-12-05T08:43:29Z</time>
      </trkpt>
      <trkpt lat="49.18273" lon="6.94701">
        <ele>346</ele>
        <time>2010-12-05T08:43:30Z</time>
      </trkpt>
      <trkpt lat="49.18271" lon="6.947">
        <ele>346</ele>
        <time>2010-12-05T08:43:32Z</time>
      </trkpt>
      <trkpt lat="49.18269" lon="6.94697">
        <ele>346</ele>
        <time>2010-12-05T08:43:34Z</time>
      </trkpt>
      <trkpt lat="49.18267" lon="6.94695">
        <ele>346</ele>
        <time>2010-12-05T08:43:36Z</time>
      </trkpt>
      <trkpt lat="49.18266" lon="6.94694">
        <ele>346</ele>
        <time>2010-12-05T08:43:37Z</time>
      </trkpt>
      <trkpt lat="49.18264" lon="6.94694">
        <ele>346</ele>
        <time>2010-12-05T08:43:38Z</time>
      </trkpt>
      <trkpt lat="49.18262" lon="6.94693">
        <ele>346</ele>
        <time>2010-12-05T08:43:39Z</time>
      </trkpt>
      <trkpt lat="49.18261" lon="6.94691">
        <ele>346</ele>
        <time>2010-12-05T08:43:41Z</time>
      </trkpt>
      <trkpt lat="49.1826" lon="6.94689">
        <ele>346</ele>
        <time>2010-12-05T08:43:43Z</time>
      </trkpt>
      <trkpt lat="49.18258" lon="6.94688">
        <ele>346</ele>
        <time>2010-12-05T08:43:45Z</time>
      </trkpt>
      <trkpt lat="49.18256" lon="6.94688">
        <ele>346</ele>
        <time>2010-12-05T08:43:46Z</time>
      </trkpt>
      <trkpt lat="49.18254" lon="6.94687">
        <ele>346</ele>
        <time>2010-12-05T08:43:47Z</time>
      </trkpt>
      <trkpt lat="49.18253" lon="6.94687">
        <ele>346</ele>
        <time>2010-12-05T08:43:48Z</time>
      </trkpt>
      <trkpt lat="49.18251" lon="6.94686">
        <ele>346</ele>
        <time>2010-12-05T08:43:50Z</time>
      </trkpt>
      <trkpt lat="49.18249" lon="6.94684">
        <ele>346</ele>
        <time>2010-12-05T08:43:52Z</time>
      </trkpt>
      <trkpt lat="49.18248" lon="6.94684">
        <ele>346</ele>
        <time>2010-12-05T08:43:53Z</time>
      </trkpt>
      <trkpt lat="49.18246" lon="6.94681">
        <ele>346</ele>
        <time>2010-12-05T08:43:55Z</time>
      </trkpt>
      <trkpt lat="49.18244" lon="6.94679">
        <ele>346</ele>
        <time>2010-12-05T08:43:57Z</time>
      </trkpt>
      <trkpt lat="49.18242" lon="6.94677">
        <ele>346</ele>
        <time>2010-12-05T08:43:59Z</time>
      </trkpt>
      <trkpt lat="49.1824" lon="6.94674">
        <ele>346</ele>
        <time>2010-12-05T08:44:01Z</time>
      </trkpt>
      <trkpt lat="49.18239" lon="6.94673">
        <ele>346</ele>
        <time>2010-12-05T08:44:02Z</time>
      </trkpt>
      <trkpt lat="49.18237" lon="6.9467">
        <ele>346</ele>
        <time>2010-12-05T08:44:04Z</time>
      </trkpt>
      <trkpt lat="49.18235" lon="6.94668">
        <ele>345</ele>
        <time>2010-12-05T08:44:06Z</time>
      </trkpt>
      <trkpt lat="49.18233" lon="6.94666">
        <ele>344</ele>
        <time>2010-12-05T08:44:08Z</time>
      </trkpt>
      <trkpt lat="49.18232" lon="6.94663">
        <ele>343</ele>
        <time>2010-12-05T08:44:10Z</time>
      </trkpt>
      <trkpt lat="49.1823" lon="6.94661">
        <ele>342</ele>
        <time>2010-12-05T08:44:12Z</time>
      </trkpt>
      <trkpt lat="49.18228" lon="6.94658">
        <ele>342</ele>
        <time>2010-12-05T08:44:14Z</time>
      </trkpt>
      <trkpt lat="49.18226" lon="6.94656">
        <ele>341</ele>
        <time>2010-12-05T08:44:16Z</time>
      </trkpt>
      <trkpt lat="49.18225" lon="6.94655">
        <ele>341</ele>
        <time>2010-12-05T08:44:17Z</time>
      </trkpt>
      <trkpt lat="49.18224" lon="6.94651">
        <ele>341</ele>
        <time>2010-12-05T08:44:19Z</time>
      </trkpt>
      <trkpt lat="49.18222" lon="6.94649">
        <ele>340</ele>
        <time>2010-12-05T08:44:21Z</time>
      </trkpt>
      <trkpt lat="49.18222" lon="6.94647">
        <ele>340</ele>
        <time>2010-12-05T08:44:22Z</time>
      </trkpt>
      <trkpt lat="49.18221" lon="6.94644">
        <ele>340</ele>
        <time>2010-12-05T08:44:24Z</time>
      </trkpt>
      <trkpt lat="49.18219" lon="6.94641">
        <ele>340</ele>
        <time>2010-12-05T08:44:26Z</time>
      </trkpt>
      <trkpt lat="49.18219" lon="6.94639">
        <ele>340</ele>
        <time>2010-12-05T08:44:27Z</time>
      </trkpt>
      <trkpt lat="49.18217" lon="6.94638">
        <ele>340</ele>
        <time>2010-12-05T08:44:28Z</time>
      </trkpt>
      <trkpt lat="49.18215" lon="6.94635">
        <ele>340</ele>
        <time>2010-12-05T08:44:30Z</time>
      </trkpt>
      <trkpt lat="49.18214" lon="6.94633">
        <ele>340</ele>
        <time>2010-12-05T08:44:32Z</time>
      </trkpt>
      <trkpt lat="49.18212" lon="6.94631">
        <ele>340</ele>
        <time>2010-12-05T08:44:33Z</time>
      </trkpt>
      <trkpt lat="49.1821" lon="6.94628">
        <ele>340</ele>
        <time>2010-12-05T08:44:35Z</time>
      </trkpt>
      <trkpt lat="49.18208" lon="6.94626">
        <ele>340</ele>
        <time>2010-12-05T08:44:37Z</time>
      </trkpt>
      <trkpt lat="49.18206" lon="6.94624">
        <ele>340</ele>
        <time>2010-12-05T08:44:39Z</time>
      </trkpt>
      <trkpt lat="49.18204" lon="6.94622">
        <ele>340</ele>
        <time>2010-12-05T08:44:41Z</time>
      </trkpt>
      <trkpt lat="49.18203" lon="6.9462">
        <ele>340</ele>
        <time>2010-12-05T08:44:43Z</time>
      </trkpt>
      <trkpt lat="49.18202" lon="6.94618">
        <ele>340</ele>
        <time>2010-12-05T08:44:44Z</time>
      </trkpt>
      <trkpt lat="49.18201" lon="6.94616">
        <ele>340</ele>
        <time>2010-12-05T08:44:45Z</time>
      </trkpt>
      <trkpt lat="49.18201" lon="6.94615">
        <ele>340</ele>
        <time>2010-12-05T08:44:46Z</time>
      </trkpt>
      <trkpt lat="49.18199" lon="6.94612">
        <ele>340</ele>
        <time>2010-12-05T08:44:48Z</time>
      </trkpt>
      <trkpt lat="49.18198" lon="6.94609">
        <ele>340</ele>
        <time>2010-12-05T08:44:50Z</time>
      </trkpt>
      <trkpt lat="49.18197" lon="6.94607">
        <ele>340</ele>
        <time>2010-12-05T08:44:51Z</time>
      </trkpt>
      <trkpt lat="49.18196" lon="6.94606">
        <ele>340</ele>
        <time>2010-12-05T08:44:52Z</time>
      </trkpt>
      <trkpt lat="49.18195" lon="6.94603">
        <ele>340</ele>
        <time>2010-12-05T08:44:54Z</time>
      </trkpt>
      <trkpt lat="49.18193" lon="6.946">
        <ele>340</ele>
        <time>2010-12-05T08:44:56Z</time>
      </trkpt>
      <trkpt lat="49.18192" lon="6.94598">
        <ele>340</ele>
        <time>2010-12-05T08:44:58Z</time>
      </trkpt>
      <trkpt lat="49.1819" lon="6.94595">
        <ele>340</ele>
        <time>2010-12-05T08:45:00Z</time>
      </trkpt>
      <trkpt lat="49.18189" lon="6.94593">
        <ele>340</ele>
        <time>2010-12-05T08:45:02Z</time>
      </trkpt>
      <trkpt lat="49.18187" lon="6.94591">
        <ele>340</ele>
        <time>2010-12-05T08:45:04Z</time>
      </trkpt>
      <trkpt lat="49.18186" lon="6.94589">
        <ele>340</ele>
        <time>2010-12-05T08:45:05Z</time>
      </trkpt>
      <trkpt lat="49.18184" lon="6.94587">
        <ele>340</ele>
        <time>2010-12-05T08:45:07Z</time>
      </trkpt>
      <trkpt lat="49.18182" lon="6.94586">
        <ele>340</ele>
        <time>2010-12-05T08:45:09Z</time>
      </trkpt>
      <trkpt lat="49.1818" lon="6.94587">
        <ele>340</ele>
        <time>2010-12-05T08:45:11Z</time>
      </trkpt>
      <trkpt lat="49.18179" lon="6.94587">
        <ele>340</ele>
        <time>2010-12-05T08:45:13Z</time>
      </trkpt>
      <trkpt lat="49.18177" lon="6.94588">
        <ele>340</ele>
        <time>2010-12-05T08:45:15Z</time>
      </trkpt>
      <trkpt lat="49.18175" lon="6.9459">
        <ele>340</ele>
        <time>2010-12-05T08:45:17Z</time>
      </trkpt>
      <trkpt lat="49.18174" lon="6.94592">
        <ele>340</ele>
        <time>2010-12-05T08:45:19Z</time>
      </trkpt>
      <trkpt lat="49.18172" lon="6.94594">
        <ele>340</ele>
        <time>2010-12-05T08:45:21Z</time>
      </trkpt>
      <trkpt lat="49.1817" lon="6.94596">
        <ele>340</ele>
        <time>2010-12-05T08:45:23Z</time>
      </trkpt>
      <trkpt lat="49.18169" lon="6.94598">
        <ele>340</ele>
        <time>2010-12-05T08:45:25Z</time>
      </trkpt>
      <trkpt lat="49.18167" lon="6.946">
        <ele>340</ele>
        <time>2010-12-05T08:45:27Z</time>
      </trkpt>
      <trkpt lat="49.18166" lon="6.94602">
        <ele>340</ele>
        <time>2010-12-05T08:45:29Z</time>
      </trkpt>
      <trkpt lat="49.18164" lon="6.94603">
        <ele>340</ele>
        <time>2010-12-05T08:45:31Z</time>
      </trkpt>
      <trkpt lat="49.18162" lon="6.94606">
        <ele>340</ele>
        <time>2010-12-05T08:45:33Z</time>
      </trkpt>
      <trkpt lat="49.18161" lon="6.94609">
        <ele>340</ele>
        <time>2010-12-05T08:45:35Z</time>
      </trkpt>
      <trkpt lat="49.1816" lon="6.94611">
        <ele>340</ele>
        <time>2010-12-05T08:45:36Z</time>
      </trkpt>
      <trkpt lat="49.18159" lon="6.94612">
        <ele>340</ele>
        <time>2010-12-05T08:45:37Z</time>
      </trkpt>
      <trkpt lat="49.18157" lon="6.94614">
        <ele>340</ele>
        <time>2010-12-05T08:45:39Z</time>
      </trkpt>
      <trkpt lat="49.18156" lon="6.94617">
        <ele>340</ele>
        <time>2010-12-05T08:45:41Z</time>
      </trkpt>
      <trkpt lat="49.18154" lon="6.94619">
        <ele>340</ele>
        <time>2010-12-05T08:45:43Z</time>
      </trkpt>
      <trkpt lat="49.18152" lon="6.94621">
        <ele>340</ele>
        <time>2010-12-05T08:45:45Z</time>
      </trkpt>
      <trkpt lat="49.18151" lon="6.94624">
        <ele>340</ele>
        <time>2010-12-05T08:45:47Z</time>
      </trkpt>
      <trkpt lat="49.1815" lon="6.94625">
        <ele>340</ele>
        <time>2010-12-05T08:45:48Z</time>
      </trkpt>
      <trkpt lat="49.18148" lon="6.94627">
        <ele>340</ele>
        <time>2010-12-05T08:45:50Z</time>
      </trkpt>
      <trkpt lat="49.18145" lon="6.94629">
        <ele>340</ele>
        <time>2010-12-05T08:45:52Z</time>
      </trkpt>
      <trkpt lat="49.18144" lon="6.94632">
        <ele>340</ele>
        <time>2010-12-05T08:45:54Z</time>
      </trkpt>
      <trkpt lat="49.18143" lon="6.94634">
        <ele>340</ele>
        <time>2010-12-05T08:45:56Z</time>
      </trkpt>
      <trkpt lat="49.18141" lon="6.94637">
        <ele>340</ele>
        <time>2010-12-05T08:45:58Z</time>
      </trkpt>
      <trkpt lat="49.18139" lon="6.9464">
        <ele>340</ele>
        <time>2010-12-05T08:46:00Z</time>
      </trkpt>
      <trkpt lat="49.18137" lon="6.94642">
        <ele>340</ele>
        <time>2010-12-05T08:46:02Z</time>
      </trkpt>
      <trkpt lat="49.18135" lon="6.94645">
        <ele>340</ele>
        <time>2010-12-05T08:46:04Z</time>
      </trkpt>
      <trkpt lat="49.18133" lon="6.94647">
        <ele>339</ele>
        <time>2010-12-05T08:46:06Z</time>
      </trkpt>
      <trkpt lat="49.18131" lon="6.9465">
        <ele>339</ele>
        <time>2010-12-05T08:46:08Z</time>
      </trkpt>
      <trkpt lat="49.18129" lon="6.94652">
        <ele>339</ele>
        <time>2010-12-05T08:46:10Z</time>
      </trkpt>
      <trkpt lat="49.18127" lon="6.94655">
        <ele>339</ele>
        <time>2010-12-05T08:46:12Z</time>
      </trkpt>
      <trkpt lat="49.18126" lon="6.94658">
        <ele>338</ele>
        <time>2010-12-05T08:46:14Z</time>
      </trkpt>
      <trkpt lat="49.18124" lon="6.9466">
        <ele>338</ele>
        <time>2010-12-05T08:46:16Z</time>
      </trkpt>
      <trkpt lat="49.18122" lon="6.94663">
        <ele>338</ele>
        <time>2010-12-05T08:46:18Z</time>
      </trkpt>
      <trkpt lat="49.18121" lon="6.94665">
        <ele>338</ele>
        <time>2010-12-05T08:46:20Z</time>
      </trkpt>
      <trkpt lat="49.18119" lon="6.94668">
        <ele>338</ele>
        <time>2010-12-05T08:46:22Z</time>
      </trkpt>
      <trkpt lat="49.18118" lon="6.94669">
        <ele>338</ele>
        <time>2010-12-05T08:46:23Z</time>
      </trkpt>
      <trkpt lat="49.18116" lon="6.94672">
        <ele>338</ele>
        <time>2010-12-05T08:46:25Z</time>
      </trkpt>
      <trkpt lat="49.18114" lon="6.94674">
        <ele>337</ele>
        <time>2010-12-05T08:46:27Z</time>
      </trkpt>
      <trkpt lat="49.18112" lon="6.94677">
        <ele>337</ele>
        <time>2010-12-05T08:46:29Z</time>
      </trkpt>
      <trkpt lat="49.1811" lon="6.94679">
        <ele>337</ele>
        <time>2010-12-05T08:46:31Z</time>
      </trkpt>
      <trkpt lat="49.18108" lon="6.94681">
        <ele>337</ele>
        <time>2010-12-05T08:46:33Z</time>
      </trkpt>
      <trkpt lat="49.18106" lon="6.94684">
        <ele>337</ele>
        <time>2010-12-05T08:46:35Z</time>
      </trkpt>
      <trkpt lat="49.18104" lon="6.94686">
        <ele>337</ele>
        <time>2010-12-05T08:46:37Z</time>
      </trkpt>
      <trkpt lat="49.18102" lon="6.94689">
        <ele>337</ele>
        <time>2010-12-05T08:46:39Z</time>
      </trkpt>
      <trkpt lat="49.181" lon="6.94692">
        <ele>337</ele>
        <time>2010-12-05T08:46:41Z</time>
      </trkpt>
      <trkpt lat="49.18098" lon="6.94694">
        <ele>337</ele>
        <time>2010-12-05T08:46:43Z</time>
      </trkpt>
      <trkpt lat="49.18097" lon="6.94696">
        <ele>337</ele>
        <time>2010-12-05T08:46:44Z</time>
      </trkpt>
      <trkpt lat="49.18095" lon="6.94698">
        <ele>336</ele>
        <time>2010-12-05T08:46:46Z</time>
      </trkpt>
      <trkpt lat="49.18094" lon="6.94699">
        <ele>336</ele>
        <time>2010-12-05T08:46:47Z</time>
      </trkpt>
      <trkpt lat="49.18092" lon="6.94702">
        <ele>336</ele>
        <time>2010-12-05T08:46:49Z</time>
      </trkpt>
      <trkpt lat="49.18091" lon="6.94704">
        <ele>336</ele>
        <time>2010-12-05T08:46:51Z</time>
      </trkpt>
      <trkpt lat="49.18089" lon="6.94707">
        <ele>336</ele>
        <time>2010-12-05T08:46:53Z</time>
      </trkpt>
      <trkpt lat="49.18087" lon="6.9471">
        <ele>336</ele>
        <time>2010-12-05T08:46:55Z</time>
      </trkpt>
      <trkpt lat="49.18085" lon="6.9471">
        <ele>336</ele>
        <time>2010-12-05T08:46:56Z</time>
      </trkpt>
      <trkpt lat="49.18084" lon="6.94713">
        <ele>336</ele>
        <time>2010-12-05T08:46:58Z</time>
      </trkpt>
      <trkpt lat="49.18082" lon="6.94715">
        <ele>335</ele>
        <time>2010-12-05T08:47:00Z</time>
      </trkpt>
      <trkpt lat="49.1808" lon="6.94718">
        <ele>335</ele>
        <time>2010-12-05T08:47:02Z</time>
      </trkpt>
      <trkpt lat="49.18078" lon="6.9472">
        <ele>335</ele>
        <time>2010-12-05T08:47:04Z</time>
      </trkpt>
      <trkpt lat="49.18076" lon="6.94723">
        <ele>335</ele>
        <time>2010-12-05T08:47:06Z</time>
      </trkpt>
      <trkpt lat="49.18075" lon="6.94725">
        <ele>335</ele>
        <time>2010-12-05T08:47:07Z</time>
      </trkpt>
      <trkpt lat="49.18073" lon="6.94728">
        <ele>335</ele>
        <time>2010-12-05T08:47:09Z</time>
      </trkpt>
      <trkpt lat="49.18071" lon="6.9473">
        <ele>335</ele>
        <time>2010-12-05T08:47:11Z</time>
      </trkpt>
      <trkpt lat="49.18069" lon="6.94733">
        <ele>335</ele>
        <time>2010-12-05T08:47:13Z</time>
      </trkpt>
      <trkpt lat="49.18067" lon="6.94735">
        <ele>334</ele>
        <time>2010-12-05T08:47:15Z</time>
      </trkpt>
      <trkpt lat="49.18066" lon="6.94737">
        <ele>334</ele>
        <time>2010-12-05T08:47:17Z</time>
      </trkpt>
      <trkpt lat="49.18064" lon="6.94739">
        <ele>334</ele>
        <time>2010-12-05T08:47:19Z</time>
      </trkpt>
      <trkpt lat="49.18062" lon="6.94741">
        <ele>334</ele>
        <time>2010-12-05T08:47:21Z</time>
      </trkpt>
      <trkpt lat="49.18061" lon="6.94744">
        <ele>334</ele>
        <time>2010-12-05T08:47:23Z</time>
      </trkpt>
      <trkpt lat="49.18059" lon="6.94746">
        <ele>334</ele>
        <time>2010-12-05T08:47:25Z</time>
      </trkpt>
      <trkpt lat="49.18057" lon="6.94748">
        <ele>333</ele>
        <time>2010-12-05T08:47:27Z</time>
      </trkpt>
      <trkpt lat="49.18055" lon="6.94751">
        <ele>333</ele>
        <time>2010-12-05T08:47:29Z</time>
      </trkpt>
      <trkpt lat="49.18054" lon="6.94753">
        <ele>333</ele>
        <time>2010-12-05T08:47:31Z</time>
      </trkpt>
      <trkpt lat="49.18052" lon="6.94755">
        <ele>333</ele>
        <time>2010-12-05T08:47:33Z</time>
      </trkpt>
      <trkpt lat="49.1805" lon="6.94758">
        <ele>332</ele>
        <time>2010-12-05T08:47:35Z</time>
      </trkpt>
      <trkpt lat="49.18049" lon="6.94759">
        <ele>332</ele>
        <time>2010-12-05T08:47:36Z</time>
      </trkpt>
      <trkpt lat="49.18048" lon="6.94761">
        <ele>332</ele>
        <time>2010-12-05T08:47:37Z</time>
      </trkpt>
      <trkpt lat="49.18046" lon="6.94764">
        <ele>332</ele>
        <time>2010-12-05T08:47:39Z</time>
      </trkpt>
      <trkpt lat="49.18044" lon="6.94766">
        <ele>332</ele>
        <time>2010-12-05T08:47:41Z</time>
      </trkpt>
      <trkpt lat="49.18043" lon="6.94768">
        <ele>332</ele>
        <time>2010-12-05T08:47:43Z</time>
      </trkpt>
      <trkpt lat="49.18042" lon="6.94769">
        <ele>332</ele>
        <time>2010-12-05T08:47:45Z</time>
      </trkpt>
      <trkpt lat="49.1804" lon="6.94771">
        <ele>332</ele>
        <time>2010-12-05T08:47:46Z</time>
      </trkpt>
      <trkpt lat="49.18038" lon="6.94774">
        <ele>331</ele>
        <time>2010-12-05T08:47:48Z</time>
      </trkpt>
      <trkpt lat="49.18036" lon="6.94776">
        <ele>331</ele>
        <time>2010-12-05T08:47:50Z</time>
      </trkpt>
      <trkpt lat="49.18034" lon="6.94779">
        <ele>331</ele>
        <time>2010-12-05T08:47:52Z</time>
      </trkpt>
      <trkpt lat="49.18032" lon="6.94782">
        <ele>331</ele>
        <time>2010-12-05T08:47:54Z</time>
      </trkpt>
      <trkpt lat="49.1803" lon="6.94785">
        <ele>330</ele>
        <time>2010-12-05T08:47:56Z</time>
      </trkpt>
      <trkpt lat="49.18029" lon="6.94788">
        <ele>330</ele>
        <time>2010-12-05T08:47:58Z</time>
      </trkpt>
      <trkpt lat="49.18028" lon="6.9479">
        <ele>330</ele>
        <time>2010-12-05T08:47:59Z</time>
      </trkpt>
      <trkpt lat="49.18027" lon="6.94791">
        <ele>330</ele>
        <time>2010-12-05T08:48:00Z</time>
      </trkpt>
      <trkpt lat="49.18026" lon="6.94793">
        <ele>330</ele>
        <time>2010-12-05T08:48:01Z</time>
      </trkpt>
      <trkpt lat="49.18025" lon="6.94796">
        <ele>330</ele>
        <time>2010-12-05T08:48:03Z</time>
      </trkpt>
      <trkpt lat="49.18024" lon="6.94798">
        <ele>330</ele>
        <time>2010-12-05T08:48:05Z</time>
      </trkpt>
      <trkpt lat="49.18022" lon="6.94802">
        <ele>330</ele>
        <time>2010-12-05T08:48:07Z</time>
      </trkpt>
      <trkpt lat="49.18021" lon="6.94805">
        <ele>330</ele>
        <time>2010-12-05T08:48:09Z</time>
      </trkpt>
      <trkpt lat="49.1802" lon="6.94808">
        <ele>330</ele>
        <time>2010-12-05T08:48:11Z</time>
      </trkpt>
      <trkpt lat="49.18019" lon="6.94809">
        <ele>330</ele>
        <time>2010-12-05T08:48:12Z</time>
      </trkpt>
      <trkpt lat="49.18018" lon="6.94812">
        <ele>329</ele>
        <time>2010-12-05T08:48:14Z</time>
      </trkpt>
      <trkpt lat="49.18017" lon="6.94814">
        <ele>329</ele>
        <time>2010-12-05T08:48:15Z</time>
      </trkpt>
      <trkpt lat="49.18016" lon="6.94815">
        <ele>329</ele>
        <time>2010-12-05T08:48:16Z</time>
      </trkpt>
      <trkpt lat="49.18015" lon="6.94817">
        <ele>329</ele>
        <time>2010-12-05T08:48:17Z</time>
      </trkpt>
      <trkpt lat="49.18015" lon="6.94819">
        <ele>329</ele>
        <time>2010-12-05T08:48:18Z</time>
      </trkpt>
      <trkpt lat="49.18013" lon="6.94822">
        <ele>329</ele>
        <time>2010-12-05T08:48:20Z</time>
      </trkpt>
      <trkpt lat="49.18012" lon="6.94825">
        <ele>329</ele>
        <time>2010-12-05T08:48:22Z</time>
      </trkpt>
      <trkpt lat="49.18011" lon="6.94828">
        <ele>329</ele>
        <time>2010-12-05T08:48:24Z</time>
      </trkpt>
      <trkpt lat="49.18009" lon="6.94831">
        <ele>328</ele>
        <time>2010-12-05T08:48:26Z</time>
      </trkpt>
      <trkpt lat="49.18007" lon="6.94834">
        <ele>328</ele>
        <time>2010-12-05T08:48:28Z</time>
      </trkpt>
      <trkpt lat="49.18006" lon="6.94836">
        <ele>328</ele>
        <time>2010-12-05T08:48:29Z</time>
      </trkpt>
      <trkpt lat="49.18005" lon="6.94837">
        <ele>328</ele>
        <time>2010-12-05T08:48:30Z</time>
      </trkpt>
      <trkpt lat="49.18003" lon="6.94837">
        <ele>328</ele>
        <time>2010-12-05T08:48:31Z</time>
      </trkpt>
      <trkpt lat="49.18001" lon="6.94838">
        <ele>327</ele>
        <time>2010-12-05T08:48:33Z</time>
      </trkpt>
      <trkpt lat="49.18" lon="6.94838">
        <ele>327</ele>
        <time>2010-12-05T08:48:34Z</time>
      </trkpt>
      <trkpt lat="49.17998" lon="6.94839">
        <ele>327</ele>
        <time>2010-12-05T08:48:35Z</time>
      </trkpt>
      <trkpt lat="49.17997" lon="6.94839">
        <ele>327</ele>
        <time>2010-12-05T08:48:36Z</time>
      </trkpt>
      <trkpt lat="49.17995" lon="6.94839">
        <ele>327</ele>
        <time>2010-12-05T08:48:37Z</time>
      </trkpt>
      <trkpt lat="49.17994" lon="6.9484">
        <ele>327</ele>
        <time>2010-12-05T08:48:38Z</time>
      </trkpt>
      <trkpt lat="49.17992" lon="6.9484">
        <ele>327</ele>
        <time>2010-12-05T08:48:39Z</time>
      </trkpt>
      <trkpt lat="49.17991" lon="6.9484">
        <ele>327</ele>
        <time>2010-12-05T08:48:40Z</time>
      </trkpt>
      <trkpt lat="49.1799" lon="6.9484">
        <ele>327</ele>
        <time>2010-12-05T08:48:41Z</time>
      </trkpt>
      <trkpt lat="49.17989" lon="6.9484">
        <ele>327</ele>
        <time>2010-12-05T08:48:42Z</time>
      </trkpt>
      <trkpt lat="49.17987" lon="6.9484">
        <ele>327</ele>
        <time>2010-12-05T08:48:43Z</time>
      </trkpt>
      <trkpt lat="49.17986" lon="6.9484">
        <ele>327</ele>
        <time>2010-12-05T08:48:44Z</time>
      </trkpt>
      <trkpt lat="49.17985" lon="6.94839">
        <ele>327</ele>
        <time>2010-12-05T08:48:45Z</time>
      </trkpt>
      <trkpt lat="49.17983" lon="6.94839">
        <ele>327</ele>
        <time>2010-12-05T08:48:46Z</time>
      </trkpt>
      <trkpt lat="49.17982" lon="6.94839">
        <ele>327</ele>
        <time>2010-12-05T08:48:47Z</time>
      </trkpt>
      <trkpt lat="49.17981" lon="6.94839">
        <ele>327</ele>
        <time>2010-12-05T08:48:48Z</time>
      </trkpt>
      <trkpt lat="49.1798" lon="6.94839">
        <ele>327</ele>
        <time>2010-12-05T08:48:49Z</time>
      </trkpt>
      <trkpt lat="49.17978" lon="6.94839">
        <ele>327</ele>
        <time>2010-12-05T08:48:50Z</time>
      </trkpt>
      <trkpt lat="49.17977" lon="6.94838">
        <ele>327</ele>
        <time>2010-12-05T08:48:51Z</time>
      </trkpt>
      <trkpt lat="49.17976" lon="6.94838">
        <ele>327</ele>
        <time>2010-12-05T08:48:52Z</time>
      </trkpt>
      <trkpt lat="49.17974" lon="6.94838">
        <ele>327</ele>
        <time>2010-12-05T08:48:53Z</time>
      </trkpt>
      <trkpt lat="49.17973" lon="6.94837">
        <ele>327</ele>
        <time>2010-12-05T08:48:54Z</time>
      </trkpt>
      <trkpt lat="49.17972" lon="6.94837">
        <ele>327</ele>
        <time>2010-12-05T08:48:55Z</time>
      </trkpt>
      <trkpt lat="49.1797" lon="6.94837">
        <ele>326</ele>
        <time>2010-12-05T08:48:57Z</time>
      </trkpt>
      <trkpt lat="49.17968" lon="6.94837">
        <ele>326</ele>
        <time>2010-12-05T08:48:58Z</time>
      </trkpt>
      <trkpt lat="49.17967" lon="6.94836">
        <ele>326</ele>
        <time>2010-12-05T08:48:59Z</time>
      </trkpt>
      <trkpt lat="49.17965" lon="6.94836">
        <ele>326</ele>
        <time>2010-12-05T08:49:00Z</time>
      </trkpt>
      <trkpt lat="49.17964" lon="6.94836">
        <ele>326</ele>
        <time>2010-12-05T08:49:01Z</time>
      </trkpt>
      <trkpt lat="49.17963" lon="6.94835">
        <ele>326</ele>
        <time>2010-12-05T08:49:02Z</time>
      </trkpt>
      <trkpt lat="49.17962" lon="6.94835">
        <ele>326</ele>
        <time>2010-12-05T08:49:03Z</time>
      </trkpt>
      <trkpt lat="49.17961" lon="6.94835">
        <ele>326</ele>
        <time>2010-12-05T08:49:04Z</time>
      </trkpt>
      <trkpt lat="49.1796" lon="6.94834">
        <ele>326</ele>
        <time>2010-12-05T08:49:05Z</time>
      </trkpt>
      <trkpt lat="49.17958" lon="6.94834">
        <ele>326</ele>
        <time>2010-12-05T08:49:06Z</time>
      </trkpt>
      <trkpt lat="49.17957" lon="6.94834">
        <ele>326</ele>
        <time>2010-12-05T08:49:07Z</time>
      </trkpt>
      <trkpt lat="49.17955" lon="6.94833">
        <ele>326</ele>
        <time>2010-12-05T08:49:08Z</time>
      </trkpt>
      <trkpt lat="49.17954" lon="6.94832">
        <ele>326</ele>
        <time>2010-12-05T08:49:09Z</time>
      </trkpt>
      <trkpt lat="49.17953" lon="6.94832">
        <ele>326</ele>
        <time>2010-12-05T08:49:10Z</time>
      </trkpt>
      <trkpt lat="49.17952" lon="6.94832">
        <ele>326</ele>
        <time>2010-12-05T08:49:11Z</time>
      </trkpt>
      <trkpt lat="49.17949" lon="6.94831">
        <ele>326</ele>
        <time>2010-12-05T08:49:13Z</time>
      </trkpt>
      <trkpt lat="49.17948" lon="6.9483">
        <ele>325</ele>
        <time>2010-12-05T08:49:14Z</time>
      </trkpt>
      <trkpt lat="49.17947" lon="6.9483">
        <ele>325</ele>
        <time>2010-12-05T08:49:15Z</time>
      </trkpt>
      <trkpt lat="49.17946" lon="6.94829">
        <ele>325</ele>
        <time>2010-12-05T08:49:16Z</time>
      </trkpt>
      <trkpt lat="49.17944" lon="6.94828">
        <ele>325</ele>
        <time>2010-12-05T08:49:17Z</time>
      </trkpt>
      <trkpt lat="49.17943" lon="6.94828">
        <ele>325</ele>
        <time>2010-12-05T08:49:18Z</time>
      </trkpt>
      <trkpt lat="49.17942" lon="6.94827">
        <ele>325</ele>
        <time>2010-12-05T08:49:19Z</time>
      </trkpt>
      <trkpt lat="49.17941" lon="6.94827">
        <ele>325</ele>
        <time>2010-12-05T08:49:20Z</time>
      </trkpt>
      <trkpt lat="49.1794" lon="6.94827">
        <ele>325</ele>
        <time>2010-12-05T08:49:21Z</time>
      </trkpt>
      <trkpt lat="49.17939" lon="6.94826">
        <ele>325</ele>
        <time>2010-12-05T08:49:22Z</time>
      </trkpt>
      <trkpt lat="49.17937" lon="6.94826">
        <ele>325</ele>
        <time>2010-12-05T08:49:23Z</time>
      </trkpt>
      <trkpt lat="49.17936" lon="6.94825">
        <ele>324</ele>
        <time>2010-12-05T08:49:24Z</time>
      </trkpt>
      <trkpt lat="49.17935" lon="6.94825">
        <ele>324</ele>
        <time>2010-12-05T08:49:25Z</time>
      </trkpt>
      <trkpt lat="49.17933" lon="6.94824">
        <ele>324</ele>
        <time>2010-12-05T08:49:27Z</time>
      </trkpt>
      <trkpt lat="49.17931" lon="6.94823">
        <ele>324</ele>
        <time>2010-12-05T08:49:28Z</time>
      </trkpt>
      <trkpt lat="49.1793" lon="6.94823">
        <ele>324</ele>
        <time>2010-12-05T08:49:29Z</time>
      </trkpt>
      <trkpt lat="49.17928" lon="6.94822">
        <ele>324</ele>
        <time>2010-12-05T08:49:31Z</time>
      </trkpt>
      <trkpt lat="49.17927" lon="6.94821">
        <ele>324</ele>
        <time>2010-12-05T08:49:32Z</time>
      </trkpt>
      <trkpt lat="49.17926" lon="6.9482">
        <ele>324</ele>
        <time>2010-12-05T08:49:33Z</time>
      </trkpt>
      <trkpt lat="49.17924" lon="6.9482">
        <ele>324</ele>
        <time>2010-12-05T08:49:34Z</time>
      </trkpt>
      <trkpt lat="49.17923" lon="6.9482">
        <ele>324</ele>
        <time>2010-12-05T08:49:35Z</time>
      </trkpt>
      <trkpt lat="49.17921" lon="6.94819">
        <ele>324</ele>
        <time>2010-12-05T08:49:37Z</time>
      </trkpt>
      <trkpt lat="49.17919" lon="6.94819">
        <ele>324</ele>
        <time>2010-12-05T08:49:38Z</time>
      </trkpt>
      <trkpt lat="49.17918" lon="6.94818">
        <ele>324</ele>
        <time>2010-12-05T08:49:39Z</time>
      </trkpt>
      <trkpt lat="49.17917" lon="6.94817">
        <ele>324</ele>
        <time>2010-12-05T08:49:40Z</time>
      </trkpt>
      <trkpt lat="49.17915" lon="6.94817">
        <ele>323</ele>
        <time>2010-12-05T08:49:41Z</time>
      </trkpt>
      <trkpt lat="49.17914" lon="6.94816">
        <ele>323</ele>
        <time>2010-12-05T08:49:42Z</time>
      </trkpt>
      <trkpt lat="49.17912" lon="6.94815">
        <ele>323</ele>
        <time>2010-12-05T08:49:44Z</time>
      </trkpt>
      <trkpt lat="49.1791" lon="6.94814">
        <ele>323</ele>
        <time>2010-12-05T08:49:46Z</time>
      </trkpt>
      <trkpt lat="49.17909" lon="6.94813">
        <ele>323</ele>
        <time>2010-12-05T08:49:47Z</time>
      </trkpt>
      <trkpt lat="49.17907" lon="6.94812">
        <ele>323</ele>
        <time>2010-12-05T08:49:48Z</time>
      </trkpt>
      <trkpt lat="49.17905" lon="6.94811">
        <ele>322</ele>
        <time>2010-12-05T08:49:50Z</time>
      </trkpt>
      <trkpt lat="49.17904" lon="6.9481">
        <ele>322</ele>
        <time>2010-12-05T08:49:51Z</time>
      </trkpt>
      <trkpt lat="49.17903" lon="6.9481">
        <ele>322</ele>
        <time>2010-12-05T08:49:52Z</time>
      </trkpt>
      <trkpt lat="49.17901" lon="6.94809">
        <ele>321</ele>
        <time>2010-12-05T08:49:54Z</time>
      </trkpt>
      <trkpt lat="49.17899" lon="6.94807">
        <ele>321</ele>
        <time>2010-12-05T08:49:56Z</time>
      </trkpt>
      <trkpt lat="49.17897" lon="6.94807">
        <ele>321</ele>
        <time>2010-12-05T08:49:57Z</time>
      </trkpt>
      <trkpt lat="49.17895" lon="6.94806">
        <ele>321</ele>
        <time>2010-12-05T08:49:59Z</time>
      </trkpt>
      <trkpt lat="49.17893" lon="6.94805">
        <ele>321</ele>
        <time>2010-12-05T08:50:01Z</time>
      </trkpt>
      <trkpt lat="49.17892" lon="6.94805">
        <ele>321</ele>
        <time>2010-12-05T08:50:02Z</time>
      </trkpt>
      <trkpt lat="49.17891" lon="6.94804">
        <ele>321</ele>
        <time>2010-12-05T08:50:03Z</time>
      </trkpt>
      <trkpt lat="49.1789" lon="6.94804">
        <ele>321</ele>
        <time>2010-12-05T08:50:04Z</time>
      </trkpt>
      <trkpt lat="49.17889" lon="6.94803">
        <ele>321</ele>
        <time>2010-12-05T08:50:05Z</time>
      </trkpt>
      <trkpt lat="49.17887" lon="6.94803">
        <ele>321</ele>
        <time>2010-12-05T08:50:06Z</time>
      </trkpt>
      <trkpt lat="49.17886" lon="6.94803">
        <ele>321</ele>
        <time>2010-12-05T08:50:07Z</time>
      </trkpt>
      <trkpt lat="49.17884" lon="6.94803">
        <ele>321</ele>
        <time>2010-12-05T08:50:08Z</time>
      </trkpt>
      <trkpt lat="49.17883" lon="6.94803">
        <ele>321</ele>
        <time>2010-12-05T08:50:09Z</time>
      </trkpt>
      <trkpt lat="49.17882" lon="6.94802">
        <ele>320</ele>
        <time>2010-12-05T08:50:10Z</time>
      </trkpt>
      <trkpt lat="49.17881" lon="6.94802">
        <ele>320</ele>
        <time>2010-12-05T08:50:11Z</time>
      </trkpt>
      <trkpt lat="49.17879" lon="6.94802">
        <ele>320</ele>
        <time>2010-12-05T08:50:12Z</time>
      </trkpt>
      <trkpt lat="49.17878" lon="6.94801">
        <ele>320</ele>
        <time>2010-12-05T08:50:13Z</time>
      </trkpt>
      <trkpt lat="49.17877" lon="6.94801">
        <ele>320</ele>
        <time>2010-12-05T08:50:14Z</time>
      </trkpt>
      <trkpt lat="49.17875" lon="6.948">
        <ele>320</ele>
        <time>2010-12-05T08:50:15Z</time>
      </trkpt>
      <trkpt lat="49.17874" lon="6.948">
        <ele>320</ele>
        <time>2010-12-05T08:50:16Z</time>
      </trkpt>
      <trkpt lat="49.17872" lon="6.94799">
        <ele>320</ele>
        <time>2010-12-05T08:50:17Z</time>
      </trkpt>
      <trkpt lat="49.17871" lon="6.94799">
        <ele>320</ele>
        <time>2010-12-05T08:50:18Z</time>
      </trkpt>
      <trkpt lat="49.1787" lon="6.94798">
        <ele>320</ele>
        <time>2010-12-05T08:50:19Z</time>
      </trkpt>
      <trkpt lat="49.17868" lon="6.94798">
        <ele>320</ele>
        <time>2010-12-05T08:50:20Z</time>
      </trkpt>
      <trkpt lat="49.17866" lon="6.94797">
        <ele>319</ele>
        <time>2010-12-05T08:50:22Z</time>
      </trkpt>
      <trkpt lat="49.17865" lon="6.94797">
        <ele>319</ele>
        <time>2010-12-05T08:50:23Z</time>
      </trkpt>
      <trkpt lat="49.17864" lon="6.94796">
        <ele>319</ele>
        <time>2010-12-05T08:50:24Z</time>
      </trkpt>
      <trkpt lat="49.17862" lon="6.94795">
        <ele>319</ele>
        <time>2010-12-05T08:50:25Z</time>
      </trkpt>
      <trkpt lat="49.17861" lon="6.94794">
        <ele>319</ele>
        <time>2010-12-05T08:50:26Z</time>
      </trkpt>
      <trkpt lat="49.1786" lon="6.94794">
        <ele>319</ele>
        <time>2010-12-05T08:50:27Z</time>
      </trkpt>
      <trkpt lat="49.17859" lon="6.94793">
        <ele>319</ele>
        <time>2010-12-05T08:50:28Z</time>
      </trkpt>
      <trkpt lat="49.17857" lon="6.94792">
        <ele>319</ele>
        <time>2010-12-05T08:50:30Z</time>
      </trkpt>
      <trkpt lat="49.17855" lon="6.94792">
        <ele>318</ele>
        <time>2010-12-05T08:50:31Z</time>
      </trkpt>
      <trkpt lat="49.17854" lon="6.94791">
        <ele>318</ele>
        <time>2010-12-05T08:50:32Z</time>
      </trkpt>
      <trkpt lat="49.17853" lon="6.9479">
        <ele>318</ele>
        <time>2010-12-05T08:50:33Z</time>
      </trkpt>
      <trkpt lat="49.17851" lon="6.9479">
        <ele>318</ele>
        <time>2010-12-05T08:50:34Z</time>
      </trkpt>
      <trkpt lat="49.1785" lon="6.94789">
        <ele>318</ele>
        <time>2010-12-05T08:50:35Z</time>
      </trkpt>
      <trkpt lat="49.17849" lon="6.94789">
        <ele>318</ele>
        <time>2010-12-05T08:50:36Z</time>
      </trkpt>
      <trkpt lat="49.17848" lon="6.94789">
        <ele>318</ele>
        <time>2010-12-05T08:50:37Z</time>
      </trkpt>
      <trkpt lat="49.17847" lon="6.94788">
        <ele>318</ele>
        <time>2010-12-05T08:50:38Z</time>
      </trkpt>
      <trkpt lat="49.17845" lon="6.94788">
        <ele>318</ele>
        <time>2010-12-05T08:50:39Z</time>
      </trkpt>
      <trkpt lat="49.17844" lon="6.94787">
        <ele>318</ele>
        <time>2010-12-05T08:50:40Z</time>
      </trkpt>
      <trkpt lat="49.17842" lon="6.94787">
        <ele>318</ele>
        <time>2010-12-05T08:50:41Z</time>
      </trkpt>
      <trkpt lat="49.17841" lon="6.94786">
        <ele>318</ele>
        <time>2010-12-05T08:50:42Z</time>
      </trkpt>
      <trkpt lat="49.1784" lon="6.94785">
        <ele>318</ele>
        <time>2010-12-05T08:50:43Z</time>
      </trkpt>
      <trkpt lat="49.17839" lon="6.94785">
        <ele>318</ele>
        <time>2010-12-05T08:50:44Z</time>
      </trkpt>
      <trkpt lat="49.17837" lon="6.94784">
        <ele>317</ele>
        <time>2010-12-05T08:50:45Z</time>
      </trkpt>
      <trkpt lat="49.17835" lon="6.94784">
        <ele>317</ele>
        <time>2010-12-05T08:50:47Z</time>
      </trkpt>
      <trkpt lat="49.17834" lon="6.94783">
        <ele>317</ele>
        <time>2010-12-05T08:50:48Z</time>
      </trkpt>
      <trkpt lat="49.17833" lon="6.94782">
        <ele>317</ele>
        <time>2010-12-05T08:50:49Z</time>
      </trkpt>
      <trkpt lat="49.17832" lon="6.94782">
        <ele>317</ele>
        <time>2010-12-05T08:50:50Z</time>
      </trkpt>
      <trkpt lat="49.1783" lon="6.94781">
        <ele>317</ele>
        <time>2010-12-05T08:50:51Z</time>
      </trkpt>
      <trkpt lat="49.17829" lon="6.94781">
        <ele>317</ele>
        <time>2010-12-05T08:50:52Z</time>
      </trkpt>
      <trkpt lat="49.17828" lon="6.9478">
        <ele>316</ele>
        <time>2010-12-05T08:50:53Z</time>
      </trkpt>
      <trkpt lat="49.17827" lon="6.9478">
        <ele>316</ele>
        <time>2010-12-05T08:50:54Z</time>
      </trkpt>
      <trkpt lat="49.17826" lon="6.94779">
        <ele>316</ele>
        <time>2010-12-05T08:50:55Z</time>
      </trkpt>
      <trkpt lat="49.17825" lon="6.94779">
        <ele>316</ele>
        <time>2010-12-05T08:50:56Z</time>
      </trkpt>
      <trkpt lat="49.17823" lon="6.94778">
        <ele>316</ele>
        <time>2010-12-05T08:50:57Z</time>
      </trkpt>
      <trkpt lat="49.17822" lon="6.94777">
        <ele>316</ele>
        <time>2010-12-05T08:50:58Z</time>
      </trkpt>
      <trkpt lat="49.17821" lon="6.94777">
        <ele>316</ele>
        <time>2010-12-05T08:50:59Z</time>
      </trkpt>
      <trkpt lat="49.1782" lon="6.94776">
        <ele>316</ele>
        <time>2010-12-05T08:51:00Z</time>
      </trkpt>
      <trkpt lat="49.17817" lon="6.94775">
        <ele>315</ele>
        <time>2010-12-05T08:51:02Z</time>
      </trkpt>
      <trkpt lat="49.17816" lon="6.94775">
        <ele>315</ele>
        <time>2010-12-05T08:51:03Z</time>
      </trkpt>
      <trkpt lat="49.17815" lon="6.94774">
        <ele>315</ele>
        <time>2010-12-05T08:51:04Z</time>
      </trkpt>
      <trkpt lat="49.17814" lon="6.94773">
        <ele>315</ele>
        <time>2010-12-05T08:51:05Z</time>
      </trkpt>
      <trkpt lat="49.17812" lon="6.94773">
        <ele>315</ele>
        <time>2010-12-05T08:51:06Z</time>
      </trkpt>
      <trkpt lat="49.17811" lon="6.94772">
        <ele>314</ele>
        <time>2010-12-05T08:51:07Z</time>
      </trkpt>
      <trkpt lat="49.1781" lon="6.94772">
        <ele>314</ele>
        <time>2010-12-05T08:51:08Z</time>
      </trkpt>
      <trkpt lat="49.17809" lon="6.94771">
        <ele>314</ele>
        <time>2010-12-05T08:51:09Z</time>
      </trkpt>
      <trkpt lat="49.17807" lon="6.94771">
        <ele>314</ele>
        <time>2010-12-05T08:51:10Z</time>
      </trkpt>
      <trkpt lat="49.17806" lon="6.94771">
        <ele>314</ele>
        <time>2010-12-05T08:51:11Z</time>
      </trkpt>
      <trkpt lat="49.17805" lon="6.9477">
        <ele>314</ele>
        <time>2010-12-05T08:51:12Z</time>
      </trkpt>
      <trkpt lat="49.17804" lon="6.9477">
        <ele>314</ele>
        <time>2010-12-05T08:51:13Z</time>
      </trkpt>
      <trkpt lat="49.17803" lon="6.94769">
        <ele>314</ele>
        <time>2010-12-05T08:51:14Z</time>
      </trkpt>
      <trkpt lat="49.17802" lon="6.94768">
        <ele>314</ele>
        <time>2010-12-05T08:51:15Z</time>
      </trkpt>
      <trkpt lat="49.178" lon="6.94768">
        <ele>314</ele>
        <time>2010-12-05T08:51:16Z</time>
      </trkpt>
      <trkpt lat="49.17799" lon="6.94767">
        <ele>313</ele>
        <time>2010-12-05T08:51:17Z</time>
      </trkpt>
      <trkpt lat="49.17797" lon="6.94766">
        <ele>313</ele>
        <time>2010-12-05T08:51:19Z</time>
      </trkpt>
      <trkpt lat="49.17796" lon="6.94766">
        <ele>313</ele>
        <time>2010-12-05T08:51:20Z</time>
      </trkpt>
      <trkpt lat="49.17794" lon="6.94765">
        <ele>313</ele>
        <time>2010-12-05T08:51:21Z</time>
      </trkpt>
      <trkpt lat="49.17793" lon="6.94764">
        <ele>313</ele>
        <time>2010-12-05T08:51:22Z</time>
      </trkpt>
      <trkpt lat="49.17792" lon="6.94764">
        <ele>313</ele>
        <time>2010-12-05T08:51:23Z</time>
      </trkpt>
      <trkpt lat="49.1779" lon="6.94763">
        <ele>313</ele>
        <time>2010-12-05T08:51:24Z</time>
      </trkpt>
      <trkpt lat="49.17789" lon="6.94763">
        <ele>313</ele>
        <time>2010-12-05T08:51:25Z</time>
      </trkpt>
      <trkpt lat="49.17788" lon="6.94762">
        <ele>313</ele>
        <time>2010-12-05T08:51:26Z</time>
      </trkpt>
      <trkpt lat="49.17786" lon="6.94761">
        <ele>313</ele>
        <time>2010-12-05T08:51:27Z</time>
      </trkpt>
      <trkpt lat="49.17785" lon="6.9476">
        <ele>313</ele>
        <time>2010-12-05T08:51:28Z</time>
      </trkpt>
      <trkpt lat="49.17784" lon="6.9476">
        <ele>313</ele>
        <time>2010-12-05T08:51:29Z</time>
      </trkpt>
      <trkpt lat="49.17783" lon="6.94759">
        <ele>313</ele>
        <time>2010-12-05T08:51:30Z</time>
      </trkpt>
      <trkpt lat="49.17782" lon="6.94758">
        <ele>313</ele>
        <time>2010-12-05T08:51:31Z</time>
      </trkpt>
      <trkpt lat="49.1778" lon="6.94757">
        <ele>313</ele>
        <time>2010-12-05T08:51:32Z</time>
      </trkpt>
      <trkpt lat="49.17779" lon="6.94756">
        <ele>313</ele>
        <time>2010-12-05T08:51:33Z</time>
      </trkpt>
      <trkpt lat="49.17778" lon="6.94756">
        <ele>312</ele>
        <time>2010-12-05T08:51:34Z</time>
      </trkpt>
      <trkpt lat="49.17776" lon="6.94755">
        <ele>312</ele>
        <time>2010-12-05T08:51:35Z</time>
      </trkpt>
      <trkpt lat="49.17775" lon="6.94755">
        <ele>312</ele>
        <time>2010-12-05T08:51:36Z</time>
      </trkpt>
      <trkpt lat="49.17773" lon="6.94754">
        <ele>312</ele>
        <time>2010-12-05T08:51:38Z</time>
      </trkpt>
      <trkpt lat="49.17772" lon="6.94753">
        <ele>312</ele>
        <time>2010-12-05T08:51:39Z</time>
      </trkpt>
      <trkpt lat="49.1777" lon="6.94752">
        <ele>312</ele>
        <time>2010-12-05T08:51:40Z</time>
      </trkpt>
      <trkpt lat="49.17769" lon="6.94752">
        <ele>312</ele>
        <time>2010-12-05T08:51:41Z</time>
      </trkpt>
      <trkpt lat="49.17768" lon="6.94751">
        <ele>311</ele>
        <time>2010-12-05T08:51:42Z</time>
      </trkpt>
      <trkpt lat="49.17766" lon="6.9475">
        <ele>311</ele>
        <time>2010-12-05T08:51:43Z</time>
      </trkpt>
      <trkpt lat="49.17765" lon="6.9475">
        <ele>311</ele>
        <time>2010-12-05T08:51:44Z</time>
      </trkpt>
      <trkpt lat="49.17764" lon="6.94749">
        <ele>311</ele>
        <time>2010-12-05T08:51:45Z</time>
      </trkpt>
      <trkpt lat="49.17763" lon="6.94749">
        <ele>311</ele>
        <time>2010-12-05T08:51:46Z</time>
      </trkpt>
      <trkpt lat="49.1776" lon="6.94749">
        <ele>310</ele>
        <time>2010-12-05T08:51:48Z</time>
      </trkpt>
      <trkpt lat="49.17759" lon="6.94748">
        <ele>310</ele>
        <time>2010-12-05T08:51:49Z</time>
      </trkpt>
      <trkpt lat="49.17758" lon="6.94747">
        <ele>310</ele>
        <time>2010-12-05T08:51:50Z</time>
      </trkpt>
      <trkpt lat="49.17757" lon="6.94747">
        <ele>310</ele>
        <time>2010-12-05T08:51:51Z</time>
      </trkpt>
      <trkpt lat="49.17756" lon="6.94746">
        <ele>309</ele>
        <time>2010-12-05T08:51:52Z</time>
      </trkpt>
      <trkpt lat="49.17754" lon="6.94746">
        <ele>309</ele>
        <time>2010-12-05T08:51:53Z</time>
      </trkpt>
      <trkpt lat="49.17753" lon="6.94745">
        <ele>309</ele>
        <time>2010-12-05T08:51:54Z</time>
      </trkpt>
      <trkpt lat="49.17751" lon="6.94744">
        <ele>309</ele>
        <time>2010-12-05T08:51:56Z</time>
      </trkpt>
      <trkpt lat="49.17749" lon="6.94744">
        <ele>308</ele>
        <time>2010-12-05T08:51:58Z</time>
      </trkpt>
      <trkpt lat="49.17747" lon="6.94743">
        <ele>308</ele>
        <time>2010-12-05T08:51:59Z</time>
      </trkpt>
      <trkpt lat="49.17746" lon="6.94743">
        <ele>308</ele>
        <time>2010-12-05T08:52:00Z</time>
      </trkpt>
      <trkpt lat="49.17745" lon="6.94743">
        <ele>308</ele>
        <time>2010-12-05T08:52:01Z</time>
      </trkpt>
      <trkpt lat="49.17743" lon="6.94743">
        <ele>307</ele>
        <time>2010-12-05T08:52:03Z</time>
      </trkpt>
      <trkpt lat="49.17741" lon="6.94744">
        <ele>307</ele>
        <time>2010-12-05T08:52:05Z</time>
      </trkpt>
      <trkpt lat="49.17739" lon="6.94745">
        <ele>307</ele>
        <time>2010-12-05T08:52:07Z</time>
      </trkpt>
      <trkpt lat="49.17739" lon="6.94747">
        <ele>307</ele>
        <time>2010-12-05T08:52:09Z</time>
      </trkpt>
      <trkpt lat="49.17738" lon="6.9475">
        <ele>307</ele>
        <time>2010-12-05T08:52:11Z</time>
      </trkpt>
      <trkpt lat="49.17737" lon="6.94752">
        <ele>307</ele>
        <time>2010-12-05T08:52:12Z</time>
      </trkpt>
      <trkpt lat="49.17737" lon="6.94753">
        <ele>307</ele>
        <time>2010-12-05T08:52:13Z</time>
      </trkpt>
      <trkpt lat="49.17736" lon="6.94755">
        <ele>306</ele>
        <time>2010-12-05T08:52:14Z</time>
      </trkpt>
      <trkpt lat="49.17736" lon="6.94758">
        <ele>306</ele>
        <time>2010-12-05T08:52:16Z</time>
      </trkpt>
      <trkpt lat="49.17736" lon="6.9476">
        <ele>306</ele>
        <time>2010-12-05T08:52:17Z</time>
      </trkpt>
      <trkpt lat="49.17736" lon="6.94763">
        <ele>306</ele>
        <time>2010-12-05T08:52:19Z</time>
      </trkpt>
      <trkpt lat="49.17735" lon="6.94764">
        <ele>306</ele>
        <time>2010-12-05T08:52:20Z</time>
      </trkpt>
      <trkpt lat="49.17736" lon="6.94766">
        <ele>306</ele>
        <time>2010-12-05T08:52:21Z</time>
      </trkpt>
      <trkpt lat="49.17736" lon="6.94768">
        <ele>306</ele>
        <time>2010-12-05T08:52:22Z</time>
      </trkpt>
      <trkpt lat="49.17736" lon="6.94769">
        <ele>306</ele>
        <time>2010-12-05T08:52:23Z</time>
      </trkpt>
      <trkpt lat="49.17736" lon="6.94771">
        <ele>306</ele>
        <time>2010-12-05T08:52:24Z</time>
      </trkpt>
      <trkpt lat="49.17736" lon="6.94773">
        <ele>306</ele>
        <time>2010-12-05T08:52:25Z</time>
      </trkpt>
      <trkpt lat="49.17736" lon="6.94775">
        <ele>306</ele>
        <time>2010-12-05T08:52:27Z</time>
      </trkpt>
      <trkpt lat="49.17736" lon="6.94777">
        <ele>306</ele>
        <time>2010-12-05T08:52:28Z</time>
      </trkpt>
      <trkpt lat="49.17736" lon="6.94779">
        <ele>306</ele>
        <time>2010-12-05T08:52:29Z</time>
      </trkpt>
      <trkpt lat="49.17736" lon="6.94781">
        <ele>306</ele>
        <time>2010-12-05T08:52:30Z</time>
      </trkpt>
      <trkpt lat="49.17736" lon="6.94782">
        <ele>306</ele>
        <time>2010-12-05T08:52:31Z</time>
      </trkpt>
      <trkpt lat="49.17736" lon="6.94784">
        <ele>306</ele>
        <time>2010-12-05T08:52:32Z</time>
      </trkpt>
      <trkpt lat="49.17736" lon="6.94786">
        <ele>306</ele>
        <time>2010-12-05T08:52:33Z</time>
      </trkpt>
      <trkpt lat="49.17737" lon="6.94788">
        <ele>306</ele>
        <time>2010-12-05T08:52:34Z</time>
      </trkpt>
      <trkpt lat="49.17737" lon="6.9479">
        <ele>306</ele>
        <time>2010-12-05T08:52:35Z</time>
      </trkpt>
      <trkpt lat="49.17736" lon="6.94791">
        <ele>306</ele>
        <time>2010-12-05T08:52:36Z</time>
      </trkpt>
      <trkpt lat="49.17736" lon="6.94793">
        <ele>306</ele>
        <time>2010-12-05T08:52:37Z</time>
      </trkpt>
      <trkpt lat="49.17736" lon="6.94795">
        <ele>306</ele>
        <time>2010-12-05T08:52:38Z</time>
      </trkpt>
      <trkpt lat="49.17736" lon="6.94797">
        <ele>306</ele>
        <time>2010-12-05T08:52:39Z</time>
      </trkpt>
      <trkpt lat="49.17736" lon="6.94799">
        <ele>306</ele>
        <time>2010-12-05T08:52:40Z</time>
      </trkpt>
      <trkpt lat="49.17736" lon="6.948">
        <ele>306</ele>
        <time>2010-12-05T08:52:41Z</time>
      </trkpt>
      <trkpt lat="49.17736" lon="6.94803">
        <ele>306</ele>
        <time>2010-12-05T08:52:43Z</time>
      </trkpt>
      <trkpt lat="49.17736" lon="6.94805">
        <ele>306</ele>
        <time>2010-12-05T08:52:44Z</time>
      </trkpt>
      <trkpt lat="49.17737" lon="6.94807">
        <ele>306</ele>
        <time>2010-12-05T08:52:45Z</time>
      </trkpt>
      <trkpt lat="49.17736" lon="6.94809">
        <ele>306</ele>
        <time>2010-12-05T08:52:46Z</time>
      </trkpt>
      <trkpt lat="49.17737" lon="6.94812">
        <ele>306</ele>
        <time>2010-12-05T08:52:48Z</time>
      </trkpt>
      <trkpt lat="49.17737" lon="6.94814">
        <ele>306</ele>
        <time>2010-12-05T08:52:49Z</time>
      </trkpt>
      <trkpt lat="49.17737" lon="6.94815">
        <ele>306</ele>
        <time>2010-12-05T08:52:50Z</time>
      </trkpt>
      <trkpt lat="49.17737" lon="6.94818">
        <ele>306</ele>
        <time>2010-12-05T08:52:51Z</time>
      </trkpt>
      <trkpt lat="49.17736" lon="6.9482">
        <ele>306</ele>
        <time>2010-12-05T08:52:52Z</time>
      </trkpt>
      <trkpt lat="49.17736" lon="6.94822">
        <ele>306</ele>
        <time>2010-12-05T08:52:53Z</time>
      </trkpt>
      <trkpt lat="49.17736" lon="6.94824">
        <ele>306</ele>
        <time>2010-12-05T08:52:54Z</time>
      </trkpt>
      <trkpt lat="49.17736" lon="6.94827">
        <ele>306</ele>
        <time>2010-12-05T08:52:56Z</time>
      </trkpt>
      <trkpt lat="49.17736" lon="6.94829">
        <ele>306</ele>
        <time>2010-12-05T08:52:57Z</time>
      </trkpt>
      <trkpt lat="49.17736" lon="6.9483">
        <ele>306</ele>
        <time>2010-12-05T08:52:58Z</time>
      </trkpt>
      <trkpt lat="49.17736" lon="6.94832">
        <ele>306</ele>
        <time>2010-12-05T08:52:59Z</time>
      </trkpt>
      <trkpt lat="49.17736" lon="6.94834">
        <ele>306</ele>
        <time>2010-12-05T08:53:00Z</time>
      </trkpt>
      <trkpt lat="49.17736" lon="6.94836">
        <ele>306</ele>
        <time>2010-12-05T08:53:01Z</time>
      </trkpt>
      <trkpt lat="49.17736" lon="6.94837">
        <ele>306</ele>
        <time>2010-12-05T08:53:02Z</time>
      </trkpt>
      <trkpt lat="49.17736" lon="6.94839">
        <ele>306</ele>
        <time>2010-12-05T08:53:03Z</time>
      </trkpt>
      <trkpt lat="49.17736" lon="6.94841">
        <ele>306</ele>
        <time>2010-12-05T08:53:04Z</time>
      </trkpt>
      <trkpt lat="49.17736" lon="6.94843">
        <ele>306</ele>
        <time>2010-12-05T08:53:05Z</time>
      </trkpt>
      <trkpt lat="49.17736" lon="6.94845">
        <ele>306</ele>
        <time>2010-12-05T08:53:06Z</time>
      </trkpt>
      <trkpt lat="49.17736" lon="6.94846">
        <ele>306</ele>
        <time>2010-12-05T08:53:07Z</time>
      </trkpt>
      <trkpt lat="49.17736" lon="6.94849">
        <ele>306</ele>
        <time>2010-12-05T08:53:09Z</time>
      </trkpt>
      <trkpt lat="49.17736" lon="6.94853">
        <ele>306</ele>
        <time>2010-12-05T08:53:11Z</time>
      </trkpt>
      <trkpt lat="49.17736" lon="6.94855">
        <ele>306</ele>
        <time>2010-12-05T08:53:12Z</time>
      </trkpt>
      <trkpt lat="49.17736" lon="6.94857">
        <ele>306</ele>
        <time>2010-12-05T08:53:13Z</time>
      </trkpt>
      <trkpt lat="49.17736" lon="6.94858">
        <ele>306</ele>
        <time>2010-12-05T08:53:14Z</time>
      </trkpt>
      <trkpt lat="49.17736" lon="6.9486">
        <ele>306</ele>
        <time>2010-12-05T08:53:15Z</time>
      </trkpt>
      <trkpt lat="49.17736" lon="6.94862">
        <ele>306</ele>
        <time>2010-12-05T08:53:16Z</time>
      </trkpt>
      <trkpt lat="49.17735" lon="6.94865">
        <ele>306</ele>
        <time>2010-12-05T08:53:18Z</time>
      </trkpt>
      <trkpt lat="49.17735" lon="6.94867">
        <ele>306</ele>
        <time>2010-12-05T08:53:19Z</time>
      </trkpt>
      <trkpt lat="49.17735" lon="6.94869">
        <ele>306</ele>
        <time>2010-12-05T08:53:20Z</time>
      </trkpt>
      <trkpt lat="49.17735" lon="6.94871">
        <ele>306</ele>
        <time>2010-12-05T08:53:21Z</time>
      </trkpt>
      <trkpt lat="49.17735" lon="6.94873">
        <ele>306</ele>
        <time>2010-12-05T08:53:22Z</time>
      </trkpt>
      <trkpt lat="49.17735" lon="6.94874">
        <ele>306</ele>
        <time>2010-12-05T08:53:23Z</time>
      </trkpt>
      <trkpt lat="49.17735" lon="6.94876">
        <ele>306</ele>
        <time>2010-12-05T08:53:24Z</time>
      </trkpt>
      <trkpt lat="49.17735" lon="6.94878">
        <ele>306</ele>
        <time>2010-12-05T08:53:25Z</time>
      </trkpt>
      <trkpt lat="49.17735" lon="6.9488">
        <ele>306</ele>
        <time>2010-12-05T08:53:26Z</time>
      </trkpt>
      <trkpt lat="49.17735" lon="6.94881">
        <ele>306</ele>
        <time>2010-12-05T08:53:27Z</time>
      </trkpt>
      <trkpt lat="49.17735" lon="6.94883">
        <ele>306</ele>
        <time>2010-12-05T08:53:28Z</time>
      </trkpt>
      <trkpt lat="49.17735" lon="6.94886">
        <ele>306</ele>
        <time>2010-12-05T08:53:30Z</time>
      </trkpt>
      <trkpt lat="49.17735" lon="6.94888">
        <ele>306</ele>
        <time>2010-12-05T08:53:31Z</time>
      </trkpt>
      <trkpt lat="49.17735" lon="6.9489">
        <ele>306</ele>
        <time>2010-12-05T08:53:32Z</time>
      </trkpt>
      <trkpt lat="49.17734" lon="6.94892">
        <ele>306</ele>
        <time>2010-12-05T08:53:33Z</time>
      </trkpt>
      <trkpt lat="49.17734" lon="6.94894">
        <ele>306</ele>
        <time>2010-12-05T08:53:34Z</time>
      </trkpt>
      <trkpt lat="49.17734" lon="6.94897">
        <ele>306</ele>
        <time>2010-12-05T08:53:36Z</time>
      </trkpt>
      <trkpt lat="49.17734" lon="6.94899">
        <ele>306</ele>
        <time>2010-12-05T08:53:37Z</time>
      </trkpt>
      <trkpt lat="49.17734" lon="6.949">
        <ele>306</ele>
        <time>2010-12-05T08:53:38Z</time>
      </trkpt>
      <trkpt lat="49.17734" lon="6.94902">
        <ele>306</ele>
        <time>2010-12-05T08:53:39Z</time>
      </trkpt>
      <trkpt lat="49.17734" lon="6.94905">
        <ele>306</ele>
        <time>2010-12-05T08:53:41Z</time>
      </trkpt>
      <trkpt lat="49.17734" lon="6.94908">
        <ele>306</ele>
        <time>2010-12-05T08:53:43Z</time>
      </trkpt>
      <trkpt lat="49.17734" lon="6.9491">
        <ele>306</ele>
        <time>2010-12-05T08:53:44Z</time>
      </trkpt>
      <trkpt lat="49.17734" lon="6.94912">
        <ele>306</ele>
        <time>2010-12-05T08:53:45Z</time>
      </trkpt>
      <trkpt lat="49.17734" lon="6.94913">
        <ele>306</ele>
        <time>2010-12-05T08:53:46Z</time>
      </trkpt>
      <trkpt lat="49.17735" lon="6.94916">
        <ele>306</ele>
        <time>2010-12-05T08:53:48Z</time>
      </trkpt>
      <trkpt lat="49.17735" lon="6.94919">
        <ele>306</ele>
        <time>2010-12-05T08:53:50Z</time>
      </trkpt>
      <trkpt lat="49.17735" lon="6.94921">
        <ele>306</ele>
        <time>2010-12-05T08:53:51Z</time>
      </trkpt>
      <trkpt lat="49.17735" lon="6.94923">
        <ele>306</ele>
        <time>2010-12-05T08:53:52Z</time>
      </trkpt>
      <trkpt lat="49.17734" lon="6.94925">
        <ele>306</ele>
        <time>2010-12-05T08:53:53Z</time>
      </trkpt>
      <trkpt lat="49.17734" lon="6.94927">
        <ele>306</ele>
        <time>2010-12-05T08:53:55Z</time>
      </trkpt>
      <trkpt lat="49.17734" lon="6.94929">
        <ele>306</ele>
        <time>2010-12-05T08:53:56Z</time>
      </trkpt>
      <trkpt lat="49.17734" lon="6.94931">
        <ele>306</ele>
        <time>2010-12-05T08:53:57Z</time>
      </trkpt>
      <trkpt lat="49.17734" lon="6.94932">
        <ele>306</ele>
        <time>2010-12-05T08:53:58Z</time>
      </trkpt>
      <trkpt lat="49.17735" lon="6.94935">
        <ele>306</ele>
        <time>2010-12-05T08:54:00Z</time>
      </trkpt>
      <trkpt lat="49.17735" lon="6.94938">
        <ele>306</ele>
        <time>2010-12-05T08:54:02Z</time>
      </trkpt>
      <trkpt lat="49.17735" lon="6.94941">
        <ele>306</ele>
        <time>2010-12-05T08:54:04Z</time>
      </trkpt>
      <trkpt lat="49.17735" lon="6.94943">
        <ele>306</ele>
        <time>2010-12-05T08:54:05Z</time>
      </trkpt>
      <trkpt lat="49.17735" lon="6.94944">
        <ele>306</ele>
        <time>2010-12-05T08:54:06Z</time>
      </trkpt>
      <trkpt lat="49.17735" lon="6.94946">
        <ele>306</ele>
        <time>2010-12-05T08:54:07Z</time>
      </trkpt>
      <trkpt lat="49.17735" lon="6.94948">
        <ele>306</ele>
        <time>2010-12-05T08:54:08Z</time>
      </trkpt>
      <trkpt lat="49.17735" lon="6.9495">
        <ele>306</ele>
        <time>2010-12-05T08:54:09Z</time>
      </trkpt>
      <trkpt lat="49.17736" lon="6.94953">
        <ele>306</ele>
        <time>2010-12-05T08:54:11Z</time>
      </trkpt>
      <trkpt lat="49.17736" lon="6.94955">
        <ele>306</ele>
        <time>2010-12-05T08:54:12Z</time>
      </trkpt>
      <trkpt lat="49.17736" lon="6.94957">
        <ele>306</ele>
        <time>2010-12-05T08:54:13Z</time>
      </trkpt>
      <trkpt lat="49.17736" lon="6.94958">
        <ele>306</ele>
        <time>2010-12-05T08:54:14Z</time>
      </trkpt>
      <trkpt lat="49.17736" lon="6.94961">
        <ele>306</ele>
        <time>2010-12-05T08:54:16Z</time>
      </trkpt>
      <trkpt lat="49.17736" lon="6.94963">
        <ele>306</ele>
        <time>2010-12-05T08:54:17Z</time>
      </trkpt>
      <trkpt lat="49.17737" lon="6.94965">
        <ele>306</ele>
        <time>2010-12-05T08:54:18Z</time>
      </trkpt>
      <trkpt lat="49.17737" lon="6.94967">
        <ele>306</ele>
        <time>2010-12-05T08:54:19Z</time>
      </trkpt>
      <trkpt lat="49.17737" lon="6.94969">
        <ele>306</ele>
        <time>2010-12-05T08:54:20Z</time>
      </trkpt>
      <trkpt lat="49.17737" lon="6.94972">
        <ele>306</ele>
        <time>2010-12-05T08:54:22Z</time>
      </trkpt>
      <trkpt lat="49.17738" lon="6.94973">
        <ele>306</ele>
        <time>2010-12-05T08:54:23Z</time>
      </trkpt>
      <trkpt lat="49.17738" lon="6.94975">
        <ele>306</ele>
        <time>2010-12-05T08:54:24Z</time>
      </trkpt>
      <trkpt lat="49.17738" lon="6.94977">
        <ele>306</ele>
        <time>2010-12-05T08:54:25Z</time>
      </trkpt>
      <trkpt lat="49.17738" lon="6.94979">
        <ele>306</ele>
        <time>2010-12-05T08:54:26Z</time>
      </trkpt>
      <trkpt lat="49.17738" lon="6.94982">
        <ele>306</ele>
        <time>2010-12-05T08:54:27Z</time>
      </trkpt>
      <trkpt lat="49.17738" lon="6.94984">
        <ele>306</ele>
        <time>2010-12-05T08:54:29Z</time>
      </trkpt>
      <trkpt lat="49.17738" lon="6.94986">
        <ele>306</ele>
        <time>2010-12-05T08:54:30Z</time>
      </trkpt>
      <trkpt lat="49.17738" lon="6.94988">
        <ele>306</ele>
        <time>2010-12-05T08:54:31Z</time>
      </trkpt>
      <trkpt lat="49.17738" lon="6.9499">
        <ele>306</ele>
        <time>2010-12-05T08:54:32Z</time>
      </trkpt>
      <trkpt lat="49.17738" lon="6.94992">
        <ele>306</ele>
        <time>2010-12-05T08:54:33Z</time>
      </trkpt>
      <trkpt lat="49.17738" lon="6.94994">
        <ele>306</ele>
        <time>2010-12-05T08:54:34Z</time>
      </trkpt>
      <trkpt lat="49.17738" lon="6.94996">
        <ele>306</ele>
        <time>2010-12-05T08:54:35Z</time>
      </trkpt>
      <trkpt lat="49.17739" lon="6.94999">
        <ele>306</ele>
        <time>2010-12-05T08:54:37Z</time>
      </trkpt>
      <trkpt lat="49.17739" lon="6.95001">
        <ele>306</ele>
        <time>2010-12-05T08:54:38Z</time>
      </trkpt>
      <trkpt lat="49.17739" lon="6.95003">
        <ele>306</ele>
        <time>2010-12-05T08:54:39Z</time>
      </trkpt>
      <trkpt lat="49.1774" lon="6.95005">
        <ele>306</ele>
        <time>2010-12-05T08:54:40Z</time>
      </trkpt>
      <trkpt lat="49.1774" lon="6.95006">
        <ele>306</ele>
        <time>2010-12-05T08:54:41Z</time>
      </trkpt>
      <trkpt lat="49.1774" lon="6.95009">
        <ele>306</ele>
        <time>2010-12-05T08:54:43Z</time>
      </trkpt>
      <trkpt lat="49.1774" lon="6.95011">
        <ele>306</ele>
        <time>2010-12-05T08:54:44Z</time>
      </trkpt>
      <trkpt lat="49.17741" lon="6.95013">
        <ele>306</ele>
        <time>2010-12-05T08:54:45Z</time>
      </trkpt>
      <trkpt lat="49.17741" lon="6.95014">
        <ele>306</ele>
        <time>2010-12-05T08:54:46Z</time>
      </trkpt>
      <trkpt lat="49.17741" lon="6.95016">
        <ele>306</ele>
        <time>2010-12-05T08:54:47Z</time>
      </trkpt>
      <trkpt lat="49.17741" lon="6.95018">
        <ele>306</ele>
        <time>2010-12-05T08:54:48Z</time>
      </trkpt>
      <trkpt lat="49.17741" lon="6.9502">
        <ele>306</ele>
        <time>2010-12-05T08:54:49Z</time>
      </trkpt>
      <trkpt lat="49.17742" lon="6.95021">
        <ele>306</ele>
        <time>2010-12-05T08:54:50Z</time>
      </trkpt>
      <trkpt lat="49.17742" lon="6.95023">
        <ele>306</ele>
        <time>2010-12-05T08:54:51Z</time>
      </trkpt>
      <trkpt lat="49.17742" lon="6.95025">
        <ele>306</ele>
        <time>2010-12-05T08:54:52Z</time>
      </trkpt>
      <trkpt lat="49.17742" lon="6.95027">
        <ele>306</ele>
        <time>2010-12-05T08:54:53Z</time>
      </trkpt>
      <trkpt lat="49.17743" lon="6.95029">
        <ele>306</ele>
        <time>2010-12-05T08:54:54Z</time>
      </trkpt>
      <trkpt lat="49.17743" lon="6.95031">
        <ele>306</ele>
        <time>2010-12-05T08:54:55Z</time>
      </trkpt>
      <trkpt lat="49.17743" lon="6.95032">
        <ele>306</ele>
        <time>2010-12-05T08:54:56Z</time>
      </trkpt>
      <trkpt lat="49.17744" lon="6.95036">
        <ele>306</ele>
        <time>2010-12-05T08:54:58Z</time>
      </trkpt>
      <trkpt lat="49.17744" lon="6.95037">
        <ele>306</ele>
        <time>2010-12-05T08:54:59Z</time>
      </trkpt>
      <trkpt lat="49.17744" lon="6.95039">
        <ele>306</ele>
        <time>2010-12-05T08:55:00Z</time>
      </trkpt>
      <trkpt lat="49.17744" lon="6.95041">
        <ele>306</ele>
        <time>2010-12-05T08:55:01Z</time>
      </trkpt>
      <trkpt lat="49.17745" lon="6.95044">
        <ele>306</ele>
        <time>2010-12-05T08:55:03Z</time>
      </trkpt>
      <trkpt lat="49.17746" lon="6.95047">
        <ele>306</ele>
        <time>2010-12-05T08:55:05Z</time>
      </trkpt>
      <trkpt lat="49.17746" lon="6.95049">
        <ele>306</ele>
        <time>2010-12-05T08:55:06Z</time>
      </trkpt>
      <trkpt lat="49.17746" lon="6.95051">
        <ele>306</ele>
        <time>2010-12-05T08:55:07Z</time>
      </trkpt>
      <trkpt lat="49.17746" lon="6.95052">
        <ele>306</ele>
        <time>2010-12-05T08:55:08Z</time>
      </trkpt>
      <trkpt lat="49.17746" lon="6.95054">
        <ele>306</ele>
        <time>2010-12-05T08:55:09Z</time>
      </trkpt>
      <trkpt lat="49.17747" lon="6.95056">
        <ele>306</ele>
        <time>2010-12-05T08:55:10Z</time>
      </trkpt>
      <trkpt lat="49.17747" lon="6.95057">
        <ele>306</ele>
        <time>2010-12-05T08:55:11Z</time>
      </trkpt>
      <trkpt lat="49.17747" lon="6.95059">
        <ele>306</ele>
        <time>2010-12-05T08:55:12Z</time>
      </trkpt>
      <trkpt lat="49.17747" lon="6.95061">
        <ele>306</ele>
        <time>2010-12-05T08:55:13Z</time>
      </trkpt>
      <trkpt lat="49.17748" lon="6.95063">
        <ele>306</ele>
        <time>2010-12-05T08:55:14Z</time>
      </trkpt>
      <trkpt lat="49.17748" lon="6.95066">
        <ele>306</ele>
        <time>2010-12-05T08:55:16Z</time>
      </trkpt>
      <trkpt lat="49.17748" lon="6.95068">
        <ele>306</ele>
        <time>2010-12-05T08:55:17Z</time>
      </trkpt>
      <trkpt lat="49.17749" lon="6.9507">
        <ele>306</ele>
        <time>2010-12-05T08:55:18Z</time>
      </trkpt>
      <trkpt lat="49.17749" lon="6.95071">
        <ele>306</ele>
        <time>2010-12-05T08:55:19Z</time>
      </trkpt>
      <trkpt lat="49.17749" lon="6.95073">
        <ele>306</ele>
        <time>2010-12-05T08:55:20Z</time>
      </trkpt>
      <trkpt lat="49.17749" lon="6.95075">
        <ele>306</ele>
        <time>2010-12-05T08:55:21Z</time>
      </trkpt>
      <trkpt lat="49.17749" lon="6.95077">
        <ele>306</ele>
        <time>2010-12-05T08:55:22Z</time>
      </trkpt>
      <trkpt lat="49.1775" lon="6.95078">
        <ele>306</ele>
        <time>2010-12-05T08:55:23Z</time>
      </trkpt>
      <trkpt lat="49.1775" lon="6.9508">
        <ele>306</ele>
        <time>2010-12-05T08:55:24Z</time>
      </trkpt>
      <trkpt lat="49.1775" lon="6.95082">
        <ele>306</ele>
        <time>2010-12-05T08:55:25Z</time>
      </trkpt>
      <trkpt lat="49.1775" lon="6.95084">
        <ele>306</ele>
        <time>2010-12-05T08:55:26Z</time>
      </trkpt>
      <trkpt lat="49.1775" lon="6.95085">
        <ele>306</ele>
        <time>2010-12-05T08:55:27Z</time>
      </trkpt>
      <trkpt lat="49.1775" lon="6.95088">
        <ele>306</ele>
        <time>2010-12-05T08:55:29Z</time>
      </trkpt>
      <trkpt lat="49.17749" lon="6.95091">
        <ele>306</ele>
        <time>2010-12-05T08:55:31Z</time>
      </trkpt>
      <trkpt lat="49.17748" lon="6.95092">
        <ele>306</ele>
        <time>2010-12-05T08:55:33Z</time>
      </trkpt>
      <trkpt lat="49.17746" lon="6.95094">
        <ele>306</ele>
        <time>2010-12-05T08:55:35Z</time>
      </trkpt>
      <trkpt lat="49.17744" lon="6.95095">
        <ele>306</ele>
        <time>2010-12-05T08:55:37Z</time>
      </trkpt>
      <trkpt lat="49.17743" lon="6.95096">
        <ele>306</ele>
        <time>2010-12-05T08:55:39Z</time>
      </trkpt>
      <trkpt lat="49.17741" lon="6.95098">
        <ele>306</ele>
        <time>2010-12-05T08:55:41Z</time>
      </trkpt>
      <trkpt lat="49.17739" lon="6.951">
        <ele>306</ele>
        <time>2010-12-05T08:55:43Z</time>
      </trkpt>
      <trkpt lat="49.17738" lon="6.95102">
        <ele>306</ele>
        <time>2010-12-05T08:55:44Z</time>
      </trkpt>
      <trkpt lat="49.17737" lon="6.95103">
        <ele>306</ele>
        <time>2010-12-05T08:55:46Z</time>
      </trkpt>
      <trkpt lat="49.17736" lon="6.95105">
        <ele>306</ele>
        <time>2010-12-05T08:55:48Z</time>
      </trkpt>
      <trkpt lat="49.17734" lon="6.95108">
        <ele>306</ele>
        <time>2010-12-05T08:55:50Z</time>
      </trkpt>
      <trkpt lat="49.17733" lon="6.9511">
        <ele>306</ele>
        <time>2010-12-05T08:55:51Z</time>
      </trkpt>
      <trkpt lat="49.17732" lon="6.95112">
        <ele>306</ele>
        <time>2010-12-05T08:55:53Z</time>
      </trkpt>
      <trkpt lat="49.1773" lon="6.95114">
        <ele>306</ele>
        <time>2010-12-05T08:55:55Z</time>
      </trkpt>
      <trkpt lat="49.17729" lon="6.95117">
        <ele>306</ele>
        <time>2010-12-05T08:55:57Z</time>
      </trkpt>
      <trkpt lat="49.17728" lon="6.95119">
        <ele>306</ele>
        <time>2010-12-05T08:55:59Z</time>
      </trkpt>
      <trkpt lat="49.17728" lon="6.9512">
        <ele>306</ele>
        <time>2010-12-05T08:56:00Z</time>
      </trkpt>
      <trkpt lat="49.17727" lon="6.95122">
        <ele>306</ele>
        <time>2010-12-05T08:56:01Z</time>
      </trkpt>
      <trkpt lat="49.17725" lon="6.95122">
        <ele>306</ele>
        <time>2010-12-05T08:56:02Z</time>
      </trkpt>
      <trkpt lat="49.17723" lon="6.95123">
        <ele>306</ele>
        <time>2010-12-05T08:56:04Z</time>
      </trkpt>
      <trkpt lat="49.17721" lon="6.95123">
        <ele>306</ele>
        <time>2010-12-05T08:56:06Z</time>
      </trkpt>
      <trkpt lat="49.17719" lon="6.95123">
        <ele>306</ele>
        <time>2010-12-05T08:56:08Z</time>
      </trkpt>
      <trkpt lat="49.17718" lon="6.95123">
        <ele>305</ele>
        <time>2010-12-05T08:56:09Z</time>
      </trkpt>
      <trkpt lat="49.17717" lon="6.95123">
        <ele>305</ele>
        <time>2010-12-05T08:56:10Z</time>
      </trkpt>
      <trkpt lat="49.17715" lon="6.95124">
        <ele>305</ele>
        <time>2010-12-05T08:56:11Z</time>
      </trkpt>
      <trkpt lat="49.17714" lon="6.95124">
        <ele>305</ele>
        <time>2010-12-05T08:56:12Z</time>
      </trkpt>
      <trkpt lat="49.17713" lon="6.95124">
        <ele>304</ele>
        <time>2010-12-05T08:56:13Z</time>
      </trkpt>
      <trkpt lat="49.17712" lon="6.95124">
        <ele>304</ele>
        <time>2010-12-05T08:56:14Z</time>
      </trkpt>
      <trkpt lat="49.1771" lon="6.95125">
        <ele>304</ele>
        <time>2010-12-05T08:56:16Z</time>
      </trkpt>
      <trkpt lat="49.17709" lon="6.95125">
        <ele>304</ele>
        <time>2010-12-05T08:56:17Z</time>
      </trkpt>
      <trkpt lat="49.17707" lon="6.95125">
        <ele>304</ele>
        <time>2010-12-05T08:56:18Z</time>
      </trkpt>
      <trkpt lat="49.17705" lon="6.95126">
        <ele>304</ele>
        <time>2010-12-05T08:56:19Z</time>
      </trkpt>
      <trkpt lat="49.17704" lon="6.95126">
        <ele>303</ele>
        <time>2010-12-05T08:56:20Z</time>
      </trkpt>
      <trkpt lat="49.17703" lon="6.95127">
        <ele>303</ele>
        <time>2010-12-05T08:56:21Z</time>
      </trkpt>
      <trkpt lat="49.17702" lon="6.95127">
        <ele>303</ele>
        <time>2010-12-05T08:56:22Z</time>
      </trkpt>
      <trkpt lat="49.17701" lon="6.95128">
        <ele>303</ele>
        <time>2010-12-05T08:56:23Z</time>
      </trkpt>
      <trkpt lat="49.17698" lon="6.95129">
        <ele>302</ele>
        <time>2010-12-05T08:56:25Z</time>
      </trkpt>
      <trkpt lat="49.17697" lon="6.9513">
        <ele>302</ele>
        <time>2010-12-05T08:56:26Z</time>
      </trkpt>
      <trkpt lat="49.17695" lon="6.9513">
        <ele>302</ele>
        <time>2010-12-05T08:56:27Z</time>
      </trkpt>
      <trkpt lat="49.17694" lon="6.95131">
        <ele>302</ele>
        <time>2010-12-05T08:56:28Z</time>
      </trkpt>
      <trkpt lat="49.17693" lon="6.95131">
        <ele>302</ele>
        <time>2010-12-05T08:56:29Z</time>
      </trkpt>
      <trkpt lat="49.17691" lon="6.95132">
        <ele>302</ele>
        <time>2010-12-05T08:56:30Z</time>
      </trkpt>
      <trkpt lat="49.1769" lon="6.95132">
        <ele>301</ele>
        <time>2010-12-05T08:56:31Z</time>
      </trkpt>
      <trkpt lat="49.17689" lon="6.95132">
        <ele>301</ele>
        <time>2010-12-05T08:56:32Z</time>
      </trkpt>
      <trkpt lat="49.17687" lon="6.95132">
        <ele>301</ele>
        <time>2010-12-05T08:56:34Z</time>
      </trkpt>
      <trkpt lat="49.17686" lon="6.95133">
        <ele>301</ele>
        <time>2010-12-05T08:56:35Z</time>
      </trkpt>
      <trkpt lat="49.17685" lon="6.95133">
        <ele>301</ele>
        <time>2010-12-05T08:56:36Z</time>
      </trkpt>
      <trkpt lat="49.17683" lon="6.95134">
        <ele>301</ele>
        <time>2010-12-05T08:56:37Z</time>
      </trkpt>
      <trkpt lat="49.17682" lon="6.95134">
        <ele>301</ele>
        <time>2010-12-05T08:56:38Z</time>
      </trkpt>
      <trkpt lat="49.1768" lon="6.95136">
        <ele>301</ele>
        <time>2010-12-05T08:56:40Z</time>
      </trkpt>
      <trkpt lat="49.17679" lon="6.95137">
        <ele>301</ele>
        <time>2010-12-05T08:56:41Z</time>
      </trkpt>
      <trkpt lat="49.17677" lon="6.95138">
        <ele>301</ele>
        <time>2010-12-05T08:56:42Z</time>
      </trkpt>
      <trkpt lat="49.17676" lon="6.95138">
        <ele>301</ele>
        <time>2010-12-05T08:56:43Z</time>
      </trkpt>
      <trkpt lat="49.17675" lon="6.95139">
        <ele>301</ele>
        <time>2010-12-05T08:56:44Z</time>
      </trkpt>
      <trkpt lat="49.17673" lon="6.95139">
        <ele>301</ele>
        <time>2010-12-05T08:56:45Z</time>
      </trkpt>
      <trkpt lat="49.17672" lon="6.9514">
        <ele>301</ele>
        <time>2010-12-05T08:56:46Z</time>
      </trkpt>
      <trkpt lat="49.1767" lon="6.9514">
        <ele>300</ele>
        <time>2010-12-05T08:56:48Z</time>
      </trkpt>
      <trkpt lat="49.17669" lon="6.95141">
        <ele>300</ele>
        <time>2010-12-05T08:56:50Z</time>
      </trkpt>
      <trkpt lat="49.17667" lon="6.95143">
        <ele>299</ele>
        <time>2010-12-05T08:56:52Z</time>
      </trkpt>
      <trkpt lat="49.17665" lon="6.95144">
        <ele>299</ele>
        <time>2010-12-05T08:56:53Z</time>
      </trkpt>
      <trkpt lat="49.17664" lon="6.95145">
        <ele>299</ele>
        <time>2010-12-05T08:56:54Z</time>
      </trkpt>
      <trkpt lat="49.17662" lon="6.95146">
        <ele>299</ele>
        <time>2010-12-05T08:56:56Z</time>
      </trkpt>
      <trkpt lat="49.17661" lon="6.95147">
        <ele>299</ele>
        <time>2010-12-05T08:56:57Z</time>
      </trkpt>
      <trkpt lat="49.17659" lon="6.95147">
        <ele>299</ele>
        <time>2010-12-05T08:56:58Z</time>
      </trkpt>
      <trkpt lat="49.17658" lon="6.95148">
        <ele>299</ele>
        <time>2010-12-05T08:56:59Z</time>
      </trkpt>
      <trkpt lat="49.17657" lon="6.95148">
        <ele>299</ele>
        <time>2010-12-05T08:57:00Z</time>
      </trkpt>
      <trkpt lat="49.17656" lon="6.95149">
        <ele>299</ele>
        <time>2010-12-05T08:57:01Z</time>
      </trkpt>
      <trkpt lat="49.17654" lon="6.95149">
        <ele>299</ele>
        <time>2010-12-05T08:57:02Z</time>
      </trkpt>
      <trkpt lat="49.17652" lon="6.9515">
        <ele>299</ele>
        <time>2010-12-05T08:57:04Z</time>
      </trkpt>
      <trkpt lat="49.17651" lon="6.95151">
        <ele>299</ele>
        <time>2010-12-05T08:57:05Z</time>
      </trkpt>
      <trkpt lat="49.17648" lon="6.95152">
        <ele>298</ele>
        <time>2010-12-05T08:57:07Z</time>
      </trkpt>
      <trkpt lat="49.17646" lon="6.95153">
        <ele>298</ele>
        <time>2010-12-05T08:57:08Z</time>
      </trkpt>
      <trkpt lat="49.17645" lon="6.95153">
        <ele>298</ele>
        <time>2010-12-05T08:57:09Z</time>
      </trkpt>
      <trkpt lat="49.17644" lon="6.95154">
        <ele>297</ele>
        <time>2010-12-05T08:57:10Z</time>
      </trkpt>
      <trkpt lat="49.17643" lon="6.95154">
        <ele>297</ele>
        <time>2010-12-05T08:57:11Z</time>
      </trkpt>
      <trkpt lat="49.17641" lon="6.95154">
        <ele>297</ele>
        <time>2010-12-05T08:57:12Z</time>
      </trkpt>
      <trkpt lat="49.1764" lon="6.95155">
        <ele>297</ele>
        <time>2010-12-05T08:57:13Z</time>
      </trkpt>
      <trkpt lat="49.17639" lon="6.95155">
        <ele>297</ele>
        <time>2010-12-05T08:57:14Z</time>
      </trkpt>
      <trkpt lat="49.17638" lon="6.95156">
        <ele>297</ele>
        <time>2010-12-05T08:57:15Z</time>
      </trkpt>
      <trkpt lat="49.17636" lon="6.95156">
        <ele>297</ele>
        <time>2010-12-05T08:57:16Z</time>
      </trkpt>
      <trkpt lat="49.17635" lon="6.95157">
        <ele>296</ele>
        <time>2010-12-05T08:57:18Z</time>
      </trkpt>
      <trkpt lat="49.17633" lon="6.95158">
        <ele>296</ele>
        <time>2010-12-05T08:57:20Z</time>
      </trkpt>
      <trkpt lat="49.17631" lon="6.95159">
        <ele>296</ele>
        <time>2010-12-05T08:57:22Z</time>
      </trkpt>
      <trkpt lat="49.17629" lon="6.9516">
        <ele>296</ele>
        <time>2010-12-05T08:57:24Z</time>
      </trkpt>
      <trkpt lat="49.17627" lon="6.95161">
        <ele>295</ele>
        <time>2010-12-05T08:57:26Z</time>
      </trkpt>
      <trkpt lat="49.17626" lon="6.95162">
        <ele>295</ele>
        <time>2010-12-05T08:57:28Z</time>
      </trkpt>
      <trkpt lat="49.17625" lon="6.95164">
        <ele>295</ele>
        <time>2010-12-05T08:57:30Z</time>
      </trkpt>
      <trkpt lat="49.17623" lon="6.95166">
        <ele>294</ele>
        <time>2010-12-05T08:57:32Z</time>
      </trkpt>
      <trkpt lat="49.17621" lon="6.95167">
        <ele>294</ele>
        <time>2010-12-05T08:57:34Z</time>
      </trkpt>
      <trkpt lat="49.17619" lon="6.95169">
        <ele>294</ele>
        <time>2010-12-05T08:57:36Z</time>
      </trkpt>
      <trkpt lat="49.17618" lon="6.95171">
        <ele>294</ele>
        <time>2010-12-05T08:57:38Z</time>
      </trkpt>
      <trkpt lat="49.17616" lon="6.95173">
        <ele>294</ele>
        <time>2010-12-05T08:57:41Z</time>
      </trkpt>
      <trkpt lat="49.17616" lon="6.95174">
        <ele>293</ele>
        <time>2010-12-05T08:57:48Z</time>
      </trkpt>
      <trkpt lat="49.17615" lon="6.95176">
        <ele>293</ele>
        <time>2010-12-05T08:57:56Z</time>
      </trkpt>
      <trkpt lat="49.17615" lon="6.95178">
        <ele>293</ele>
        <time>2010-12-05T08:58:02Z</time>
      </trkpt>
      <trkpt lat="49.17616" lon="6.95179">
        <ele>293</ele>
        <time>2010-12-05T08:58:13Z</time>
      </trkpt>
      <trkpt lat="49.17614" lon="6.95181">
        <ele>293</ele>
        <time>2010-12-05T08:58:17Z</time>
      </trkpt>
      <trkpt lat="49.17613" lon="6.95181">
        <ele>293</ele>
        <time>2010-12-05T08:58:19Z</time>
      </trkpt>
      <trkpt lat="49.17612" lon="6.95181">
        <ele>293</ele>
        <time>2010-12-05T08:58:23Z</time>
      </trkpt>
      <trkpt lat="49.17612" lon="6.95179">
        <ele>293</ele>
        <time>2010-12-05T08:58:25Z</time>
      </trkpt>
      <trkpt lat="49.17614" lon="6.95179">
        <ele>293</ele>
        <time>2010-12-05T08:58:28Z</time>
      </trkpt>
      <trkpt lat="49.17612" lon="6.95181">
        <ele>293</ele>
        <time>2010-12-05T08:58:35Z</time>
      </trkpt>
      <trkpt lat="49.17613" lon="6.95182">
        <ele>292</ele>
        <time>2010-12-05T08:58:42Z</time>
      </trkpt>
      <trkpt lat="49.17614" lon="6.95184">
        <ele>291</ele>
        <time>2010-12-05T08:58:50Z</time>
      </trkpt>
      <trkpt lat="49.17612" lon="6.95186">
        <ele>291</ele>
        <time>2010-12-05T08:58:53Z</time>
      </trkpt>
      <trkpt lat="49.17611" lon="6.95187">
        <ele>290</ele>
        <time>2010-12-05T08:58:55Z</time>
      </trkpt>
      <trkpt lat="49.17609" lon="6.95188">
        <ele>290</ele>
        <time>2010-12-05T08:58:57Z</time>
      </trkpt>
      <trkpt lat="49.17608" lon="6.9519">
        <ele>290</ele>
        <time>2010-12-05T08:59:00Z</time>
      </trkpt>
      <trkpt lat="49.17607" lon="6.95192">
        <ele>290</ele>
        <time>2010-12-05T08:59:06Z</time>
      </trkpt>
      <trkpt lat="49.17606" lon="6.95193">
        <ele>290</ele>
        <time>2010-12-05T08:59:08Z</time>
      </trkpt>
      <trkpt lat="49.17606" lon="6.95196">
        <ele>290</ele>
        <time>2010-12-05T08:59:14Z</time>
      </trkpt>
      <trkpt lat="49.17606" lon="6.95198">
        <ele>290</ele>
        <time>2010-12-05T08:59:16Z</time>
      </trkpt>
      <trkpt lat="49.17606" lon="6.95199">
        <ele>290</ele>
        <time>2010-12-05T08:59:18Z</time>
      </trkpt>
      <trkpt lat="49.17607" lon="6.95202">
        <ele>290</ele>
        <time>2010-12-05T08:59:20Z</time>
      </trkpt>
      <trkpt lat="49.17607" lon="6.95204">
        <ele>290</ele>
        <time>2010-12-05T08:59:22Z</time>
      </trkpt>
      <trkpt lat="49.17607" lon="6.95207">
        <ele>290</ele>
        <time>2010-12-05T08:59:24Z</time>
      </trkpt>
      <trkpt lat="49.17608" lon="6.9521">
        <ele>290</ele>
        <time>2010-12-05T08:59:26Z</time>
      </trkpt>
      <trkpt lat="49.17609" lon="6.95213">
        <ele>290</ele>
        <time>2010-12-05T08:59:28Z</time>
      </trkpt>
      <trkpt lat="49.17609" lon="6.95215">
        <ele>290</ele>
        <time>2010-12-05T08:59:30Z</time>
      </trkpt>
      <trkpt lat="49.17609" lon="6.95218">
        <ele>290</ele>
        <time>2010-12-05T08:59:32Z</time>
      </trkpt>
      <trkpt lat="49.17609" lon="6.9522">
        <ele>290</ele>
        <time>2010-12-05T08:59:34Z</time>
      </trkpt>
      <trkpt lat="49.17608" lon="6.95222">
        <ele>290</ele>
        <time>2010-12-05T08:59:37Z</time>
      </trkpt>
      <trkpt lat="49.17607" lon="6.95224">
        <ele>290</ele>
        <time>2010-12-05T08:59:40Z</time>
      </trkpt>
      <trkpt lat="49.17607" lon="6.95225">
        <ele>289</ele>
        <time>2010-12-05T08:59:43Z</time>
      </trkpt>
      <trkpt lat="49.17606" lon="6.95228">
        <ele>289</ele>
        <time>2010-12-05T08:59:45Z</time>
      </trkpt>
      <trkpt lat="49.17605" lon="6.95231">
        <ele>289</ele>
        <time>2010-12-05T08:59:47Z</time>
      </trkpt>
      <trkpt lat="49.17603" lon="6.95233">
        <ele>289</ele>
        <time>2010-12-05T08:59:49Z</time>
      </trkpt>
      <trkpt lat="49.17602" lon="6.95235">
        <ele>289</ele>
        <time>2010-12-05T08:59:51Z</time>
      </trkpt>
      <trkpt lat="49.17601" lon="6.95238">
        <ele>289</ele>
        <time>2010-12-05T08:59:53Z</time>
      </trkpt>
      <trkpt lat="49.17601" lon="6.9524">
        <ele>289</ele>
        <time>2010-12-05T08:59:56Z</time>
      </trkpt>
      <trkpt lat="49.17601" lon="6.95242">
        <ele>289</ele>
        <time>2010-12-05T08:59:58Z</time>
      </trkpt>
      <trkpt lat="49.17599" lon="6.95241">
        <ele>289</ele>
        <time>2010-12-05T09:00:02Z</time>
      </trkpt>
      <trkpt lat="49.17598" lon="6.95244">
        <ele>289</ele>
        <time>2010-12-05T09:00:11Z</time>
      </trkpt>
      <trkpt lat="49.17598" lon="6.95246">
        <ele>289</ele>
        <time>2010-12-05T09:00:12Z</time>
      </trkpt>
      <trkpt lat="49.17598" lon="6.95247">
        <ele>289</ele>
        <time>2010-12-05T09:00:13Z</time>
      </trkpt>
      <trkpt lat="49.17598" lon="6.95249">
        <ele>289</ele>
        <time>2010-12-05T09:00:14Z</time>
      </trkpt>
      <trkpt lat="49.17598" lon="6.95252">
        <ele>289</ele>
        <time>2010-12-05T09:00:16Z</time>
      </trkpt>
      <trkpt lat="49.17597" lon="6.95255">
        <ele>289</ele>
        <time>2010-12-05T09:00:18Z</time>
      </trkpt>
      <trkpt lat="49.17597" lon="6.95257">
        <ele>289</ele>
        <time>2010-12-05T09:00:19Z</time>
      </trkpt>
      <trkpt lat="49.17597" lon="6.9526">
        <ele>289</ele>
        <time>2010-12-05T09:00:21Z</time>
      </trkpt>
      <trkpt lat="49.17596" lon="6.95261">
        <ele>289</ele>
        <time>2010-12-05T09:00:22Z</time>
      </trkpt>
      <trkpt lat="49.17596" lon="6.95263">
        <ele>289</ele>
        <time>2010-12-05T09:00:23Z</time>
      </trkpt>
      <trkpt lat="49.17597" lon="6.95265">
        <ele>289</ele>
        <time>2010-12-05T09:00:24Z</time>
      </trkpt>
      <trkpt lat="49.17596" lon="6.95267">
        <ele>289</ele>
        <time>2010-12-05T09:00:25Z</time>
      </trkpt>
      <trkpt lat="49.17596" lon="6.95269">
        <ele>289</ele>
        <time>2010-12-05T09:00:26Z</time>
      </trkpt>
      <trkpt lat="49.17596" lon="6.95271">
        <ele>289</ele>
        <time>2010-12-05T09:00:27Z</time>
      </trkpt>
      <trkpt lat="49.17596" lon="6.95273">
        <ele>289</ele>
        <time>2010-12-05T09:00:28Z</time>
      </trkpt>
      <trkpt lat="49.17595" lon="6.95276">
        <ele>289</ele>
        <time>2010-12-05T09:00:30Z</time>
      </trkpt>
      <trkpt lat="49.17595" lon="6.95279">
        <ele>289</ele>
        <time>2010-12-05T09:00:32Z</time>
      </trkpt>
      <trkpt lat="49.17595" lon="6.95281">
        <ele>289</ele>
        <time>2010-12-05T09:00:34Z</time>
      </trkpt>
      <trkpt lat="49.17596" lon="6.95283">
        <ele>289</ele>
        <time>2010-12-05T09:00:36Z</time>
      </trkpt>
      <trkpt lat="49.17596" lon="6.95287">
        <ele>289</ele>
        <time>2010-12-05T09:00:38Z</time>
      </trkpt>
      <trkpt lat="49.17596" lon="6.95289">
        <ele>289</ele>
        <time>2010-12-05T09:00:39Z</time>
      </trkpt>
      <trkpt lat="49.17596" lon="6.95291">
        <ele>289</ele>
        <time>2010-12-05T09:00:40Z</time>
      </trkpt>
      <trkpt lat="49.17595" lon="6.95292">
        <ele>288</ele>
        <time>2010-12-05T09:00:41Z</time>
      </trkpt>
      <trkpt lat="49.17595" lon="6.95294">
        <ele>288</ele>
        <time>2010-12-05T09:00:42Z</time>
      </trkpt>
      <trkpt lat="49.17595" lon="6.95296">
        <ele>287</ele>
        <time>2010-12-05T09:00:44Z</time>
      </trkpt>
      <trkpt lat="49.17596" lon="6.95298">
        <ele>287</ele>
        <time>2010-12-05T09:00:46Z</time>
      </trkpt>
      <trkpt lat="49.17596" lon="6.953">
        <ele>286</ele>
        <time>2010-12-05T09:00:48Z</time>
      </trkpt>
      <trkpt lat="49.17595" lon="6.95301">
        <ele>286</ele>
        <time>2010-12-05T09:00:52Z</time>
      </trkpt>
      <trkpt lat="49.17595" lon="6.95303">
        <ele>286</ele>
        <time>2010-12-05T09:00:57Z</time>
      </trkpt>
      <trkpt lat="49.17596" lon="6.95306">
        <ele>286</ele>
        <time>2010-12-05T09:00:59Z</time>
      </trkpt>
      <trkpt lat="49.17596" lon="6.95308">
        <ele>286</ele>
        <time>2010-12-05T09:01:00Z</time>
      </trkpt>
      <trkpt lat="49.17596" lon="6.9531">
        <ele>286</ele>
        <time>2010-12-05T09:01:01Z</time>
      </trkpt>
      <trkpt lat="49.17596" lon="6.95313">
        <ele>286</ele>
        <time>2010-12-05T09:01:03Z</time>
      </trkpt>
      <trkpt lat="49.17596" lon="6.95316">
        <ele>285</ele>
        <time>2010-12-05T09:01:05Z</time>
      </trkpt>
      <trkpt lat="49.17597" lon="6.95319">
        <ele>285</ele>
        <time>2010-12-05T09:01:07Z</time>
      </trkpt>
      <trkpt lat="49.17598" lon="6.95321">
        <ele>285</ele>
        <time>2010-12-05T09:01:08Z</time>
      </trkpt>
      <trkpt lat="49.17598" lon="6.95324">
        <ele>285</ele>
        <time>2010-12-05T09:01:10Z</time>
      </trkpt>
      <trkpt lat="49.17599" lon="6.95326">
        <ele>285</ele>
        <time>2010-12-05T09:01:11Z</time>
      </trkpt>
      <trkpt lat="49.17599" lon="6.95328">
        <ele>285</ele>
        <time>2010-12-05T09:01:12Z</time>
      </trkpt>
      <trkpt lat="49.176" lon="6.9533">
        <ele>285</ele>
        <time>2010-12-05T09:01:13Z</time>
      </trkpt>
      <trkpt lat="49.176" lon="6.95332">
        <ele>285</ele>
        <time>2010-12-05T09:01:14Z</time>
      </trkpt>
      <trkpt lat="49.17601" lon="6.95334">
        <ele>285</ele>
        <time>2010-12-05T09:01:16Z</time>
      </trkpt>
      <trkpt lat="49.17601" lon="6.95335">
        <ele>285</ele>
        <time>2010-12-05T09:01:16Z</time>
      </trkpt>
      <trkpt lat="49.17601" lon="6.95338">
        <ele>285</ele>
        <time>2010-12-05T09:01:17Z</time>
      </trkpt>
      <trkpt lat="49.17601" lon="6.9534">
        <ele>285</ele>
        <time>2010-12-05T09:01:18Z</time>
      </trkpt>
      <trkpt lat="49.17601" lon="6.95342">
        <ele>285</ele>
        <time>2010-12-05T09:01:19Z</time>
      </trkpt>
      <trkpt lat="49.176" lon="6.95344">
        <ele>285</ele>
        <time>2010-12-05T09:01:20Z</time>
      </trkpt>
      <trkpt lat="49.176" lon="6.95346">
        <ele>285</ele>
        <time>2010-12-05T09:01:21Z</time>
      </trkpt>
      <trkpt lat="49.17599" lon="6.95348">
        <ele>285</ele>
        <time>2010-12-05T09:01:22Z</time>
      </trkpt>
      <trkpt lat="49.17599" lon="6.9535">
        <ele>285</ele>
        <time>2010-12-05T09:01:23Z</time>
      </trkpt>
      <trkpt lat="49.17599" lon="6.95352">
        <ele>285</ele>
        <time>2010-12-05T09:01:24Z</time>
      </trkpt>
      <trkpt lat="49.176" lon="6.95354">
        <ele>285</ele>
        <time>2010-12-05T09:01:25Z</time>
      </trkpt>
      <trkpt lat="49.17599" lon="6.95357">
        <ele>285</ele>
        <time>2010-12-05T09:01:27Z</time>
      </trkpt>
      <trkpt lat="49.17598" lon="6.9536">
        <ele>285</ele>
        <time>2010-12-05T09:01:29Z</time>
      </trkpt>
      <trkpt lat="49.17598" lon="6.95361">
        <ele>285</ele>
        <time>2010-12-05T09:01:30Z</time>
      </trkpt>
      <trkpt lat="49.17597" lon="6.95364">
        <ele>285</ele>
        <time>2010-12-05T09:01:32Z</time>
      </trkpt>
      <trkpt lat="49.17595" lon="6.95364">
        <ele>285</ele>
        <time>2010-12-05T09:01:34Z</time>
      </trkpt>
      <trkpt lat="49.17593" lon="6.95364">
        <ele>285</ele>
        <time>2010-12-05T09:01:36Z</time>
      </trkpt>
      <trkpt lat="49.17592" lon="6.95363">
        <ele>285</ele>
        <time>2010-12-05T09:01:37Z</time>
      </trkpt>
      <trkpt lat="49.17591" lon="6.95362">
        <ele>285</ele>
        <time>2010-12-05T09:01:38Z</time>
      </trkpt>
      <trkpt lat="49.1759" lon="6.95362">
        <ele>285</ele>
        <time>2010-12-05T09:01:39Z</time>
      </trkpt>
      <trkpt lat="49.17588" lon="6.95361">
        <ele>285</ele>
        <time>2010-12-05T09:01:40Z</time>
      </trkpt>
      <trkpt lat="49.17587" lon="6.95361">
        <ele>285</ele>
        <time>2010-12-05T09:01:41Z</time>
      </trkpt>
      <trkpt lat="49.17586" lon="6.9536">
        <ele>285</ele>
        <time>2010-12-05T09:01:42Z</time>
      </trkpt>
      <trkpt lat="49.17585" lon="6.9536">
        <ele>285</ele>
        <time>2010-12-05T09:01:43Z</time>
      </trkpt>
      <trkpt lat="49.17584" lon="6.95359">
        <ele>285</ele>
        <time>2010-12-05T09:01:44Z</time>
      </trkpt>
      <trkpt lat="49.17582" lon="6.95358">
        <ele>285</ele>
        <time>2010-12-05T09:01:45Z</time>
      </trkpt>
      <trkpt lat="49.17581" lon="6.95357">
        <ele>285</ele>
        <time>2010-12-05T09:01:46Z</time>
      </trkpt>
      <trkpt lat="49.1758" lon="6.95356">
        <ele>285</ele>
        <time>2010-12-05T09:01:48Z</time>
      </trkpt>
      <trkpt lat="49.17577" lon="6.95355">
        <ele>285</ele>
        <time>2010-12-05T09:01:50Z</time>
      </trkpt>
      <trkpt lat="49.17576" lon="6.95354">
        <ele>285</ele>
        <time>2010-12-05T09:01:51Z</time>
      </trkpt>
      <trkpt lat="49.17575" lon="6.95353">
        <ele>285</ele>
        <time>2010-12-05T09:01:52Z</time>
      </trkpt>
      <trkpt lat="49.17574" lon="6.95353">
        <ele>285</ele>
        <time>2010-12-05T09:01:53Z</time>
      </trkpt>
      <trkpt lat="49.17573" lon="6.95352">
        <ele>285</ele>
        <time>2010-12-05T09:01:54Z</time>
      </trkpt>
      <trkpt lat="49.17572" lon="6.95351">
        <ele>285</ele>
        <time>2010-12-05T09:01:55Z</time>
      </trkpt>
      <trkpt lat="49.1757" lon="6.9535">
        <ele>285</ele>
        <time>2010-12-05T09:01:56Z</time>
      </trkpt>
      <trkpt lat="49.17569" lon="6.95349">
        <ele>285</ele>
        <time>2010-12-05T09:01:58Z</time>
      </trkpt>
      <trkpt lat="49.17567" lon="6.95349">
        <ele>285</ele>
        <time>2010-12-05T09:01:59Z</time>
      </trkpt>
      <trkpt lat="49.17566" lon="6.9535">
        <ele>285</ele>
        <time>2010-12-05T09:02:00Z</time>
      </trkpt>
      <trkpt lat="49.17565" lon="6.95351">
        <ele>285</ele>
        <time>2010-12-05T09:02:01Z</time>
      </trkpt>
      <trkpt lat="49.17563" lon="6.95351">
        <ele>285</ele>
        <time>2010-12-05T09:02:02Z</time>
      </trkpt>
      <trkpt lat="49.17562" lon="6.95352">
        <ele>285</ele>
        <time>2010-12-05T09:02:03Z</time>
      </trkpt>
      <trkpt lat="49.1756" lon="6.95352">
        <ele>285</ele>
        <time>2010-12-05T09:02:04Z</time>
      </trkpt>
      <trkpt lat="49.17559" lon="6.95351">
        <ele>285</ele>
        <time>2010-12-05T09:02:05Z</time>
      </trkpt>
      <trkpt lat="49.17558" lon="6.9535">
        <ele>285</ele>
        <time>2010-12-05T09:02:06Z</time>
      </trkpt>
      <trkpt lat="49.17557" lon="6.9535">
        <ele>285</ele>
        <time>2010-12-05T09:02:07Z</time>
      </trkpt>
      <trkpt lat="49.17556" lon="6.95349">
        <ele>285</ele>
        <time>2010-12-05T09:02:08Z</time>
      </trkpt>
      <trkpt lat="49.17553" lon="6.95348">
        <ele>285</ele>
        <time>2010-12-05T09:02:10Z</time>
      </trkpt>
      <trkpt lat="49.17552" lon="6.95347">
        <ele>285</ele>
        <time>2010-12-05T09:02:11Z</time>
      </trkpt>
      <trkpt lat="49.17551" lon="6.95346">
        <ele>285</ele>
        <time>2010-12-05T09:02:12Z</time>
      </trkpt>
      <trkpt lat="49.1755" lon="6.95345">
        <ele>285</ele>
        <time>2010-12-05T09:02:13Z</time>
      </trkpt>
      <trkpt lat="49.17549" lon="6.95344">
        <ele>285</ele>
        <time>2010-12-05T09:02:14Z</time>
      </trkpt>
      <trkpt lat="49.17547" lon="6.95344">
        <ele>285</ele>
        <time>2010-12-05T09:02:15Z</time>
      </trkpt>
      <trkpt lat="49.17546" lon="6.95343">
        <ele>285</ele>
        <time>2010-12-05T09:02:16Z</time>
      </trkpt>
      <trkpt lat="49.17545" lon="6.95342">
        <ele>285</ele>
        <time>2010-12-05T09:02:17Z</time>
      </trkpt>
      <trkpt lat="49.17543" lon="6.95341">
        <ele>285</ele>
        <time>2010-12-05T09:02:19Z</time>
      </trkpt>
      <trkpt lat="49.17541" lon="6.9534">
        <ele>285</ele>
        <time>2010-12-05T09:02:20Z</time>
      </trkpt>
      <trkpt lat="49.1754" lon="6.95339">
        <ele>285</ele>
        <time>2010-12-05T09:02:21Z</time>
      </trkpt>
      <trkpt lat="49.17539" lon="6.95338">
        <ele>285</ele>
        <time>2010-12-05T09:02:22Z</time>
      </trkpt>
      <trkpt lat="49.17538" lon="6.95337">
        <ele>285</ele>
        <time>2010-12-05T09:02:23Z</time>
      </trkpt>
      <trkpt lat="49.17536" lon="6.95336">
        <ele>285</ele>
        <time>2010-12-05T09:02:24Z</time>
      </trkpt>
      <trkpt lat="49.17535" lon="6.95335">
        <ele>285</ele>
        <time>2010-12-05T09:02:25Z</time>
      </trkpt>
      <trkpt lat="49.17533" lon="6.95333">
        <ele>285</ele>
        <time>2010-12-05T09:02:27Z</time>
      </trkpt>
      <trkpt lat="49.17532" lon="6.95331">
        <ele>285</ele>
        <time>2010-12-05T09:02:29Z</time>
      </trkpt>
      <trkpt lat="49.1753" lon="6.9533">
        <ele>285</ele>
        <time>2010-12-05T09:02:31Z</time>
      </trkpt>
      <trkpt lat="49.17528" lon="6.9533">
        <ele>285</ele>
        <time>2010-12-05T09:02:32Z</time>
      </trkpt>
      <trkpt lat="49.17527" lon="6.95329">
        <ele>285</ele>
        <time>2010-12-05T09:02:33Z</time>
      </trkpt>
      <trkpt lat="49.17525" lon="6.95328">
        <ele>285</ele>
        <time>2010-12-05T09:02:35Z</time>
      </trkpt>
      <trkpt lat="49.17524" lon="6.95326">
        <ele>285</ele>
        <time>2010-12-05T09:02:37Z</time>
      </trkpt>
      <trkpt lat="49.17522" lon="6.95324">
        <ele>285</ele>
        <time>2010-12-05T09:02:39Z</time>
      </trkpt>
      <trkpt lat="49.1752" lon="6.95321">
        <ele>285</ele>
        <time>2010-12-05T09:02:41Z</time>
      </trkpt>
      <trkpt lat="49.17518" lon="6.95319">
        <ele>285</ele>
        <time>2010-12-05T09:02:43Z</time>
      </trkpt>
      <trkpt lat="49.17518" lon="6.95317">
        <ele>285</ele>
        <time>2010-12-05T09:02:44Z</time>
      </trkpt>
      <trkpt lat="49.17516" lon="6.95315">
        <ele>285</ele>
        <time>2010-12-05T09:02:46Z</time>
      </trkpt>
      <trkpt lat="49.17514" lon="6.95315">
        <ele>285</ele>
        <time>2010-12-05T09:02:48Z</time>
      </trkpt>
      <trkpt lat="49.17512" lon="6.95316">
        <ele>285</ele>
        <time>2010-12-05T09:02:50Z</time>
      </trkpt>
      <trkpt lat="49.17511" lon="6.95318">
        <ele>285</ele>
        <time>2010-12-05T09:02:52Z</time>
      </trkpt>
      <trkpt lat="49.1751" lon="6.9532">
        <ele>285</ele>
        <time>2010-12-05T09:02:54Z</time>
      </trkpt>
      <trkpt lat="49.17508" lon="6.95322">
        <ele>285</ele>
        <time>2010-12-05T09:02:57Z</time>
      </trkpt>
      <trkpt lat="49.17508" lon="6.95325">
        <ele>285</ele>
        <time>2010-12-05T09:02:59Z</time>
      </trkpt>
      <trkpt lat="49.17508" lon="6.95326">
        <ele>285</ele>
        <time>2010-12-05T09:03:00Z</time>
      </trkpt>
      <trkpt lat="49.17508" lon="6.95328">
        <ele>285</ele>
        <time>2010-12-05T09:03:01Z</time>
      </trkpt>
      <trkpt lat="49.17507" lon="6.9533">
        <ele>285</ele>
        <time>2010-12-05T09:03:02Z</time>
      </trkpt>
      <trkpt lat="49.17507" lon="6.95332">
        <ele>285</ele>
        <time>2010-12-05T09:03:03Z</time>
      </trkpt>
      <trkpt lat="49.17507" lon="6.95334">
        <ele>285</ele>
        <time>2010-12-05T09:03:04Z</time>
      </trkpt>
      <trkpt lat="49.17507" lon="6.95335">
        <ele>285</ele>
        <time>2010-12-05T09:03:05Z</time>
      </trkpt>
      <trkpt lat="49.17507" lon="6.95337">
        <ele>285</ele>
        <time>2010-12-05T09:03:06Z</time>
      </trkpt>
      <trkpt lat="49.17506" lon="6.95339">
        <ele>285</ele>
        <time>2010-12-05T09:03:07Z</time>
      </trkpt>
      <trkpt lat="49.17506" lon="6.95341">
        <ele>285</ele>
        <time>2010-12-05T09:03:08Z</time>
      </trkpt>
      <trkpt lat="49.17505" lon="6.95344">
        <ele>285</ele>
        <time>2010-12-05T09:03:10Z</time>
      </trkpt>
      <trkpt lat="49.17505" lon="6.95346">
        <ele>285</ele>
        <time>2010-12-05T09:03:11Z</time>
      </trkpt>
      <trkpt lat="49.17505" lon="6.95348">
        <ele>285</ele>
        <time>2010-12-05T09:03:12Z</time>
      </trkpt>
      <trkpt lat="49.17504" lon="6.9535">
        <ele>285</ele>
        <time>2010-12-05T09:03:13Z</time>
      </trkpt>
      <trkpt lat="49.17504" lon="6.95352">
        <ele>285</ele>
        <time>2010-12-05T09:03:14Z</time>
      </trkpt>
      <trkpt lat="49.17503" lon="6.95354">
        <ele>285</ele>
        <time>2010-12-05T09:03:15Z</time>
      </trkpt>
      <trkpt lat="49.17503" lon="6.95355">
        <ele>285</ele>
        <time>2010-12-05T09:03:16Z</time>
      </trkpt>
      <trkpt lat="49.17503" lon="6.95359">
        <ele>285</ele>
        <time>2010-12-05T09:03:18Z</time>
      </trkpt>
      <trkpt lat="49.17503" lon="6.9536">
        <ele>285</ele>
        <time>2010-12-05T09:03:19Z</time>
      </trkpt>
      <trkpt lat="49.17503" lon="6.95362">
        <ele>285</ele>
        <time>2010-12-05T09:03:20Z</time>
      </trkpt>
      <trkpt lat="49.17503" lon="6.95364">
        <ele>285</ele>
        <time>2010-12-05T09:03:21Z</time>
      </trkpt>
      <trkpt lat="49.17502" lon="6.95366">
        <ele>285</ele>
        <time>2010-12-05T09:03:22Z</time>
      </trkpt>
      <trkpt lat="49.17502" lon="6.95367">
        <ele>285</ele>
        <time>2010-12-05T09:03:23Z</time>
      </trkpt>
      <trkpt lat="49.17502" lon="6.95369">
        <ele>285</ele>
        <time>2010-12-05T09:03:24Z</time>
      </trkpt>
      <trkpt lat="49.17502" lon="6.95371">
        <ele>285</ele>
        <time>2010-12-05T09:03:25Z</time>
      </trkpt>
      <trkpt lat="49.17502" lon="6.95373">
        <ele>285</ele>
        <time>2010-12-05T09:03:26Z</time>
      </trkpt>
      <trkpt lat="49.17503" lon="6.95375">
        <ele>285</ele>
        <time>2010-12-05T09:03:27Z</time>
      </trkpt>
      <trkpt lat="49.17503" lon="6.95378">
        <ele>285</ele>
        <time>2010-12-05T09:03:29Z</time>
      </trkpt>
      <trkpt lat="49.17503" lon="6.9538">
        <ele>285</ele>
        <time>2010-12-05T09:03:31Z</time>
      </trkpt>
      <trkpt lat="49.17504" lon="6.95383">
        <ele>285</ele>
        <time>2010-12-05T09:03:33Z</time>
      </trkpt>
      <trkpt lat="49.17505" lon="6.95385">
        <ele>285</ele>
        <time>2010-12-05T09:03:34Z</time>
      </trkpt>
      <trkpt lat="49.17505" lon="6.95387">
        <ele>285</ele>
        <time>2010-12-05T09:03:35Z</time>
      </trkpt>
      <trkpt lat="49.17505" lon="6.95389">
        <ele>285</ele>
        <time>2010-12-05T09:03:36Z</time>
      </trkpt>
      <trkpt lat="49.17505" lon="6.95391">
        <ele>285</ele>
        <time>2010-12-05T09:03:37Z</time>
      </trkpt>
      <trkpt lat="49.17505" lon="6.95393">
        <ele>285</ele>
        <time>2010-12-05T09:03:38Z</time>
      </trkpt>
      <trkpt lat="49.17505" lon="6.95396">
        <ele>285</ele>
        <time>2010-12-05T09:03:39Z</time>
      </trkpt>
      <trkpt lat="49.17505" lon="6.95399">
        <ele>285</ele>
        <time>2010-12-05T09:03:40Z</time>
      </trkpt>
      <trkpt lat="49.17505" lon="6.95401">
        <ele>285</ele>
        <time>2010-12-05T09:03:41Z</time>
      </trkpt>
      <trkpt lat="49.17505" lon="6.95403">
        <ele>285</ele>
        <time>2010-12-05T09:03:42Z</time>
      </trkpt>
      <trkpt lat="49.17505" lon="6.95405">
        <ele>285</ele>
        <time>2010-12-05T09:03:43Z</time>
      </trkpt>
      <trkpt lat="49.17505" lon="6.95408">
        <ele>285</ele>
        <time>2010-12-05T09:03:44Z</time>
      </trkpt>
      <trkpt lat="49.17505" lon="6.95409">
        <ele>285</ele>
        <time>2010-12-05T09:03:45Z</time>
      </trkpt>
      <trkpt lat="49.17504" lon="6.95412">
        <ele>285</ele>
        <time>2010-12-05T09:03:47Z</time>
      </trkpt>
      <trkpt lat="49.17504" lon="6.95414">
        <ele>285</ele>
        <time>2010-12-05T09:03:48Z</time>
      </trkpt>
      <trkpt lat="49.17503" lon="6.95416">
        <ele>285</ele>
        <time>2010-12-05T09:03:49Z</time>
      </trkpt>
      <trkpt lat="49.17503" lon="6.95418">
        <ele>285</ele>
        <time>2010-12-05T09:03:50Z</time>
      </trkpt>
      <trkpt lat="49.17503" lon="6.95419">
        <ele>285</ele>
        <time>2010-12-05T09:03:51Z</time>
      </trkpt>
      <trkpt lat="49.17503" lon="6.95422">
        <ele>285</ele>
        <time>2010-12-05T09:03:52Z</time>
      </trkpt>
      <trkpt lat="49.17503" lon="6.95424">
        <ele>285</ele>
        <time>2010-12-05T09:03:53Z</time>
      </trkpt>
      <trkpt lat="49.17503" lon="6.95425">
        <ele>285</ele>
        <time>2010-12-05T09:03:54Z</time>
      </trkpt>
      <trkpt lat="49.17503" lon="6.95427">
        <ele>285</ele>
        <time>2010-12-05T09:03:55Z</time>
      </trkpt>
      <trkpt lat="49.17502" lon="6.95429">
        <ele>285</ele>
        <time>2010-12-05T09:03:56Z</time>
      </trkpt>
      <trkpt lat="49.17503" lon="6.95432">
        <ele>285</ele>
        <time>2010-12-05T09:03:57Z</time>
      </trkpt>
      <trkpt lat="49.17503" lon="6.95434">
        <ele>285</ele>
        <time>2010-12-05T09:03:58Z</time>
      </trkpt>
      <trkpt lat="49.17502" lon="6.95437">
        <ele>285</ele>
        <time>2010-12-05T09:04:00Z</time>
      </trkpt>
      <trkpt lat="49.17502" lon="6.95439">
        <ele>285</ele>
        <time>2010-12-05T09:04:02Z</time>
      </trkpt>
      <trkpt lat="49.17501" lon="6.95441">
        <ele>285</ele>
        <time>2010-12-05T09:04:03Z</time>
      </trkpt>
      <trkpt lat="49.17501" lon="6.95443">
        <ele>285</ele>
        <time>2010-12-05T09:04:04Z</time>
      </trkpt>
      <trkpt lat="49.17501" lon="6.95444">
        <ele>285</ele>
        <time>2010-12-05T09:04:05Z</time>
      </trkpt>
      <trkpt lat="49.17501" lon="6.95448">
        <ele>285</ele>
        <time>2010-12-05T09:04:07Z</time>
      </trkpt>
      <trkpt lat="49.17501" lon="6.9545">
        <ele>285</ele>
        <time>2010-12-05T09:04:08Z</time>
      </trkpt>
      <trkpt lat="49.175" lon="6.95452">
        <ele>285</ele>
        <time>2010-12-05T09:04:09Z</time>
      </trkpt>
      <trkpt lat="49.175" lon="6.95454">
        <ele>285</ele>
        <time>2010-12-05T09:04:10Z</time>
      </trkpt>
      <trkpt lat="49.175" lon="6.95457">
        <ele>285</ele>
        <time>2010-12-05T09:04:12Z</time>
      </trkpt>
      <trkpt lat="49.175" lon="6.95459">
        <ele>285</ele>
        <time>2010-12-05T09:04:13Z</time>
      </trkpt>
      <trkpt lat="49.175" lon="6.95461">
        <ele>285</ele>
        <time>2010-12-05T09:04:14Z</time>
      </trkpt>
      <trkpt lat="49.175" lon="6.95463">
        <ele>285</ele>
        <time>2010-12-05T09:04:15Z</time>
      </trkpt>
      <trkpt lat="49.175" lon="6.95465">
        <ele>285</ele>
        <time>2010-12-05T09:04:16Z</time>
      </trkpt>
      <trkpt lat="49.175" lon="6.95467">
        <ele>285</ele>
        <time>2010-12-05T09:04:17Z</time>
      </trkpt>
      <trkpt lat="49.175" lon="6.95469">
        <ele>285</ele>
        <time>2010-12-05T09:04:18Z</time>
      </trkpt>
      <trkpt lat="49.17499" lon="6.95471">
        <ele>285</ele>
        <time>2010-12-05T09:04:19Z</time>
      </trkpt>
      <trkpt lat="49.17499" lon="6.95474">
        <ele>285</ele>
        <time>2010-12-05T09:04:21Z</time>
      </trkpt>
      <trkpt lat="49.17499" lon="6.95476">
        <ele>285</ele>
        <time>2010-12-05T09:04:22Z</time>
      </trkpt>
      <trkpt lat="49.17499" lon="6.95478">
        <ele>285</ele>
        <time>2010-12-05T09:04:23Z</time>
      </trkpt>
      <trkpt lat="49.17499" lon="6.95479">
        <ele>285</ele>
        <time>2010-12-05T09:04:24Z</time>
      </trkpt>
      <trkpt lat="49.17499" lon="6.95481">
        <ele>285</ele>
        <time>2010-12-05T09:04:25Z</time>
      </trkpt>
      <trkpt lat="49.17499" lon="6.95483">
        <ele>285</ele>
        <time>2010-12-05T09:04:26Z</time>
      </trkpt>
      <trkpt lat="49.17499" lon="6.95485">
        <ele>285</ele>
        <time>2010-12-05T09:04:27Z</time>
      </trkpt>
      <trkpt lat="49.17498" lon="6.95487">
        <ele>285</ele>
        <time>2010-12-05T09:04:28Z</time>
      </trkpt>
      <trkpt lat="49.17498" lon="6.95489">
        <ele>285</ele>
        <time>2010-12-05T09:04:29Z</time>
      </trkpt>
      <trkpt lat="49.17498" lon="6.95491">
        <ele>285</ele>
        <time>2010-12-05T09:04:30Z</time>
      </trkpt>
      <trkpt lat="49.17498" lon="6.95492">
        <ele>285</ele>
        <time>2010-12-05T09:04:31Z</time>
      </trkpt>
      <trkpt lat="49.17498" lon="6.95494">
        <ele>285</ele>
        <time>2010-12-05T09:04:32Z</time>
      </trkpt>
      <trkpt lat="49.17498" lon="6.95496">
        <ele>285</ele>
        <time>2010-12-05T09:04:33Z</time>
      </trkpt>
      <trkpt lat="49.17498" lon="6.95498">
        <ele>285</ele>
        <time>2010-12-05T09:04:35Z</time>
      </trkpt>
      <trkpt lat="49.17498" lon="6.95501">
        <ele>285</ele>
        <time>2010-12-05T09:04:37Z</time>
      </trkpt>
      <trkpt lat="49.17497" lon="6.95503">
        <ele>285</ele>
        <time>2010-12-05T09:04:38Z</time>
      </trkpt>
      <trkpt lat="49.17497" lon="6.95506">
        <ele>285</ele>
        <time>2010-12-05T09:04:40Z</time>
      </trkpt>
      <trkpt lat="49.17497" lon="6.95507">
        <ele>285</ele>
        <time>2010-12-05T09:04:41Z</time>
      </trkpt>
      <trkpt lat="49.17496" lon="6.95509">
        <ele>285</ele>
        <time>2010-12-05T09:04:42Z</time>
      </trkpt>
      <trkpt lat="49.17496" lon="6.95511">
        <ele>285</ele>
        <time>2010-12-05T09:04:43Z</time>
      </trkpt>
      <trkpt lat="49.17496" lon="6.95514">
        <ele>285</ele>
        <time>2010-12-05T09:04:44Z</time>
      </trkpt>
      <trkpt lat="49.17496" lon="6.95516">
        <ele>285</ele>
        <time>2010-12-05T09:04:45Z</time>
      </trkpt>
      <trkpt lat="49.17496" lon="6.95517">
        <ele>285</ele>
        <time>2010-12-05T09:04:46Z</time>
      </trkpt>
      <trkpt lat="49.17496" lon="6.9552">
        <ele>285</ele>
        <time>2010-12-05T09:04:48Z</time>
      </trkpt>
      <trkpt lat="49.17496" lon="6.95522">
        <ele>285</ele>
        <time>2010-12-05T09:04:49Z</time>
      </trkpt>
      <trkpt lat="49.17496" lon="6.95524">
        <ele>285</ele>
        <time>2010-12-05T09:04:50Z</time>
      </trkpt>
      <trkpt lat="49.17495" lon="6.95526">
        <ele>285</ele>
        <time>2010-12-05T09:04:51Z</time>
      </trkpt>
      <trkpt lat="49.17495" lon="6.95528">
        <ele>285</ele>
        <time>2010-12-05T09:04:52Z</time>
      </trkpt>
      <trkpt lat="49.17494" lon="6.9553">
        <ele>285</ele>
        <time>2010-12-05T09:04:54Z</time>
      </trkpt>
      <trkpt lat="49.17494" lon="6.95532">
        <ele>285</ele>
        <time>2010-12-05T09:04:55Z</time>
      </trkpt>
      <trkpt lat="49.17493" lon="6.95534">
        <ele>285</ele>
        <time>2010-12-05T09:04:56Z</time>
      </trkpt>
      <trkpt lat="49.17493" lon="6.95535">
        <ele>285</ele>
        <time>2010-12-05T09:04:57Z</time>
      </trkpt>
      <trkpt lat="49.17492" lon="6.95537">
        <ele>285</ele>
        <time>2010-12-05T09:04:58Z</time>
      </trkpt>
      <trkpt lat="49.17492" lon="6.95539">
        <ele>285</ele>
        <time>2010-12-05T09:04:59Z</time>
      </trkpt>
      <trkpt lat="49.17492" lon="6.95541">
        <ele>285</ele>
        <time>2010-12-05T09:05:00Z</time>
      </trkpt>
      <trkpt lat="49.17491" lon="6.95543">
        <ele>285</ele>
        <time>2010-12-05T09:05:01Z</time>
      </trkpt>
      <trkpt lat="49.17491" lon="6.95545">
        <ele>285</ele>
        <time>2010-12-05T09:05:02Z</time>
      </trkpt>
      <trkpt lat="49.17491" lon="6.95546">
        <ele>285</ele>
        <time>2010-12-05T09:05:03Z</time>
      </trkpt>
      <trkpt lat="49.17491" lon="6.95548">
        <ele>285</ele>
        <time>2010-12-05T09:05:04Z</time>
      </trkpt>
      <trkpt lat="49.1749" lon="6.9555">
        <ele>285</ele>
        <time>2010-12-05T09:05:05Z</time>
      </trkpt>
      <trkpt lat="49.1749" lon="6.95552">
        <ele>285</ele>
        <time>2010-12-05T09:05:06Z</time>
      </trkpt>
      <trkpt lat="49.1749" lon="6.95554">
        <ele>285</ele>
        <time>2010-12-05T09:05:07Z</time>
      </trkpt>
      <trkpt lat="49.1749" lon="6.95556">
        <ele>285</ele>
        <time>2010-12-05T09:05:08Z</time>
      </trkpt>
      <trkpt lat="49.1749" lon="6.95557">
        <ele>285</ele>
        <time>2010-12-05T09:05:09Z</time>
      </trkpt>
      <trkpt lat="49.1749" lon="6.95559">
        <ele>285</ele>
        <time>2010-12-05T09:05:10Z</time>
      </trkpt>
      <trkpt lat="49.1749" lon="6.95562">
        <ele>285</ele>
        <time>2010-12-05T09:05:12Z</time>
      </trkpt>
      <trkpt lat="49.1749" lon="6.95564">
        <ele>285</ele>
        <time>2010-12-05T09:05:13Z</time>
      </trkpt>
      <trkpt lat="49.1749" lon="6.95566">
        <ele>285</ele>
        <time>2010-12-05T09:05:14Z</time>
      </trkpt>
      <trkpt lat="49.1749" lon="6.9557">
        <ele>285</ele>
        <time>2010-12-05T09:05:16Z</time>
      </trkpt>
      <trkpt lat="49.1749" lon="6.95571">
        <ele>285</ele>
        <time>2010-12-05T09:05:17Z</time>
      </trkpt>
      <trkpt lat="49.1749" lon="6.95573">
        <ele>285</ele>
        <time>2010-12-05T09:05:18Z</time>
      </trkpt>
      <trkpt lat="49.1749" lon="6.95575">
        <ele>285</ele>
        <time>2010-12-05T09:05:19Z</time>
      </trkpt>
      <trkpt lat="49.17489" lon="6.95577">
        <ele>285</ele>
        <time>2010-12-05T09:05:20Z</time>
      </trkpt>
      <trkpt lat="49.17489" lon="6.95579">
        <ele>285</ele>
        <time>2010-12-05T09:05:21Z</time>
      </trkpt>
      <trkpt lat="49.17489" lon="6.95581">
        <ele>285</ele>
        <time>2010-12-05T09:05:22Z</time>
      </trkpt>
      <trkpt lat="49.17489" lon="6.95583">
        <ele>285</ele>
        <time>2010-12-05T09:05:23Z</time>
      </trkpt>
      <trkpt lat="49.17489" lon="6.95585">
        <ele>285</ele>
        <time>2010-12-05T09:05:24Z</time>
      </trkpt>
      <trkpt lat="49.17489" lon="6.95586">
        <ele>285</ele>
        <time>2010-12-05T09:05:25Z</time>
      </trkpt>
      <trkpt lat="49.17489" lon="6.95588">
        <ele>285</ele>
        <time>2010-12-05T09:05:26Z</time>
      </trkpt>
      <trkpt lat="49.1749" lon="6.9559">
        <ele>285</ele>
        <time>2010-12-05T09:05:27Z</time>
      </trkpt>
      <trkpt lat="49.1749" lon="6.95592">
        <ele>285</ele>
        <time>2010-12-05T09:05:28Z</time>
      </trkpt>
      <trkpt lat="49.1749" lon="6.95594">
        <ele>285</ele>
        <time>2010-12-05T09:05:29Z</time>
      </trkpt>
      <trkpt lat="49.1749" lon="6.95596">
        <ele>285</ele>
        <time>2010-12-05T09:05:30Z</time>
      </trkpt>
      <trkpt lat="49.1749" lon="6.95598">
        <ele>285</ele>
        <time>2010-12-05T09:05:31Z</time>
      </trkpt>
      <trkpt lat="49.17491" lon="6.956">
        <ele>285</ele>
        <time>2010-12-05T09:05:32Z</time>
      </trkpt>
      <trkpt lat="49.17491" lon="6.95602">
        <ele>285</ele>
        <time>2010-12-05T09:05:33Z</time>
      </trkpt>
      <trkpt lat="49.17491" lon="6.95604">
        <ele>285</ele>
        <time>2010-12-05T09:05:34Z</time>
      </trkpt>
      <trkpt lat="49.17492" lon="6.95606">
        <ele>285</ele>
        <time>2010-12-05T09:05:35Z</time>
      </trkpt>
      <trkpt lat="49.17492" lon="6.95609">
        <ele>285</ele>
        <time>2010-12-05T09:05:37Z</time>
      </trkpt>
      <trkpt lat="49.17492" lon="6.95611">
        <ele>285</ele>
        <time>2010-12-05T09:05:38Z</time>
      </trkpt>
      <trkpt lat="49.17492" lon="6.95613">
        <ele>285</ele>
        <time>2010-12-05T09:05:39Z</time>
      </trkpt>
      <trkpt lat="49.17492" lon="6.95615">
        <ele>285</ele>
        <time>2010-12-05T09:05:40Z</time>
      </trkpt>
      <trkpt lat="49.17492" lon="6.95617">
        <ele>285</ele>
        <time>2010-12-05T09:05:41Z</time>
      </trkpt>
      <trkpt lat="49.17492" lon="6.95619">
        <ele>285</ele>
        <time>2010-12-05T09:05:42Z</time>
      </trkpt>
      <trkpt lat="49.17492" lon="6.9562">
        <ele>285</ele>
        <time>2010-12-05T09:05:43Z</time>
      </trkpt>
      <trkpt lat="49.17492" lon="6.95622">
        <ele>285</ele>
        <time>2010-12-05T09:05:44Z</time>
      </trkpt>
      <trkpt lat="49.17492" lon="6.95624">
        <ele>285</ele>
        <time>2010-12-05T09:05:45Z</time>
      </trkpt>
      <trkpt lat="49.17492" lon="6.95626">
        <ele>285</ele>
        <time>2010-12-05T09:05:46Z</time>
      </trkpt>
      <trkpt lat="49.17492" lon="6.95628">
        <ele>285</ele>
        <time>2010-12-05T09:05:47Z</time>
      </trkpt>
      <trkpt lat="49.17492" lon="6.9563">
        <ele>285</ele>
        <time>2010-12-05T09:05:48Z</time>
      </trkpt>
      <trkpt lat="49.17492" lon="6.95632">
        <ele>285</ele>
        <time>2010-12-05T09:05:49Z</time>
      </trkpt>
      <trkpt lat="49.17492" lon="6.95633">
        <ele>285</ele>
        <time>2010-12-05T09:05:50Z</time>
      </trkpt>
      <trkpt lat="49.17492" lon="6.95635">
        <ele>285</ele>
        <time>2010-12-05T09:05:51Z</time>
      </trkpt>
      <trkpt lat="49.17492" lon="6.95637">
        <ele>285</ele>
        <time>2010-12-05T09:05:52Z</time>
      </trkpt>
      <trkpt lat="49.17492" lon="6.95639">
        <ele>285</ele>
        <time>2010-12-05T09:05:53Z</time>
      </trkpt>
      <trkpt lat="49.17491" lon="6.95641">
        <ele>285</ele>
        <time>2010-12-05T09:05:54Z</time>
      </trkpt>
      <trkpt lat="49.17491" lon="6.95644">
        <ele>285</ele>
        <time>2010-12-05T09:05:56Z</time>
      </trkpt>
      <trkpt lat="49.17492" lon="6.95646">
        <ele>285</ele>
        <time>2010-12-05T09:05:57Z</time>
      </trkpt>
      <trkpt lat="49.17492" lon="6.95648">
        <ele>285</ele>
        <time>2010-12-05T09:05:58Z</time>
      </trkpt>
      <trkpt lat="49.17492" lon="6.9565">
        <ele>285</ele>
        <time>2010-12-05T09:05:59Z</time>
      </trkpt>
      <trkpt lat="49.17493" lon="6.95652">
        <ele>285</ele>
        <time>2010-12-05T09:06:00Z</time>
      </trkpt>
      <trkpt lat="49.17493" lon="6.95654">
        <ele>285</ele>
        <time>2010-12-05T09:06:01Z</time>
      </trkpt>
      <trkpt lat="49.17493" lon="6.95656">
        <ele>285</ele>
        <time>2010-12-05T09:06:02Z</time>
      </trkpt>
      <trkpt lat="49.17493" lon="6.95658">
        <ele>285</ele>
        <time>2010-12-05T09:06:03Z</time>
      </trkpt>
      <trkpt lat="49.17493" lon="6.9566">
        <ele>285</ele>
        <time>2010-12-05T09:06:04Z</time>
      </trkpt>
      <trkpt lat="49.17493" lon="6.95662">
        <ele>285</ele>
        <time>2010-12-05T09:06:05Z</time>
      </trkpt>
      <trkpt lat="49.17494" lon="6.95665">
        <ele>285</ele>
        <time>2010-12-05T09:06:06Z</time>
      </trkpt>
      <trkpt lat="49.17495" lon="6.95667">
        <ele>285</ele>
        <time>2010-12-05T09:06:07Z</time>
      </trkpt>
      <trkpt lat="49.17495" lon="6.9567">
        <ele>285</ele>
        <time>2010-12-05T09:06:09Z</time>
      </trkpt>
      <trkpt lat="49.17495" lon="6.95671">
        <ele>285</ele>
        <time>2010-12-05T09:06:10Z</time>
      </trkpt>
      <trkpt lat="49.17496" lon="6.95673">
        <ele>285</ele>
        <time>2010-12-05T09:06:11Z</time>
      </trkpt>
      <trkpt lat="49.17496" lon="6.95675">
        <ele>285</ele>
        <time>2010-12-05T09:06:12Z</time>
      </trkpt>
      <trkpt lat="49.17496" lon="6.95677">
        <ele>285</ele>
        <time>2010-12-05T09:06:13Z</time>
      </trkpt>
      <trkpt lat="49.17497" lon="6.95679">
        <ele>285</ele>
        <time>2010-12-05T09:06:14Z</time>
      </trkpt>
      <trkpt lat="49.17497" lon="6.95681">
        <ele>285</ele>
        <time>2010-12-05T09:06:15Z</time>
      </trkpt>
      <trkpt lat="49.17497" lon="6.95683">
        <ele>285</ele>
        <time>2010-12-05T09:06:16Z</time>
      </trkpt>
      <trkpt lat="49.17498" lon="6.95685">
        <ele>285</ele>
        <time>2010-12-05T09:06:17Z</time>
      </trkpt>
      <trkpt lat="49.17498" lon="6.95688">
        <ele>285</ele>
        <time>2010-12-05T09:06:19Z</time>
      </trkpt>
      <trkpt lat="49.17498" lon="6.9569">
        <ele>286</ele>
        <time>2010-12-05T09:06:20Z</time>
      </trkpt>
      <trkpt lat="49.17498" lon="6.95692">
        <ele>286</ele>
        <time>2010-12-05T09:06:21Z</time>
      </trkpt>
      <trkpt lat="49.17499" lon="6.95694">
        <ele>286</ele>
        <time>2010-12-05T09:06:22Z</time>
      </trkpt>
      <trkpt lat="49.17499" lon="6.95696">
        <ele>286</ele>
        <time>2010-12-05T09:06:23Z</time>
      </trkpt>
      <trkpt lat="49.17499" lon="6.95699">
        <ele>286</ele>
        <time>2010-12-05T09:06:25Z</time>
      </trkpt>
      <trkpt lat="49.17499" lon="6.95701">
        <ele>286</ele>
        <time>2010-12-05T09:06:26Z</time>
      </trkpt>
      <trkpt lat="49.17499" lon="6.95703">
        <ele>286</ele>
        <time>2010-12-05T09:06:27Z</time>
      </trkpt>
      <trkpt lat="49.17498" lon="6.95705">
        <ele>286</ele>
        <time>2010-12-05T09:06:28Z</time>
      </trkpt>
      <trkpt lat="49.17498" lon="6.95707">
        <ele>286</ele>
        <time>2010-12-05T09:06:29Z</time>
      </trkpt>
      <trkpt lat="49.17498" lon="6.95709">
        <ele>286</ele>
        <time>2010-12-05T09:06:30Z</time>
      </trkpt>
      <trkpt lat="49.17498" lon="6.95711">
        <ele>286</ele>
        <time>2010-12-05T09:06:31Z</time>
      </trkpt>
      <trkpt lat="49.17498" lon="6.95712">
        <ele>286</ele>
        <time>2010-12-05T09:06:32Z</time>
      </trkpt>
      <trkpt lat="49.17498" lon="6.95715">
        <ele>286</ele>
        <time>2010-12-05T09:06:34Z</time>
      </trkpt>
      <trkpt lat="49.17498" lon="6.95716">
        <ele>286</ele>
        <time>2010-12-05T09:06:35Z</time>
      </trkpt>
      <trkpt lat="49.17498" lon="6.95718">
        <ele>286</ele>
        <time>2010-12-05T09:06:36Z</time>
      </trkpt>
      <trkpt lat="49.17497" lon="6.9572">
        <ele>286</ele>
        <time>2010-12-05T09:06:37Z</time>
      </trkpt>
      <trkpt lat="49.17496" lon="6.95722">
        <ele>286</ele>
        <time>2010-12-05T09:06:38Z</time>
      </trkpt>
      <trkpt lat="49.17496" lon="6.95723">
        <ele>286</ele>
        <time>2010-12-05T09:06:39Z</time>
      </trkpt>
      <trkpt lat="49.17497" lon="6.95725">
        <ele>286</ele>
        <time>2010-12-05T09:06:40Z</time>
      </trkpt>
      <trkpt lat="49.17497" lon="6.95727">
        <ele>286</ele>
        <time>2010-12-05T09:06:41Z</time>
      </trkpt>
      <trkpt lat="49.17497" lon="6.95729">
        <ele>286</ele>
        <time>2010-12-05T09:06:42Z</time>
      </trkpt>
      <trkpt lat="49.17497" lon="6.95731">
        <ele>286</ele>
        <time>2010-12-05T09:06:44Z</time>
      </trkpt>
      <trkpt lat="49.17497" lon="6.95733">
        <ele>286</ele>
        <time>2010-12-05T09:06:45Z</time>
      </trkpt>
      <trkpt lat="49.17497" lon="6.95735">
        <ele>286</ele>
        <time>2010-12-05T09:06:46Z</time>
      </trkpt>
      <trkpt lat="49.17497" lon="6.95737">
        <ele>286</ele>
        <time>2010-12-05T09:06:47Z</time>
      </trkpt>
      <trkpt lat="49.17497" lon="6.95739">
        <ele>286</ele>
        <time>2010-12-05T09:06:48Z</time>
      </trkpt>
      <trkpt lat="49.17497" lon="6.95741">
        <ele>286</ele>
        <time>2010-12-05T09:06:49Z</time>
      </trkpt>
      <trkpt lat="49.17497" lon="6.95743">
        <ele>286</ele>
        <time>2010-12-05T09:06:50Z</time>
      </trkpt>
      <trkpt lat="49.17497" lon="6.95745">
        <ele>286</ele>
        <time>2010-12-05T09:06:51Z</time>
      </trkpt>
      <trkpt lat="49.17497" lon="6.95748">
        <ele>286</ele>
        <time>2010-12-05T09:06:52Z</time>
      </trkpt>
      <trkpt lat="49.17497" lon="6.9575">
        <ele>286</ele>
        <time>2010-12-05T09:06:53Z</time>
      </trkpt>
      <trkpt lat="49.17497" lon="6.95751">
        <ele>286</ele>
        <time>2010-12-05T09:06:54Z</time>
      </trkpt>
      <trkpt lat="49.17497" lon="6.95753">
        <ele>286</ele>
        <time>2010-12-05T09:06:55Z</time>
      </trkpt>
      <trkpt lat="49.17497" lon="6.95755">
        <ele>286</ele>
        <time>2010-12-05T09:06:56Z</time>
      </trkpt>
      <trkpt lat="49.17497" lon="6.95757">
        <ele>286</ele>
        <time>2010-12-05T09:06:57Z</time>
      </trkpt>
      <trkpt lat="49.17498" lon="6.9576">
        <ele>286</ele>
        <time>2010-12-05T09:06:58Z</time>
      </trkpt>
      <trkpt lat="49.17498" lon="6.95762">
        <ele>286</ele>
        <time>2010-12-05T09:06:59Z</time>
      </trkpt>
      <trkpt lat="49.17498" lon="6.95763">
        <ele>286</ele>
        <time>2010-12-05T09:07:00Z</time>
      </trkpt>
      <trkpt lat="49.17498" lon="6.95765">
        <ele>286</ele>
        <time>2010-12-05T09:07:01Z</time>
      </trkpt>
      <trkpt lat="49.17498" lon="6.95768">
        <ele>286</ele>
        <time>2010-12-05T09:07:03Z</time>
      </trkpt>
      <trkpt lat="49.17498" lon="6.9577">
        <ele>286</ele>
        <time>2010-12-05T09:07:04Z</time>
      </trkpt>
      <trkpt lat="49.17498" lon="6.95772">
        <ele>286</ele>
        <time>2010-12-05T09:07:05Z</time>
      </trkpt>
      <trkpt lat="49.17498" lon="6.95775">
        <ele>286</ele>
        <time>2010-12-05T09:07:06Z</time>
      </trkpt>
      <trkpt lat="49.17498" lon="6.95777">
        <ele>286</ele>
        <time>2010-12-05T09:07:07Z</time>
      </trkpt>
      <trkpt lat="49.17498" lon="6.95779">
        <ele>286</ele>
        <time>2010-12-05T09:07:08Z</time>
      </trkpt>
      <trkpt lat="49.17498" lon="6.9578">
        <ele>286</ele>
        <time>2010-12-05T09:07:09Z</time>
      </trkpt>
      <trkpt lat="49.17498" lon="6.95782">
        <ele>286</ele>
        <time>2010-12-05T09:07:10Z</time>
      </trkpt>
      <trkpt lat="49.17498" lon="6.95784">
        <ele>286</ele>
        <time>2010-12-05T09:07:11Z</time>
      </trkpt>
      <trkpt lat="49.17498" lon="6.95786">
        <ele>286</ele>
        <time>2010-12-05T09:07:12Z</time>
      </trkpt>
      <trkpt lat="49.17498" lon="6.95788">
        <ele>286</ele>
        <time>2010-12-05T09:07:13Z</time>
      </trkpt>
      <trkpt lat="49.17498" lon="6.9579">
        <ele>286</ele>
        <time>2010-12-05T09:07:14Z</time>
      </trkpt>
      <trkpt lat="49.17498" lon="6.95792">
        <ele>286</ele>
        <time>2010-12-05T09:07:15Z</time>
      </trkpt>
      <trkpt lat="49.17498" lon="6.95794">
        <ele>286</ele>
        <time>2010-12-05T09:07:16Z</time>
      </trkpt>
      <trkpt lat="49.17498" lon="6.95796">
        <ele>286</ele>
        <time>2010-12-05T09:07:17Z</time>
      </trkpt>
      <trkpt lat="49.17498" lon="6.95797">
        <ele>286</ele>
        <time>2010-12-05T09:07:18Z</time>
      </trkpt>
      <trkpt lat="49.17498" lon="6.95799">
        <ele>286</ele>
        <time>2010-12-05T09:07:19Z</time>
      </trkpt>
      <trkpt lat="49.17498" lon="6.95801">
        <ele>286</ele>
        <time>2010-12-05T09:07:20Z</time>
      </trkpt>
      <trkpt lat="49.17497" lon="6.95803">
        <ele>286</ele>
        <time>2010-12-05T09:07:21Z</time>
      </trkpt>
      <trkpt lat="49.17497" lon="6.95805">
        <ele>286</ele>
        <time>2010-12-05T09:07:22Z</time>
      </trkpt>
      <trkpt lat="49.17497" lon="6.95807">
        <ele>286</ele>
        <time>2010-12-05T09:07:23Z</time>
      </trkpt>
      <trkpt lat="49.17497" lon="6.95809">
        <ele>286</ele>
        <time>2010-12-05T09:07:24Z</time>
      </trkpt>
      <trkpt lat="49.17497" lon="6.95811">
        <ele>286</ele>
        <time>2010-12-05T09:07:25Z</time>
      </trkpt>
      <trkpt lat="49.17496" lon="6.95813">
        <ele>286</ele>
        <time>2010-12-05T09:07:26Z</time>
      </trkpt>
      <trkpt lat="49.17496" lon="6.95815">
        <ele>286</ele>
        <time>2010-12-05T09:07:27Z</time>
      </trkpt>
      <trkpt lat="49.17496" lon="6.95816">
        <ele>286</ele>
        <time>2010-12-05T09:07:28Z</time>
      </trkpt>
      <trkpt lat="49.17496" lon="6.95818">
        <ele>286</ele>
        <time>2010-12-05T09:07:29Z</time>
      </trkpt>
      <trkpt lat="49.17496" lon="6.9582">
        <ele>286</ele>
        <time>2010-12-05T09:07:30Z</time>
      </trkpt>
      <trkpt lat="49.17495" lon="6.95822">
        <ele>286</ele>
        <time>2010-12-05T09:07:31Z</time>
      </trkpt>
      <trkpt lat="49.17495" lon="6.95824">
        <ele>286</ele>
        <time>2010-12-05T09:07:32Z</time>
      </trkpt>
      <trkpt lat="49.17495" lon="6.95826">
        <ele>286</ele>
        <time>2010-12-05T09:07:33Z</time>
      </trkpt>
      <trkpt lat="49.17495" lon="6.95827">
        <ele>286</ele>
        <time>2010-12-05T09:07:34Z</time>
      </trkpt>
      <trkpt lat="49.17495" lon="6.9583">
        <ele>286</ele>
        <time>2010-12-05T09:07:36Z</time>
      </trkpt>
      <trkpt lat="49.17495" lon="6.95832">
        <ele>286</ele>
        <time>2010-12-05T09:07:37Z</time>
      </trkpt>
      <trkpt lat="49.17495" lon="6.95834">
        <ele>286</ele>
        <time>2010-12-05T09:07:38Z</time>
      </trkpt>
      <trkpt lat="49.17494" lon="6.95837">
        <ele>286</ele>
        <time>2010-12-05T09:07:40Z</time>
      </trkpt>
      <trkpt lat="49.17493" lon="6.95839">
        <ele>286</ele>
        <time>2010-12-05T09:07:42Z</time>
      </trkpt>
      <trkpt lat="49.17493" lon="6.95841">
        <ele>286</ele>
        <time>2010-12-05T09:07:51Z</time>
      </trkpt>
      <trkpt lat="49.17493" lon="6.95843">
        <ele>286</ele>
        <time>2010-12-05T09:08:02Z</time>
      </trkpt>
      <trkpt lat="49.17493" lon="6.95846">
        <ele>286</ele>
        <time>2010-12-05T09:08:04Z</time>
      </trkpt>
      <trkpt lat="49.17493" lon="6.95849">
        <ele>286</ele>
        <time>2010-12-05T09:08:06Z</time>
      </trkpt>
      <trkpt lat="49.17493" lon="6.95852">
        <ele>286</ele>
        <time>2010-12-05T09:08:08Z</time>
      </trkpt>
      <trkpt lat="49.17492" lon="6.95855">
        <ele>286</ele>
        <time>2010-12-05T09:08:10Z</time>
      </trkpt>
      <trkpt lat="49.17493" lon="6.95857">
        <ele>286</ele>
        <time>2010-12-05T09:08:12Z</time>
      </trkpt>
      <trkpt lat="49.17493" lon="6.9586">
        <ele>286</ele>
        <time>2010-12-05T09:08:14Z</time>
      </trkpt>
      <trkpt lat="49.17492" lon="6.95863">
        <ele>286</ele>
        <time>2010-12-05T09:08:16Z</time>
      </trkpt>
      <trkpt lat="49.17492" lon="6.95866">
        <ele>286</ele>
        <time>2010-12-05T09:08:18Z</time>
      </trkpt>
      <trkpt lat="49.17492" lon="6.95868">
        <ele>286</ele>
        <time>2010-12-05T09:08:19Z</time>
      </trkpt>
      <trkpt lat="49.17492" lon="6.9587">
        <ele>286</ele>
        <time>2010-12-05T09:08:20Z</time>
      </trkpt>
      <trkpt lat="49.17492" lon="6.95873">
        <ele>286</ele>
        <time>2010-12-05T09:08:22Z</time>
      </trkpt>
      <trkpt lat="49.17492" lon="6.95876">
        <ele>286</ele>
        <time>2010-12-05T09:08:24Z</time>
      </trkpt>
      <trkpt lat="49.17492" lon="6.95878">
        <ele>286</ele>
        <time>2010-12-05T09:08:26Z</time>
      </trkpt>
      <trkpt lat="49.17491" lon="6.9588">
        <ele>286</ele>
        <time>2010-12-05T09:08:27Z</time>
      </trkpt>
      <trkpt lat="49.17491" lon="6.95882">
        <ele>286</ele>
        <time>2010-12-05T09:08:28Z</time>
      </trkpt>
      <trkpt lat="49.17491" lon="6.95884">
        <ele>286</ele>
        <time>2010-12-05T09:08:29Z</time>
      </trkpt>
      <trkpt lat="49.17491" lon="6.95885">
        <ele>286</ele>
        <time>2010-12-05T09:08:30Z</time>
      </trkpt>
      <trkpt lat="49.17491" lon="6.95888">
        <ele>286</ele>
        <time>2010-12-05T09:08:32Z</time>
      </trkpt>
      <trkpt lat="49.17491" lon="6.9589">
        <ele>286</ele>
        <time>2010-12-05T09:08:33Z</time>
      </trkpt>
      <trkpt lat="49.1749" lon="6.95892">
        <ele>286</ele>
        <time>2010-12-05T09:08:34Z</time>
      </trkpt>
      <trkpt lat="49.1749" lon="6.95893">
        <ele>286</ele>
        <time>2010-12-05T09:08:35Z</time>
      </trkpt>
      <trkpt lat="49.1749" lon="6.95896">
        <ele>286</ele>
        <time>2010-12-05T09:08:36Z</time>
      </trkpt>
      <trkpt lat="49.1749" lon="6.95897">
        <ele>286</ele>
        <time>2010-12-05T09:08:37Z</time>
      </trkpt>
      <trkpt lat="49.17489" lon="6.95899">
        <ele>286</ele>
        <time>2010-12-05T09:08:39Z</time>
      </trkpt>
      <trkpt lat="49.1749" lon="6.95901">
        <ele>286</ele>
        <time>2010-12-05T09:08:45Z</time>
      </trkpt>
      <trkpt lat="49.1749" lon="6.95903">
        <ele>286</ele>
        <time>2010-12-05T09:09:06Z</time>
      </trkpt>
      <trkpt lat="49.1749" lon="6.95906">
        <ele>286</ele>
        <time>2010-12-05T09:09:08Z</time>
      </trkpt>
      <trkpt lat="49.1749" lon="6.95908">
        <ele>285</ele>
        <time>2010-12-05T09:09:10Z</time>
      </trkpt>
      <trkpt lat="49.17489" lon="6.95911">
        <ele>285</ele>
        <time>2010-12-05T09:09:12Z</time>
      </trkpt>
      <trkpt lat="49.17488" lon="6.95914">
        <ele>284</ele>
        <time>2010-12-05T09:09:14Z</time>
      </trkpt>
      <trkpt lat="49.17488" lon="6.95916">
        <ele>284</ele>
        <time>2010-12-05T09:09:15Z</time>
      </trkpt>
      <trkpt lat="49.17487" lon="6.95917">
        <ele>284</ele>
        <time>2010-12-05T09:09:16Z</time>
      </trkpt>
      <trkpt lat="49.17487" lon="6.95919">
        <ele>283</ele>
        <time>2010-12-05T09:09:17Z</time>
      </trkpt>
      <trkpt lat="49.17487" lon="6.95922">
        <ele>283</ele>
        <time>2010-12-05T09:09:19Z</time>
      </trkpt>
      <trkpt lat="49.17486" lon="6.95924">
        <ele>283</ele>
        <time>2010-12-05T09:09:20Z</time>
      </trkpt>
      <trkpt lat="49.17486" lon="6.95927">
        <ele>283</ele>
        <time>2010-12-05T09:09:22Z</time>
      </trkpt>
      <trkpt lat="49.17485" lon="6.95929">
        <ele>283</ele>
        <time>2010-12-05T09:09:23Z</time>
      </trkpt>
      <trkpt lat="49.17485" lon="6.9593">
        <ele>283</ele>
        <time>2010-12-05T09:09:24Z</time>
      </trkpt>
      <trkpt lat="49.17485" lon="6.95932">
        <ele>283</ele>
        <time>2010-12-05T09:09:25Z</time>
      </trkpt>
      <trkpt lat="49.17484" lon="6.95935">
        <ele>283</ele>
        <time>2010-12-05T09:09:27Z</time>
      </trkpt>
      <trkpt lat="49.17484" lon="6.95938">
        <ele>283</ele>
        <time>2010-12-05T09:09:29Z</time>
      </trkpt>
      <trkpt lat="49.17484" lon="6.9594">
        <ele>283</ele>
        <time>2010-12-05T09:09:30Z</time>
      </trkpt>
      <trkpt lat="49.17483" lon="6.95943">
        <ele>283</ele>
        <time>2010-12-05T09:09:32Z</time>
      </trkpt>
      <trkpt lat="49.17482" lon="6.95946">
        <ele>283</ele>
        <time>2010-12-05T09:09:33Z</time>
      </trkpt>
      <trkpt lat="49.17482" lon="6.95949">
        <ele>283</ele>
        <time>2010-12-05T09:09:35Z</time>
      </trkpt>
      <trkpt lat="49.17482" lon="6.95951">
        <ele>283</ele>
        <time>2010-12-05T09:09:36Z</time>
      </trkpt>
      <trkpt lat="49.17481" lon="6.95954">
        <ele>283</ele>
        <time>2010-12-05T09:09:38Z</time>
      </trkpt>
      <trkpt lat="49.17481" lon="6.95955">
        <ele>283</ele>
        <time>2010-12-05T09:09:39Z</time>
      </trkpt>
      <trkpt lat="49.17481" lon="6.95957">
        <ele>283</ele>
        <time>2010-12-05T09:09:40Z</time>
      </trkpt>
      <trkpt lat="49.17481" lon="6.95959">
        <ele>283</ele>
        <time>2010-12-05T09:09:41Z</time>
      </trkpt>
      <trkpt lat="49.17481" lon="6.95962">
        <ele>283</ele>
        <time>2010-12-05T09:09:43Z</time>
      </trkpt>
      <trkpt lat="49.1748" lon="6.95965">
        <ele>283</ele>
        <time>2010-12-05T09:09:45Z</time>
      </trkpt>
      <trkpt lat="49.1748" lon="6.95967">
        <ele>283</ele>
        <time>2010-12-05T09:09:46Z</time>
      </trkpt>
      <trkpt lat="49.1748" lon="6.95969">
        <ele>283</ele>
        <time>2010-12-05T09:09:47Z</time>
      </trkpt>
      <trkpt lat="49.1748" lon="6.95971">
        <ele>283</ele>
        <time>2010-12-05T09:09:48Z</time>
      </trkpt>
      <trkpt lat="49.17479" lon="6.95974">
        <ele>283</ele>
        <time>2010-12-05T09:09:50Z</time>
      </trkpt>
      <trkpt lat="49.17479" lon="6.95977">
        <ele>283</ele>
        <time>2010-12-05T09:09:52Z</time>
      </trkpt>
      <trkpt lat="49.17478" lon="6.95981">
        <ele>283</ele>
        <time>2010-12-05T09:09:54Z</time>
      </trkpt>
      <trkpt lat="49.17478" lon="6.95983">
        <ele>283</ele>
        <time>2010-12-05T09:09:55Z</time>
      </trkpt>
      <trkpt lat="49.17477" lon="6.95984">
        <ele>283</ele>
        <time>2010-12-05T09:09:56Z</time>
      </trkpt>
      <trkpt lat="49.17477" lon="6.95986">
        <ele>283</ele>
        <time>2010-12-05T09:09:57Z</time>
      </trkpt>
      <trkpt lat="49.17477" lon="6.95989">
        <ele>283</ele>
        <time>2010-12-05T09:09:59Z</time>
      </trkpt>
      <trkpt lat="49.17477" lon="6.95992">
        <ele>283</ele>
        <time>2010-12-05T09:10:00Z</time>
      </trkpt>
      <trkpt lat="49.17477" lon="6.95994">
        <ele>283</ele>
        <time>2010-12-05T09:10:01Z</time>
      </trkpt>
      <trkpt lat="49.17477" lon="6.95996">
        <ele>283</ele>
        <time>2010-12-05T09:10:02Z</time>
      </trkpt>
      <trkpt lat="49.17477" lon="6.95998">
        <ele>283</ele>
        <time>2010-12-05T09:10:03Z</time>
      </trkpt>
      <trkpt lat="49.17476" lon="6.95999">
        <ele>283</ele>
        <time>2010-12-05T09:10:04Z</time>
      </trkpt>
      <trkpt lat="49.17476" lon="6.96001">
        <ele>283</ele>
        <time>2010-12-05T09:10:05Z</time>
      </trkpt>
      <trkpt lat="49.17476" lon="6.96003">
        <ele>283</ele>
        <time>2010-12-05T09:10:06Z</time>
      </trkpt>
      <trkpt lat="49.17476" lon="6.96005">
        <ele>283</ele>
        <time>2010-12-05T09:10:07Z</time>
      </trkpt>
      <trkpt lat="49.17476" lon="6.96007">
        <ele>283</ele>
        <time>2010-12-05T09:10:08Z</time>
      </trkpt>
      <trkpt lat="49.17476" lon="6.96009">
        <ele>283</ele>
        <time>2010-12-05T09:10:09Z</time>
      </trkpt>
      <trkpt lat="49.17476" lon="6.9601">
        <ele>283</ele>
        <time>2010-12-05T09:10:10Z</time>
      </trkpt>
      <trkpt lat="49.17476" lon="6.96012">
        <ele>283</ele>
        <time>2010-12-05T09:10:11Z</time>
      </trkpt>
      <trkpt lat="49.17476" lon="6.96014">
        <ele>283</ele>
        <time>2010-12-05T09:10:12Z</time>
      </trkpt>
      <trkpt lat="49.17476" lon="6.96016">
        <ele>283</ele>
        <time>2010-12-05T09:10:13Z</time>
      </trkpt>
      <trkpt lat="49.17476" lon="6.96018">
        <ele>283</ele>
        <time>2010-12-05T09:10:14Z</time>
      </trkpt>
      <trkpt lat="49.17475" lon="6.9602">
        <ele>283</ele>
        <time>2010-12-05T09:10:15Z</time>
      </trkpt>
      <trkpt lat="49.17475" lon="6.96022">
        <ele>282</ele>
        <time>2010-12-05T09:10:16Z</time>
      </trkpt>
      <trkpt lat="49.17475" lon="6.96024">
        <ele>282</ele>
        <time>2010-12-05T09:10:17Z</time>
      </trkpt>
      <trkpt lat="49.17475" lon="6.96026">
        <ele>282</ele>
        <time>2010-12-05T09:10:18Z</time>
      </trkpt>
      <trkpt lat="49.17475" lon="6.96027">
        <ele>282</ele>
        <time>2010-12-05T09:10:19Z</time>
      </trkpt>
      <trkpt lat="49.17475" lon="6.96029">
        <ele>282</ele>
        <time>2010-12-05T09:10:20Z</time>
      </trkpt>
      <trkpt lat="49.17475" lon="6.96031">
        <ele>282</ele>
        <time>2010-12-05T09:10:21Z</time>
      </trkpt>
      <trkpt lat="49.17474" lon="6.96033">
        <ele>282</ele>
        <time>2010-12-05T09:10:22Z</time>
      </trkpt>
      <trkpt lat="49.17474" lon="6.96035">
        <ele>282</ele>
        <time>2010-12-05T09:10:23Z</time>
      </trkpt>
      <trkpt lat="49.17474" lon="6.96037">
        <ele>282</ele>
        <time>2010-12-05T09:10:24Z</time>
      </trkpt>
      <trkpt lat="49.17474" lon="6.96039">
        <ele>282</ele>
        <time>2010-12-05T09:10:25Z</time>
      </trkpt>
      <trkpt lat="49.17474" lon="6.96042">
        <ele>282</ele>
        <time>2010-12-05T09:10:27Z</time>
      </trkpt>
      <trkpt lat="49.17474" lon="6.96044">
        <ele>282</ele>
        <time>2010-12-05T09:10:28Z</time>
      </trkpt>
      <trkpt lat="49.17473" lon="6.96046">
        <ele>282</ele>
        <time>2010-12-05T09:10:29Z</time>
      </trkpt>
      <trkpt lat="49.17473" lon="6.96047">
        <ele>282</ele>
        <time>2010-12-05T09:10:30Z</time>
      </trkpt>
      <trkpt lat="49.17473" lon="6.96051">
        <ele>282</ele>
        <time>2010-12-05T09:10:32Z</time>
      </trkpt>
      <trkpt lat="49.17472" lon="6.96052">
        <ele>282</ele>
        <time>2010-12-05T09:10:33Z</time>
      </trkpt>
      <trkpt lat="49.17472" lon="6.96054">
        <ele>282</ele>
        <time>2010-12-05T09:10:34Z</time>
      </trkpt>
      <trkpt lat="49.17472" lon="6.96056">
        <ele>282</ele>
        <time>2010-12-05T09:10:35Z</time>
      </trkpt>
      <trkpt lat="49.17472" lon="6.96058">
        <ele>282</ele>
        <time>2010-12-05T09:10:36Z</time>
      </trkpt>
      <trkpt lat="49.17471" lon="6.9606">
        <ele>282</ele>
        <time>2010-12-05T09:10:37Z</time>
      </trkpt>
      <trkpt lat="49.17471" lon="6.96062">
        <ele>282</ele>
        <time>2010-12-05T09:10:38Z</time>
      </trkpt>
      <trkpt lat="49.17471" lon="6.96064">
        <ele>282</ele>
        <time>2010-12-05T09:10:39Z</time>
      </trkpt>
      <trkpt lat="49.17471" lon="6.96066">
        <ele>282</ele>
        <time>2010-12-05T09:10:40Z</time>
      </trkpt>
      <trkpt lat="49.17471" lon="6.96067">
        <ele>282</ele>
        <time>2010-12-05T09:10:41Z</time>
      </trkpt>
      <trkpt lat="49.17471" lon="6.96069">
        <ele>282</ele>
        <time>2010-12-05T09:10:42Z</time>
      </trkpt>
      <trkpt lat="49.17471" lon="6.96071">
        <ele>282</ele>
        <time>2010-12-05T09:10:43Z</time>
      </trkpt>
      <trkpt lat="49.1747" lon="6.96073">
        <ele>282</ele>
        <time>2010-12-05T09:10:44Z</time>
      </trkpt>
      <trkpt lat="49.1747" lon="6.96075">
        <ele>282</ele>
        <time>2010-12-05T09:10:45Z</time>
      </trkpt>
      <trkpt lat="49.1747" lon="6.96077">
        <ele>282</ele>
        <time>2010-12-05T09:10:46Z</time>
      </trkpt>
      <trkpt lat="49.1747" lon="6.96079">
        <ele>282</ele>
        <time>2010-12-05T09:10:47Z</time>
      </trkpt>
      <trkpt lat="49.17469" lon="6.96081">
        <ele>282</ele>
        <time>2010-12-05T09:10:48Z</time>
      </trkpt>
      <trkpt lat="49.17469" lon="6.96083">
        <ele>282</ele>
        <time>2010-12-05T09:10:49Z</time>
      </trkpt>
      <trkpt lat="49.17469" lon="6.96084">
        <ele>282</ele>
        <time>2010-12-05T09:10:50Z</time>
      </trkpt>
      <trkpt lat="49.17469" lon="6.96086">
        <ele>282</ele>
        <time>2010-12-05T09:10:51Z</time>
      </trkpt>
      <trkpt lat="49.17469" lon="6.96088">
        <ele>282</ele>
        <time>2010-12-05T09:10:52Z</time>
      </trkpt>
      <trkpt lat="49.17469" lon="6.9609">
        <ele>282</ele>
        <time>2010-12-05T09:10:53Z</time>
      </trkpt>
      <trkpt lat="49.17469" lon="6.96091">
        <ele>282</ele>
        <time>2010-12-05T09:10:54Z</time>
      </trkpt>
      <trkpt lat="49.17469" lon="6.96093">
        <ele>282</ele>
        <time>2010-12-05T09:10:55Z</time>
      </trkpt>
      <trkpt lat="49.17468" lon="6.96095">
        <ele>282</ele>
        <time>2010-12-05T09:10:56Z</time>
      </trkpt>
      <trkpt lat="49.17468" lon="6.96097">
        <ele>282</ele>
        <time>2010-12-05T09:10:57Z</time>
      </trkpt>
      <trkpt lat="49.17468" lon="6.96099">
        <ele>282</ele>
        <time>2010-12-05T09:10:58Z</time>
      </trkpt>
      <trkpt lat="49.17468" lon="6.96101">
        <ele>282</ele>
        <time>2010-12-05T09:10:59Z</time>
      </trkpt>
      <trkpt lat="49.17467" lon="6.96103">
        <ele>282</ele>
        <time>2010-12-05T09:11:00Z</time>
      </trkpt>
      <trkpt lat="49.17467" lon="6.96104">
        <ele>282</ele>
        <time>2010-12-05T09:11:01Z</time>
      </trkpt>
      <trkpt lat="49.17467" lon="6.96106">
        <ele>282</ele>
        <time>2010-12-05T09:11:02Z</time>
      </trkpt>
      <trkpt lat="49.17467" lon="6.96108">
        <ele>282</ele>
        <time>2010-12-05T09:11:03Z</time>
      </trkpt>
      <trkpt lat="49.17467" lon="6.9611">
        <ele>282</ele>
        <time>2010-12-05T09:11:04Z</time>
      </trkpt>
      <trkpt lat="49.17466" lon="6.96112">
        <ele>282</ele>
        <time>2010-12-05T09:11:05Z</time>
      </trkpt>
      <trkpt lat="49.17466" lon="6.96114">
        <ele>282</ele>
        <time>2010-12-05T09:11:06Z</time>
      </trkpt>
      <trkpt lat="49.17466" lon="6.96116">
        <ele>282</ele>
        <time>2010-12-05T09:11:07Z</time>
      </trkpt>
      <trkpt lat="49.17466" lon="6.96118">
        <ele>282</ele>
        <time>2010-12-05T09:11:08Z</time>
      </trkpt>
      <trkpt lat="49.17466" lon="6.9612">
        <ele>282</ele>
        <time>2010-12-05T09:11:09Z</time>
      </trkpt>
      <trkpt lat="49.17465" lon="6.96122">
        <ele>282</ele>
        <time>2010-12-05T09:11:10Z</time>
      </trkpt>
      <trkpt lat="49.17465" lon="6.96124">
        <ele>282</ele>
        <time>2010-12-05T09:11:11Z</time>
      </trkpt>
      <trkpt lat="49.17465" lon="6.96126">
        <ele>282</ele>
        <time>2010-12-05T09:11:12Z</time>
      </trkpt>
      <trkpt lat="49.17465" lon="6.96128">
        <ele>282</ele>
        <time>2010-12-05T09:11:13Z</time>
      </trkpt>
      <trkpt lat="49.17465" lon="6.9613">
        <ele>282</ele>
        <time>2010-12-05T09:11:14Z</time>
      </trkpt>
      <trkpt lat="49.17464" lon="6.96132">
        <ele>282</ele>
        <time>2010-12-05T09:11:15Z</time>
      </trkpt>
      <trkpt lat="49.17464" lon="6.96134">
        <ele>282</ele>
        <time>2010-12-05T09:11:16Z</time>
      </trkpt>
      <trkpt lat="49.17464" lon="6.96136">
        <ele>282</ele>
        <time>2010-12-05T09:11:17Z</time>
      </trkpt>
      <trkpt lat="49.17464" lon="6.96138">
        <ele>282</ele>
        <time>2010-12-05T09:11:18Z</time>
      </trkpt>
      <trkpt lat="49.17464" lon="6.9614">
        <ele>282</ele>
        <time>2010-12-05T09:11:19Z</time>
      </trkpt>
      <trkpt lat="49.17464" lon="6.96142">
        <ele>282</ele>
        <time>2010-12-05T09:11:20Z</time>
      </trkpt>
      <trkpt lat="49.17463" lon="6.96145">
        <ele>282</ele>
        <time>2010-12-05T09:11:22Z</time>
      </trkpt>
      <trkpt lat="49.17463" lon="6.96147">
        <ele>282</ele>
        <time>2010-12-05T09:11:24Z</time>
      </trkpt>
      <trkpt lat="49.17463" lon="6.96149">
        <ele>282</ele>
        <time>2010-12-05T09:11:26Z</time>
      </trkpt>
      <trkpt lat="49.17462" lon="6.96151">
        <ele>282</ele>
        <time>2010-12-05T09:11:28Z</time>
      </trkpt>
      <trkpt lat="49.17462" lon="6.96154">
        <ele>282</ele>
        <time>2010-12-05T09:11:30Z</time>
      </trkpt>
      <trkpt lat="49.17462" lon="6.96157">
        <ele>282</ele>
        <time>2010-12-05T09:11:32Z</time>
      </trkpt>
      <trkpt lat="49.17461" lon="6.96159">
        <ele>282</ele>
        <time>2010-12-05T09:11:33Z</time>
      </trkpt>
      <trkpt lat="49.17461" lon="6.96161">
        <ele>282</ele>
        <time>2010-12-05T09:11:34Z</time>
      </trkpt>
      <trkpt lat="49.17461" lon="6.96163">
        <ele>282</ele>
        <time>2010-12-05T09:11:35Z</time>
      </trkpt>
      <trkpt lat="49.17461" lon="6.96165">
        <ele>282</ele>
        <time>2010-12-05T09:11:36Z</time>
      </trkpt>
      <trkpt lat="49.17461" lon="6.96167">
        <ele>282</ele>
        <time>2010-12-05T09:11:37Z</time>
      </trkpt>
      <trkpt lat="49.17461" lon="6.96168">
        <ele>281</ele>
        <time>2010-12-05T09:11:38Z</time>
      </trkpt>
      <trkpt lat="49.17461" lon="6.9617">
        <ele>281</ele>
        <time>2010-12-05T09:11:39Z</time>
      </trkpt>
      <trkpt lat="49.17461" lon="6.96172">
        <ele>281</ele>
        <time>2010-12-05T09:11:40Z</time>
      </trkpt>
      <trkpt lat="49.17461" lon="6.96174">
        <ele>281</ele>
        <time>2010-12-05T09:11:41Z</time>
      </trkpt>
      <trkpt lat="49.17461" lon="6.96176">
        <ele>281</ele>
        <time>2010-12-05T09:11:42Z</time>
      </trkpt>
      <trkpt lat="49.17461" lon="6.96178">
        <ele>281</ele>
        <time>2010-12-05T09:11:43Z</time>
      </trkpt>
      <trkpt lat="49.17461" lon="6.96179">
        <ele>281</ele>
        <time>2010-12-05T09:11:44Z</time>
      </trkpt>
      <trkpt lat="49.17461" lon="6.96181">
        <ele>281</ele>
        <time>2010-12-05T09:11:45Z</time>
      </trkpt>
      <trkpt lat="49.1746" lon="6.96184">
        <ele>281</ele>
        <time>2010-12-05T09:11:47Z</time>
      </trkpt>
      <trkpt lat="49.17459" lon="6.96186">
        <ele>281</ele>
        <time>2010-12-05T09:11:48Z</time>
      </trkpt>
      <trkpt lat="49.17459" lon="6.96188">
        <ele>281</ele>
        <time>2010-12-05T09:11:49Z</time>
      </trkpt>
      <trkpt lat="49.17459" lon="6.96189">
        <ele>281</ele>
        <time>2010-12-05T09:11:50Z</time>
      </trkpt>
      <trkpt lat="49.17458" lon="6.96191">
        <ele>281</ele>
        <time>2010-12-05T09:11:51Z</time>
      </trkpt>
      <trkpt lat="49.17458" lon="6.96193">
        <ele>281</ele>
        <time>2010-12-05T09:11:52Z</time>
      </trkpt>
      <trkpt lat="49.17458" lon="6.96195">
        <ele>281</ele>
        <time>2010-12-05T09:11:53Z</time>
      </trkpt>
      <trkpt lat="49.17457" lon="6.96197">
        <ele>281</ele>
        <time>2010-12-05T09:11:54Z</time>
      </trkpt>
      <trkpt lat="49.17456" lon="6.962">
        <ele>281</ele>
        <time>2010-12-05T09:11:56Z</time>
      </trkpt>
      <trkpt lat="49.17456" lon="6.96203">
        <ele>281</ele>
        <time>2010-12-05T09:11:58Z</time>
      </trkpt>
      <trkpt lat="49.17455" lon="6.96204">
        <ele>281</ele>
        <time>2010-12-05T09:11:59Z</time>
      </trkpt>
      <trkpt lat="49.17455" lon="6.96207">
        <ele>281</ele>
        <time>2010-12-05T09:12:00Z</time>
      </trkpt>
      <trkpt lat="49.17454" lon="6.96208">
        <ele>281</ele>
        <time>2010-12-05T09:12:01Z</time>
      </trkpt>
      <trkpt lat="49.17453" lon="6.9621">
        <ele>281</ele>
        <time>2010-12-05T09:12:02Z</time>
      </trkpt>
      <trkpt lat="49.17453" lon="6.96212">
        <ele>281</ele>
        <time>2010-12-05T09:12:03Z</time>
      </trkpt>
      <trkpt lat="49.17453" lon="6.96213">
        <ele>281</ele>
        <time>2010-12-05T09:12:04Z</time>
      </trkpt>
      <trkpt lat="49.17452" lon="6.96215">
        <ele>281</ele>
        <time>2010-12-05T09:12:05Z</time>
      </trkpt>
      <trkpt lat="49.17452" lon="6.96217">
        <ele>281</ele>
        <time>2010-12-05T09:12:06Z</time>
      </trkpt>
      <trkpt lat="49.17451" lon="6.96219">
        <ele>281</ele>
        <time>2010-12-05T09:12:07Z</time>
      </trkpt>
      <trkpt lat="49.17451" lon="6.9622">
        <ele>281</ele>
        <time>2010-12-05T09:12:08Z</time>
      </trkpt>
      <trkpt lat="49.1745" lon="6.96223">
        <ele>281</ele>
        <time>2010-12-05T09:12:10Z</time>
      </trkpt>
      <trkpt lat="49.17449" lon="6.96227">
        <ele>281</ele>
        <time>2010-12-05T09:12:12Z</time>
      </trkpt>
      <trkpt lat="49.17449" lon="6.96228">
        <ele>281</ele>
        <time>2010-12-05T09:12:13Z</time>
      </trkpt>
      <trkpt lat="49.17449" lon="6.9623">
        <ele>281</ele>
        <time>2010-12-05T09:12:14Z</time>
      </trkpt>
      <trkpt lat="49.17448" lon="6.96233">
        <ele>281</ele>
        <time>2010-12-05T09:12:16Z</time>
      </trkpt>
      <trkpt lat="49.17448" lon="6.96236">
        <ele>281</ele>
        <time>2010-12-05T09:12:18Z</time>
      </trkpt>
      <trkpt lat="49.17447" lon="6.96238">
        <ele>281</ele>
        <time>2010-12-05T09:12:19Z</time>
      </trkpt>
      <trkpt lat="49.17447" lon="6.96239">
        <ele>281</ele>
        <time>2010-12-05T09:12:20Z</time>
      </trkpt>
      <trkpt lat="49.17446" lon="6.96242">
        <ele>281</ele>
        <time>2010-12-05T09:12:22Z</time>
      </trkpt>
      <trkpt lat="49.17445" lon="6.96246">
        <ele>281</ele>
        <time>2010-12-05T09:12:24Z</time>
      </trkpt>
      <trkpt lat="49.17445" lon="6.96247">
        <ele>281</ele>
        <time>2010-12-05T09:12:25Z</time>
      </trkpt>
      <trkpt lat="49.17445" lon="6.96249">
        <ele>281</ele>
        <time>2010-12-05T09:12:26Z</time>
      </trkpt>
      <trkpt lat="49.17445" lon="6.96251">
        <ele>281</ele>
        <time>2010-12-05T09:12:27Z</time>
      </trkpt>
      <trkpt lat="49.17445" lon="6.96253">
        <ele>281</ele>
        <time>2010-12-05T09:12:28Z</time>
      </trkpt>
      <trkpt lat="49.17444" lon="6.96255">
        <ele>281</ele>
        <time>2010-12-05T09:12:29Z</time>
      </trkpt>
      <trkpt lat="49.17443" lon="6.96257">
        <ele>281</ele>
        <time>2010-12-05T09:12:30Z</time>
      </trkpt>
      <trkpt lat="49.17443" lon="6.96258">
        <ele>281</ele>
        <time>2010-12-05T09:12:31Z</time>
      </trkpt>
      <trkpt lat="49.17442" lon="6.96261">
        <ele>280</ele>
        <time>2010-12-05T09:12:33Z</time>
      </trkpt>
      <trkpt lat="49.1744" lon="6.96264">
        <ele>280</ele>
        <time>2010-12-05T09:12:35Z</time>
      </trkpt>
      <trkpt lat="49.1744" lon="6.96266">
        <ele>280</ele>
        <time>2010-12-05T09:12:36Z</time>
      </trkpt>
      <trkpt lat="49.17439" lon="6.96269">
        <ele>280</ele>
        <time>2010-12-05T09:12:38Z</time>
      </trkpt>
      <trkpt lat="49.17437" lon="6.96271">
        <ele>280</ele>
        <time>2010-12-05T09:12:40Z</time>
      </trkpt>
      <trkpt lat="49.17437" lon="6.96273">
        <ele>279</ele>
        <time>2010-12-05T09:12:41Z</time>
      </trkpt>
      <trkpt lat="49.17435" lon="6.96275">
        <ele>279</ele>
        <time>2010-12-05T09:12:42Z</time>
      </trkpt>
      <trkpt lat="49.17435" lon="6.96277">
        <ele>279</ele>
        <time>2010-12-05T09:12:43Z</time>
      </trkpt>
      <trkpt lat="49.17434" lon="6.96279">
        <ele>279</ele>
        <time>2010-12-05T09:12:44Z</time>
      </trkpt>
      <trkpt lat="49.17434" lon="6.9628">
        <ele>279</ele>
        <time>2010-12-05T09:12:45Z</time>
      </trkpt>
      <trkpt lat="49.17433" lon="6.96283">
        <ele>279</ele>
        <time>2010-12-05T09:12:47Z</time>
      </trkpt>
      <trkpt lat="49.17433" lon="6.96285">
        <ele>279</ele>
        <time>2010-12-05T09:12:48Z</time>
      </trkpt>
      <trkpt lat="49.17432" lon="6.96288">
        <ele>279</ele>
        <time>2010-12-05T09:12:50Z</time>
      </trkpt>
      <trkpt lat="49.17432" lon="6.9629">
        <ele>279</ele>
        <time>2010-12-05T09:12:51Z</time>
      </trkpt>
      <trkpt lat="49.17431" lon="6.96293">
        <ele>279</ele>
        <time>2010-12-05T09:12:53Z</time>
      </trkpt>
      <trkpt lat="49.17431" lon="6.96296">
        <ele>279</ele>
        <time>2010-12-05T09:12:55Z</time>
      </trkpt>
      <trkpt lat="49.1743" lon="6.96298">
        <ele>279</ele>
        <time>2010-12-05T09:12:57Z</time>
      </trkpt>
      <trkpt lat="49.17429" lon="6.963">
        <ele>279</ele>
        <time>2010-12-05T09:13:00Z</time>
      </trkpt>
      <trkpt lat="49.17428" lon="6.96301">
        <ele>279</ele>
        <time>2010-12-05T09:13:17Z</time>
      </trkpt>
      <trkpt lat="49.17428" lon="6.96299">
        <ele>279</ele>
        <time>2010-12-05T09:13:21Z</time>
      </trkpt>
      <trkpt lat="49.17429" lon="6.96298">
        <ele>279</ele>
        <time>2010-12-05T09:13:24Z</time>
      </trkpt>
      <trkpt lat="49.17431" lon="6.96298">
        <ele>279</ele>
        <time>2010-12-05T09:13:33Z</time>
      </trkpt>
      <trkpt lat="49.17432" lon="6.963">
        <ele>279</ele>
        <time>2010-12-05T09:13:51Z</time>
      </trkpt>
      <trkpt lat="49.17432" lon="6.96302">
        <ele>279</ele>
        <time>2010-12-05T09:13:53Z</time>
      </trkpt>
      <trkpt lat="49.17431" lon="6.96305">
        <ele>279</ele>
        <time>2010-12-05T09:13:55Z</time>
      </trkpt>
      <trkpt lat="49.17432" lon="6.96306">
        <ele>279</ele>
        <time>2010-12-05T09:13:57Z</time>
      </trkpt>
      <trkpt lat="49.17432" lon="6.96308">
        <ele>279</ele>
        <time>2010-12-05T09:13:59Z</time>
      </trkpt>
      <trkpt lat="49.17434" lon="6.9631">
        <ele>279</ele>
        <time>2010-12-05T09:14:05Z</time>
      </trkpt>
      <trkpt lat="49.17434" lon="6.96312">
        <ele>279</ele>
        <time>2010-12-05T09:14:07Z</time>
      </trkpt>
      <trkpt lat="49.17435" lon="6.96315">
        <ele>279</ele>
        <time>2010-12-05T09:14:10Z</time>
      </trkpt>
      <trkpt lat="49.17435" lon="6.96317">
        <ele>279</ele>
        <time>2010-12-05T09:14:12Z</time>
      </trkpt>
      <trkpt lat="49.17434" lon="6.96319">
        <ele>279</ele>
        <time>2010-12-05T09:14:14Z</time>
      </trkpt>
      <trkpt lat="49.17434" lon="6.96322">
        <ele>278</ele>
        <time>2010-12-05T09:14:16Z</time>
      </trkpt>
      <trkpt lat="49.17433" lon="6.96324">
        <ele>278</ele>
        <time>2010-12-05T09:14:18Z</time>
      </trkpt>
      <trkpt lat="49.17433" lon="6.96326">
        <ele>278</ele>
        <time>2010-12-05T09:14:20Z</time>
      </trkpt>
      <trkpt lat="49.17433" lon="6.96328">
        <ele>278</ele>
        <time>2010-12-05T09:14:22Z</time>
      </trkpt>
      <trkpt lat="49.17433" lon="6.96331">
        <ele>278</ele>
        <time>2010-12-05T09:14:24Z</time>
      </trkpt>
      <trkpt lat="49.17433" lon="6.96333">
        <ele>278</ele>
        <time>2010-12-05T09:14:26Z</time>
      </trkpt>
      <trkpt lat="49.17432" lon="6.96336">
        <ele>278</ele>
        <time>2010-12-05T09:14:28Z</time>
      </trkpt>
      <trkpt lat="49.17431" lon="6.96337">
        <ele>278</ele>
        <time>2010-12-05T09:14:30Z</time>
      </trkpt>
      <trkpt lat="49.1743" lon="6.9634">
        <ele>278</ele>
        <time>2010-12-05T09:14:36Z</time>
      </trkpt>
      <trkpt lat="49.17429" lon="6.96343">
        <ele>278</ele>
        <time>2010-12-05T09:14:38Z</time>
      </trkpt>
      <trkpt lat="49.17429" lon="6.96345">
        <ele>278</ele>
        <time>2010-12-05T09:14:40Z</time>
      </trkpt>
      <trkpt lat="49.17428" lon="6.96347">
        <ele>278</ele>
        <time>2010-12-05T09:14:41Z</time>
      </trkpt>
      <trkpt lat="49.17427" lon="6.96349">
        <ele>278</ele>
        <time>2010-12-05T09:14:43Z</time>
      </trkpt>
      <trkpt lat="49.17427" lon="6.96351">
        <ele>278</ele>
        <time>2010-12-05T09:14:45Z</time>
      </trkpt>
      <trkpt lat="49.17426" lon="6.96354">
        <ele>278</ele>
        <time>2010-12-05T09:14:47Z</time>
      </trkpt>
      <trkpt lat="49.17426" lon="6.96357">
        <ele>278</ele>
        <time>2010-12-05T09:14:49Z</time>
      </trkpt>
      <trkpt lat="49.17425" lon="6.96359">
        <ele>278</ele>
        <time>2010-12-05T09:14:50Z</time>
      </trkpt>
      <trkpt lat="49.17425" lon="6.9636">
        <ele>278</ele>
        <time>2010-12-05T09:14:51Z</time>
      </trkpt>
      <trkpt lat="49.17424" lon="6.96362">
        <ele>278</ele>
        <time>2010-12-05T09:14:52Z</time>
      </trkpt>
      <trkpt lat="49.17424" lon="6.96364">
        <ele>278</ele>
        <time>2010-12-05T09:14:53Z</time>
      </trkpt>
      <trkpt lat="49.17423" lon="6.96367">
        <ele>278</ele>
        <time>2010-12-05T09:14:55Z</time>
      </trkpt>
      <trkpt lat="49.17423" lon="6.96368">
        <ele>278</ele>
        <time>2010-12-05T09:14:56Z</time>
      </trkpt>
      <trkpt lat="49.17422" lon="6.96371">
        <ele>278</ele>
        <time>2010-12-05T09:14:58Z</time>
      </trkpt>
      <trkpt lat="49.17421" lon="6.96373">
        <ele>278</ele>
        <time>2010-12-05T09:14:59Z</time>
      </trkpt>
      <trkpt lat="49.17421" lon="6.96376">
        <ele>278</ele>
        <time>2010-12-05T09:15:01Z</time>
      </trkpt>
      <trkpt lat="49.1742" lon="6.96379">
        <ele>278</ele>
        <time>2010-12-05T09:15:03Z</time>
      </trkpt>
      <trkpt lat="49.17419" lon="6.96381">
        <ele>278</ele>
        <time>2010-12-05T09:15:05Z</time>
      </trkpt>
      <trkpt lat="49.17418" lon="6.96383">
        <ele>278</ele>
        <time>2010-12-05T09:15:07Z</time>
      </trkpt>
      <trkpt lat="49.17418" lon="6.96385">
        <ele>278</ele>
        <time>2010-12-05T09:15:09Z</time>
      </trkpt>
      <trkpt lat="49.17417" lon="6.96388">
        <ele>278</ele>
        <time>2010-12-05T09:15:11Z</time>
      </trkpt>
      <trkpt lat="49.17416" lon="6.96391">
        <ele>278</ele>
        <time>2010-12-05T09:15:13Z</time>
      </trkpt>
      <trkpt lat="49.17416" lon="6.96392">
        <ele>278</ele>
        <time>2010-12-05T09:15:14Z</time>
      </trkpt>
      <trkpt lat="49.17415" lon="6.96394">
        <ele>278</ele>
        <time>2010-12-05T09:15:15Z</time>
      </trkpt>
      <trkpt lat="49.17414" lon="6.96397">
        <ele>278</ele>
        <time>2010-12-05T09:15:17Z</time>
      </trkpt>
      <trkpt lat="49.17413" lon="6.964">
        <ele>278</ele>
        <time>2010-12-05T09:15:19Z</time>
      </trkpt>
      <trkpt lat="49.17412" lon="6.96402">
        <ele>278</ele>
        <time>2010-12-05T09:15:21Z</time>
      </trkpt>
      <trkpt lat="49.17411" lon="6.96404">
        <ele>278</ele>
        <time>2010-12-05T09:15:23Z</time>
      </trkpt>
      <trkpt lat="49.1741" lon="6.96408">
        <ele>278</ele>
        <time>2010-12-05T09:15:25Z</time>
      </trkpt>
      <trkpt lat="49.1741" lon="6.96409">
        <ele>278</ele>
        <time>2010-12-05T09:15:26Z</time>
      </trkpt>
      <trkpt lat="49.17408" lon="6.96412">
        <ele>278</ele>
        <time>2010-12-05T09:15:28Z</time>
      </trkpt>
      <trkpt lat="49.17407" lon="6.96415">
        <ele>278</ele>
        <time>2010-12-05T09:15:30Z</time>
      </trkpt>
      <trkpt lat="49.17407" lon="6.96416">
        <ele>277</ele>
        <time>2010-12-05T09:15:31Z</time>
      </trkpt>
      <trkpt lat="49.17405" lon="6.96419">
        <ele>277</ele>
        <time>2010-12-05T09:15:33Z</time>
      </trkpt>
      <trkpt lat="49.17404" lon="6.96422">
        <ele>277</ele>
        <time>2010-12-05T09:15:35Z</time>
      </trkpt>
      <trkpt lat="49.17403" lon="6.96425">
        <ele>277</ele>
        <time>2010-12-05T09:15:37Z</time>
      </trkpt>
      <trkpt lat="49.17402" lon="6.96428">
        <ele>277</ele>
        <time>2010-12-05T09:15:39Z</time>
      </trkpt>
      <trkpt lat="49.17401" lon="6.9643">
        <ele>277</ele>
        <time>2010-12-05T09:15:40Z</time>
      </trkpt>
      <trkpt lat="49.174" lon="6.96433">
        <ele>277</ele>
        <time>2010-12-05T09:15:42Z</time>
      </trkpt>
      <trkpt lat="49.17398" lon="6.96436">
        <ele>276</ele>
        <time>2010-12-05T09:15:44Z</time>
      </trkpt>
      <trkpt lat="49.17397" lon="6.96439">
        <ele>276</ele>
        <time>2010-12-05T09:15:46Z</time>
      </trkpt>
      <trkpt lat="49.17396" lon="6.9644">
        <ele>276</ele>
        <time>2010-12-05T09:15:47Z</time>
      </trkpt>
      <trkpt lat="49.17394" lon="6.96443">
        <ele>275</ele>
        <time>2010-12-05T09:15:49Z</time>
      </trkpt>
      <trkpt lat="49.17393" lon="6.96445">
        <ele>275</ele>
        <time>2010-12-05T09:15:50Z</time>
      </trkpt>
      <trkpt lat="49.17393" lon="6.96447">
        <ele>275</ele>
        <time>2010-12-05T09:15:51Z</time>
      </trkpt>
      <trkpt lat="49.17392" lon="6.96448">
        <ele>275</ele>
        <time>2010-12-05T09:15:52Z</time>
      </trkpt>
      <trkpt lat="49.1739" lon="6.96451">
        <ele>275</ele>
        <time>2010-12-05T09:15:54Z</time>
      </trkpt>
      <trkpt lat="49.17389" lon="6.96454">
        <ele>275</ele>
        <time>2010-12-05T09:15:56Z</time>
      </trkpt>
      <trkpt lat="49.17387" lon="6.96457">
        <ele>275</ele>
        <time>2010-12-05T09:15:58Z</time>
      </trkpt>
      <trkpt lat="49.17386" lon="6.9646">
        <ele>275</ele>
        <time>2010-12-05T09:16:00Z</time>
      </trkpt>
      <trkpt lat="49.17385" lon="6.96463">
        <ele>274</ele>
        <time>2010-12-05T09:16:02Z</time>
      </trkpt>
      <trkpt lat="49.17383" lon="6.96466">
        <ele>274</ele>
        <time>2010-12-05T09:16:04Z</time>
      </trkpt>
      <trkpt lat="49.17382" lon="6.96468">
        <ele>274</ele>
        <time>2010-12-05T09:16:05Z</time>
      </trkpt>
      <trkpt lat="49.17381" lon="6.96471">
        <ele>274</ele>
        <time>2010-12-05T09:16:07Z</time>
      </trkpt>
      <trkpt lat="49.1738" lon="6.96472">
        <ele>274</ele>
        <time>2010-12-05T09:16:08Z</time>
      </trkpt>
      <trkpt lat="49.17379" lon="6.96474">
        <ele>274</ele>
        <time>2010-12-05T09:16:09Z</time>
      </trkpt>
      <trkpt lat="49.17377" lon="6.96477">
        <ele>274</ele>
        <time>2010-12-05T09:16:11Z</time>
      </trkpt>
      <trkpt lat="49.17377" lon="6.96479">
        <ele>274</ele>
        <time>2010-12-05T09:16:12Z</time>
      </trkpt>
      <trkpt lat="49.17375" lon="6.96482">
        <ele>274</ele>
        <time>2010-12-05T09:16:14Z</time>
      </trkpt>
      <trkpt lat="49.17373" lon="6.96484">
        <ele>274</ele>
        <time>2010-12-05T09:16:16Z</time>
      </trkpt>
      <trkpt lat="49.17371" lon="6.96487">
        <ele>274</ele>
        <time>2010-12-05T09:16:18Z</time>
      </trkpt>
      <trkpt lat="49.1737" lon="6.96489">
        <ele>274</ele>
        <time>2010-12-05T09:16:20Z</time>
      </trkpt>
      <trkpt lat="49.17368" lon="6.96492">
        <ele>274</ele>
        <time>2010-12-05T09:16:22Z</time>
      </trkpt>
      <trkpt lat="49.17366" lon="6.96494">
        <ele>274</ele>
        <time>2010-12-05T09:16:24Z</time>
      </trkpt>
      <trkpt lat="49.17364" lon="6.96497">
        <ele>274</ele>
        <time>2010-12-05T09:16:26Z</time>
      </trkpt>
      <trkpt lat="49.17362" lon="6.96499">
        <ele>274</ele>
        <time>2010-12-05T09:16:28Z</time>
      </trkpt>
      <trkpt lat="49.1736" lon="6.96501">
        <ele>274</ele>
        <time>2010-12-05T09:16:30Z</time>
      </trkpt>
      <trkpt lat="49.17359" lon="6.96503">
        <ele>274</ele>
        <time>2010-12-05T09:16:32Z</time>
      </trkpt>
      <trkpt lat="49.17356" lon="6.96505">
        <ele>274</ele>
        <time>2010-12-05T09:16:34Z</time>
      </trkpt>
      <trkpt lat="49.17355" lon="6.96508">
        <ele>274</ele>
        <time>2010-12-05T09:16:36Z</time>
      </trkpt>
      <trkpt lat="49.17352" lon="6.9651">
        <ele>274</ele>
        <time>2010-12-05T09:16:38Z</time>
      </trkpt>
      <trkpt lat="49.1735" lon="6.96512">
        <ele>274</ele>
        <time>2010-12-05T09:16:40Z</time>
      </trkpt>
      <trkpt lat="49.17349" lon="6.96513">
        <ele>274</ele>
        <time>2010-12-05T09:16:41Z</time>
      </trkpt>
      <trkpt lat="49.17347" lon="6.96515">
        <ele>274</ele>
        <time>2010-12-05T09:16:43Z</time>
      </trkpt>
      <trkpt lat="49.17345" lon="6.96518">
        <ele>274</ele>
        <time>2010-12-05T09:16:45Z</time>
      </trkpt>
      <trkpt lat="49.17343" lon="6.96521">
        <ele>274</ele>
        <time>2010-12-05T09:16:47Z</time>
      </trkpt>
      <trkpt lat="49.17341" lon="6.96523">
        <ele>274</ele>
        <time>2010-12-05T09:16:49Z</time>
      </trkpt>
      <trkpt lat="49.17339" lon="6.96525">
        <ele>274</ele>
        <time>2010-12-05T09:16:51Z</time>
      </trkpt>
      <trkpt lat="49.17338" lon="6.96527">
        <ele>274</ele>
        <time>2010-12-05T09:16:52Z</time>
      </trkpt>
      <trkpt lat="49.17337" lon="6.9653">
        <ele>273</ele>
        <time>2010-12-05T09:16:54Z</time>
      </trkpt>
      <trkpt lat="49.17335" lon="6.96533">
        <ele>273</ele>
        <time>2010-12-05T09:16:56Z</time>
      </trkpt>
      <trkpt lat="49.17333" lon="6.96536">
        <ele>273</ele>
        <time>2010-12-05T09:16:58Z</time>
      </trkpt>
      <trkpt lat="49.17332" lon="6.96539">
        <ele>273</ele>
        <time>2010-12-05T09:17:00Z</time>
      </trkpt>
      <trkpt lat="49.17331" lon="6.96541">
        <ele>273</ele>
        <time>2010-12-05T09:17:01Z</time>
      </trkpt>
      <trkpt lat="49.1733" lon="6.96542">
        <ele>273</ele>
        <time>2010-12-05T09:17:02Z</time>
      </trkpt>
      <trkpt lat="49.17329" lon="6.96544">
        <ele>273</ele>
        <time>2010-12-05T09:17:03Z</time>
      </trkpt>
      <trkpt lat="49.17328" lon="6.96546">
        <ele>273</ele>
        <time>2010-12-05T09:17:04Z</time>
      </trkpt>
      <trkpt lat="49.17326" lon="6.96549">
        <ele>273</ele>
        <time>2010-12-05T09:17:06Z</time>
      </trkpt>
      <trkpt lat="49.17325" lon="6.96551">
        <ele>273</ele>
        <time>2010-12-05T09:17:08Z</time>
      </trkpt>
      <trkpt lat="49.17323" lon="6.96553">
        <ele>272</ele>
        <time>2010-12-05T09:17:10Z</time>
      </trkpt>
      <trkpt lat="49.17322" lon="6.96556">
        <ele>272</ele>
        <time>2010-12-05T09:17:12Z</time>
      </trkpt>
      <trkpt lat="49.1732" lon="6.96558">
        <ele>272</ele>
        <time>2010-12-05T09:17:14Z</time>
      </trkpt>
      <trkpt lat="49.17319" lon="6.9656">
        <ele>272</ele>
        <time>2010-12-05T09:17:15Z</time>
      </trkpt>
      <trkpt lat="49.17317" lon="6.96562">
        <ele>272</ele>
        <time>2010-12-05T09:17:17Z</time>
      </trkpt>
      <trkpt lat="49.17316" lon="6.96565">
        <ele>272</ele>
        <time>2010-12-05T09:17:19Z</time>
      </trkpt>
      <trkpt lat="49.17314" lon="6.96567">
        <ele>272</ele>
        <time>2010-12-05T09:17:21Z</time>
      </trkpt>
      <trkpt lat="49.17312" lon="6.9657">
        <ele>272</ele>
        <time>2010-12-05T09:17:23Z</time>
      </trkpt>
      <trkpt lat="49.1731" lon="6.96572">
        <ele>272</ele>
        <time>2010-12-05T09:17:25Z</time>
      </trkpt>
      <trkpt lat="49.17308" lon="6.96574">
        <ele>272</ele>
        <time>2010-12-05T09:17:27Z</time>
      </trkpt>
      <trkpt lat="49.17306" lon="6.96576">
        <ele>272</ele>
        <time>2010-12-05T09:17:29Z</time>
      </trkpt>
      <trkpt lat="49.17304" lon="6.96579">
        <ele>272</ele>
        <time>2010-12-05T09:17:31Z</time>
      </trkpt>
      <trkpt lat="49.17303" lon="6.96579">
        <ele>272</ele>
        <time>2010-12-05T09:17:32Z</time>
      </trkpt>
      <trkpt lat="49.17301" lon="6.96581">
        <ele>272</ele>
        <time>2010-12-05T09:17:34Z</time>
      </trkpt>
      <trkpt lat="49.17299" lon="6.96584">
        <ele>272</ele>
        <time>2010-12-05T09:17:36Z</time>
      </trkpt>
      <trkpt lat="49.17298" lon="6.96586">
        <ele>272</ele>
        <time>2010-12-05T09:17:38Z</time>
      </trkpt>
      <trkpt lat="49.17296" lon="6.96588">
        <ele>272</ele>
        <time>2010-12-05T09:17:40Z</time>
      </trkpt>
      <trkpt lat="49.17293" lon="6.9659">
        <ele>272</ele>
        <time>2010-12-05T09:17:42Z</time>
      </trkpt>
      <trkpt lat="49.17292" lon="6.96592">
        <ele>272</ele>
        <time>2010-12-05T09:17:43Z</time>
      </trkpt>
      <trkpt lat="49.1729" lon="6.96594">
        <ele>272</ele>
        <time>2010-12-05T09:17:44Z</time>
      </trkpt>
      <trkpt lat="49.17289" lon="6.96595">
        <ele>272</ele>
        <time>2010-12-05T09:17:45Z</time>
      </trkpt>
      <trkpt lat="49.17288" lon="6.96596">
        <ele>272</ele>
        <time>2010-12-05T09:17:46Z</time>
      </trkpt>
      <trkpt lat="49.17286" lon="6.96599">
        <ele>272</ele>
        <time>2010-12-05T09:17:48Z</time>
      </trkpt>
      <trkpt lat="49.17284" lon="6.96601">
        <ele>272</ele>
        <time>2010-12-05T09:17:50Z</time>
      </trkpt>
      <trkpt lat="49.17282" lon="6.96604">
        <ele>272</ele>
        <time>2010-12-05T09:17:52Z</time>
      </trkpt>
      <trkpt lat="49.17281" lon="6.96606">
        <ele>272</ele>
        <time>2010-12-05T09:17:54Z</time>
      </trkpt>
      <trkpt lat="49.17279" lon="6.96608">
        <ele>272</ele>
        <time>2010-12-05T09:17:56Z</time>
      </trkpt>
      <trkpt lat="49.17277" lon="6.9661">
        <ele>272</ele>
        <time>2010-12-05T09:17:58Z</time>
      </trkpt>
      <trkpt lat="49.17276" lon="6.96612">
        <ele>272</ele>
        <time>2010-12-05T09:17:59Z</time>
      </trkpt>
      <trkpt lat="49.17275" lon="6.96614">
        <ele>272</ele>
        <time>2010-12-05T09:18:00Z</time>
      </trkpt>
      <trkpt lat="49.17273" lon="6.96617">
        <ele>272</ele>
        <time>2010-12-05T09:18:02Z</time>
      </trkpt>
      <trkpt lat="49.17272" lon="6.96619">
        <ele>272</ele>
        <time>2010-12-05T09:18:04Z</time>
      </trkpt>
      <trkpt lat="49.1727" lon="6.96622">
        <ele>272</ele>
        <time>2010-12-05T09:18:06Z</time>
      </trkpt>
      <trkpt lat="49.17268" lon="6.96624">
        <ele>272</ele>
        <time>2010-12-05T09:18:08Z</time>
      </trkpt>
      <trkpt lat="49.17267" lon="6.96627">
        <ele>272</ele>
        <time>2010-12-05T09:18:10Z</time>
      </trkpt>
      <trkpt lat="49.17265" lon="6.96629">
        <ele>272</ele>
        <time>2010-12-05T09:18:12Z</time>
      </trkpt>
      <trkpt lat="49.17264" lon="6.96632">
        <ele>272</ele>
        <time>2010-12-05T09:18:14Z</time>
      </trkpt>
      <trkpt lat="49.17263" lon="6.96635">
        <ele>272</ele>
        <time>2010-12-05T09:18:16Z</time>
      </trkpt>
      <trkpt lat="49.17261" lon="6.96638">
        <ele>272</ele>
        <time>2010-12-05T09:18:18Z</time>
      </trkpt>
      <trkpt lat="49.17259" lon="6.9664">
        <ele>272</ele>
        <time>2010-12-05T09:18:20Z</time>
      </trkpt>
      <trkpt lat="49.17257" lon="6.96643">
        <ele>272</ele>
        <time>2010-12-05T09:18:22Z</time>
      </trkpt>
      <trkpt lat="49.17255" lon="6.96646">
        <ele>272</ele>
        <time>2010-12-05T09:18:24Z</time>
      </trkpt>
      <trkpt lat="49.17254" lon="6.96649">
        <ele>272</ele>
        <time>2010-12-05T09:18:26Z</time>
      </trkpt>
      <trkpt lat="49.17252" lon="6.96652">
        <ele>271</ele>
        <time>2010-12-05T09:18:28Z</time>
      </trkpt>
      <trkpt lat="49.17251" lon="6.96655">
        <ele>271</ele>
        <time>2010-12-05T09:18:30Z</time>
      </trkpt>
      <trkpt lat="49.1725" lon="6.96658">
        <ele>270</ele>
        <time>2010-12-05T09:18:32Z</time>
      </trkpt>
      <trkpt lat="49.17248" lon="6.96661">
        <ele>270</ele>
        <time>2010-12-05T09:18:34Z</time>
      </trkpt>
      <trkpt lat="49.17247" lon="6.96664">
        <ele>270</ele>
        <time>2010-12-05T09:18:36Z</time>
      </trkpt>
      <trkpt lat="49.17246" lon="6.96665">
        <ele>269</ele>
        <time>2010-12-05T09:18:37Z</time>
      </trkpt>
      <trkpt lat="49.17245" lon="6.96667">
        <ele>269</ele>
        <time>2010-12-05T09:18:38Z</time>
      </trkpt>
      <trkpt lat="49.17244" lon="6.96669">
        <ele>269</ele>
        <time>2010-12-05T09:18:39Z</time>
      </trkpt>
      <trkpt lat="49.17244" lon="6.96671">
        <ele>269</ele>
        <time>2010-12-05T09:18:40Z</time>
      </trkpt>
      <trkpt lat="49.17243" lon="6.96673">
        <ele>269</ele>
        <time>2010-12-05T09:18:41Z</time>
      </trkpt>
      <trkpt lat="49.17243" lon="6.96674">
        <ele>269</ele>
        <time>2010-12-05T09:18:42Z</time>
      </trkpt>
      <trkpt lat="49.17242" lon="6.96677">
        <ele>269</ele>
        <time>2010-12-05T09:18:44Z</time>
      </trkpt>
      <trkpt lat="49.17241" lon="6.96679">
        <ele>269</ele>
        <time>2010-12-05T09:18:45Z</time>
      </trkpt>
      <trkpt lat="49.17241" lon="6.96681">
        <ele>269</ele>
        <time>2010-12-05T09:18:46Z</time>
      </trkpt>
      <trkpt lat="49.1724" lon="6.96683">
        <ele>269</ele>
        <time>2010-12-05T09:18:47Z</time>
      </trkpt>
      <trkpt lat="49.17239" lon="6.96684">
        <ele>269</ele>
        <time>2010-12-05T09:18:48Z</time>
      </trkpt>
      <trkpt lat="49.17239" lon="6.96686">
        <ele>269</ele>
        <time>2010-12-05T09:18:49Z</time>
      </trkpt>
      <trkpt lat="49.17238" lon="6.96688">
        <ele>269</ele>
        <time>2010-12-05T09:18:50Z</time>
      </trkpt>
      <trkpt lat="49.17237" lon="6.96689">
        <ele>269</ele>
        <time>2010-12-05T09:18:51Z</time>
      </trkpt>
      <trkpt lat="49.17237" lon="6.96691">
        <ele>269</ele>
        <time>2010-12-05T09:18:52Z</time>
      </trkpt>
      <trkpt lat="49.17236" lon="6.96693">
        <ele>269</ele>
        <time>2010-12-05T09:18:53Z</time>
      </trkpt>
      <trkpt lat="49.17236" lon="6.96695">
        <ele>269</ele>
        <time>2010-12-05T09:18:54Z</time>
      </trkpt>
      <trkpt lat="49.17235" lon="6.96696">
        <ele>269</ele>
        <time>2010-12-05T09:18:55Z</time>
      </trkpt>
      <trkpt lat="49.17234" lon="6.96699">
        <ele>269</ele>
        <time>2010-12-05T09:18:57Z</time>
      </trkpt>
      <trkpt lat="49.17233" lon="6.967">
        <ele>269</ele>
        <time>2010-12-05T09:18:58Z</time>
      </trkpt>
      <trkpt lat="49.17232" lon="6.96704">
        <ele>268</ele>
        <time>2010-12-05T09:19:00Z</time>
      </trkpt>
      <trkpt lat="49.17231" lon="6.96706">
        <ele>268</ele>
        <time>2010-12-05T09:19:01Z</time>
      </trkpt>
      <trkpt lat="49.17231" lon="6.96707">
        <ele>268</ele>
        <time>2010-12-05T09:19:02Z</time>
      </trkpt>
      <trkpt lat="49.17229" lon="6.9671">
        <ele>268</ele>
        <time>2010-12-05T09:19:04Z</time>
      </trkpt>
      <trkpt lat="49.17229" lon="6.96712">
        <ele>268</ele>
        <time>2010-12-05T09:19:05Z</time>
      </trkpt>
      <trkpt lat="49.17228" lon="6.96714">
        <ele>268</ele>
        <time>2010-12-05T09:19:06Z</time>
      </trkpt>
      <trkpt lat="49.17227" lon="6.96717">
        <ele>268</ele>
        <time>2010-12-05T09:19:08Z</time>
      </trkpt>
      <trkpt lat="49.17227" lon="6.96719">
        <ele>268</ele>
        <time>2010-12-05T09:19:09Z</time>
      </trkpt>
      <trkpt lat="49.17226" lon="6.96722">
        <ele>268</ele>
        <time>2010-12-05T09:19:11Z</time>
      </trkpt>
      <trkpt lat="49.17225" lon="6.96725">
        <ele>268</ele>
        <time>2010-12-05T09:19:13Z</time>
      </trkpt>
      <trkpt lat="49.17223" lon="6.96728">
        <ele>268</ele>
        <time>2010-12-05T09:19:15Z</time>
      </trkpt>
      <trkpt lat="49.17223" lon="6.9673">
        <ele>268</ele>
        <time>2010-12-05T09:19:16Z</time>
      </trkpt>
      <trkpt lat="49.17221" lon="6.96733">
        <ele>268</ele>
        <time>2010-12-05T09:19:18Z</time>
      </trkpt>
      <trkpt lat="49.1722" lon="6.96735">
        <ele>268</ele>
        <time>2010-12-05T09:19:20Z</time>
      </trkpt>
      <trkpt lat="49.17219" lon="6.96739">
        <ele>268</ele>
        <time>2010-12-05T09:19:22Z</time>
      </trkpt>
      <trkpt lat="49.17218" lon="6.96741">
        <ele>268</ele>
        <time>2010-12-05T09:19:24Z</time>
      </trkpt>
      <trkpt lat="49.17218" lon="6.96743">
        <ele>268</ele>
        <time>2010-12-05T09:19:25Z</time>
      </trkpt>
      <trkpt lat="49.17216" lon="6.96745">
        <ele>268</ele>
        <time>2010-12-05T09:19:27Z</time>
      </trkpt>
      <trkpt lat="49.17215" lon="6.96748">
        <ele>268</ele>
        <time>2010-12-05T09:19:29Z</time>
      </trkpt>
      <trkpt lat="49.17215" lon="6.9675">
        <ele>268</ele>
        <time>2010-12-05T09:19:30Z</time>
      </trkpt>
      <trkpt lat="49.17214" lon="6.96752">
        <ele>268</ele>
        <time>2010-12-05T09:19:31Z</time>
      </trkpt>
      <trkpt lat="49.17213" lon="6.96755">
        <ele>268</ele>
        <time>2010-12-05T09:19:33Z</time>
      </trkpt>
      <trkpt lat="49.17213" lon="6.96757">
        <ele>268</ele>
        <time>2010-12-05T09:19:34Z</time>
      </trkpt>
      <trkpt lat="49.17212" lon="6.96759">
        <ele>268</ele>
        <time>2010-12-05T09:19:36Z</time>
      </trkpt>
      <trkpt lat="49.17212" lon="6.96762">
        <ele>268</ele>
        <time>2010-12-05T09:19:38Z</time>
      </trkpt>
      <trkpt lat="49.17211" lon="6.96765">
        <ele>268</ele>
        <time>2010-12-05T09:19:40Z</time>
      </trkpt>
      <trkpt lat="49.1721" lon="6.96768">
        <ele>268</ele>
        <time>2010-12-05T09:19:42Z</time>
      </trkpt>
      <trkpt lat="49.1721" lon="6.9677">
        <ele>268</ele>
        <time>2010-12-05T09:19:43Z</time>
      </trkpt>
      <trkpt lat="49.17209" lon="6.96772">
        <ele>268</ele>
        <time>2010-12-05T09:19:44Z</time>
      </trkpt>
      <trkpt lat="49.17208" lon="6.96774">
        <ele>268</ele>
        <time>2010-12-05T09:19:45Z</time>
      </trkpt>
      <trkpt lat="49.17208" lon="6.96776">
        <ele>268</ele>
        <time>2010-12-05T09:19:46Z</time>
      </trkpt>
      <trkpt lat="49.17207" lon="6.96779">
        <ele>268</ele>
        <time>2010-12-05T09:19:48Z</time>
      </trkpt>
      <trkpt lat="49.17206" lon="6.96782">
        <ele>268</ele>
        <time>2010-12-05T09:19:50Z</time>
      </trkpt>
      <trkpt lat="49.17206" lon="6.96784">
        <ele>268</ele>
        <time>2010-12-05T09:19:51Z</time>
      </trkpt>
      <trkpt lat="49.17205" lon="6.96787">
        <ele>268</ele>
        <time>2010-12-05T09:19:53Z</time>
      </trkpt>
      <trkpt lat="49.17204" lon="6.96789">
        <ele>268</ele>
        <time>2010-12-05T09:19:55Z</time>
      </trkpt>
      <trkpt lat="49.17204" lon="6.96792">
        <ele>268</ele>
        <time>2010-12-05T09:19:57Z</time>
      </trkpt>
      <trkpt lat="49.17204" lon="6.96795">
        <ele>268</ele>
        <time>2010-12-05T09:19:59Z</time>
      </trkpt>
      <trkpt lat="49.17205" lon="6.96796">
        <ele>268</ele>
        <time>2010-12-05T09:20:00Z</time>
      </trkpt>
      <trkpt lat="49.17206" lon="6.96799">
        <ele>268</ele>
        <time>2010-12-05T09:20:02Z</time>
      </trkpt>
      <trkpt lat="49.17208" lon="6.96801">
        <ele>268</ele>
        <time>2010-12-05T09:20:04Z</time>
      </trkpt>
      <trkpt lat="49.1721" lon="6.96803">
        <ele>268</ele>
        <time>2010-12-05T09:20:06Z</time>
      </trkpt>
      <trkpt lat="49.17211" lon="6.96804">
        <ele>268</ele>
        <time>2010-12-05T09:20:07Z</time>
      </trkpt>
      <trkpt lat="49.17213" lon="6.96805">
        <ele>268</ele>
        <time>2010-12-05T09:20:09Z</time>
      </trkpt>
      <trkpt lat="49.17215" lon="6.96807">
        <ele>268</ele>
        <time>2010-12-05T09:20:10Z</time>
      </trkpt>
      <trkpt lat="49.17216" lon="6.96808">
        <ele>268</ele>
        <time>2010-12-05T09:20:11Z</time>
      </trkpt>
      <trkpt lat="49.17218" lon="6.96811">
        <ele>268</ele>
        <time>2010-12-05T09:20:13Z</time>
      </trkpt>
      <trkpt lat="49.1722" lon="6.96813">
        <ele>268</ele>
        <time>2010-12-05T09:20:15Z</time>
      </trkpt>
      <trkpt lat="49.17221" lon="6.96815">
        <ele>268</ele>
        <time>2010-12-05T09:20:17Z</time>
      </trkpt>
      <trkpt lat="49.17222" lon="6.96817">
        <ele>267</ele>
        <time>2010-12-05T09:20:19Z</time>
      </trkpt>
      <trkpt lat="49.17224" lon="6.96819">
        <ele>267</ele>
        <time>2010-12-05T09:20:21Z</time>
      </trkpt>
      <trkpt lat="49.17226" lon="6.9682">
        <ele>267</ele>
        <time>2010-12-05T09:20:23Z</time>
      </trkpt>
      <trkpt lat="49.17227" lon="6.96822">
        <ele>267</ele>
        <time>2010-12-05T09:20:25Z</time>
      </trkpt>
      <trkpt lat="49.17229" lon="6.96824">
        <ele>266</ele>
        <time>2010-12-05T09:20:27Z</time>
      </trkpt>
      <trkpt lat="49.1723" lon="6.96827">
        <ele>266</ele>
        <time>2010-12-05T09:20:29Z</time>
      </trkpt>
      <trkpt lat="49.17231" lon="6.96827">
        <ele>265</ele>
        <time>2010-12-05T09:20:30Z</time>
      </trkpt>
      <trkpt lat="49.17233" lon="6.96828">
        <ele>265</ele>
        <time>2010-12-05T09:20:31Z</time>
      </trkpt>
      <trkpt lat="49.17234" lon="6.96831">
        <ele>265</ele>
        <time>2010-12-05T09:20:33Z</time>
      </trkpt>
      <trkpt lat="49.17236" lon="6.96833">
        <ele>265</ele>
        <time>2010-12-05T09:20:35Z</time>
      </trkpt>
      <trkpt lat="49.17237" lon="6.96835">
        <ele>265</ele>
        <time>2010-12-05T09:20:37Z</time>
      </trkpt>
      <trkpt lat="49.17238" lon="6.96837">
        <ele>265</ele>
        <time>2010-12-05T09:20:39Z</time>
      </trkpt>
      <trkpt lat="49.17239" lon="6.96839">
        <ele>265</ele>
        <time>2010-12-05T09:20:41Z</time>
      </trkpt>
      <trkpt lat="49.17241" lon="6.9684">
        <ele>265</ele>
        <time>2010-12-05T09:20:42Z</time>
      </trkpt>
      <trkpt lat="49.17242" lon="6.96841">
        <ele>265</ele>
        <time>2010-12-05T09:20:44Z</time>
      </trkpt>
      <trkpt lat="49.17244" lon="6.96843">
        <ele>265</ele>
        <time>2010-12-05T09:20:46Z</time>
      </trkpt>
      <trkpt lat="49.17246" lon="6.96845">
        <ele>265</ele>
        <time>2010-12-05T09:20:48Z</time>
      </trkpt>
      <trkpt lat="49.17247" lon="6.96846">
        <ele>265</ele>
        <time>2010-12-05T09:20:50Z</time>
      </trkpt>
      <trkpt lat="49.1725" lon="6.96848">
        <ele>265</ele>
        <time>2010-12-05T09:20:52Z</time>
      </trkpt>
      <trkpt lat="49.17252" lon="6.9685">
        <ele>265</ele>
        <time>2010-12-05T09:20:54Z</time>
      </trkpt>
      <trkpt lat="49.17253" lon="6.96852">
        <ele>265</ele>
        <time>2010-12-05T09:20:56Z</time>
      </trkpt>
      <trkpt lat="49.17255" lon="6.96853">
        <ele>265</ele>
        <time>2010-12-05T09:20:58Z</time>
      </trkpt>
      <trkpt lat="49.17257" lon="6.96855">
        <ele>265</ele>
        <time>2010-12-05T09:21:00Z</time>
      </trkpt>
      <trkpt lat="49.17258" lon="6.96857">
        <ele>265</ele>
        <time>2010-12-05T09:21:02Z</time>
      </trkpt>
      <trkpt lat="49.17258" lon="6.9686">
        <ele>265</ele>
        <time>2010-12-05T09:21:04Z</time>
      </trkpt>
      <trkpt lat="49.17257" lon="6.96862">
        <ele>265</ele>
        <time>2010-12-05T09:21:06Z</time>
      </trkpt>
      <trkpt lat="49.17256" lon="6.96864">
        <ele>265</ele>
        <time>2010-12-05T09:21:08Z</time>
      </trkpt>
      <trkpt lat="49.17255" lon="6.96865">
        <ele>265</ele>
        <time>2010-12-05T09:21:11Z</time>
      </trkpt>
      <trkpt lat="49.17255" lon="6.96867">
        <ele>265</ele>
        <time>2010-12-05T09:21:23Z</time>
      </trkpt>
      <trkpt lat="49.17256" lon="6.96868">
        <ele>267</ele>
        <time>2010-12-05T09:21:35Z</time>
      </trkpt>
      <trkpt lat="49.17256" lon="6.96866">
        <ele>267</ele>
        <time>2010-12-05T09:21:50Z</time>
      </trkpt>
      <trkpt lat="49.17255" lon="6.96865">
        <ele>267</ele>
        <time>2010-12-05T09:21:53Z</time>
      </trkpt>
      <trkpt lat="49.17253" lon="6.96863">
        <ele>269</ele>
        <time>2010-12-05T09:21:58Z</time>
      </trkpt>
      <trkpt lat="49.17252" lon="6.96862">
        <ele>270</ele>
        <time>2010-12-05T09:22:07Z</time>
      </trkpt>
      <trkpt lat="49.17251" lon="6.96862">
        <ele>272</ele>
        <time>2010-12-05T09:22:15Z</time>
      </trkpt>
      <trkpt lat="49.1725" lon="6.96864">
        <ele>273</ele>
        <time>2010-12-05T09:22:21Z</time>
      </trkpt>
      <trkpt lat="49.1725" lon="6.96866">
        <ele>273</ele>
        <time>2010-12-05T09:22:23Z</time>
      </trkpt>
      <trkpt lat="49.17249" lon="6.96869">
        <ele>273</ele>
        <time>2010-12-05T09:22:26Z</time>
      </trkpt>
      <trkpt lat="49.17248" lon="6.96872">
        <ele>273</ele>
        <time>2010-12-05T09:22:28Z</time>
      </trkpt>
      <trkpt lat="49.17247" lon="6.96875">
        <ele>273</ele>
        <time>2010-12-05T09:22:30Z</time>
      </trkpt>
      <trkpt lat="49.17245" lon="6.96878">
        <ele>273</ele>
        <time>2010-12-05T09:22:32Z</time>
      </trkpt>
      <trkpt lat="49.17244" lon="6.96881">
        <ele>273</ele>
        <time>2010-12-05T09:22:34Z</time>
      </trkpt>
      <trkpt lat="49.17244" lon="6.96882">
        <ele>273</ele>
        <time>2010-12-05T09:22:35Z</time>
      </trkpt>
      <trkpt lat="49.17243" lon="6.96884">
        <ele>273</ele>
        <time>2010-12-05T09:22:36Z</time>
      </trkpt>
      <trkpt lat="49.17241" lon="6.96887">
        <ele>272</ele>
        <time>2010-12-05T09:22:38Z</time>
      </trkpt>
      <trkpt lat="49.17241" lon="6.9689">
        <ele>272</ele>
        <time>2010-12-05T09:22:40Z</time>
      </trkpt>
      <trkpt lat="49.1724" lon="6.96891">
        <ele>271</ele>
        <time>2010-12-05T09:22:41Z</time>
      </trkpt>
      <trkpt lat="49.17239" lon="6.96894">
        <ele>271</ele>
        <time>2010-12-05T09:22:43Z</time>
      </trkpt>
      <trkpt lat="49.17237" lon="6.96897">
        <ele>270</ele>
        <time>2010-12-05T09:22:45Z</time>
      </trkpt>
      <trkpt lat="49.17237" lon="6.969">
        <ele>270</ele>
        <time>2010-12-05T09:22:47Z</time>
      </trkpt>
      <trkpt lat="49.17236" lon="6.96902">
        <ele>270</ele>
        <time>2010-12-05T09:22:49Z</time>
      </trkpt>
      <trkpt lat="49.17236" lon="6.96904">
        <ele>270</ele>
        <time>2010-12-05T09:22:50Z</time>
      </trkpt>
      <trkpt lat="49.17234" lon="6.96907">
        <ele>270</ele>
        <time>2010-12-05T09:22:52Z</time>
      </trkpt>
      <trkpt lat="49.17234" lon="6.96909">
        <ele>270</ele>
        <time>2010-12-05T09:22:53Z</time>
      </trkpt>
      <trkpt lat="49.17234" lon="6.96912">
        <ele>269</ele>
        <time>2010-12-05T09:22:55Z</time>
      </trkpt>
      <trkpt lat="49.17233" lon="6.96914">
        <ele>269</ele>
        <time>2010-12-05T09:22:56Z</time>
      </trkpt>
      <trkpt lat="49.17233" lon="6.96915">
        <ele>269</ele>
        <time>2010-12-05T09:22:57Z</time>
      </trkpt>
      <trkpt lat="49.17232" lon="6.96917">
        <ele>268</ele>
        <time>2010-12-05T09:22:58Z</time>
      </trkpt>
      <trkpt lat="49.17232" lon="6.96919">
        <ele>268</ele>
        <time>2010-12-05T09:22:59Z</time>
      </trkpt>
      <trkpt lat="49.17231" lon="6.96921">
        <ele>268</ele>
        <time>2010-12-05T09:23:00Z</time>
      </trkpt>
      <trkpt lat="49.17231" lon="6.96924">
        <ele>268</ele>
        <time>2010-12-05T09:23:02Z</time>
      </trkpt>
      <trkpt lat="49.1723" lon="6.96926">
        <ele>268</ele>
        <time>2010-12-05T09:23:03Z</time>
      </trkpt>
      <trkpt lat="49.17229" lon="6.9693">
        <ele>268</ele>
        <time>2010-12-05T09:23:05Z</time>
      </trkpt>
      <trkpt lat="49.17229" lon="6.96933">
        <ele>268</ele>
        <time>2010-12-05T09:23:06Z</time>
      </trkpt>
      <trkpt lat="49.17228" lon="6.96935">
        <ele>268</ele>
        <time>2010-12-05T09:23:07Z</time>
      </trkpt>
      <trkpt lat="49.17228" lon="6.96937">
        <ele>268</ele>
        <time>2010-12-05T09:23:08Z</time>
      </trkpt>
      <trkpt lat="49.17227" lon="6.9694">
        <ele>268</ele>
        <time>2010-12-05T09:23:10Z</time>
      </trkpt>
      <trkpt lat="49.17227" lon="6.96942">
        <ele>268</ele>
        <time>2010-12-05T09:23:11Z</time>
      </trkpt>
      <trkpt lat="49.17226" lon="6.96944">
        <ele>268</ele>
        <time>2010-12-05T09:23:12Z</time>
      </trkpt>
      <trkpt lat="49.17226" lon="6.96946">
        <ele>268</ele>
        <time>2010-12-05T09:23:13Z</time>
      </trkpt>
      <trkpt lat="49.17225" lon="6.96947">
        <ele>268</ele>
        <time>2010-12-05T09:23:14Z</time>
      </trkpt>
      <trkpt lat="49.17225" lon="6.96949">
        <ele>268</ele>
        <time>2010-12-05T09:23:15Z</time>
      </trkpt>
      <trkpt lat="49.17224" lon="6.96951">
        <ele>268</ele>
        <time>2010-12-05T09:23:16Z</time>
      </trkpt>
      <trkpt lat="49.17224" lon="6.96953">
        <ele>268</ele>
        <time>2010-12-05T09:23:17Z</time>
      </trkpt>
      <trkpt lat="49.17223" lon="6.96955">
        <ele>268</ele>
        <time>2010-12-05T09:23:19Z</time>
      </trkpt>
      <trkpt lat="49.17223" lon="6.96959">
        <ele>268</ele>
        <time>2010-12-05T09:23:21Z</time>
      </trkpt>
      <trkpt lat="49.17222" lon="6.96961">
        <ele>268</ele>
        <time>2010-12-05T09:23:22Z</time>
      </trkpt>
      <trkpt lat="49.17221" lon="6.96963">
        <ele>268</ele>
        <time>2010-12-05T09:23:23Z</time>
      </trkpt>
      <trkpt lat="49.1722" lon="6.96965">
        <ele>268</ele>
        <time>2010-12-05T09:23:24Z</time>
      </trkpt>
      <trkpt lat="49.1722" lon="6.96967">
        <ele>268</ele>
        <time>2010-12-05T09:23:25Z</time>
      </trkpt>
      <trkpt lat="49.17219" lon="6.96968">
        <ele>268</ele>
        <time>2010-12-05T09:23:26Z</time>
      </trkpt>
      <trkpt lat="49.17218" lon="6.96971">
        <ele>268</ele>
        <time>2010-12-05T09:23:28Z</time>
      </trkpt>
      <trkpt lat="49.17218" lon="6.96973">
        <ele>268</ele>
        <time>2010-12-05T09:23:29Z</time>
      </trkpt>
      <trkpt lat="49.17217" lon="6.96975">
        <ele>268</ele>
        <time>2010-12-05T09:23:30Z</time>
      </trkpt>
      <trkpt lat="49.17217" lon="6.96976">
        <ele>268</ele>
        <time>2010-12-05T09:23:31Z</time>
      </trkpt>
      <trkpt lat="49.17216" lon="6.96979">
        <ele>268</ele>
        <time>2010-12-05T09:23:32Z</time>
      </trkpt>
      <trkpt lat="49.17215" lon="6.96981">
        <ele>268</ele>
        <time>2010-12-05T09:23:33Z</time>
      </trkpt>
      <trkpt lat="49.17215" lon="6.96984">
        <ele>268</ele>
        <time>2010-12-05T09:23:35Z</time>
      </trkpt>
      <trkpt lat="49.17213" lon="6.96987">
        <ele>268</ele>
        <time>2010-12-05T09:23:37Z</time>
      </trkpt>
      <trkpt lat="49.17213" lon="6.96989">
        <ele>268</ele>
        <time>2010-12-05T09:23:38Z</time>
      </trkpt>
      <trkpt lat="49.17212" lon="6.96991">
        <ele>268</ele>
        <time>2010-12-05T09:23:39Z</time>
      </trkpt>
      <trkpt lat="49.17212" lon="6.96993">
        <ele>268</ele>
        <time>2010-12-05T09:23:40Z</time>
      </trkpt>
      <trkpt lat="49.17211" lon="6.96994">
        <ele>268</ele>
        <time>2010-12-05T09:23:41Z</time>
      </trkpt>
      <trkpt lat="49.1721" lon="6.96997">
        <ele>268</ele>
        <time>2010-12-05T09:23:43Z</time>
      </trkpt>
      <trkpt lat="49.1721" lon="6.96999">
        <ele>268</ele>
        <time>2010-12-05T09:23:44Z</time>
      </trkpt>
      <trkpt lat="49.17209" lon="6.97002">
        <ele>268</ele>
        <time>2010-12-05T09:23:45Z</time>
      </trkpt>
      <trkpt lat="49.17208" lon="6.97004">
        <ele>268</ele>
        <time>2010-12-05T09:23:47Z</time>
      </trkpt>
      <trkpt lat="49.17207" lon="6.97007">
        <ele>268</ele>
        <time>2010-12-05T09:23:49Z</time>
      </trkpt>
      <trkpt lat="49.17207" lon="6.97009">
        <ele>268</ele>
        <time>2010-12-05T09:23:50Z</time>
      </trkpt>
      <trkpt lat="49.17206" lon="6.97011">
        <ele>268</ele>
        <time>2010-12-05T09:23:51Z</time>
      </trkpt>
      <trkpt lat="49.17205" lon="6.97012">
        <ele>268</ele>
        <time>2010-12-05T09:23:52Z</time>
      </trkpt>
      <trkpt lat="49.17204" lon="6.97015">
        <ele>268</ele>
        <time>2010-12-05T09:23:54Z</time>
      </trkpt>
      <trkpt lat="49.17204" lon="6.97017">
        <ele>268</ele>
        <time>2010-12-05T09:23:55Z</time>
      </trkpt>
      <trkpt lat="49.17203" lon="6.97019">
        <ele>268</ele>
        <time>2010-12-05T09:23:56Z</time>
      </trkpt>
      <trkpt lat="49.17202" lon="6.97021">
        <ele>268</ele>
        <time>2010-12-05T09:23:57Z</time>
      </trkpt>
      <trkpt lat="49.17201" lon="6.97023">
        <ele>268</ele>
        <time>2010-12-05T09:23:59Z</time>
      </trkpt>
      <trkpt lat="49.172" lon="6.97026">
        <ele>268</ele>
        <time>2010-12-05T09:24:01Z</time>
      </trkpt>
      <trkpt lat="49.172" lon="6.97029">
        <ele>268</ele>
        <time>2010-12-05T09:24:03Z</time>
      </trkpt>
      <trkpt lat="49.17199" lon="6.97031">
        <ele>268</ele>
        <time>2010-12-05T09:24:04Z</time>
      </trkpt>
      <trkpt lat="49.17198" lon="6.97034">
        <ele>268</ele>
        <time>2010-12-05T09:24:06Z</time>
      </trkpt>
      <trkpt lat="49.17198" lon="6.97036">
        <ele>268</ele>
        <time>2010-12-05T09:24:07Z</time>
      </trkpt>
      <trkpt lat="49.17198" lon="6.97037">
        <ele>268</ele>
        <time>2010-12-05T09:24:08Z</time>
      </trkpt>
      <trkpt lat="49.17197" lon="6.97039">
        <ele>268</ele>
        <time>2010-12-05T09:24:09Z</time>
      </trkpt>
      <trkpt lat="49.17197" lon="6.97041">
        <ele>268</ele>
        <time>2010-12-05T09:24:10Z</time>
      </trkpt>
      <trkpt lat="49.17196" lon="6.97043">
        <ele>268</ele>
        <time>2010-12-05T09:24:11Z</time>
      </trkpt>
      <trkpt lat="49.17196" lon="6.97044">
        <ele>268</ele>
        <time>2010-12-05T09:24:12Z</time>
      </trkpt>
      <trkpt lat="49.17196" lon="6.97046">
        <ele>268</ele>
        <time>2010-12-05T09:24:13Z</time>
      </trkpt>
      <trkpt lat="49.17195" lon="6.97048">
        <ele>268</ele>
        <time>2010-12-05T09:24:14Z</time>
      </trkpt>
      <trkpt lat="49.17195" lon="6.9705">
        <ele>268</ele>
        <time>2010-12-05T09:24:15Z</time>
      </trkpt>
      <trkpt lat="49.17194" lon="6.97051">
        <ele>268</ele>
        <time>2010-12-05T09:24:16Z</time>
      </trkpt>
      <trkpt lat="49.17194" lon="6.97054">
        <ele>268</ele>
        <time>2010-12-05T09:24:17Z</time>
      </trkpt>
      <trkpt lat="49.17193" lon="6.97055">
        <ele>268</ele>
        <time>2010-12-05T09:24:18Z</time>
      </trkpt>
      <trkpt lat="49.17193" lon="6.97057">
        <ele>268</ele>
        <time>2010-12-05T09:24:19Z</time>
      </trkpt>
      <trkpt lat="49.17191" lon="6.9706">
        <ele>268</ele>
        <time>2010-12-05T09:24:21Z</time>
      </trkpt>
      <trkpt lat="49.1719" lon="6.97063">
        <ele>268</ele>
        <time>2010-12-05T09:24:23Z</time>
      </trkpt>
      <trkpt lat="49.1719" lon="6.97065">
        <ele>268</ele>
        <time>2010-12-05T09:24:24Z</time>
      </trkpt>
      <trkpt lat="49.17188" lon="6.97068">
        <ele>268</ele>
        <time>2010-12-05T09:24:26Z</time>
      </trkpt>
      <trkpt lat="49.17188" lon="6.9707">
        <ele>268</ele>
        <time>2010-12-05T09:24:28Z</time>
      </trkpt>
      <trkpt lat="49.17187" lon="6.97072">
        <ele>268</ele>
        <time>2010-12-05T09:24:29Z</time>
      </trkpt>
      <trkpt lat="49.17185" lon="6.97075">
        <ele>268</ele>
        <time>2010-12-05T09:24:31Z</time>
      </trkpt>
      <trkpt lat="49.17184" lon="6.97077">
        <ele>268</ele>
        <time>2010-12-05T09:24:33Z</time>
      </trkpt>
      <trkpt lat="49.17182" lon="6.97079">
        <ele>268</ele>
        <time>2010-12-05T09:24:35Z</time>
      </trkpt>
      <trkpt lat="49.17181" lon="6.97082">
        <ele>268</ele>
        <time>2010-12-05T09:24:37Z</time>
      </trkpt>
      <trkpt lat="49.17179" lon="6.97084">
        <ele>268</ele>
        <time>2010-12-05T09:24:38Z</time>
      </trkpt>
      <trkpt lat="49.17178" lon="6.97086">
        <ele>268</ele>
        <time>2010-12-05T09:24:40Z</time>
      </trkpt>
      <trkpt lat="49.17177" lon="6.97089">
        <ele>268</ele>
        <time>2010-12-05T09:24:42Z</time>
      </trkpt>
      <trkpt lat="49.17175" lon="6.97092">
        <ele>268</ele>
        <time>2010-12-05T09:24:44Z</time>
      </trkpt>
      <trkpt lat="49.17173" lon="6.97094">
        <ele>268</ele>
        <time>2010-12-05T09:24:46Z</time>
      </trkpt>
      <trkpt lat="49.17172" lon="6.97097">
        <ele>268</ele>
        <time>2010-12-05T09:24:48Z</time>
      </trkpt>
      <trkpt lat="49.17171" lon="6.97099">
        <ele>268</ele>
        <time>2010-12-05T09:24:50Z</time>
      </trkpt>
      <trkpt lat="49.1717" lon="6.97101">
        <ele>268</ele>
        <time>2010-12-05T09:24:51Z</time>
      </trkpt>
      <trkpt lat="49.17168" lon="6.97104">
        <ele>268</ele>
        <time>2010-12-05T09:24:53Z</time>
      </trkpt>
      <trkpt lat="49.17167" lon="6.97106">
        <ele>268</ele>
        <time>2010-12-05T09:24:55Z</time>
      </trkpt>
      <trkpt lat="49.17166" lon="6.97108">
        <ele>268</ele>
        <time>2010-12-05T09:24:57Z</time>
      </trkpt>
      <trkpt lat="49.17164" lon="6.9711">
        <ele>268</ele>
        <time>2010-12-05T09:24:59Z</time>
      </trkpt>
      <trkpt lat="49.17162" lon="6.97113">
        <ele>268</ele>
        <time>2010-12-05T09:25:01Z</time>
      </trkpt>
      <trkpt lat="49.17161" lon="6.97115">
        <ele>268</ele>
        <time>2010-12-05T09:25:03Z</time>
      </trkpt>
      <trkpt lat="49.17159" lon="6.97118">
        <ele>268</ele>
        <time>2010-12-05T09:25:05Z</time>
      </trkpt>
      <trkpt lat="49.17157" lon="6.9712">
        <ele>268</ele>
        <time>2010-12-05T09:25:07Z</time>
      </trkpt>
      <trkpt lat="49.17155" lon="6.97123">
        <ele>268</ele>
        <time>2010-12-05T09:25:09Z</time>
      </trkpt>
      <trkpt lat="49.17154" lon="6.97126">
        <ele>268</ele>
        <time>2010-12-05T09:25:11Z</time>
      </trkpt>
      <trkpt lat="49.17154" lon="6.97129">
        <ele>268</ele>
        <time>2010-12-05T09:25:13Z</time>
      </trkpt>
      <trkpt lat="49.17153" lon="6.97131">
        <ele>268</ele>
        <time>2010-12-05T09:25:15Z</time>
      </trkpt>
      <trkpt lat="49.17152" lon="6.97132">
        <ele>268</ele>
        <time>2010-12-05T09:25:17Z</time>
      </trkpt>
      <trkpt lat="49.17152" lon="6.97134">
        <ele>268</ele>
        <time>2010-12-05T09:25:20Z</time>
      </trkpt>
      <trkpt lat="49.1715" lon="6.97135">
        <ele>268</ele>
        <time>2010-12-05T09:25:26Z</time>
      </trkpt>
      <trkpt lat="49.17149" lon="6.97137">
        <ele>270</ele>
        <time>2010-12-05T09:25:41Z</time>
      </trkpt>
      <trkpt lat="49.17147" lon="6.97139">
        <ele>270</ele>
        <time>2010-12-05T09:25:43Z</time>
      </trkpt>
      <trkpt lat="49.17144" lon="6.97141">
        <ele>270</ele>
        <time>2010-12-05T09:25:45Z</time>
      </trkpt>
      <trkpt lat="49.17143" lon="6.97142">
        <ele>270</ele>
        <time>2010-12-05T09:25:46Z</time>
      </trkpt>
      <trkpt lat="49.17141" lon="6.97143">
        <ele>270</ele>
        <time>2010-12-05T09:25:48Z</time>
      </trkpt>
      <trkpt lat="49.1714" lon="6.97145">
        <ele>270</ele>
        <time>2010-12-05T09:25:50Z</time>
      </trkpt>
      <trkpt lat="49.17138" lon="6.97146">
        <ele>270</ele>
        <time>2010-12-05T09:25:52Z</time>
      </trkpt>
      <trkpt lat="49.17137" lon="6.97147">
        <ele>270</ele>
        <time>2010-12-05T09:25:53Z</time>
      </trkpt>
      <trkpt lat="49.17136" lon="6.97148">
        <ele>270</ele>
        <time>2010-12-05T09:25:54Z</time>
      </trkpt>
      <trkpt lat="49.17134" lon="6.9715">
        <ele>270</ele>
        <time>2010-12-05T09:25:56Z</time>
      </trkpt>
      <trkpt lat="49.17133" lon="6.97152">
        <ele>270</ele>
        <time>2010-12-05T09:25:58Z</time>
      </trkpt>
      <trkpt lat="49.17131" lon="6.97154">
        <ele>270</ele>
        <time>2010-12-05T09:26:00Z</time>
      </trkpt>
      <trkpt lat="49.17128" lon="6.97157">
        <ele>270</ele>
        <time>2010-12-05T09:26:02Z</time>
      </trkpt>
      <trkpt lat="49.17127" lon="6.97158">
        <ele>270</ele>
        <time>2010-12-05T09:26:03Z</time>
      </trkpt>
      <trkpt lat="49.17125" lon="6.9716">
        <ele>270</ele>
        <time>2010-12-05T09:26:05Z</time>
      </trkpt>
      <trkpt lat="49.17124" lon="6.97161">
        <ele>270</ele>
        <time>2010-12-05T09:26:06Z</time>
      </trkpt>
      <trkpt lat="49.17122" lon="6.97163">
        <ele>270</ele>
        <time>2010-12-05T09:26:08Z</time>
      </trkpt>
      <trkpt lat="49.1712" lon="6.97166">
        <ele>269</ele>
        <time>2010-12-05T09:26:10Z</time>
      </trkpt>
      <trkpt lat="49.1712" lon="6.97167">
        <ele>269</ele>
        <time>2010-12-05T09:26:11Z</time>
      </trkpt>
      <trkpt lat="49.17119" lon="6.97169">
        <ele>269</ele>
        <time>2010-12-05T09:26:12Z</time>
      </trkpt>
      <trkpt lat="49.17117" lon="6.97171">
        <ele>269</ele>
        <time>2010-12-05T09:26:13Z</time>
      </trkpt>
      <trkpt lat="49.17115" lon="6.97174">
        <ele>269</ele>
        <time>2010-12-05T09:26:15Z</time>
      </trkpt>
      <trkpt lat="49.17114" lon="6.97175">
        <ele>269</ele>
        <time>2010-12-05T09:26:16Z</time>
      </trkpt>
      <trkpt lat="49.17112" lon="6.97178">
        <ele>269</ele>
        <time>2010-12-05T09:26:18Z</time>
      </trkpt>
      <trkpt lat="49.17111" lon="6.97179">
        <ele>269</ele>
        <time>2010-12-05T09:26:19Z</time>
      </trkpt>
      <trkpt lat="49.1711" lon="6.97181">
        <ele>269</ele>
        <time>2010-12-05T09:26:20Z</time>
      </trkpt>
      <trkpt lat="49.17109" lon="6.97182">
        <ele>269</ele>
        <time>2010-12-05T09:26:21Z</time>
      </trkpt>
      <trkpt lat="49.17107" lon="6.97184">
        <ele>269</ele>
        <time>2010-12-05T09:26:22Z</time>
      </trkpt>
      <trkpt lat="49.17105" lon="6.97186">
        <ele>269</ele>
        <time>2010-12-05T09:26:24Z</time>
      </trkpt>
      <trkpt lat="49.17104" lon="6.97189">
        <ele>269</ele>
        <time>2010-12-05T09:26:26Z</time>
      </trkpt>
      <trkpt lat="49.17103" lon="6.97191">
        <ele>269</ele>
        <time>2010-12-05T09:26:27Z</time>
      </trkpt>
      <trkpt lat="49.17101" lon="6.97193">
        <ele>269</ele>
        <time>2010-12-05T09:26:29Z</time>
      </trkpt>
      <trkpt lat="49.17099" lon="6.97195">
        <ele>269</ele>
        <time>2010-12-05T09:26:31Z</time>
      </trkpt>
      <trkpt lat="49.17097" lon="6.97198">
        <ele>269</ele>
        <time>2010-12-05T09:26:33Z</time>
      </trkpt>
      <trkpt lat="49.17095" lon="6.972">
        <ele>269</ele>
        <time>2010-12-05T09:26:35Z</time>
      </trkpt>
      <trkpt lat="49.17093" lon="6.97203">
        <ele>269</ele>
        <time>2010-12-05T09:26:37Z</time>
      </trkpt>
      <trkpt lat="49.17092" lon="6.97205">
        <ele>269</ele>
        <time>2010-12-05T09:26:39Z</time>
      </trkpt>
      <trkpt lat="49.1709" lon="6.97207">
        <ele>269</ele>
        <time>2010-12-05T09:26:41Z</time>
      </trkpt>
      <trkpt lat="49.17088" lon="6.9721">
        <ele>269</ele>
        <time>2010-12-05T09:26:43Z</time>
      </trkpt>
      <trkpt lat="49.17087" lon="6.97212">
        <ele>269</ele>
        <time>2010-12-05T09:26:44Z</time>
      </trkpt>
      <trkpt lat="49.17085" lon="6.97215">
        <ele>268</ele>
        <time>2010-12-05T09:26:46Z</time>
      </trkpt>
      <trkpt lat="49.17083" lon="6.97217">
        <ele>268</ele>
        <time>2010-12-05T09:26:48Z</time>
      </trkpt>
      <trkpt lat="49.17083" lon="6.97219">
        <ele>268</ele>
        <time>2010-12-05T09:26:49Z</time>
      </trkpt>
      <trkpt lat="49.17081" lon="6.97221">
        <ele>267</ele>
        <time>2010-12-05T09:26:51Z</time>
      </trkpt>
      <trkpt lat="49.1708" lon="6.97224">
        <ele>267</ele>
        <time>2010-12-05T09:26:53Z</time>
      </trkpt>
      <trkpt lat="49.17078" lon="6.97226">
        <ele>267</ele>
        <time>2010-12-05T09:26:55Z</time>
      </trkpt>
      <trkpt lat="49.17076" lon="6.97228">
        <ele>266</ele>
        <time>2010-12-05T09:26:57Z</time>
      </trkpt>
      <trkpt lat="49.17075" lon="6.9723">
        <ele>266</ele>
        <time>2010-12-05T09:26:58Z</time>
      </trkpt>
      <trkpt lat="49.17074" lon="6.97232">
        <ele>266</ele>
        <time>2010-12-05T09:26:59Z</time>
      </trkpt>
      <trkpt lat="49.17072" lon="6.97234">
        <ele>265</ele>
        <time>2010-12-05T09:27:01Z</time>
      </trkpt>
      <trkpt lat="49.1707" lon="6.97236">
        <ele>265</ele>
        <time>2010-12-05T09:27:03Z</time>
      </trkpt>
      <trkpt lat="49.17069" lon="6.97239">
        <ele>265</ele>
        <time>2010-12-05T09:27:05Z</time>
      </trkpt>
      <trkpt lat="49.17069" lon="6.9724">
        <ele>265</ele>
        <time>2010-12-05T09:27:06Z</time>
      </trkpt>
      <trkpt lat="49.17067" lon="6.97242">
        <ele>265</ele>
        <time>2010-12-05T09:27:08Z</time>
      </trkpt>
      <trkpt lat="49.17066" lon="6.97245">
        <ele>265</ele>
        <time>2010-12-05T09:27:10Z</time>
      </trkpt>
      <trkpt lat="49.17064" lon="6.97247">
        <ele>264</ele>
        <time>2010-12-05T09:27:12Z</time>
      </trkpt>
      <trkpt lat="49.17062" lon="6.97249">
        <ele>264</ele>
        <time>2010-12-05T09:27:14Z</time>
      </trkpt>
      <trkpt lat="49.1706" lon="6.97251">
        <ele>264</ele>
        <time>2010-12-05T09:27:16Z</time>
      </trkpt>
      <trkpt lat="49.17058" lon="6.97254">
        <ele>264</ele>
        <time>2010-12-05T09:27:18Z</time>
      </trkpt>
      <trkpt lat="49.17057" lon="6.97257">
        <ele>264</ele>
        <time>2010-12-05T09:27:20Z</time>
      </trkpt>
      <trkpt lat="49.17055" lon="6.97259">
        <ele>264</ele>
        <time>2010-12-05T09:27:22Z</time>
      </trkpt>
      <trkpt lat="49.17054" lon="6.97261">
        <ele>264</ele>
        <time>2010-12-05T09:27:24Z</time>
      </trkpt>
      <trkpt lat="49.17052" lon="6.97263">
        <ele>264</ele>
        <time>2010-12-05T09:27:26Z</time>
      </trkpt>
      <trkpt lat="49.17051" lon="6.97264">
        <ele>264</ele>
        <time>2010-12-05T09:27:28Z</time>
      </trkpt>
      <trkpt lat="49.17049" lon="6.97267">
        <ele>264</ele>
        <time>2010-12-05T09:27:30Z</time>
      </trkpt>
      <trkpt lat="49.17048" lon="6.97269">
        <ele>264</ele>
        <time>2010-12-05T09:27:32Z</time>
      </trkpt>
      <trkpt lat="49.17046" lon="6.97271">
        <ele>264</ele>
        <time>2010-12-05T09:27:34Z</time>
      </trkpt>
      <trkpt lat="49.17044" lon="6.97274">
        <ele>264</ele>
        <time>2010-12-05T09:27:36Z</time>
      </trkpt>
      <trkpt lat="49.17043" lon="6.97276">
        <ele>264</ele>
        <time>2010-12-05T09:27:38Z</time>
      </trkpt>
      <trkpt lat="49.17041" lon="6.97279">
        <ele>264</ele>
        <time>2010-12-05T09:27:41Z</time>
      </trkpt>
      <trkpt lat="49.17039" lon="6.97282">
        <ele>264</ele>
        <time>2010-12-05T09:27:43Z</time>
      </trkpt>
      <trkpt lat="49.17038" lon="6.97284">
        <ele>264</ele>
        <time>2010-12-05T09:27:45Z</time>
      </trkpt>
      <trkpt lat="49.17037" lon="6.97286">
        <ele>264</ele>
        <time>2010-12-05T09:27:47Z</time>
      </trkpt>
      <trkpt lat="49.17035" lon="6.97289">
        <ele>264</ele>
        <time>2010-12-05T09:27:49Z</time>
      </trkpt>
      <trkpt lat="49.17033" lon="6.97292">
        <ele>264</ele>
        <time>2010-12-05T09:27:51Z</time>
      </trkpt>
      <trkpt lat="49.17032" lon="6.97293">
        <ele>264</ele>
        <time>2010-12-05T09:27:52Z</time>
      </trkpt>
      <trkpt lat="49.17031" lon="6.97295">
        <ele>264</ele>
        <time>2010-12-05T09:27:54Z</time>
      </trkpt>
      <trkpt lat="49.17029" lon="6.97298">
        <ele>264</ele>
        <time>2010-12-05T09:27:56Z</time>
      </trkpt>
      <trkpt lat="49.17028" lon="6.973">
        <ele>264</ele>
        <time>2010-12-05T09:27:58Z</time>
      </trkpt>
      <trkpt lat="49.17027" lon="6.97302">
        <ele>264</ele>
        <time>2010-12-05T09:28:00Z</time>
      </trkpt>
      <trkpt lat="49.17025" lon="6.97304">
        <ele>264</ele>
        <time>2010-12-05T09:28:02Z</time>
      </trkpt>
      <trkpt lat="49.17023" lon="6.97307">
        <ele>264</ele>
        <time>2010-12-05T09:28:04Z</time>
      </trkpt>
      <trkpt lat="49.17022" lon="6.97309">
        <ele>264</ele>
        <time>2010-12-05T09:28:05Z</time>
      </trkpt>
      <trkpt lat="49.17021" lon="6.97311">
        <ele>264</ele>
        <time>2010-12-05T09:28:06Z</time>
      </trkpt>
      <trkpt lat="49.17019" lon="6.97314">
        <ele>264</ele>
        <time>2010-12-05T09:28:08Z</time>
      </trkpt>
      <trkpt lat="49.17017" lon="6.97316">
        <ele>264</ele>
        <time>2010-12-05T09:28:10Z</time>
      </trkpt>
      <trkpt lat="49.17016" lon="6.97319">
        <ele>264</ele>
        <time>2010-12-05T09:28:12Z</time>
      </trkpt>
      <trkpt lat="49.17014" lon="6.97322">
        <ele>264</ele>
        <time>2010-12-05T09:28:14Z</time>
      </trkpt>
      <trkpt lat="49.17012" lon="6.97325">
        <ele>264</ele>
        <time>2010-12-05T09:28:16Z</time>
      </trkpt>
      <trkpt lat="49.17011" lon="6.97327">
        <ele>264</ele>
        <time>2010-12-05T09:28:17Z</time>
      </trkpt>
      <trkpt lat="49.17009" lon="6.97329">
        <ele>264</ele>
        <time>2010-12-05T09:28:19Z</time>
      </trkpt>
      <trkpt lat="49.17008" lon="6.9733">
        <ele>264</ele>
        <time>2010-12-05T09:28:21Z</time>
      </trkpt>
      <trkpt lat="49.17008" lon="6.97332">
        <ele>265</ele>
        <time>2010-12-05T09:28:23Z</time>
      </trkpt>
      <trkpt lat="49.17008" lon="6.97335">
        <ele>265</ele>
        <time>2010-12-05T09:28:25Z</time>
      </trkpt>
      <trkpt lat="49.17006" lon="6.97337">
        <ele>265</ele>
        <time>2010-12-05T09:28:27Z</time>
      </trkpt>
      <trkpt lat="49.17005" lon="6.97338">
        <ele>265</ele>
        <time>2010-12-05T09:28:29Z</time>
      </trkpt>
      <trkpt lat="49.17004" lon="6.97341">
        <ele>265</ele>
        <time>2010-12-05T09:28:31Z</time>
      </trkpt>
      <trkpt lat="49.17002" lon="6.97343">
        <ele>265</ele>
        <time>2010-12-05T09:28:33Z</time>
      </trkpt>
      <trkpt lat="49.17001" lon="6.97345">
        <ele>265</ele>
        <time>2010-12-05T09:28:35Z</time>
      </trkpt>
      <trkpt lat="49.17" lon="6.97347">
        <ele>265</ele>
        <time>2010-12-05T09:28:37Z</time>
      </trkpt>
      <trkpt lat="49.17" lon="6.9735">
        <ele>265</ele>
        <time>2010-12-05T09:28:39Z</time>
      </trkpt>
      <trkpt lat="49.16997" lon="6.97353">
        <ele>265</ele>
        <time>2010-12-05T09:28:41Z</time>
      </trkpt>
      <trkpt lat="49.16995" lon="6.97355">
        <ele>265</ele>
        <time>2010-12-05T09:28:43Z</time>
      </trkpt>
      <trkpt lat="49.16994" lon="6.97358">
        <ele>265</ele>
        <time>2010-12-05T09:28:45Z</time>
      </trkpt>
      <trkpt lat="49.16992" lon="6.97361">
        <ele>265</ele>
        <time>2010-12-05T09:28:47Z</time>
      </trkpt>
      <trkpt lat="49.16991" lon="6.97362">
        <ele>265</ele>
        <time>2010-12-05T09:28:48Z</time>
      </trkpt>
      <trkpt lat="49.16989" lon="6.97365">
        <ele>265</ele>
        <time>2010-12-05T09:28:50Z</time>
      </trkpt>
      <trkpt lat="49.16988" lon="6.97367">
        <ele>265</ele>
        <time>2010-12-05T09:28:52Z</time>
      </trkpt>
      <trkpt lat="49.16986" lon="6.97369">
        <ele>265</ele>
        <time>2010-12-05T09:28:53Z</time>
      </trkpt>
      <trkpt lat="49.16985" lon="6.97371">
        <ele>265</ele>
        <time>2010-12-05T09:28:54Z</time>
      </trkpt>
      <trkpt lat="49.16985" lon="6.97373">
        <ele>265</ele>
        <time>2010-12-05T09:28:55Z</time>
      </trkpt>
      <trkpt lat="49.16983" lon="6.97376">
        <ele>265</ele>
        <time>2010-12-05T09:28:57Z</time>
      </trkpt>
      <trkpt lat="49.16982" lon="6.97377">
        <ele>265</ele>
        <time>2010-12-05T09:28:58Z</time>
      </trkpt>
      <trkpt lat="49.16981" lon="6.97379">
        <ele>265</ele>
        <time>2010-12-05T09:28:59Z</time>
      </trkpt>
      <trkpt lat="49.1698" lon="6.97381">
        <ele>265</ele>
        <time>2010-12-05T09:29:01Z</time>
      </trkpt>
      <trkpt lat="49.1698" lon="6.97384">
        <ele>265</ele>
        <time>2010-12-05T09:29:03Z</time>
      </trkpt>
      <trkpt lat="49.16979" lon="6.97386">
        <ele>265</ele>
        <time>2010-12-05T09:29:04Z</time>
      </trkpt>
      <trkpt lat="49.16978" lon="6.97387">
        <ele>265</ele>
        <time>2010-12-05T09:29:05Z</time>
      </trkpt>
      <trkpt lat="49.16978" lon="6.97389">
        <ele>265</ele>
        <time>2010-12-05T09:29:06Z</time>
      </trkpt>
      <trkpt lat="49.16977" lon="6.97391">
        <ele>265</ele>
        <time>2010-12-05T09:29:07Z</time>
      </trkpt>
      <trkpt lat="49.16976" lon="6.97394">
        <ele>265</ele>
        <time>2010-12-05T09:29:09Z</time>
      </trkpt>
      <trkpt lat="49.16975" lon="6.97397">
        <ele>265</ele>
        <time>2010-12-05T09:29:11Z</time>
      </trkpt>
      <trkpt lat="49.16973" lon="6.974">
        <ele>265</ele>
        <time>2010-12-05T09:29:13Z</time>
      </trkpt>
      <trkpt lat="49.16972" lon="6.97402">
        <ele>265</ele>
        <time>2010-12-05T09:29:14Z</time>
      </trkpt>
      <trkpt lat="49.16971" lon="6.97405">
        <ele>265</ele>
        <time>2010-12-05T09:29:16Z</time>
      </trkpt>
      <trkpt lat="49.16969" lon="6.97408">
        <ele>265</ele>
        <time>2010-12-05T09:29:18Z</time>
      </trkpt>
      <trkpt lat="49.16968" lon="6.97411">
        <ele>265</ele>
        <time>2010-12-05T09:29:20Z</time>
      </trkpt>
      <trkpt lat="49.16967" lon="6.97413">
        <ele>265</ele>
        <time>2010-12-05T09:29:21Z</time>
      </trkpt>
      <trkpt lat="49.16967" lon="6.97415">
        <ele>265</ele>
        <time>2010-12-05T09:29:22Z</time>
      </trkpt>
      <trkpt lat="49.16965" lon="6.97418">
        <ele>265</ele>
        <time>2010-12-05T09:29:24Z</time>
      </trkpt>
      <trkpt lat="49.16963" lon="6.9742">
        <ele>265</ele>
        <time>2010-12-05T09:29:26Z</time>
      </trkpt>
      <trkpt lat="49.16962" lon="6.97421">
        <ele>265</ele>
        <time>2010-12-05T09:29:27Z</time>
      </trkpt>
      <trkpt lat="49.16961" lon="6.97421">
        <ele>265</ele>
        <time>2010-12-05T09:29:28Z</time>
      </trkpt>
      <trkpt lat="49.16959" lon="6.97422">
        <ele>265</ele>
        <time>2010-12-05T09:29:30Z</time>
      </trkpt>
      <trkpt lat="49.16957" lon="6.97423">
        <ele>265</ele>
        <time>2010-12-05T09:29:32Z</time>
      </trkpt>
      <trkpt lat="49.16956" lon="6.97425">
        <ele>265</ele>
        <time>2010-12-05T09:29:34Z</time>
      </trkpt>
      <trkpt lat="49.16954" lon="6.97426">
        <ele>265</ele>
        <time>2010-12-05T09:29:35Z</time>
      </trkpt>
      <trkpt lat="49.16953" lon="6.97427">
        <ele>265</ele>
        <time>2010-12-05T09:29:36Z</time>
      </trkpt>
      <trkpt lat="49.16952" lon="6.97428">
        <ele>265</ele>
        <time>2010-12-05T09:29:37Z</time>
      </trkpt>
      <trkpt lat="49.1695" lon="6.9743">
        <ele>265</ele>
        <time>2010-12-05T09:29:39Z</time>
      </trkpt>
      <trkpt lat="49.16948" lon="6.97431">
        <ele>265</ele>
        <time>2010-12-05T09:29:41Z</time>
      </trkpt>
      <trkpt lat="49.16947" lon="6.97433">
        <ele>265</ele>
        <time>2010-12-05T09:29:43Z</time>
      </trkpt>
      <trkpt lat="49.16946" lon="6.97436">
        <ele>265</ele>
        <time>2010-12-05T09:29:45Z</time>
      </trkpt>
      <trkpt lat="49.16947" lon="6.97438">
        <ele>265</ele>
        <time>2010-12-05T09:29:47Z</time>
      </trkpt>
      <trkpt lat="49.16947" lon="6.9744">
        <ele>265</ele>
        <time>2010-12-05T09:29:48Z</time>
      </trkpt>
      <trkpt lat="49.16948" lon="6.97443">
        <ele>265</ele>
        <time>2010-12-05T09:29:50Z</time>
      </trkpt>
      <trkpt lat="49.16949" lon="6.97445">
        <ele>265</ele>
        <time>2010-12-05T09:29:52Z</time>
      </trkpt>
      <trkpt lat="49.16949" lon="6.97448">
        <ele>265</ele>
        <time>2010-12-05T09:29:54Z</time>
      </trkpt>
      <trkpt lat="49.16951" lon="6.9745">
        <ele>265</ele>
        <time>2010-12-05T09:29:56Z</time>
      </trkpt>
      <trkpt lat="49.16951" lon="6.97452">
        <ele>265</ele>
        <time>2010-12-05T09:29:58Z</time>
      </trkpt>
      <trkpt lat="49.16952" lon="6.97455">
        <ele>265</ele>
        <time>2010-12-05T09:30:00Z</time>
      </trkpt>
      <trkpt lat="49.16952" lon="6.97458">
        <ele>265</ele>
        <time>2010-12-05T09:30:02Z</time>
      </trkpt>
      <trkpt lat="49.16953" lon="6.9746">
        <ele>265</ele>
        <time>2010-12-05T09:30:04Z</time>
      </trkpt>
      <trkpt lat="49.16954" lon="6.97463">
        <ele>265</ele>
        <time>2010-12-05T09:30:06Z</time>
      </trkpt>
      <trkpt lat="49.16956" lon="6.97465">
        <ele>265</ele>
        <time>2010-12-05T09:30:08Z</time>
      </trkpt>
      <trkpt lat="49.16956" lon="6.97468">
        <ele>265</ele>
        <time>2010-12-05T09:30:10Z</time>
      </trkpt>
      <trkpt lat="49.16957" lon="6.97471">
        <ele>265</ele>
        <time>2010-12-05T09:30:12Z</time>
      </trkpt>
      <trkpt lat="49.16957" lon="6.97474">
        <ele>265</ele>
        <time>2010-12-05T09:30:14Z</time>
      </trkpt>
      <trkpt lat="49.16959" lon="6.97477">
        <ele>266</ele>
        <time>2010-12-05T09:30:16Z</time>
      </trkpt>
      <trkpt lat="49.1696" lon="6.97479">
        <ele>266</ele>
        <time>2010-12-05T09:30:18Z</time>
      </trkpt>
      <trkpt lat="49.1696" lon="6.97481">
        <ele>266</ele>
        <time>2010-12-05T09:30:19Z</time>
      </trkpt>
      <trkpt lat="49.16961" lon="6.97484">
        <ele>267</ele>
        <time>2010-12-05T09:30:21Z</time>
      </trkpt>
      <trkpt lat="49.16961" lon="6.97487">
        <ele>267</ele>
        <time>2010-12-05T09:30:23Z</time>
      </trkpt>
      <trkpt lat="49.16962" lon="6.97488">
        <ele>267</ele>
        <time>2010-12-05T09:30:24Z</time>
      </trkpt>
      <trkpt lat="49.16962" lon="6.9749">
        <ele>267</ele>
        <time>2010-12-05T09:30:25Z</time>
      </trkpt>
      <trkpt lat="49.16963" lon="6.97493">
        <ele>267</ele>
        <time>2010-12-05T09:30:27Z</time>
      </trkpt>
      <trkpt lat="49.16964" lon="6.97496">
        <ele>267</ele>
        <time>2010-12-05T09:30:29Z</time>
      </trkpt>
      <trkpt lat="49.16964" lon="6.97497">
        <ele>267</ele>
        <time>2010-12-05T09:30:30Z</time>
      </trkpt>
      <trkpt lat="49.16964" lon="6.975">
        <ele>267</ele>
        <time>2010-12-05T09:30:32Z</time>
      </trkpt>
      <trkpt lat="49.16964" lon="6.97503">
        <ele>267</ele>
        <time>2010-12-05T09:30:34Z</time>
      </trkpt>
      <trkpt lat="49.16964" lon="6.97505">
        <ele>267</ele>
        <time>2010-12-05T09:30:35Z</time>
      </trkpt>
      <trkpt lat="49.16964" lon="6.97507">
        <ele>268</ele>
        <time>2010-12-05T09:30:37Z</time>
      </trkpt>
      <trkpt lat="49.16964" lon="6.97508">
        <ele>269</ele>
        <time>2010-12-05T09:30:42Z</time>
      </trkpt>
      <trkpt lat="49.16965" lon="6.97511">
        <ele>269</ele>
        <time>2010-12-05T09:30:44Z</time>
      </trkpt>
      <trkpt lat="49.16965" lon="6.97513">
        <ele>269</ele>
        <time>2010-12-05T09:30:46Z</time>
      </trkpt>
      <trkpt lat="49.16965" lon="6.97516">
        <ele>269</ele>
        <time>2010-12-05T09:30:48Z</time>
      </trkpt>
      <trkpt lat="49.16965" lon="6.97519">
        <ele>270</ele>
        <time>2010-12-05T09:30:50Z</time>
      </trkpt>
      <trkpt lat="49.16965" lon="6.97522">
        <ele>270</ele>
        <time>2010-12-05T09:30:52Z</time>
      </trkpt>
      <trkpt lat="49.16966" lon="6.97524">
        <ele>270</ele>
        <time>2010-12-05T09:30:54Z</time>
      </trkpt>
      <trkpt lat="49.16966" lon="6.97527">
        <ele>270</ele>
        <time>2010-12-05T09:30:56Z</time>
      </trkpt>
      <trkpt lat="49.16966" lon="6.97529">
        <ele>270</ele>
        <time>2010-12-05T09:30:58Z</time>
      </trkpt>
      <trkpt lat="49.16967" lon="6.97531">
        <ele>271</ele>
        <time>2010-12-05T09:30:59Z</time>
      </trkpt>
      <trkpt lat="49.16967" lon="6.97534">
        <ele>271</ele>
        <time>2010-12-05T09:31:01Z</time>
      </trkpt>
      <trkpt lat="49.16967" lon="6.97537">
        <ele>271</ele>
        <time>2010-12-05T09:31:03Z</time>
      </trkpt>
      <trkpt lat="49.16968" lon="6.97539">
        <ele>271</ele>
        <time>2010-12-05T09:31:05Z</time>
      </trkpt>
      <trkpt lat="49.16969" lon="6.97542">
        <ele>271</ele>
        <time>2010-12-05T09:31:07Z</time>
      </trkpt>
      <trkpt lat="49.16969" lon="6.97544">
        <ele>272</ele>
        <time>2010-12-05T09:31:09Z</time>
      </trkpt>
      <trkpt lat="49.1697" lon="6.97547">
        <ele>272</ele>
        <time>2010-12-05T09:31:11Z</time>
      </trkpt>
      <trkpt lat="49.1697" lon="6.9755">
        <ele>272</ele>
        <time>2010-12-05T09:31:13Z</time>
      </trkpt>
      <trkpt lat="49.1697" lon="6.97552">
        <ele>272</ele>
        <time>2010-12-05T09:31:15Z</time>
      </trkpt>
      <trkpt lat="49.1697" lon="6.97555">
        <ele>273</ele>
        <time>2010-12-05T09:31:17Z</time>
      </trkpt>
      <trkpt lat="49.16971" lon="6.97558">
        <ele>273</ele>
        <time>2010-12-05T09:31:19Z</time>
      </trkpt>
      <trkpt lat="49.16971" lon="6.97561">
        <ele>274</ele>
        <time>2010-12-05T09:31:21Z</time>
      </trkpt>
      <trkpt lat="49.16971" lon="6.97563">
        <ele>274</ele>
        <time>2010-12-05T09:31:23Z</time>
      </trkpt>
      <trkpt lat="49.16971" lon="6.97565">
        <ele>274</ele>
        <time>2010-12-05T09:31:25Z</time>
      </trkpt>
      <trkpt lat="49.16972" lon="6.97569">
        <ele>274</ele>
        <time>2010-12-05T09:31:27Z</time>
      </trkpt>
      <trkpt lat="49.16972" lon="6.97571">
        <ele>274</ele>
        <time>2010-12-05T09:31:29Z</time>
      </trkpt>
      <trkpt lat="49.16973" lon="6.97574">
        <ele>275</ele>
        <time>2010-12-05T09:31:31Z</time>
      </trkpt>
      <trkpt lat="49.16973" lon="6.97576">
        <ele>275</ele>
        <time>2010-12-05T09:31:33Z</time>
      </trkpt>
      <trkpt lat="49.16974" lon="6.97579">
        <ele>275</ele>
        <time>2010-12-05T09:31:35Z</time>
      </trkpt>
      <trkpt lat="49.16975" lon="6.97582">
        <ele>276</ele>
        <time>2010-12-05T09:31:37Z</time>
      </trkpt>
      <trkpt lat="49.16976" lon="6.97584">
        <ele>276</ele>
        <time>2010-12-05T09:31:39Z</time>
      </trkpt>
      <trkpt lat="49.16976" lon="6.97587">
        <ele>277</ele>
        <time>2010-12-05T09:31:41Z</time>
      </trkpt>
      <trkpt lat="49.16977" lon="6.97589">
        <ele>277</ele>
        <time>2010-12-05T09:31:43Z</time>
      </trkpt>
      <trkpt lat="49.16978" lon="6.97592">
        <ele>278</ele>
        <time>2010-12-05T09:31:45Z</time>
      </trkpt>
      <trkpt lat="49.16979" lon="6.97594">
        <ele>278</ele>
        <time>2010-12-05T09:31:47Z</time>
      </trkpt>
      <trkpt lat="49.1698" lon="6.97597">
        <ele>279</ele>
        <time>2010-12-05T09:31:49Z</time>
      </trkpt>
      <trkpt lat="49.16981" lon="6.97599">
        <ele>279</ele>
        <time>2010-12-05T09:31:51Z</time>
      </trkpt>
      <trkpt lat="49.16982" lon="6.97602">
        <ele>279</ele>
        <time>2010-12-05T09:31:53Z</time>
      </trkpt>
      <trkpt lat="49.16983" lon="6.97604">
        <ele>280</ele>
        <time>2010-12-05T09:31:55Z</time>
      </trkpt>
      <trkpt lat="49.16983" lon="6.97607">
        <ele>280</ele>
        <time>2010-12-05T09:31:57Z</time>
      </trkpt>
      <trkpt lat="49.16984" lon="6.97609">
        <ele>280</ele>
        <time>2010-12-05T09:31:59Z</time>
      </trkpt>
      <trkpt lat="49.16985" lon="6.9761">
        <ele>280</ele>
        <time>2010-12-05T09:32:01Z</time>
      </trkpt>
      <trkpt lat="49.16986" lon="6.97612">
        <ele>280</ele>
        <time>2010-12-05T09:32:03Z</time>
      </trkpt>
      <trkpt lat="49.16986" lon="6.97615">
        <ele>280</ele>
        <time>2010-12-05T09:32:05Z</time>
      </trkpt>
      <trkpt lat="49.16987" lon="6.97617">
        <ele>280</ele>
        <time>2010-12-05T09:32:07Z</time>
      </trkpt>
      <trkpt lat="49.16987" lon="6.97619">
        <ele>280</ele>
        <time>2010-12-05T09:32:09Z</time>
      </trkpt>
      <trkpt lat="49.16988" lon="6.97621">
        <ele>281</ele>
        <time>2010-12-05T09:32:11Z</time>
      </trkpt>
      <trkpt lat="49.16988" lon="6.97623">
        <ele>281</ele>
        <time>2010-12-05T09:32:13Z</time>
      </trkpt>
      <trkpt lat="49.16988" lon="6.97626">
        <ele>281</ele>
        <time>2010-12-05T09:32:15Z</time>
      </trkpt>
      <trkpt lat="49.16989" lon="6.97628">
        <ele>282</ele>
        <time>2010-12-05T09:32:17Z</time>
      </trkpt>
      <trkpt lat="49.1699" lon="6.9763">
        <ele>282</ele>
        <time>2010-12-05T09:32:19Z</time>
      </trkpt>
      <trkpt lat="49.16991" lon="6.97632">
        <ele>282</ele>
        <time>2010-12-05T09:32:21Z</time>
      </trkpt>
      <trkpt lat="49.16991" lon="6.97635">
        <ele>282</ele>
        <time>2010-12-05T09:32:23Z</time>
      </trkpt>
      <trkpt lat="49.16992" lon="6.97637">
        <ele>282</ele>
        <time>2010-12-05T09:32:25Z</time>
      </trkpt>
      <trkpt lat="49.16993" lon="6.97639">
        <ele>282</ele>
        <time>2010-12-05T09:32:27Z</time>
      </trkpt>
      <trkpt lat="49.16993" lon="6.97641">
        <ele>282</ele>
        <time>2010-12-05T09:32:29Z</time>
      </trkpt>
      <trkpt lat="49.16994" lon="6.97644">
        <ele>283</ele>
        <time>2010-12-05T09:32:31Z</time>
      </trkpt>
      <trkpt lat="49.16994" lon="6.97646">
        <ele>283</ele>
        <time>2010-12-05T09:32:33Z</time>
      </trkpt>
      <trkpt lat="49.16994" lon="6.97648">
        <ele>283</ele>
        <time>2010-12-05T09:32:35Z</time>
      </trkpt>
      <trkpt lat="49.16995" lon="6.97651">
        <ele>283</ele>
        <time>2010-12-05T09:32:37Z</time>
      </trkpt>
      <trkpt lat="49.16996" lon="6.97653">
        <ele>283</ele>
        <time>2010-12-05T09:32:39Z</time>
      </trkpt>
      <trkpt lat="49.16996" lon="6.97655">
        <ele>283</ele>
        <time>2010-12-05T09:32:41Z</time>
      </trkpt>
      <trkpt lat="49.16997" lon="6.97657">
        <ele>283</ele>
        <time>2010-12-05T09:32:43Z</time>
      </trkpt>
      <trkpt lat="49.16998" lon="6.97659">
        <ele>283</ele>
        <time>2010-12-05T09:32:45Z</time>
      </trkpt>
      <trkpt lat="49.16999" lon="6.97661">
        <ele>283</ele>
        <time>2010-12-05T09:32:47Z</time>
      </trkpt>
      <trkpt lat="49.16999" lon="6.97663">
        <ele>283</ele>
        <time>2010-12-05T09:32:49Z</time>
      </trkpt>
      <trkpt lat="49.17" lon="6.97665">
        <ele>283</ele>
        <time>2010-12-05T09:32:51Z</time>
      </trkpt>
      <trkpt lat="49.17" lon="6.97668">
        <ele>283</ele>
        <time>2010-12-05T09:32:53Z</time>
      </trkpt>
      <trkpt lat="49.17" lon="6.9767">
        <ele>284</ele>
        <time>2010-12-05T09:32:54Z</time>
      </trkpt>
      <trkpt lat="49.17001" lon="6.97672">
        <ele>284</ele>
        <time>2010-12-05T09:32:56Z</time>
      </trkpt>
      <trkpt lat="49.17003" lon="6.97675">
        <ele>285</ele>
        <time>2010-12-05T09:32:58Z</time>
      </trkpt>
      <trkpt lat="49.17004" lon="6.97678">
        <ele>285</ele>
        <time>2010-12-05T09:33:00Z</time>
      </trkpt>
      <trkpt lat="49.17004" lon="6.9768">
        <ele>285</ele>
        <time>2010-12-05T09:33:02Z</time>
      </trkpt>
      <trkpt lat="49.17005" lon="6.97683">
        <ele>285</ele>
        <time>2010-12-05T09:33:04Z</time>
      </trkpt>
      <trkpt lat="49.17006" lon="6.97685">
        <ele>286</ele>
        <time>2010-12-05T09:33:06Z</time>
      </trkpt>
      <trkpt lat="49.17006" lon="6.97687">
        <ele>286</ele>
        <time>2010-12-05T09:33:07Z</time>
      </trkpt>
      <trkpt lat="49.17007" lon="6.9769">
        <ele>286</ele>
        <time>2010-12-05T09:33:09Z</time>
      </trkpt>
      <trkpt lat="49.17007" lon="6.97693">
        <ele>287</ele>
        <time>2010-12-05T09:33:11Z</time>
      </trkpt>
      <trkpt lat="49.17008" lon="6.97696">
        <ele>287</ele>
        <time>2010-12-05T09:33:13Z</time>
      </trkpt>
      <trkpt lat="49.17009" lon="6.97698">
        <ele>287</ele>
        <time>2010-12-05T09:33:15Z</time>
      </trkpt>
      <trkpt lat="49.1701" lon="6.977">
        <ele>287</ele>
        <time>2010-12-05T09:33:17Z</time>
      </trkpt>
      <trkpt lat="49.17011" lon="6.97702">
        <ele>287</ele>
        <time>2010-12-05T09:33:19Z</time>
      </trkpt>
      <trkpt lat="49.17012" lon="6.97704">
        <ele>288</ele>
        <time>2010-12-05T09:33:21Z</time>
      </trkpt>
      <trkpt lat="49.17012" lon="6.97707">
        <ele>288</ele>
        <time>2010-12-05T09:33:23Z</time>
      </trkpt>
      <trkpt lat="49.17012" lon="6.97709">
        <ele>289</ele>
        <time>2010-12-05T09:33:25Z</time>
      </trkpt>
      <trkpt lat="49.17011" lon="6.97711">
        <ele>289</ele>
        <time>2010-12-05T09:33:26Z</time>
      </trkpt>
      <trkpt lat="49.17011" lon="6.97713">
        <ele>289</ele>
        <time>2010-12-05T09:33:27Z</time>
      </trkpt>
      <trkpt lat="49.17011" lon="6.97714">
        <ele>290</ele>
        <time>2010-12-05T09:33:29Z</time>
      </trkpt>
      <trkpt lat="49.17011" lon="6.97716">
        <ele>291</ele>
        <time>2010-12-05T09:33:33Z</time>
      </trkpt>
      <trkpt lat="49.17012" lon="6.97719">
        <ele>292</ele>
        <time>2010-12-05T09:33:37Z</time>
      </trkpt>
      <trkpt lat="49.17013" lon="6.97722">
        <ele>293</ele>
        <time>2010-12-05T09:33:39Z</time>
      </trkpt>
      <trkpt lat="49.17014" lon="6.97723">
        <ele>293</ele>
        <time>2010-12-05T09:33:40Z</time>
      </trkpt>
      <trkpt lat="49.17015" lon="6.97726">
        <ele>294</ele>
        <time>2010-12-05T09:33:42Z</time>
      </trkpt>
      <trkpt lat="49.17016" lon="6.97729">
        <ele>294</ele>
        <time>2010-12-05T09:33:44Z</time>
      </trkpt>
      <trkpt lat="49.17016" lon="6.97731">
        <ele>294</ele>
        <time>2010-12-05T09:33:47Z</time>
      </trkpt>
      <trkpt lat="49.17017" lon="6.97731">
        <ele>295</ele>
        <time>2010-12-05T09:33:58Z</time>
      </trkpt>
      <trkpt lat="49.17019" lon="6.9773">
        <ele>295</ele>
        <time>2010-12-05T09:34:00Z</time>
      </trkpt>
      <trkpt lat="49.1702" lon="6.9773">
        <ele>295</ele>
        <time>2010-12-05T09:34:02Z</time>
      </trkpt>
      <trkpt lat="49.17022" lon="6.9773">
        <ele>295</ele>
        <time>2010-12-05T09:34:04Z</time>
      </trkpt>
      <trkpt lat="49.17023" lon="6.97731">
        <ele>295</ele>
        <time>2010-12-05T09:34:06Z</time>
      </trkpt>
      <trkpt lat="49.17025" lon="6.97732">
        <ele>295</ele>
        <time>2010-12-05T09:34:08Z</time>
      </trkpt>
      <trkpt lat="49.17026" lon="6.97734">
        <ele>295</ele>
        <time>2010-12-05T09:34:10Z</time>
      </trkpt>
      <trkpt lat="49.17027" lon="6.97737">
        <ele>295</ele>
        <time>2010-12-05T09:34:12Z</time>
      </trkpt>
      <trkpt lat="49.17028" lon="6.9774">
        <ele>295</ele>
        <time>2010-12-05T09:34:14Z</time>
      </trkpt>
      <trkpt lat="49.17029" lon="6.97743">
        <ele>295</ele>
        <time>2010-12-05T09:34:16Z</time>
      </trkpt>
      <trkpt lat="49.17031" lon="6.97746">
        <ele>295</ele>
        <time>2010-12-05T09:34:18Z</time>
      </trkpt>
      <trkpt lat="49.17031" lon="6.97747">
        <ele>295</ele>
        <time>2010-12-05T09:34:19Z</time>
      </trkpt>
      <trkpt lat="49.17033" lon="6.9775">
        <ele>295</ele>
        <time>2010-12-05T09:34:21Z</time>
      </trkpt>
      <trkpt lat="49.17034" lon="6.97753">
        <ele>295</ele>
        <time>2010-12-05T09:34:23Z</time>
      </trkpt>
      <trkpt lat="49.17035" lon="6.97755">
        <ele>296</ele>
        <time>2010-12-05T09:34:25Z</time>
      </trkpt>
      <trkpt lat="49.17036" lon="6.97758">
        <ele>296</ele>
        <time>2010-12-05T09:34:27Z</time>
      </trkpt>
      <trkpt lat="49.17036" lon="6.97759">
        <ele>296</ele>
        <time>2010-12-05T09:34:28Z</time>
      </trkpt>
      <trkpt lat="49.17037" lon="6.97762">
        <ele>296</ele>
        <time>2010-12-05T09:34:30Z</time>
      </trkpt>
      <trkpt lat="49.17038" lon="6.97765">
        <ele>296</ele>
        <time>2010-12-05T09:34:32Z</time>
      </trkpt>
      <trkpt lat="49.17038" lon="6.97768">
        <ele>296</ele>
        <time>2010-12-05T09:34:34Z</time>
      </trkpt>
      <trkpt lat="49.17038" lon="6.9777">
        <ele>297</ele>
        <time>2010-12-05T09:34:36Z</time>
      </trkpt>
      <trkpt lat="49.17039" lon="6.97772">
        <ele>297</ele>
        <time>2010-12-05T09:34:38Z</time>
      </trkpt>
      <trkpt lat="49.1704" lon="6.97775">
        <ele>297</ele>
        <time>2010-12-05T09:34:40Z</time>
      </trkpt>
      <trkpt lat="49.1704" lon="6.97778">
        <ele>297</ele>
        <time>2010-12-05T09:34:42Z</time>
      </trkpt>
      <trkpt lat="49.17041" lon="6.9778">
        <ele>297</ele>
        <time>2010-12-05T09:34:44Z</time>
      </trkpt>
      <trkpt lat="49.17041" lon="6.97782">
        <ele>297</ele>
        <time>2010-12-05T09:34:46Z</time>
      </trkpt>
      <trkpt lat="49.17042" lon="6.97784">
        <ele>297</ele>
        <time>2010-12-05T09:34:48Z</time>
      </trkpt>
      <trkpt lat="49.17043" lon="6.97787">
        <ele>297</ele>
        <time>2010-12-05T09:34:50Z</time>
      </trkpt>
      <trkpt lat="49.17044" lon="6.97789">
        <ele>298</ele>
        <time>2010-12-05T09:34:52Z</time>
      </trkpt>
      <trkpt lat="49.17046" lon="6.97792">
        <ele>298</ele>
        <time>2010-12-05T09:34:54Z</time>
      </trkpt>
      <trkpt lat="49.17047" lon="6.97794">
        <ele>298</ele>
        <time>2010-12-05T09:34:56Z</time>
      </trkpt>
      <trkpt lat="49.17047" lon="6.97797">
        <ele>298</ele>
        <time>2010-12-05T09:34:58Z</time>
      </trkpt>
      <trkpt lat="49.17048" lon="6.978">
        <ele>298</ele>
        <time>2010-12-05T09:35:00Z</time>
      </trkpt>
      <trkpt lat="49.17049" lon="6.97803">
        <ele>298</ele>
        <time>2010-12-05T09:35:02Z</time>
      </trkpt>
      <trkpt lat="49.1705" lon="6.97805">
        <ele>298</ele>
        <time>2010-12-05T09:35:04Z</time>
      </trkpt>
      <trkpt lat="49.17051" lon="6.97807">
        <ele>299</ele>
        <time>2010-12-05T09:35:06Z</time>
      </trkpt>
      <trkpt lat="49.17052" lon="6.97809">
        <ele>299</ele>
        <time>2010-12-05T09:35:08Z</time>
      </trkpt>
      <trkpt lat="49.17053" lon="6.97811">
        <ele>299</ele>
        <time>2010-12-05T09:35:10Z</time>
      </trkpt>
      <trkpt lat="49.17054" lon="6.97813">
        <ele>299</ele>
        <time>2010-12-05T09:35:12Z</time>
      </trkpt>
      <trkpt lat="49.17055" lon="6.97816">
        <ele>299</ele>
        <time>2010-12-05T09:35:14Z</time>
      </trkpt>
      <trkpt lat="49.17057" lon="6.97818">
        <ele>300</ele>
        <time>2010-12-05T09:35:16Z</time>
      </trkpt>
      <trkpt lat="49.17058" lon="6.9782">
        <ele>300</ele>
        <time>2010-12-05T09:35:18Z</time>
      </trkpt>
      <trkpt lat="49.17059" lon="6.97822">
        <ele>301</ele>
        <time>2010-12-05T09:35:20Z</time>
      </trkpt>
      <trkpt lat="49.17061" lon="6.97825">
        <ele>301</ele>
        <time>2010-12-05T09:35:22Z</time>
      </trkpt>
      <trkpt lat="49.17062" lon="6.97826">
        <ele>301</ele>
        <time>2010-12-05T09:35:24Z</time>
      </trkpt>
      <trkpt lat="49.17064" lon="6.97829">
        <ele>301</ele>
        <time>2010-12-05T09:35:26Z</time>
      </trkpt>
      <trkpt lat="49.17066" lon="6.97831">
        <ele>301</ele>
        <time>2010-12-05T09:35:28Z</time>
      </trkpt>
      <trkpt lat="49.17067" lon="6.97832">
        <ele>301</ele>
        <time>2010-12-05T09:35:29Z</time>
      </trkpt>
      <trkpt lat="49.17068" lon="6.97833">
        <ele>301</ele>
        <time>2010-12-05T09:35:30Z</time>
      </trkpt>
      <trkpt lat="49.1707" lon="6.97834">
        <ele>301</ele>
        <time>2010-12-05T09:35:32Z</time>
      </trkpt>
      <trkpt lat="49.17072" lon="6.97835">
        <ele>301</ele>
        <time>2010-12-05T09:35:34Z</time>
      </trkpt>
      <trkpt lat="49.17073" lon="6.97836">
        <ele>301</ele>
        <time>2010-12-05T09:35:36Z</time>
      </trkpt>
      <trkpt lat="49.17075" lon="6.97837">
        <ele>301</ele>
        <time>2010-12-05T09:35:38Z</time>
      </trkpt>
      <trkpt lat="49.17076" lon="6.97837">
        <ele>301</ele>
        <time>2010-12-05T09:35:40Z</time>
      </trkpt>
      <trkpt lat="49.17078" lon="6.97837">
        <ele>301</ele>
        <time>2010-12-05T09:35:42Z</time>
      </trkpt>
      <trkpt lat="49.17079" lon="6.97838">
        <ele>301</ele>
        <time>2010-12-05T09:35:44Z</time>
      </trkpt>
      <trkpt lat="49.1708" lon="6.97838">
        <ele>301</ele>
        <time>2010-12-05T09:35:45Z</time>
      </trkpt>
      <trkpt lat="49.17082" lon="6.9784">
        <ele>301</ele>
        <time>2010-12-05T09:35:47Z</time>
      </trkpt>
      <trkpt lat="49.17083" lon="6.97841">
        <ele>301</ele>
        <time>2010-12-05T09:35:49Z</time>
      </trkpt>
      <trkpt lat="49.17085" lon="6.97843">
        <ele>301</ele>
        <time>2010-12-05T09:35:51Z</time>
      </trkpt>
      <trkpt lat="49.17087" lon="6.97845">
        <ele>301</ele>
        <time>2010-12-05T09:35:53Z</time>
      </trkpt>
      <trkpt lat="49.17088" lon="6.97847">
        <ele>301</ele>
        <time>2010-12-05T09:35:55Z</time>
      </trkpt>
      <trkpt lat="49.17089" lon="6.97849">
        <ele>301</ele>
        <time>2010-12-05T09:35:57Z</time>
      </trkpt>
      <trkpt lat="49.1709" lon="6.97851">
        <ele>301</ele>
        <time>2010-12-05T09:35:59Z</time>
      </trkpt>
      <trkpt lat="49.17092" lon="6.97853">
        <ele>301</ele>
        <time>2010-12-05T09:36:01Z</time>
      </trkpt>
      <trkpt lat="49.17094" lon="6.97855">
        <ele>301</ele>
        <time>2010-12-05T09:36:03Z</time>
      </trkpt>
      <trkpt lat="49.17095" lon="6.97858">
        <ele>301</ele>
        <time>2010-12-05T09:36:05Z</time>
      </trkpt>
      <trkpt lat="49.17097" lon="6.9786">
        <ele>301</ele>
        <time>2010-12-05T09:36:07Z</time>
      </trkpt>
      <trkpt lat="49.17098" lon="6.97863">
        <ele>301</ele>
        <time>2010-12-05T09:36:09Z</time>
      </trkpt>
      <trkpt lat="49.17099" lon="6.97866">
        <ele>301</ele>
        <time>2010-12-05T09:36:11Z</time>
      </trkpt>
      <trkpt lat="49.17101" lon="6.97868">
        <ele>301</ele>
        <time>2010-12-05T09:36:13Z</time>
      </trkpt>
      <trkpt lat="49.17102" lon="6.9787">
        <ele>301</ele>
        <time>2010-12-05T09:36:15Z</time>
      </trkpt>
      <trkpt lat="49.17103" lon="6.97873">
        <ele>301</ele>
        <time>2010-12-05T09:36:17Z</time>
      </trkpt>
      <trkpt lat="49.17104" lon="6.97875">
        <ele>301</ele>
        <time>2010-12-05T09:36:19Z</time>
      </trkpt>
      <trkpt lat="49.17105" lon="6.97877">
        <ele>301</ele>
        <time>2010-12-05T09:36:21Z</time>
      </trkpt>
      <trkpt lat="49.17106" lon="6.97879">
        <ele>301</ele>
        <time>2010-12-05T09:36:23Z</time>
      </trkpt>
      <trkpt lat="49.17107" lon="6.97882">
        <ele>302</ele>
        <time>2010-12-05T09:36:25Z</time>
      </trkpt>
      <trkpt lat="49.17109" lon="6.97884">
        <ele>302</ele>
        <time>2010-12-05T09:36:27Z</time>
      </trkpt>
      <trkpt lat="49.1711" lon="6.97885">
        <ele>302</ele>
        <time>2010-12-05T09:36:28Z</time>
      </trkpt>
      <trkpt lat="49.17112" lon="6.97887">
        <ele>302</ele>
        <time>2010-12-05T09:36:30Z</time>
      </trkpt>
      <trkpt lat="49.17113" lon="6.9789">
        <ele>302</ele>
        <time>2010-12-05T09:36:32Z</time>
      </trkpt>
      <trkpt lat="49.17115" lon="6.97892">
        <ele>302</ele>
        <time>2010-12-05T09:36:34Z</time>
      </trkpt>
      <trkpt lat="49.17116" lon="6.97893">
        <ele>302</ele>
        <time>2010-12-05T09:36:36Z</time>
      </trkpt>
      <trkpt lat="49.17118" lon="6.97895">
        <ele>302</ele>
        <time>2010-12-05T09:36:38Z</time>
      </trkpt>
      <trkpt lat="49.17119" lon="6.97897">
        <ele>302</ele>
        <time>2010-12-05T09:36:40Z</time>
      </trkpt>
      <trkpt lat="49.1712" lon="6.979">
        <ele>302</ele>
        <time>2010-12-05T09:36:42Z</time>
      </trkpt>
      <trkpt lat="49.17122" lon="6.97902">
        <ele>302</ele>
        <time>2010-12-05T09:36:44Z</time>
      </trkpt>
      <trkpt lat="49.17123" lon="6.97904">
        <ele>303</ele>
        <time>2010-12-05T09:36:46Z</time>
      </trkpt>
      <trkpt lat="49.17124" lon="6.97907">
        <ele>303</ele>
        <time>2010-12-05T09:36:48Z</time>
      </trkpt>
      <trkpt lat="49.17126" lon="6.97909">
        <ele>303</ele>
        <time>2010-12-05T09:36:50Z</time>
      </trkpt>
      <trkpt lat="49.17127" lon="6.97912">
        <ele>303</ele>
        <time>2010-12-05T09:36:52Z</time>
      </trkpt>
      <trkpt lat="49.17128" lon="6.97914">
        <ele>304</ele>
        <time>2010-12-05T09:36:54Z</time>
      </trkpt>
      <trkpt lat="49.1713" lon="6.97916">
        <ele>304</ele>
        <time>2010-12-05T09:36:56Z</time>
      </trkpt>
      <trkpt lat="49.17131" lon="6.97918">
        <ele>304</ele>
        <time>2010-12-05T09:36:58Z</time>
      </trkpt>
      <trkpt lat="49.17132" lon="6.97921">
        <ele>304</ele>
        <time>2010-12-05T09:37:00Z</time>
      </trkpt>
      <trkpt lat="49.17133" lon="6.97923">
        <ele>304</ele>
        <time>2010-12-05T09:37:02Z</time>
      </trkpt>
      <trkpt lat="49.17134" lon="6.97925">
        <ele>305</ele>
        <time>2010-12-05T09:37:04Z</time>
      </trkpt>
      <trkpt lat="49.17136" lon="6.97927">
        <ele>305</ele>
        <time>2010-12-05T09:37:06Z</time>
      </trkpt>
      <trkpt lat="49.17137" lon="6.97929">
        <ele>306</ele>
        <time>2010-12-05T09:37:08Z</time>
      </trkpt>
      <trkpt lat="49.17139" lon="6.97931">
        <ele>306</ele>
        <time>2010-12-05T09:37:10Z</time>
      </trkpt>
      <trkpt lat="49.17141" lon="6.97933">
        <ele>306</ele>
        <time>2010-12-05T09:37:12Z</time>
      </trkpt>
      <trkpt lat="49.17142" lon="6.97935">
        <ele>306</ele>
        <time>2010-12-05T09:37:14Z</time>
      </trkpt>
      <trkpt lat="49.17144" lon="6.97937">
        <ele>306</ele>
        <time>2010-12-05T09:37:16Z</time>
      </trkpt>
      <trkpt lat="49.17144" lon="6.97938">
        <ele>306</ele>
        <time>2010-12-05T09:37:18Z</time>
      </trkpt>
      <trkpt lat="49.17146" lon="6.97941">
        <ele>306</ele>
        <time>2010-12-05T09:37:20Z</time>
      </trkpt>
      <trkpt lat="49.17147" lon="6.97943">
        <ele>306</ele>
        <time>2010-12-05T09:37:22Z</time>
      </trkpt>
      <trkpt lat="49.17149" lon="6.97945">
        <ele>306</ele>
        <time>2010-12-05T09:37:24Z</time>
      </trkpt>
      <trkpt lat="49.17152" lon="6.97947">
        <ele>306</ele>
        <time>2010-12-05T09:37:26Z</time>
      </trkpt>
      <trkpt lat="49.17153" lon="6.97947">
        <ele>306</ele>
        <time>2010-12-05T09:37:27Z</time>
      </trkpt>
      <trkpt lat="49.17155" lon="6.97949">
        <ele>306</ele>
        <time>2010-12-05T09:37:29Z</time>
      </trkpt>
      <trkpt lat="49.17156" lon="6.97952">
        <ele>306</ele>
        <time>2010-12-05T09:37:31Z</time>
      </trkpt>
      <trkpt lat="49.17155" lon="6.97954">
        <ele>306</ele>
        <time>2010-12-05T09:37:33Z</time>
      </trkpt>
      <trkpt lat="49.17156" lon="6.97956">
        <ele>306</ele>
        <time>2010-12-05T09:37:35Z</time>
      </trkpt>
      <trkpt lat="49.17157" lon="6.97958">
        <ele>306</ele>
        <time>2010-12-05T09:37:37Z</time>
      </trkpt>
      <trkpt lat="49.17158" lon="6.97959">
        <ele>306</ele>
        <time>2010-12-05T09:37:39Z</time>
      </trkpt>
      <trkpt lat="49.17159" lon="6.97962">
        <ele>307</ele>
        <time>2010-12-05T09:37:41Z</time>
      </trkpt>
      <trkpt lat="49.1716" lon="6.97963">
        <ele>307</ele>
        <time>2010-12-05T09:37:43Z</time>
      </trkpt>
      <trkpt lat="49.17161" lon="6.97966">
        <ele>308</ele>
        <time>2010-12-05T09:37:45Z</time>
      </trkpt>
      <trkpt lat="49.17162" lon="6.97967">
        <ele>308</ele>
        <time>2010-12-05T09:37:46Z</time>
      </trkpt>
      <trkpt lat="49.17163" lon="6.97968">
        <ele>308</ele>
        <time>2010-12-05T09:37:47Z</time>
      </trkpt>
      <trkpt lat="49.17165" lon="6.9797">
        <ele>308</ele>
        <time>2010-12-05T09:37:49Z</time>
      </trkpt>
      <trkpt lat="49.17167" lon="6.97973">
        <ele>308</ele>
        <time>2010-12-05T09:37:51Z</time>
      </trkpt>
      <trkpt lat="49.17168" lon="6.97975">
        <ele>309</ele>
        <time>2010-12-05T09:37:53Z</time>
      </trkpt>
      <trkpt lat="49.1717" lon="6.97977">
        <ele>309</ele>
        <time>2010-12-05T09:37:55Z</time>
      </trkpt>
      <trkpt lat="49.17172" lon="6.97979">
        <ele>310</ele>
        <time>2010-12-05T09:37:57Z</time>
      </trkpt>
      <trkpt lat="49.17173" lon="6.97981">
        <ele>310</ele>
        <time>2010-12-05T09:37:59Z</time>
      </trkpt>
      <trkpt lat="49.17175" lon="6.97983">
        <ele>310</ele>
        <time>2010-12-05T09:38:01Z</time>
      </trkpt>
      <trkpt lat="49.17176" lon="6.97985">
        <ele>311</ele>
        <time>2010-12-05T09:38:03Z</time>
      </trkpt>
      <trkpt lat="49.17177" lon="6.97987">
        <ele>311</ele>
        <time>2010-12-05T09:38:05Z</time>
      </trkpt>
      <trkpt lat="49.17179" lon="6.9799">
        <ele>311</ele>
        <time>2010-12-05T09:38:07Z</time>
      </trkpt>
      <trkpt lat="49.1718" lon="6.97992">
        <ele>311</ele>
        <time>2010-12-05T09:38:09Z</time>
      </trkpt>
      <trkpt lat="49.17181" lon="6.97994">
        <ele>311</ele>
        <time>2010-12-05T09:38:11Z</time>
      </trkpt>
      <trkpt lat="49.17183" lon="6.97996">
        <ele>312</ele>
        <time>2010-12-05T09:38:13Z</time>
      </trkpt>
      <trkpt lat="49.17184" lon="6.97998">
        <ele>312</ele>
        <time>2010-12-05T09:38:15Z</time>
      </trkpt>
      <trkpt lat="49.17186" lon="6.98001">
        <ele>312</ele>
        <time>2010-12-05T09:38:17Z</time>
      </trkpt>
      <trkpt lat="49.17187" lon="6.98002">
        <ele>312</ele>
        <time>2010-12-05T09:38:18Z</time>
      </trkpt>
      <trkpt lat="49.17189" lon="6.98004">
        <ele>312</ele>
        <time>2010-12-05T09:38:20Z</time>
      </trkpt>
      <trkpt lat="49.1719" lon="6.98006">
        <ele>312</ele>
        <time>2010-12-05T09:38:22Z</time>
      </trkpt>
      <trkpt lat="49.17191" lon="6.98008">
        <ele>312</ele>
        <time>2010-12-05T09:38:24Z</time>
      </trkpt>
      <trkpt lat="49.17192" lon="6.9801">
        <ele>312</ele>
        <time>2010-12-05T09:38:26Z</time>
      </trkpt>
      <trkpt lat="49.17192" lon="6.98012">
        <ele>312</ele>
        <time>2010-12-05T09:38:28Z</time>
      </trkpt>
      <trkpt lat="49.17193" lon="6.98014">
        <ele>312</ele>
        <time>2010-12-05T09:38:30Z</time>
      </trkpt>
      <trkpt lat="49.17194" lon="6.98016">
        <ele>312</ele>
        <time>2010-12-05T09:38:32Z</time>
      </trkpt>
      <trkpt lat="49.17195" lon="6.98018">
        <ele>312</ele>
        <time>2010-12-05T09:38:34Z</time>
      </trkpt>
      <trkpt lat="49.17196" lon="6.9802">
        <ele>312</ele>
        <time>2010-12-05T09:38:36Z</time>
      </trkpt>
      <trkpt lat="49.17198" lon="6.98022">
        <ele>312</ele>
        <time>2010-12-05T09:38:38Z</time>
      </trkpt>
      <trkpt lat="49.17199" lon="6.98024">
        <ele>312</ele>
        <time>2010-12-05T09:38:40Z</time>
      </trkpt>
      <trkpt lat="49.172" lon="6.98026">
        <ele>313</ele>
        <time>2010-12-05T09:38:42Z</time>
      </trkpt>
      <trkpt lat="49.17201" lon="6.98028">
        <ele>313</ele>
        <time>2010-12-05T09:38:44Z</time>
      </trkpt>
      <trkpt lat="49.17203" lon="6.98031">
        <ele>313</ele>
        <time>2010-12-05T09:38:46Z</time>
      </trkpt>
      <trkpt lat="49.17204" lon="6.98033">
        <ele>313</ele>
        <time>2010-12-05T09:38:48Z</time>
      </trkpt>
      <trkpt lat="49.17205" lon="6.98035">
        <ele>314</ele>
        <time>2010-12-05T09:38:50Z</time>
      </trkpt>
      <trkpt lat="49.17206" lon="6.98037">
        <ele>314</ele>
        <time>2010-12-05T09:38:52Z</time>
      </trkpt>
      <trkpt lat="49.17207" lon="6.98039">
        <ele>314</ele>
        <time>2010-12-05T09:38:54Z</time>
      </trkpt>
      <trkpt lat="49.17208" lon="6.98041">
        <ele>315</ele>
        <time>2010-12-05T09:38:56Z</time>
      </trkpt>
      <trkpt lat="49.17209" lon="6.98044">
        <ele>315</ele>
        <time>2010-12-05T09:38:58Z</time>
      </trkpt>
      <trkpt lat="49.1721" lon="6.98046">
        <ele>316</ele>
        <time>2010-12-05T09:39:00Z</time>
      </trkpt>
      <trkpt lat="49.1721" lon="6.98049">
        <ele>316</ele>
        <time>2010-12-05T09:39:02Z</time>
      </trkpt>
      <trkpt lat="49.17211" lon="6.98052">
        <ele>316</ele>
        <time>2010-12-05T09:39:04Z</time>
      </trkpt>
      <trkpt lat="49.17212" lon="6.98054">
        <ele>317</ele>
        <time>2010-12-05T09:39:06Z</time>
      </trkpt>
      <trkpt lat="49.17213" lon="6.98056">
        <ele>317</ele>
        <time>2010-12-05T09:39:08Z</time>
      </trkpt>
      <trkpt lat="49.17214" lon="6.98059">
        <ele>317</ele>
        <time>2010-12-05T09:39:10Z</time>
      </trkpt>
      <trkpt lat="49.17215" lon="6.98061">
        <ele>318</ele>
        <time>2010-12-05T09:39:12Z</time>
      </trkpt>
      <trkpt lat="49.17215" lon="6.98063">
        <ele>318</ele>
        <time>2010-12-05T09:39:14Z</time>
      </trkpt>
      <trkpt lat="49.17216" lon="6.98065">
        <ele>319</ele>
        <time>2010-12-05T09:39:16Z</time>
      </trkpt>
      <trkpt lat="49.17217" lon="6.98066">
        <ele>319</ele>
        <time>2010-12-05T09:39:18Z</time>
      </trkpt>
      <trkpt lat="49.17218" lon="6.98068">
        <ele>319</ele>
        <time>2010-12-05T09:39:20Z</time>
      </trkpt>
      <trkpt lat="49.1722" lon="6.9807">
        <ele>319</ele>
        <time>2010-12-05T09:39:22Z</time>
      </trkpt>
      <trkpt lat="49.17221" lon="6.98072">
        <ele>319</ele>
        <time>2010-12-05T09:39:24Z</time>
      </trkpt>
      <trkpt lat="49.17222" lon="6.98074">
        <ele>319</ele>
        <time>2010-12-05T09:39:27Z</time>
      </trkpt>
      <trkpt lat="49.17223" lon="6.98076">
        <ele>319</ele>
        <time>2010-12-05T09:39:30Z</time>
      </trkpt>
      <trkpt lat="49.17225" lon="6.98076">
        <ele>320</ele>
        <time>2010-12-05T09:39:32Z</time>
      </trkpt>
      <trkpt lat="49.17227" lon="6.98075">
        <ele>320</ele>
        <time>2010-12-05T09:39:34Z</time>
      </trkpt>
      <trkpt lat="49.17229" lon="6.98074">
        <ele>320</ele>
        <time>2010-12-05T09:39:36Z</time>
      </trkpt>
      <trkpt lat="49.1723" lon="6.98073">
        <ele>320</ele>
        <time>2010-12-05T09:39:37Z</time>
      </trkpt>
      <trkpt lat="49.17232" lon="6.9807">
        <ele>320</ele>
        <time>2010-12-05T09:39:39Z</time>
      </trkpt>
      <trkpt lat="49.17234" lon="6.98068">
        <ele>320</ele>
        <time>2010-12-05T09:39:41Z</time>
      </trkpt>
      <trkpt lat="49.17235" lon="6.98066">
        <ele>320</ele>
        <time>2010-12-05T09:39:43Z</time>
      </trkpt>
      <trkpt lat="49.17236" lon="6.98064">
        <ele>320</ele>
        <time>2010-12-05T09:39:49Z</time>
      </trkpt>
      <trkpt lat="49.17237" lon="6.98062">
        <ele>320</ele>
        <time>2010-12-05T09:39:53Z</time>
      </trkpt>
      <trkpt lat="49.17238" lon="6.9806">
        <ele>320</ele>
        <time>2010-12-05T09:39:55Z</time>
      </trkpt>
      <trkpt lat="49.17239" lon="6.98058">
        <ele>320</ele>
        <time>2010-12-05T09:39:57Z</time>
      </trkpt>
      <trkpt lat="49.17241" lon="6.98056">
        <ele>320</ele>
        <time>2010-12-05T09:39:59Z</time>
      </trkpt>
      <trkpt lat="49.17242" lon="6.98053">
        <ele>320</ele>
        <time>2010-12-05T09:40:01Z</time>
      </trkpt>
      <trkpt lat="49.17243" lon="6.98052">
        <ele>320</ele>
        <time>2010-12-05T09:40:03Z</time>
      </trkpt>
      <trkpt lat="49.17245" lon="6.9805">
        <ele>320</ele>
        <time>2010-12-05T09:40:05Z</time>
      </trkpt>
      <trkpt lat="49.17246" lon="6.98048">
        <ele>320</ele>
        <time>2010-12-05T09:40:07Z</time>
      </trkpt>
      <trkpt lat="49.17247" lon="6.98046">
        <ele>320</ele>
        <time>2010-12-05T09:40:09Z</time>
      </trkpt>
      <trkpt lat="49.17247" lon="6.98044">
        <ele>320</ele>
        <time>2010-12-05T09:40:11Z</time>
      </trkpt>
      <trkpt lat="49.17248" lon="6.98042">
        <ele>320</ele>
        <time>2010-12-05T09:40:14Z</time>
      </trkpt>
      <trkpt lat="49.17249" lon="6.9804">
        <ele>320</ele>
        <time>2010-12-05T09:40:16Z</time>
      </trkpt>
      <trkpt lat="49.1725" lon="6.98038">
        <ele>320</ele>
        <time>2010-12-05T09:40:18Z</time>
      </trkpt>
      <trkpt lat="49.17251" lon="6.98035">
        <ele>320</ele>
        <time>2010-12-05T09:40:20Z</time>
      </trkpt>
      <trkpt lat="49.17252" lon="6.98032">
        <ele>320</ele>
        <time>2010-12-05T09:40:22Z</time>
      </trkpt>
      <trkpt lat="49.17253" lon="6.9803">
        <ele>320</ele>
        <time>2010-12-05T09:40:24Z</time>
      </trkpt>
      <trkpt lat="49.17253" lon="6.98028">
        <ele>320</ele>
        <time>2010-12-05T09:40:25Z</time>
      </trkpt>
      <trkpt lat="49.17255" lon="6.98026">
        <ele>320</ele>
        <time>2010-12-05T09:40:27Z</time>
      </trkpt>
      <trkpt lat="49.17256" lon="6.98024">
        <ele>320</ele>
        <time>2010-12-05T09:40:29Z</time>
      </trkpt>
      <trkpt lat="49.17258" lon="6.98023">
        <ele>320</ele>
        <time>2010-12-05T09:40:31Z</time>
      </trkpt>
      <trkpt lat="49.1726" lon="6.9802">
        <ele>320</ele>
        <time>2010-12-05T09:40:33Z</time>
      </trkpt>
      <trkpt lat="49.17261" lon="6.98018">
        <ele>320</ele>
        <time>2010-12-05T09:40:35Z</time>
      </trkpt>
      <trkpt lat="49.17263" lon="6.98015">
        <ele>320</ele>
        <time>2010-12-05T09:40:37Z</time>
      </trkpt>
      <trkpt lat="49.17264" lon="6.98012">
        <ele>320</ele>
        <time>2010-12-05T09:40:39Z</time>
      </trkpt>
      <trkpt lat="49.17265" lon="6.9801">
        <ele>320</ele>
        <time>2010-12-05T09:40:41Z</time>
      </trkpt>
      <trkpt lat="49.17268" lon="6.98007">
        <ele>320</ele>
        <time>2010-12-05T09:40:43Z</time>
      </trkpt>
      <trkpt lat="49.17269" lon="6.98005">
        <ele>320</ele>
        <time>2010-12-05T09:40:45Z</time>
      </trkpt>
      <trkpt lat="49.17271" lon="6.98003">
        <ele>320</ele>
        <time>2010-12-05T09:40:47Z</time>
      </trkpt>
      <trkpt lat="49.17272" lon="6.98001">
        <ele>320</ele>
        <time>2010-12-05T09:40:49Z</time>
      </trkpt>
      <trkpt lat="49.17274" lon="6.97999">
        <ele>320</ele>
        <time>2010-12-05T09:40:51Z</time>
      </trkpt>
      <trkpt lat="49.17276" lon="6.97997">
        <ele>320</ele>
        <time>2010-12-05T09:40:53Z</time>
      </trkpt>
      <trkpt lat="49.17278" lon="6.97995">
        <ele>320</ele>
        <time>2010-12-05T09:40:55Z</time>
      </trkpt>
      <trkpt lat="49.1728" lon="6.97993">
        <ele>320</ele>
        <time>2010-12-05T09:40:57Z</time>
      </trkpt>
      <trkpt lat="49.17281" lon="6.9799">
        <ele>320</ele>
        <time>2010-12-05T09:40:59Z</time>
      </trkpt>
      <trkpt lat="49.17283" lon="6.97987">
        <ele>320</ele>
        <time>2010-12-05T09:41:01Z</time>
      </trkpt>
      <trkpt lat="49.17284" lon="6.97985">
        <ele>320</ele>
        <time>2010-12-05T09:41:03Z</time>
      </trkpt>
      <trkpt lat="49.17286" lon="6.97982">
        <ele>320</ele>
        <time>2010-12-05T09:41:05Z</time>
      </trkpt>
      <trkpt lat="49.17288" lon="6.9798">
        <ele>320</ele>
        <time>2010-12-05T09:41:07Z</time>
      </trkpt>
      <trkpt lat="49.1729" lon="6.97977">
        <ele>320</ele>
        <time>2010-12-05T09:41:09Z</time>
      </trkpt>
      <trkpt lat="49.17292" lon="6.97975">
        <ele>320</ele>
        <time>2010-12-05T09:41:11Z</time>
      </trkpt>
      <trkpt lat="49.17294" lon="6.97972">
        <ele>320</ele>
        <time>2010-12-05T09:41:13Z</time>
      </trkpt>
      <trkpt lat="49.17295" lon="6.9797">
        <ele>320</ele>
        <time>2010-12-05T09:41:15Z</time>
      </trkpt>
      <trkpt lat="49.17296" lon="6.97968">
        <ele>320</ele>
        <time>2010-12-05T09:41:17Z</time>
      </trkpt>
      <trkpt lat="49.17298" lon="6.97966">
        <ele>320</ele>
        <time>2010-12-05T09:41:19Z</time>
      </trkpt>
      <trkpt lat="49.17299" lon="6.97965">
        <ele>320</ele>
        <time>2010-12-05T09:41:20Z</time>
      </trkpt>
      <trkpt lat="49.173" lon="6.97962">
        <ele>320</ele>
        <time>2010-12-05T09:41:22Z</time>
      </trkpt>
      <trkpt lat="49.17301" lon="6.97959">
        <ele>320</ele>
        <time>2010-12-05T09:41:24Z</time>
      </trkpt>
      <trkpt lat="49.17303" lon="6.97956">
        <ele>320</ele>
        <time>2010-12-05T09:41:26Z</time>
      </trkpt>
      <trkpt lat="49.17304" lon="6.97954">
        <ele>320</ele>
        <time>2010-12-05T09:41:28Z</time>
      </trkpt>
      <trkpt lat="49.17306" lon="6.97952">
        <ele>320</ele>
        <time>2010-12-05T09:41:30Z</time>
      </trkpt>
      <trkpt lat="49.17307" lon="6.97948">
        <ele>320</ele>
        <time>2010-12-05T09:41:32Z</time>
      </trkpt>
      <trkpt lat="49.17308" lon="6.97946">
        <ele>320</ele>
        <time>2010-12-05T09:41:34Z</time>
      </trkpt>
      <trkpt lat="49.1731" lon="6.97943">
        <ele>320</ele>
        <time>2010-12-05T09:41:36Z</time>
      </trkpt>
      <trkpt lat="49.17311" lon="6.9794">
        <ele>320</ele>
        <time>2010-12-05T09:41:38Z</time>
      </trkpt>
      <trkpt lat="49.17312" lon="6.97938">
        <ele>320</ele>
        <time>2010-12-05T09:41:40Z</time>
      </trkpt>
      <trkpt lat="49.17314" lon="6.97935">
        <ele>320</ele>
        <time>2010-12-05T09:41:42Z</time>
      </trkpt>
      <trkpt lat="49.17316" lon="6.97933">
        <ele>320</ele>
        <time>2010-12-05T09:41:44Z</time>
      </trkpt>
      <trkpt lat="49.17317" lon="6.9793">
        <ele>320</ele>
        <time>2010-12-05T09:41:46Z</time>
      </trkpt>
      <trkpt lat="49.17318" lon="6.97928">
        <ele>320</ele>
        <time>2010-12-05T09:41:48Z</time>
      </trkpt>
      <trkpt lat="49.1732" lon="6.97925">
        <ele>320</ele>
        <time>2010-12-05T09:41:50Z</time>
      </trkpt>
      <trkpt lat="49.17321" lon="6.97922">
        <ele>320</ele>
        <time>2010-12-05T09:41:52Z</time>
      </trkpt>
      <trkpt lat="49.17323" lon="6.97919">
        <ele>320</ele>
        <time>2010-12-05T09:41:54Z</time>
      </trkpt>
      <trkpt lat="49.17324" lon="6.97917">
        <ele>320</ele>
        <time>2010-12-05T09:41:56Z</time>
      </trkpt>
      <trkpt lat="49.17325" lon="6.97914">
        <ele>321</ele>
        <time>2010-12-05T09:41:58Z</time>
      </trkpt>
      <trkpt lat="49.17326" lon="6.97912">
        <ele>321</ele>
        <time>2010-12-05T09:41:59Z</time>
      </trkpt>
      <trkpt lat="49.17327" lon="6.97909">
        <ele>321</ele>
        <time>2010-12-05T09:42:01Z</time>
      </trkpt>
      <trkpt lat="49.17329" lon="6.97906">
        <ele>321</ele>
        <time>2010-12-05T09:42:03Z</time>
      </trkpt>
      <trkpt lat="49.1733" lon="6.97903">
        <ele>322</ele>
        <time>2010-12-05T09:42:05Z</time>
      </trkpt>
      <trkpt lat="49.17332" lon="6.979">
        <ele>322</ele>
        <time>2010-12-05T09:42:07Z</time>
      </trkpt>
      <trkpt lat="49.17333" lon="6.97898">
        <ele>322</ele>
        <time>2010-12-05T09:42:09Z</time>
      </trkpt>
      <trkpt lat="49.17334" lon="6.97895">
        <ele>322</ele>
        <time>2010-12-05T09:42:11Z</time>
      </trkpt>
      <trkpt lat="49.17336" lon="6.97892">
        <ele>322</ele>
        <time>2010-12-05T09:42:13Z</time>
      </trkpt>
      <trkpt lat="49.17337" lon="6.97889">
        <ele>323</ele>
        <time>2010-12-05T09:42:15Z</time>
      </trkpt>
      <trkpt lat="49.17339" lon="6.97886">
        <ele>323</ele>
        <time>2010-12-05T09:42:17Z</time>
      </trkpt>
      <trkpt lat="49.1734" lon="6.97883">
        <ele>323</ele>
        <time>2010-12-05T09:42:19Z</time>
      </trkpt>
      <trkpt lat="49.17342" lon="6.9788">
        <ele>323</ele>
        <time>2010-12-05T09:42:21Z</time>
      </trkpt>
      <trkpt lat="49.17343" lon="6.97878">
        <ele>324</ele>
        <time>2010-12-05T09:42:23Z</time>
      </trkpt>
      <trkpt lat="49.17344" lon="6.97874">
        <ele>324</ele>
        <time>2010-12-05T09:42:25Z</time>
      </trkpt>
      <trkpt lat="49.17346" lon="6.97872">
        <ele>324</ele>
        <time>2010-12-05T09:42:27Z</time>
      </trkpt>
      <trkpt lat="49.17347" lon="6.97869">
        <ele>325</ele>
        <time>2010-12-05T09:42:29Z</time>
      </trkpt>
      <trkpt lat="49.17348" lon="6.97867">
        <ele>325</ele>
        <time>2010-12-05T09:42:31Z</time>
      </trkpt>
      <trkpt lat="49.1735" lon="6.97864">
        <ele>325</ele>
        <time>2010-12-05T09:42:33Z</time>
      </trkpt>
      <trkpt lat="49.17352" lon="6.97861">
        <ele>325</ele>
        <time>2010-12-05T09:42:35Z</time>
      </trkpt>
      <trkpt lat="49.17353" lon="6.97859">
        <ele>325</ele>
        <time>2010-12-05T09:42:37Z</time>
      </trkpt>
      <trkpt lat="49.17354" lon="6.97857">
        <ele>325</ele>
        <time>2010-12-05T09:42:39Z</time>
      </trkpt>
      <trkpt lat="49.17356" lon="6.97854">
        <ele>325</ele>
        <time>2010-12-05T09:42:41Z</time>
      </trkpt>
      <trkpt lat="49.17357" lon="6.97852">
        <ele>326</ele>
        <time>2010-12-05T09:42:43Z</time>
      </trkpt>
      <trkpt lat="49.17359" lon="6.9785">
        <ele>326</ele>
        <time>2010-12-05T09:42:45Z</time>
      </trkpt>
      <trkpt lat="49.1736" lon="6.97847">
        <ele>326</ele>
        <time>2010-12-05T09:42:47Z</time>
      </trkpt>
      <trkpt lat="49.17362" lon="6.97844">
        <ele>326</ele>
        <time>2010-12-05T09:42:49Z</time>
      </trkpt>
      <trkpt lat="49.17363" lon="6.97841">
        <ele>326</ele>
        <time>2010-12-05T09:42:51Z</time>
      </trkpt>
      <trkpt lat="49.17364" lon="6.97838">
        <ele>327</ele>
        <time>2010-12-05T09:42:53Z</time>
      </trkpt>
      <trkpt lat="49.17365" lon="6.97837">
        <ele>327</ele>
        <time>2010-12-05T09:42:54Z</time>
      </trkpt>
      <trkpt lat="49.17366" lon="6.97833">
        <ele>327</ele>
        <time>2010-12-05T09:42:56Z</time>
      </trkpt>
      <trkpt lat="49.17368" lon="6.97831">
        <ele>327</ele>
        <time>2010-12-05T09:42:58Z</time>
      </trkpt>
      <trkpt lat="49.17369" lon="6.97828">
        <ele>328</ele>
        <time>2010-12-05T09:43:00Z</time>
      </trkpt>
      <trkpt lat="49.17371" lon="6.97825">
        <ele>328</ele>
        <time>2010-12-05T09:43:02Z</time>
      </trkpt>
      <trkpt lat="49.17373" lon="6.97823">
        <ele>328</ele>
        <time>2010-12-05T09:43:04Z</time>
      </trkpt>
      <trkpt lat="49.17374" lon="6.97821">
        <ele>328</ele>
        <time>2010-12-05T09:43:06Z</time>
      </trkpt>
      <trkpt lat="49.17375" lon="6.97817">
        <ele>328</ele>
        <time>2010-12-05T09:43:08Z</time>
      </trkpt>
      <trkpt lat="49.17376" lon="6.97816">
        <ele>328</ele>
        <time>2010-12-05T09:43:09Z</time>
      </trkpt>
      <trkpt lat="49.17376" lon="6.97814">
        <ele>328</ele>
        <time>2010-12-05T09:43:10Z</time>
      </trkpt>
      <trkpt lat="49.17378" lon="6.97811">
        <ele>328</ele>
        <time>2010-12-05T09:43:12Z</time>
      </trkpt>
      <trkpt lat="49.17379" lon="6.97809">
        <ele>328</ele>
        <time>2010-12-05T09:43:14Z</time>
      </trkpt>
      <trkpt lat="49.17381" lon="6.97806">
        <ele>328</ele>
        <time>2010-12-05T09:43:16Z</time>
      </trkpt>
      <trkpt lat="49.17383" lon="6.97803">
        <ele>328</ele>
        <time>2010-12-05T09:43:18Z</time>
      </trkpt>
      <trkpt lat="49.17385" lon="6.97801">
        <ele>328</ele>
        <time>2010-12-05T09:43:20Z</time>
      </trkpt>
      <trkpt lat="49.17386" lon="6.97798">
        <ele>328</ele>
        <time>2010-12-05T09:43:22Z</time>
      </trkpt>
      <trkpt lat="49.17387" lon="6.97796">
        <ele>328</ele>
        <time>2010-12-05T09:43:24Z</time>
      </trkpt>
      <trkpt lat="49.17388" lon="6.97794">
        <ele>328</ele>
        <time>2010-12-05T09:43:25Z</time>
      </trkpt>
      <trkpt lat="49.1739" lon="6.97791">
        <ele>328</ele>
        <time>2010-12-05T09:43:27Z</time>
      </trkpt>
      <trkpt lat="49.17391" lon="6.9779">
        <ele>328</ele>
        <time>2010-12-05T09:43:28Z</time>
      </trkpt>
      <trkpt lat="49.17392" lon="6.97788">
        <ele>328</ele>
        <time>2010-12-05T09:43:31Z</time>
      </trkpt>
      <trkpt lat="49.17393" lon="6.97786">
        <ele>328</ele>
        <time>2010-12-05T09:43:33Z</time>
      </trkpt>
      <trkpt lat="49.17395" lon="6.97783">
        <ele>328</ele>
        <time>2010-12-05T09:43:35Z</time>
      </trkpt>
      <trkpt lat="49.17396" lon="6.9778">
        <ele>328</ele>
        <time>2010-12-05T09:43:37Z</time>
      </trkpt>
      <trkpt lat="49.17398" lon="6.97777">
        <ele>328</ele>
        <time>2010-12-05T09:43:39Z</time>
      </trkpt>
      <trkpt lat="49.17399" lon="6.97774">
        <ele>328</ele>
        <time>2010-12-05T09:43:41Z</time>
      </trkpt>
      <trkpt lat="49.17401" lon="6.97771">
        <ele>328</ele>
        <time>2010-12-05T09:43:43Z</time>
      </trkpt>
      <trkpt lat="49.17402" lon="6.97768">
        <ele>328</ele>
        <time>2010-12-05T09:43:45Z</time>
      </trkpt>
      <trkpt lat="49.17403" lon="6.97766">
        <ele>328</ele>
        <time>2010-12-05T09:43:46Z</time>
      </trkpt>
      <trkpt lat="49.17403" lon="6.97765">
        <ele>328</ele>
        <time>2010-12-05T09:43:47Z</time>
      </trkpt>
      <trkpt lat="49.17404" lon="6.97763">
        <ele>328</ele>
        <time>2010-12-05T09:43:48Z</time>
      </trkpt>
      <trkpt lat="49.17406" lon="6.9776">
        <ele>329</ele>
        <time>2010-12-05T09:43:50Z</time>
      </trkpt>
      <trkpt lat="49.17407" lon="6.97757">
        <ele>329</ele>
        <time>2010-12-05T09:43:52Z</time>
      </trkpt>
      <trkpt lat="49.17409" lon="6.97754">
        <ele>329</ele>
        <time>2010-12-05T09:43:54Z</time>
      </trkpt>
      <trkpt lat="49.1741" lon="6.97751">
        <ele>329</ele>
        <time>2010-12-05T09:43:56Z</time>
      </trkpt>
      <trkpt lat="49.17412" lon="6.97748">
        <ele>329</ele>
        <time>2010-12-05T09:43:58Z</time>
      </trkpt>
      <trkpt lat="49.17414" lon="6.97745">
        <ele>330</ele>
        <time>2010-12-05T09:44:00Z</time>
      </trkpt>
      <trkpt lat="49.17416" lon="6.97742">
        <ele>330</ele>
        <time>2010-12-05T09:44:02Z</time>
      </trkpt>
      <trkpt lat="49.17418" lon="6.9774">
        <ele>330</ele>
        <time>2010-12-05T09:44:04Z</time>
      </trkpt>
      <trkpt lat="49.17419" lon="6.97737">
        <ele>330</ele>
        <time>2010-12-05T09:44:06Z</time>
      </trkpt>
      <trkpt lat="49.17421" lon="6.97733">
        <ele>330</ele>
        <time>2010-12-05T09:44:08Z</time>
      </trkpt>
      <trkpt lat="49.17421" lon="6.97732">
        <ele>330</ele>
        <time>2010-12-05T09:44:09Z</time>
      </trkpt>
      <trkpt lat="49.17423" lon="6.97729">
        <ele>330</ele>
        <time>2010-12-05T09:44:11Z</time>
      </trkpt>
      <trkpt lat="49.17425" lon="6.97727">
        <ele>330</ele>
        <time>2010-12-05T09:44:13Z</time>
      </trkpt>
      <trkpt lat="49.17425" lon="6.97725">
        <ele>330</ele>
        <time>2010-12-05T09:44:14Z</time>
      </trkpt>
      <trkpt lat="49.17426" lon="6.97723">
        <ele>330</ele>
        <time>2010-12-05T09:44:15Z</time>
      </trkpt>
      <trkpt lat="49.17427" lon="6.97721">
        <ele>330</ele>
        <time>2010-12-05T09:44:16Z</time>
      </trkpt>
      <trkpt lat="49.17429" lon="6.97718">
        <ele>330</ele>
        <time>2010-12-05T09:44:18Z</time>
      </trkpt>
      <trkpt lat="49.1743" lon="6.97715">
        <ele>330</ele>
        <time>2010-12-05T09:44:20Z</time>
      </trkpt>
      <trkpt lat="49.17432" lon="6.97713">
        <ele>330</ele>
        <time>2010-12-05T09:44:22Z</time>
      </trkpt>
      <trkpt lat="49.17434" lon="6.9771">
        <ele>330</ele>
        <time>2010-12-05T09:44:24Z</time>
      </trkpt>
      <trkpt lat="49.17434" lon="6.97708">
        <ele>330</ele>
        <time>2010-12-05T09:44:25Z</time>
      </trkpt>
      <trkpt lat="49.17435" lon="6.97707">
        <ele>330</ele>
        <time>2010-12-05T09:44:26Z</time>
      </trkpt>
      <trkpt lat="49.17437" lon="6.97703">
        <ele>330</ele>
        <time>2010-12-05T09:44:28Z</time>
      </trkpt>
      <trkpt lat="49.17438" lon="6.97701">
        <ele>330</ele>
        <time>2010-12-05T09:44:30Z</time>
      </trkpt>
      <trkpt lat="49.1744" lon="6.97698">
        <ele>330</ele>
        <time>2010-12-05T09:44:32Z</time>
      </trkpt>
      <trkpt lat="49.17441" lon="6.97695">
        <ele>330</ele>
        <time>2010-12-05T09:44:34Z</time>
      </trkpt>
      <trkpt lat="49.17442" lon="6.97693">
        <ele>330</ele>
        <time>2010-12-05T09:44:35Z</time>
      </trkpt>
      <trkpt lat="49.17443" lon="6.97692">
        <ele>330</ele>
        <time>2010-12-05T09:44:36Z</time>
      </trkpt>
      <trkpt lat="49.17444" lon="6.97689">
        <ele>330</ele>
        <time>2010-12-05T09:44:38Z</time>
      </trkpt>
      <trkpt lat="49.17446" lon="6.97687">
        <ele>330</ele>
        <time>2010-12-05T09:44:40Z</time>
      </trkpt>
      <trkpt lat="49.17448" lon="6.97684">
        <ele>330</ele>
        <time>2010-12-05T09:44:42Z</time>
      </trkpt>
      <trkpt lat="49.17448" lon="6.97682">
        <ele>330</ele>
        <time>2010-12-05T09:44:43Z</time>
      </trkpt>
      <trkpt lat="49.17449" lon="6.97681">
        <ele>330</ele>
        <time>2010-12-05T09:44:44Z</time>
      </trkpt>
      <trkpt lat="49.1745" lon="6.97678">
        <ele>330</ele>
        <time>2010-12-05T09:44:46Z</time>
      </trkpt>
      <trkpt lat="49.17451" lon="6.97675">
        <ele>330</ele>
        <time>2010-12-05T09:44:48Z</time>
      </trkpt>
      <trkpt lat="49.17453" lon="6.97672">
        <ele>330</ele>
        <time>2010-12-05T09:44:50Z</time>
      </trkpt>
      <trkpt lat="49.17454" lon="6.9767">
        <ele>330</ele>
        <time>2010-12-05T09:44:51Z</time>
      </trkpt>
      <trkpt lat="49.17456" lon="6.97667">
        <ele>330</ele>
        <time>2010-12-05T09:44:53Z</time>
      </trkpt>
      <trkpt lat="49.17457" lon="6.97666">
        <ele>330</ele>
        <time>2010-12-05T09:44:54Z</time>
      </trkpt>
      <trkpt lat="49.17459" lon="6.97663">
        <ele>330</ele>
        <time>2010-12-05T09:44:56Z</time>
      </trkpt>
      <trkpt lat="49.17461" lon="6.9766">
        <ele>330</ele>
        <time>2010-12-05T09:44:58Z</time>
      </trkpt>
      <trkpt lat="49.17463" lon="6.97657">
        <ele>330</ele>
        <time>2010-12-05T09:45:00Z</time>
      </trkpt>
      <trkpt lat="49.17465" lon="6.97655">
        <ele>330</ele>
        <time>2010-12-05T09:45:02Z</time>
      </trkpt>
      <trkpt lat="49.17467" lon="6.97652">
        <ele>330</ele>
        <time>2010-12-05T09:45:04Z</time>
      </trkpt>
      <trkpt lat="49.17468" lon="6.9765">
        <ele>330</ele>
        <time>2010-12-05T09:45:06Z</time>
      </trkpt>
      <trkpt lat="49.1747" lon="6.97648">
        <ele>330</ele>
        <time>2010-12-05T09:45:08Z</time>
      </trkpt>
      <trkpt lat="49.17472" lon="6.97645">
        <ele>330</ele>
        <time>2010-12-05T09:45:10Z</time>
      </trkpt>
      <trkpt lat="49.17474" lon="6.97643">
        <ele>330</ele>
        <time>2010-12-05T09:45:12Z</time>
      </trkpt>
      <trkpt lat="49.17476" lon="6.9764">
        <ele>330</ele>
        <time>2010-12-05T09:45:14Z</time>
      </trkpt>
      <trkpt lat="49.17477" lon="6.97638">
        <ele>330</ele>
        <time>2010-12-05T09:45:16Z</time>
      </trkpt>
      <trkpt lat="49.17479" lon="6.97636">
        <ele>329</ele>
        <time>2010-12-05T09:45:18Z</time>
      </trkpt>
      <trkpt lat="49.1748" lon="6.97634">
        <ele>329</ele>
        <time>2010-12-05T09:45:20Z</time>
      </trkpt>
      <trkpt lat="49.1748" lon="6.97632">
        <ele>329</ele>
        <time>2010-12-05T09:45:21Z</time>
      </trkpt>
      <trkpt lat="49.17479" lon="6.9763">
        <ele>329</ele>
        <time>2010-12-05T09:45:23Z</time>
      </trkpt>
      <trkpt lat="49.17479" lon="6.97627">
        <ele>329</ele>
        <time>2010-12-05T09:45:25Z</time>
      </trkpt>
      <trkpt lat="49.17481" lon="6.97625">
        <ele>329</ele>
        <time>2010-12-05T09:45:27Z</time>
      </trkpt>
      <trkpt lat="49.17482" lon="6.97622">
        <ele>329</ele>
        <time>2010-12-05T09:45:29Z</time>
      </trkpt>
      <trkpt lat="49.17483" lon="6.9762">
        <ele>329</ele>
        <time>2010-12-05T09:45:31Z</time>
      </trkpt>
      <trkpt lat="49.17485" lon="6.97617">
        <ele>329</ele>
        <time>2010-12-05T09:45:33Z</time>
      </trkpt>
      <trkpt lat="49.17486" lon="6.97614">
        <ele>329</ele>
        <time>2010-12-05T09:45:35Z</time>
      </trkpt>
      <trkpt lat="49.17488" lon="6.97611">
        <ele>329</ele>
        <time>2010-12-05T09:45:37Z</time>
      </trkpt>
      <trkpt lat="49.1749" lon="6.97608">
        <ele>329</ele>
        <time>2010-12-05T09:45:39Z</time>
      </trkpt>
      <trkpt lat="49.17491" lon="6.97605">
        <ele>329</ele>
        <time>2010-12-05T09:45:41Z</time>
      </trkpt>
      <trkpt lat="49.17493" lon="6.97603">
        <ele>329</ele>
        <time>2010-12-05T09:45:43Z</time>
      </trkpt>
      <trkpt lat="49.17494" lon="6.97599">
        <ele>329</ele>
        <time>2010-12-05T09:45:45Z</time>
      </trkpt>
      <trkpt lat="49.17495" lon="6.97598">
        <ele>329</ele>
        <time>2010-12-05T09:45:46Z</time>
      </trkpt>
      <trkpt lat="49.17495" lon="6.97596">
        <ele>329</ele>
        <time>2010-12-05T09:45:47Z</time>
      </trkpt>
      <trkpt lat="49.17496" lon="6.97594">
        <ele>329</ele>
        <time>2010-12-05T09:45:48Z</time>
      </trkpt>
      <trkpt lat="49.17497" lon="6.97591">
        <ele>329</ele>
        <time>2010-12-05T09:45:50Z</time>
      </trkpt>
      <trkpt lat="49.17499" lon="6.97588">
        <ele>329</ele>
        <time>2010-12-05T09:45:52Z</time>
      </trkpt>
      <trkpt lat="49.175" lon="6.97585">
        <ele>329</ele>
        <time>2010-12-05T09:45:54Z</time>
      </trkpt>
      <trkpt lat="49.17501" lon="6.97582">
        <ele>329</ele>
        <time>2010-12-05T09:45:56Z</time>
      </trkpt>
      <trkpt lat="49.17503" lon="6.97579">
        <ele>329</ele>
        <time>2010-12-05T09:45:58Z</time>
      </trkpt>
      <trkpt lat="49.17505" lon="6.97577">
        <ele>329</ele>
        <time>2010-12-05T09:46:00Z</time>
      </trkpt>
      <trkpt lat="49.17506" lon="6.97574">
        <ele>329</ele>
        <time>2010-12-05T09:46:02Z</time>
      </trkpt>
      <trkpt lat="49.17507" lon="6.97571">
        <ele>329</ele>
        <time>2010-12-05T09:46:04Z</time>
      </trkpt>
      <trkpt lat="49.17508" lon="6.97568">
        <ele>329</ele>
        <time>2010-12-05T09:46:06Z</time>
      </trkpt>
      <trkpt lat="49.17509" lon="6.97566">
        <ele>329</ele>
        <time>2010-12-05T09:46:08Z</time>
      </trkpt>
      <trkpt lat="49.1751" lon="6.97565">
        <ele>329</ele>
        <time>2010-12-05T09:46:10Z</time>
      </trkpt>
      <trkpt lat="49.17512" lon="6.97561">
        <ele>329</ele>
        <time>2010-12-05T09:46:12Z</time>
      </trkpt>
      <trkpt lat="49.17512" lon="6.9756">
        <ele>329</ele>
        <time>2010-12-05T09:46:13Z</time>
      </trkpt>
      <trkpt lat="49.17513" lon="6.97558">
        <ele>329</ele>
        <time>2010-12-05T09:46:14Z</time>
      </trkpt>
      <trkpt lat="49.17514" lon="6.97556">
        <ele>329</ele>
        <time>2010-12-05T09:46:15Z</time>
      </trkpt>
      <trkpt lat="49.17514" lon="6.97554">
        <ele>329</ele>
        <time>2010-12-05T09:46:16Z</time>
      </trkpt>
      <trkpt lat="49.17514" lon="6.97553">
        <ele>329</ele>
        <time>2010-12-05T09:46:17Z</time>
      </trkpt>
      <trkpt lat="49.17515" lon="6.97551">
        <ele>329</ele>
        <time>2010-12-05T09:46:18Z</time>
      </trkpt>
      <trkpt lat="49.17516" lon="6.97549">
        <ele>329</ele>
        <time>2010-12-05T09:46:19Z</time>
      </trkpt>
      <trkpt lat="49.17517" lon="6.97546">
        <ele>329</ele>
        <time>2010-12-05T09:46:21Z</time>
      </trkpt>
      <trkpt lat="49.17518" lon="6.97545">
        <ele>329</ele>
        <time>2010-12-05T09:46:22Z</time>
      </trkpt>
      <trkpt lat="49.17519" lon="6.97542">
        <ele>329</ele>
        <time>2010-12-05T09:46:24Z</time>
      </trkpt>
      <trkpt lat="49.1752" lon="6.97539">
        <ele>329</ele>
        <time>2010-12-05T09:46:26Z</time>
      </trkpt>
      <trkpt lat="49.17522" lon="6.97536">
        <ele>329</ele>
        <time>2010-12-05T09:46:28Z</time>
      </trkpt>
      <trkpt lat="49.17522" lon="6.97534">
        <ele>329</ele>
        <time>2010-12-05T09:46:29Z</time>
      </trkpt>
      <trkpt lat="49.17523" lon="6.97531">
        <ele>329</ele>
        <time>2010-12-05T09:46:31Z</time>
      </trkpt>
      <trkpt lat="49.17525" lon="6.97529">
        <ele>329</ele>
        <time>2010-12-05T09:46:33Z</time>
      </trkpt>
      <trkpt lat="49.17525" lon="6.97527">
        <ele>329</ele>
        <time>2010-12-05T09:46:34Z</time>
      </trkpt>
      <trkpt lat="49.17526" lon="6.97525">
        <ele>329</ele>
        <time>2010-12-05T09:46:35Z</time>
      </trkpt>
      <trkpt lat="49.17527" lon="6.97522">
        <ele>329</ele>
        <time>2010-12-05T09:46:37Z</time>
      </trkpt>
      <trkpt lat="49.17528" lon="6.9752">
        <ele>329</ele>
        <time>2010-12-05T09:46:39Z</time>
      </trkpt>
      <trkpt lat="49.17529" lon="6.97518">
        <ele>329</ele>
        <time>2010-12-05T09:46:40Z</time>
      </trkpt>
      <trkpt lat="49.1753" lon="6.97515">
        <ele>329</ele>
        <time>2010-12-05T09:46:42Z</time>
      </trkpt>
      <trkpt lat="49.17532" lon="6.97512">
        <ele>329</ele>
        <time>2010-12-05T09:46:44Z</time>
      </trkpt>
      <trkpt lat="49.17533" lon="6.9751">
        <ele>329</ele>
        <time>2010-12-05T09:46:46Z</time>
      </trkpt>
      <trkpt lat="49.17534" lon="6.97507">
        <ele>329</ele>
        <time>2010-12-05T09:46:48Z</time>
      </trkpt>
      <trkpt lat="49.17536" lon="6.97505">
        <ele>329</ele>
        <time>2010-12-05T09:46:50Z</time>
      </trkpt>
      <trkpt lat="49.17537" lon="6.97502">
        <ele>329</ele>
        <time>2010-12-05T09:46:52Z</time>
      </trkpt>
      <trkpt lat="49.17539" lon="6.97499">
        <ele>329</ele>
        <time>2010-12-05T09:46:54Z</time>
      </trkpt>
      <trkpt lat="49.1754" lon="6.97496">
        <ele>329</ele>
        <time>2010-12-05T09:46:56Z</time>
      </trkpt>
      <trkpt lat="49.1754" lon="6.97494">
        <ele>329</ele>
        <time>2010-12-05T09:46:57Z</time>
      </trkpt>
      <trkpt lat="49.17541" lon="6.97491">
        <ele>329</ele>
        <time>2010-12-05T09:46:59Z</time>
      </trkpt>
      <trkpt lat="49.17543" lon="6.97489">
        <ele>329</ele>
        <time>2010-12-05T09:47:01Z</time>
      </trkpt>
      <trkpt lat="49.17544" lon="6.97486">
        <ele>329</ele>
        <time>2010-12-05T09:47:03Z</time>
      </trkpt>
      <trkpt lat="49.17545" lon="6.97483">
        <ele>330</ele>
        <time>2010-12-05T09:47:05Z</time>
      </trkpt>
      <trkpt lat="49.17546" lon="6.9748">
        <ele>330</ele>
        <time>2010-12-05T09:47:07Z</time>
      </trkpt>
      <trkpt lat="49.17547" lon="6.97479">
        <ele>330</ele>
        <time>2010-12-05T09:47:08Z</time>
      </trkpt>
      <trkpt lat="49.17548" lon="6.97476">
        <ele>330</ele>
        <time>2010-12-05T09:47:10Z</time>
      </trkpt>
      <trkpt lat="49.1755" lon="6.97473">
        <ele>330</ele>
        <time>2010-12-05T09:47:12Z</time>
      </trkpt>
      <trkpt lat="49.17551" lon="6.9747">
        <ele>330</ele>
        <time>2010-12-05T09:47:14Z</time>
      </trkpt>
      <trkpt lat="49.17552" lon="6.97468">
        <ele>330</ele>
        <time>2010-12-05T09:47:16Z</time>
      </trkpt>
      <trkpt lat="49.17553" lon="6.97465">
        <ele>330</ele>
        <time>2010-12-05T09:47:18Z</time>
      </trkpt>
      <trkpt lat="49.17555" lon="6.97462">
        <ele>330</ele>
        <time>2010-12-05T09:47:20Z</time>
      </trkpt>
      <trkpt lat="49.17556" lon="6.97459">
        <ele>330</ele>
        <time>2010-12-05T09:47:22Z</time>
      </trkpt>
      <trkpt lat="49.17557" lon="6.97457">
        <ele>331</ele>
        <time>2010-12-05T09:47:24Z</time>
      </trkpt>
      <trkpt lat="49.17559" lon="6.97454">
        <ele>331</ele>
        <time>2010-12-05T09:47:26Z</time>
      </trkpt>
      <trkpt lat="49.17559" lon="6.97452">
        <ele>331</ele>
        <time>2010-12-05T09:47:27Z</time>
      </trkpt>
      <trkpt lat="49.1756" lon="6.9745">
        <ele>331</ele>
        <time>2010-12-05T09:47:28Z</time>
      </trkpt>
      <trkpt lat="49.17561" lon="6.97447">
        <ele>331</ele>
        <time>2010-12-05T09:47:30Z</time>
      </trkpt>
      <trkpt lat="49.17563" lon="6.97445">
        <ele>331</ele>
        <time>2010-12-05T09:47:32Z</time>
      </trkpt>
      <trkpt lat="49.17564" lon="6.97442">
        <ele>331</ele>
        <time>2010-12-05T09:47:34Z</time>
      </trkpt>
      <trkpt lat="49.17566" lon="6.97439">
        <ele>331</ele>
        <time>2010-12-05T09:47:36Z</time>
      </trkpt>
      <trkpt lat="49.17567" lon="6.97437">
        <ele>332</ele>
        <time>2010-12-05T09:47:38Z</time>
      </trkpt>
      <trkpt lat="49.17568" lon="6.97434">
        <ele>332</ele>
        <time>2010-12-05T09:47:40Z</time>
      </trkpt>
      <trkpt lat="49.17569" lon="6.97431">
        <ele>332</ele>
        <time>2010-12-05T09:47:42Z</time>
      </trkpt>
      <trkpt lat="49.1757" lon="6.97428">
        <ele>332</ele>
        <time>2010-12-05T09:47:44Z</time>
      </trkpt>
      <trkpt lat="49.17572" lon="6.97425">
        <ele>332</ele>
        <time>2010-12-05T09:47:46Z</time>
      </trkpt>
      <trkpt lat="49.17573" lon="6.97422">
        <ele>332</ele>
        <time>2010-12-05T09:47:48Z</time>
      </trkpt>
      <trkpt lat="49.17574" lon="6.9742">
        <ele>333</ele>
        <time>2010-12-05T09:47:50Z</time>
      </trkpt>
      <trkpt lat="49.17576" lon="6.97417">
        <ele>333</ele>
        <time>2010-12-05T09:47:52Z</time>
      </trkpt>
      <trkpt lat="49.17577" lon="6.97414">
        <ele>333</ele>
        <time>2010-12-05T09:47:54Z</time>
      </trkpt>
      <trkpt lat="49.17579" lon="6.97411">
        <ele>333</ele>
        <time>2010-12-05T09:47:56Z</time>
      </trkpt>
      <trkpt lat="49.1758" lon="6.97408">
        <ele>333</ele>
        <time>2010-12-05T09:47:58Z</time>
      </trkpt>
      <trkpt lat="49.17581" lon="6.97407">
        <ele>333</ele>
        <time>2010-12-05T09:47:59Z</time>
      </trkpt>
      <trkpt lat="49.17582" lon="6.97404">
        <ele>333</ele>
        <time>2010-12-05T09:48:01Z</time>
      </trkpt>
      <trkpt lat="49.17584" lon="6.97401">
        <ele>333</ele>
        <time>2010-12-05T09:48:03Z</time>
      </trkpt>
      <trkpt lat="49.17585" lon="6.97399">
        <ele>333</ele>
        <time>2010-12-05T09:48:05Z</time>
      </trkpt>
      <trkpt lat="49.17586" lon="6.97397">
        <ele>333</ele>
        <time>2010-12-05T09:48:06Z</time>
      </trkpt>
      <trkpt lat="49.17587" lon="6.97395">
        <ele>334</ele>
        <time>2010-12-05T09:48:07Z</time>
      </trkpt>
      <trkpt lat="49.17588" lon="6.97392">
        <ele>334</ele>
        <time>2010-12-05T09:48:09Z</time>
      </trkpt>
      <trkpt lat="49.17589" lon="6.97389">
        <ele>334</ele>
        <time>2010-12-05T09:48:11Z</time>
      </trkpt>
      <trkpt lat="49.1759" lon="6.97387">
        <ele>334</ele>
        <time>2010-12-05T09:48:13Z</time>
      </trkpt>
      <trkpt lat="49.17592" lon="6.97383">
        <ele>334</ele>
        <time>2010-12-05T09:48:15Z</time>
      </trkpt>
      <trkpt lat="49.17593" lon="6.9738">
        <ele>334</ele>
        <time>2010-12-05T09:48:17Z</time>
      </trkpt>
      <trkpt lat="49.17595" lon="6.97378">
        <ele>335</ele>
        <time>2010-12-05T09:48:19Z</time>
      </trkpt>
      <trkpt lat="49.17596" lon="6.97375">
        <ele>335</ele>
        <time>2010-12-05T09:48:21Z</time>
      </trkpt>
      <trkpt lat="49.17598" lon="6.97373">
        <ele>335</ele>
        <time>2010-12-05T09:48:23Z</time>
      </trkpt>
      <trkpt lat="49.17599" lon="6.9737">
        <ele>335</ele>
        <time>2010-12-05T09:48:25Z</time>
      </trkpt>
      <trkpt lat="49.176" lon="6.97368">
        <ele>335</ele>
        <time>2010-12-05T09:48:26Z</time>
      </trkpt>
      <trkpt lat="49.176" lon="6.97366">
        <ele>335</ele>
        <time>2010-12-05T09:48:27Z</time>
      </trkpt>
      <trkpt lat="49.17602" lon="6.97364">
        <ele>335</ele>
        <time>2010-12-05T09:48:29Z</time>
      </trkpt>
      <trkpt lat="49.17603" lon="6.97361">
        <ele>335</ele>
        <time>2010-12-05T09:48:31Z</time>
      </trkpt>
      <trkpt lat="49.17604" lon="6.97359">
        <ele>335</ele>
        <time>2010-12-05T09:48:33Z</time>
      </trkpt>
      <trkpt lat="49.17606" lon="6.97356">
        <ele>336</ele>
        <time>2010-12-05T09:48:35Z</time>
      </trkpt>
      <trkpt lat="49.17607" lon="6.97353">
        <ele>336</ele>
        <time>2010-12-05T09:48:37Z</time>
      </trkpt>
      <trkpt lat="49.17608" lon="6.97351">
        <ele>336</ele>
        <time>2010-12-05T09:48:39Z</time>
      </trkpt>
      <trkpt lat="49.17609" lon="6.97348">
        <ele>336</ele>
        <time>2010-12-05T09:48:41Z</time>
      </trkpt>
      <trkpt lat="49.17611" lon="6.97346">
        <ele>336</ele>
        <time>2010-12-05T09:48:43Z</time>
      </trkpt>
      <trkpt lat="49.17612" lon="6.97343">
        <ele>336</ele>
        <time>2010-12-05T09:48:45Z</time>
      </trkpt>
      <trkpt lat="49.17614" lon="6.97341">
        <ele>336</ele>
        <time>2010-12-05T09:48:47Z</time>
      </trkpt>
      <trkpt lat="49.17615" lon="6.97338">
        <ele>336</ele>
        <time>2010-12-05T09:48:49Z</time>
      </trkpt>
      <trkpt lat="49.17617" lon="6.97335">
        <ele>336</ele>
        <time>2010-12-05T09:48:51Z</time>
      </trkpt>
      <trkpt lat="49.17618" lon="6.97332">
        <ele>336</ele>
        <time>2010-12-05T09:48:53Z</time>
      </trkpt>
      <trkpt lat="49.1762" lon="6.9733">
        <ele>336</ele>
        <time>2010-12-05T09:48:55Z</time>
      </trkpt>
      <trkpt lat="49.17621" lon="6.97326">
        <ele>336</ele>
        <time>2010-12-05T09:48:57Z</time>
      </trkpt>
      <trkpt lat="49.17623" lon="6.97323">
        <ele>336</ele>
        <time>2010-12-05T09:48:59Z</time>
      </trkpt>
      <trkpt lat="49.17624" lon="6.97321">
        <ele>337</ele>
        <time>2010-12-05T09:49:01Z</time>
      </trkpt>
      <trkpt lat="49.17625" lon="6.97318">
        <ele>337</ele>
        <time>2010-12-05T09:49:03Z</time>
      </trkpt>
      <trkpt lat="49.17627" lon="6.97316">
        <ele>337</ele>
        <time>2010-12-05T09:49:05Z</time>
      </trkpt>
      <trkpt lat="49.17628" lon="6.97313">
        <ele>337</ele>
        <time>2010-12-05T09:49:07Z</time>
      </trkpt>
      <trkpt lat="49.1763" lon="6.9731">
        <ele>337</ele>
        <time>2010-12-05T09:49:09Z</time>
      </trkpt>
      <trkpt lat="49.17631" lon="6.97307">
        <ele>337</ele>
        <time>2010-12-05T09:49:11Z</time>
      </trkpt>
      <trkpt lat="49.17632" lon="6.97305">
        <ele>337</ele>
        <time>2010-12-05T09:49:13Z</time>
      </trkpt>
      <trkpt lat="49.17633" lon="6.97302">
        <ele>337</ele>
        <time>2010-12-05T09:49:15Z</time>
      </trkpt>
      <trkpt lat="49.17635" lon="6.97299">
        <ele>337</ele>
        <time>2010-12-05T09:49:17Z</time>
      </trkpt>
      <trkpt lat="49.17635" lon="6.97297">
        <ele>337</ele>
        <time>2010-12-05T09:49:19Z</time>
      </trkpt>
      <trkpt lat="49.17637" lon="6.97295">
        <ele>337</ele>
        <time>2010-12-05T09:49:21Z</time>
      </trkpt>
      <trkpt lat="49.17638" lon="6.97293">
        <ele>337</ele>
        <time>2010-12-05T09:49:23Z</time>
      </trkpt>
      <trkpt lat="49.17638" lon="6.9729">
        <ele>337</ele>
        <time>2010-12-05T09:49:25Z</time>
      </trkpt>
      <trkpt lat="49.17639" lon="6.97287">
        <ele>338</ele>
        <time>2010-12-05T09:49:27Z</time>
      </trkpt>
      <trkpt lat="49.1764" lon="6.97285">
        <ele>338</ele>
        <time>2010-12-05T09:49:28Z</time>
      </trkpt>
      <trkpt lat="49.17641" lon="6.97283">
        <ele>338</ele>
        <time>2010-12-05T09:49:29Z</time>
      </trkpt>
      <trkpt lat="49.17642" lon="6.9728">
        <ele>338</ele>
        <time>2010-12-05T09:49:31Z</time>
      </trkpt>
      <trkpt lat="49.17643" lon="6.97277">
        <ele>338</ele>
        <time>2010-12-05T09:49:33Z</time>
      </trkpt>
      <trkpt lat="49.17644" lon="6.97275">
        <ele>338</ele>
        <time>2010-12-05T09:49:34Z</time>
      </trkpt>
      <trkpt lat="49.17646" lon="6.97272">
        <ele>338</ele>
        <time>2010-12-05T09:49:36Z</time>
      </trkpt>
      <trkpt lat="49.17646" lon="6.97271">
        <ele>338</ele>
        <time>2010-12-05T09:49:37Z</time>
      </trkpt>
      <trkpt lat="49.17648" lon="6.97268">
        <ele>338</ele>
        <time>2010-12-05T09:49:39Z</time>
      </trkpt>
      <trkpt lat="49.17649" lon="6.97265">
        <ele>338</ele>
        <time>2010-12-05T09:49:41Z</time>
      </trkpt>
      <trkpt lat="49.1765" lon="6.97263">
        <ele>338</ele>
        <time>2010-12-05T09:49:43Z</time>
      </trkpt>
      <trkpt lat="49.1765" lon="6.97261">
        <ele>338</ele>
        <time>2010-12-05T09:49:45Z</time>
      </trkpt>
      <trkpt lat="49.17651" lon="6.97258">
        <ele>338</ele>
        <time>2010-12-05T09:49:47Z</time>
      </trkpt>
      <trkpt lat="49.17652" lon="6.97256">
        <ele>338</ele>
        <time>2010-12-05T09:49:49Z</time>
      </trkpt>
      <trkpt lat="49.17653" lon="6.97254">
        <ele>338</ele>
        <time>2010-12-05T09:49:51Z</time>
      </trkpt>
      <trkpt lat="49.17652" lon="6.97254">
        <ele>338</ele>
        <time>2010-12-05T09:49:54Z</time>
      </trkpt>
      <trkpt lat="49.17652" lon="6.97252">
        <ele>338</ele>
        <time>2010-12-05T09:50:07Z</time>
      </trkpt>
      <trkpt lat="49.17653" lon="6.9725">
        <ele>338</ele>
        <time>2010-12-05T09:50:09Z</time>
      </trkpt>
      <trkpt lat="49.17654" lon="6.97247">
        <ele>338</ele>
        <time>2010-12-05T09:50:11Z</time>
      </trkpt>
      <trkpt lat="49.17656" lon="6.97244">
        <ele>338</ele>
        <time>2010-12-05T09:50:13Z</time>
      </trkpt>
      <trkpt lat="49.17657" lon="6.97241">
        <ele>338</ele>
        <time>2010-12-05T09:50:15Z</time>
      </trkpt>
      <trkpt lat="49.17659" lon="6.97239">
        <ele>338</ele>
        <time>2010-12-05T09:50:17Z</time>
      </trkpt>
      <trkpt lat="49.1766" lon="6.97236">
        <ele>338</ele>
        <time>2010-12-05T09:50:19Z</time>
      </trkpt>
      <trkpt lat="49.17661" lon="6.97233">
        <ele>338</ele>
        <time>2010-12-05T09:50:21Z</time>
      </trkpt>
      <trkpt lat="49.17663" lon="6.9723">
        <ele>338</ele>
        <time>2010-12-05T09:50:23Z</time>
      </trkpt>
      <trkpt lat="49.17664" lon="6.97227">
        <ele>338</ele>
        <time>2010-12-05T09:50:25Z</time>
      </trkpt>
      <trkpt lat="49.17665" lon="6.97226">
        <ele>338</ele>
        <time>2010-12-05T09:50:26Z</time>
      </trkpt>
      <trkpt lat="49.17666" lon="6.97224">
        <ele>338</ele>
        <time>2010-12-05T09:50:27Z</time>
      </trkpt>
      <trkpt lat="49.17667" lon="6.97222">
        <ele>338</ele>
        <time>2010-12-05T09:50:29Z</time>
      </trkpt>
      <trkpt lat="49.17669" lon="6.97218">
        <ele>338</ele>
        <time>2010-12-05T09:50:31Z</time>
      </trkpt>
      <trkpt lat="49.1767" lon="6.97215">
        <ele>338</ele>
        <time>2010-12-05T09:50:33Z</time>
      </trkpt>
      <trkpt lat="49.17672" lon="6.97212">
        <ele>338</ele>
        <time>2010-12-05T09:50:35Z</time>
      </trkpt>
      <trkpt lat="49.17673" lon="6.97209">
        <ele>338</ele>
        <time>2010-12-05T09:50:37Z</time>
      </trkpt>
      <trkpt lat="49.17674" lon="6.97206">
        <ele>338</ele>
        <time>2010-12-05T09:50:39Z</time>
      </trkpt>
      <trkpt lat="49.17675" lon="6.97204">
        <ele>338</ele>
        <time>2010-12-05T09:50:41Z</time>
      </trkpt>
      <trkpt lat="49.17677" lon="6.97201">
        <ele>338</ele>
        <time>2010-12-05T09:50:43Z</time>
      </trkpt>
      <trkpt lat="49.17678" lon="6.97198">
        <ele>338</ele>
        <time>2010-12-05T09:50:45Z</time>
      </trkpt>
      <trkpt lat="49.17679" lon="6.97195">
        <ele>338</ele>
        <time>2010-12-05T09:50:47Z</time>
      </trkpt>
      <trkpt lat="49.1768" lon="6.97194">
        <ele>338</ele>
        <time>2010-12-05T09:50:48Z</time>
      </trkpt>
      <trkpt lat="49.1768" lon="6.97192">
        <ele>338</ele>
        <time>2010-12-05T09:50:49Z</time>
      </trkpt>
      <trkpt lat="49.1768" lon="6.9719">
        <ele>338</ele>
        <time>2010-12-05T09:50:50Z</time>
      </trkpt>
      <trkpt lat="49.17681" lon="6.97187">
        <ele>338</ele>
        <time>2010-12-05T09:50:52Z</time>
      </trkpt>
      <trkpt lat="49.17682" lon="6.97185">
        <ele>338</ele>
        <time>2010-12-05T09:50:54Z</time>
      </trkpt>
      <trkpt lat="49.17683" lon="6.97183">
        <ele>338</ele>
        <time>2010-12-05T09:50:56Z</time>
      </trkpt>
      <trkpt lat="49.17683" lon="6.9718">
        <ele>338</ele>
        <time>2010-12-05T09:50:58Z</time>
      </trkpt>
      <trkpt lat="49.17684" lon="6.97179">
        <ele>338</ele>
        <time>2010-12-05T09:50:59Z</time>
      </trkpt>
      <trkpt lat="49.17684" lon="6.97177">
        <ele>338</ele>
        <time>2010-12-05T09:51:00Z</time>
      </trkpt>
      <trkpt lat="49.17685" lon="6.97175">
        <ele>338</ele>
        <time>2010-12-05T09:51:01Z</time>
      </trkpt>
      <trkpt lat="49.17685" lon="6.97174">
        <ele>338</ele>
        <time>2010-12-05T09:51:02Z</time>
      </trkpt>
      <trkpt lat="49.17686" lon="6.9717">
        <ele>338</ele>
        <time>2010-12-05T09:51:04Z</time>
      </trkpt>
      <trkpt lat="49.17687" lon="6.97169">
        <ele>338</ele>
        <time>2010-12-05T09:51:05Z</time>
      </trkpt>
      <trkpt lat="49.17688" lon="6.97167">
        <ele>338</ele>
        <time>2010-12-05T09:51:06Z</time>
      </trkpt>
      <trkpt lat="49.17689" lon="6.97164">
        <ele>338</ele>
        <time>2010-12-05T09:51:08Z</time>
      </trkpt>
      <trkpt lat="49.1769" lon="6.97161">
        <ele>338</ele>
        <time>2010-12-05T09:51:10Z</time>
      </trkpt>
      <trkpt lat="49.17691" lon="6.97159">
        <ele>338</ele>
        <time>2010-12-05T09:51:11Z</time>
      </trkpt>
      <trkpt lat="49.17691" lon="6.97157">
        <ele>338</ele>
        <time>2010-12-05T09:51:12Z</time>
      </trkpt>
      <trkpt lat="49.17691" lon="6.97156">
        <ele>338</ele>
        <time>2010-12-05T09:51:13Z</time>
      </trkpt>
      <trkpt lat="49.17691" lon="6.97154">
        <ele>338</ele>
        <time>2010-12-05T09:51:14Z</time>
      </trkpt>
      <trkpt lat="49.17692" lon="6.97152">
        <ele>338</ele>
        <time>2010-12-05T09:51:15Z</time>
      </trkpt>
      <trkpt lat="49.17693" lon="6.97151">
        <ele>338</ele>
        <time>2010-12-05T09:51:16Z</time>
      </trkpt>
      <trkpt lat="49.17694" lon="6.97148">
        <ele>338</ele>
        <time>2010-12-05T09:51:18Z</time>
      </trkpt>
      <trkpt lat="49.17694" lon="6.97146">
        <ele>338</ele>
        <time>2010-12-05T09:51:19Z</time>
      </trkpt>
      <trkpt lat="49.17696" lon="6.97143">
        <ele>338</ele>
        <time>2010-12-05T09:51:21Z</time>
      </trkpt>
      <trkpt lat="49.17696" lon="6.97141">
        <ele>338</ele>
        <time>2010-12-05T09:51:22Z</time>
      </trkpt>
      <trkpt lat="49.17698" lon="6.97138">
        <ele>338</ele>
        <time>2010-12-05T09:51:24Z</time>
      </trkpt>
      <trkpt lat="49.17699" lon="6.97135">
        <ele>338</ele>
        <time>2010-12-05T09:51:26Z</time>
      </trkpt>
      <trkpt lat="49.177" lon="6.97132">
        <ele>338</ele>
        <time>2010-12-05T09:51:28Z</time>
      </trkpt>
      <trkpt lat="49.17701" lon="6.97129">
        <ele>338</ele>
        <time>2010-12-05T09:51:30Z</time>
      </trkpt>
      <trkpt lat="49.17703" lon="6.97127">
        <ele>338</ele>
        <time>2010-12-05T09:51:32Z</time>
      </trkpt>
      <trkpt lat="49.17704" lon="6.97124">
        <ele>338</ele>
        <time>2010-12-05T09:51:34Z</time>
      </trkpt>
      <trkpt lat="49.17704" lon="6.97122">
        <ele>338</ele>
        <time>2010-12-05T09:51:35Z</time>
      </trkpt>
      <trkpt lat="49.17706" lon="6.9712">
        <ele>338</ele>
        <time>2010-12-05T09:51:37Z</time>
      </trkpt>
      <trkpt lat="49.17707" lon="6.9712">
        <ele>338</ele>
        <time>2010-12-05T09:51:40Z</time>
      </trkpt>
      <trkpt lat="49.17709" lon="6.9712">
        <ele>338</ele>
        <time>2010-12-05T09:51:43Z</time>
      </trkpt>
      <trkpt lat="49.1771" lon="6.97121">
        <ele>338</ele>
        <time>2010-12-05T09:51:46Z</time>
      </trkpt>
      <trkpt lat="49.17712" lon="6.97121">
        <ele>338</ele>
        <time>2010-12-05T09:51:48Z</time>
      </trkpt>
      <trkpt lat="49.17714" lon="6.9712">
        <ele>338</ele>
        <time>2010-12-05T09:51:50Z</time>
      </trkpt>
      <trkpt lat="49.17716" lon="6.97119">
        <ele>338</ele>
        <time>2010-12-05T09:51:52Z</time>
      </trkpt>
      <trkpt lat="49.17717" lon="6.97119">
        <ele>338</ele>
        <time>2010-12-05T09:51:53Z</time>
      </trkpt>
      <trkpt lat="49.17719" lon="6.97119">
        <ele>338</ele>
        <time>2010-12-05T09:51:55Z</time>
      </trkpt>
      <trkpt lat="49.17721" lon="6.97119">
        <ele>338</ele>
        <time>2010-12-05T09:51:57Z</time>
      </trkpt>
      <trkpt lat="49.17722" lon="6.97119">
        <ele>338</ele>
        <time>2010-12-05T09:51:58Z</time>
      </trkpt>
      <trkpt lat="49.17724" lon="6.97119">
        <ele>338</ele>
        <time>2010-12-05T09:52:00Z</time>
      </trkpt>
      <trkpt lat="49.17726" lon="6.97118">
        <ele>338</ele>
        <time>2010-12-05T09:52:02Z</time>
      </trkpt>
      <trkpt lat="49.17727" lon="6.97119">
        <ele>338</ele>
        <time>2010-12-05T09:52:04Z</time>
      </trkpt>
      <trkpt lat="49.17729" lon="6.97118">
        <ele>338</ele>
        <time>2010-12-05T09:52:06Z</time>
      </trkpt>
      <trkpt lat="49.17731" lon="6.97118">
        <ele>338</ele>
        <time>2010-12-05T09:52:08Z</time>
      </trkpt>
      <trkpt lat="49.17733" lon="6.97118">
        <ele>338</ele>
        <time>2010-12-05T09:52:10Z</time>
      </trkpt>
      <trkpt lat="49.17735" lon="6.97118">
        <ele>338</ele>
        <time>2010-12-05T09:52:12Z</time>
      </trkpt>
      <trkpt lat="49.17736" lon="6.97118">
        <ele>338</ele>
        <time>2010-12-05T09:52:13Z</time>
      </trkpt>
      <trkpt lat="49.17738" lon="6.97118">
        <ele>338</ele>
        <time>2010-12-05T09:52:14Z</time>
      </trkpt>
      <trkpt lat="49.1774" lon="6.97117">
        <ele>338</ele>
        <time>2010-12-05T09:52:16Z</time>
      </trkpt>
      <trkpt lat="49.17742" lon="6.97117">
        <ele>338</ele>
        <time>2010-12-05T09:52:18Z</time>
      </trkpt>
      <trkpt lat="49.17744" lon="6.97116">
        <ele>338</ele>
        <time>2010-12-05T09:52:20Z</time>
      </trkpt>
      <trkpt lat="49.17746" lon="6.97115">
        <ele>338</ele>
        <time>2010-12-05T09:52:22Z</time>
      </trkpt>
      <trkpt lat="49.17747" lon="6.97115">
        <ele>338</ele>
        <time>2010-12-05T09:52:24Z</time>
      </trkpt>
      <trkpt lat="49.17749" lon="6.97114">
        <ele>338</ele>
        <time>2010-12-05T09:52:26Z</time>
      </trkpt>
      <trkpt lat="49.17751" lon="6.97113">
        <ele>338</ele>
        <time>2010-12-05T09:52:28Z</time>
      </trkpt>
      <trkpt lat="49.17752" lon="6.97113">
        <ele>338</ele>
        <time>2010-12-05T09:52:29Z</time>
      </trkpt>
      <trkpt lat="49.17753" lon="6.97112">
        <ele>338</ele>
        <time>2010-12-05T09:52:30Z</time>
      </trkpt>
      <trkpt lat="49.17754" lon="6.97112">
        <ele>338</ele>
        <time>2010-12-05T09:52:31Z</time>
      </trkpt>
      <trkpt lat="49.17756" lon="6.97111">
        <ele>338</ele>
        <time>2010-12-05T09:52:32Z</time>
      </trkpt>
      <trkpt lat="49.17757" lon="6.9711">
        <ele>338</ele>
        <time>2010-12-05T09:52:34Z</time>
      </trkpt>
      <trkpt lat="49.17759" lon="6.97109">
        <ele>338</ele>
        <time>2010-12-05T09:52:36Z</time>
      </trkpt>
      <trkpt lat="49.17761" lon="6.97107">
        <ele>338</ele>
        <time>2010-12-05T09:52:38Z</time>
      </trkpt>
      <trkpt lat="49.17762" lon="6.97106">
        <ele>339</ele>
        <time>2010-12-05T09:52:40Z</time>
      </trkpt>
      <trkpt lat="49.17764" lon="6.97106">
        <ele>339</ele>
        <time>2010-12-05T09:52:41Z</time>
      </trkpt>
      <trkpt lat="49.17765" lon="6.97105">
        <ele>339</ele>
        <time>2010-12-05T09:52:42Z</time>
      </trkpt>
      <trkpt lat="49.17767" lon="6.97104">
        <ele>339</ele>
        <time>2010-12-05T09:52:44Z</time>
      </trkpt>
      <trkpt lat="49.17768" lon="6.97103">
        <ele>339</ele>
        <time>2010-12-05T09:52:45Z</time>
      </trkpt>
      <trkpt lat="49.1777" lon="6.97102">
        <ele>339</ele>
        <time>2010-12-05T09:52:47Z</time>
      </trkpt>
      <trkpt lat="49.17772" lon="6.97101">
        <ele>339</ele>
        <time>2010-12-05T09:52:49Z</time>
      </trkpt>
      <trkpt lat="49.17774" lon="6.971">
        <ele>339</ele>
        <time>2010-12-05T09:52:51Z</time>
      </trkpt>
      <trkpt lat="49.17775" lon="6.97098">
        <ele>339</ele>
        <time>2010-12-05T09:52:53Z</time>
      </trkpt>
      <trkpt lat="49.17777" lon="6.97096">
        <ele>339</ele>
        <time>2010-12-05T09:52:55Z</time>
      </trkpt>
      <trkpt lat="49.17779" lon="6.97094">
        <ele>339</ele>
        <time>2010-12-05T09:52:57Z</time>
      </trkpt>
      <trkpt lat="49.17781" lon="6.97094">
        <ele>339</ele>
        <time>2010-12-05T09:52:58Z</time>
      </trkpt>
      <trkpt lat="49.17782" lon="6.97092">
        <ele>339</ele>
        <time>2010-12-05T09:53:00Z</time>
      </trkpt>
      <trkpt lat="49.17783" lon="6.97091">
        <ele>339</ele>
        <time>2010-12-05T09:53:01Z</time>
      </trkpt>
      <trkpt lat="49.17785" lon="6.97089">
        <ele>339</ele>
        <time>2010-12-05T09:53:03Z</time>
      </trkpt>
      <trkpt lat="49.17786" lon="6.97087">
        <ele>339</ele>
        <time>2010-12-05T09:53:05Z</time>
      </trkpt>
      <trkpt lat="49.17788" lon="6.97085">
        <ele>340</ele>
        <time>2010-12-05T09:53:07Z</time>
      </trkpt>
      <trkpt lat="49.1779" lon="6.97083">
        <ele>340</ele>
        <time>2010-12-05T09:53:09Z</time>
      </trkpt>
      <trkpt lat="49.17792" lon="6.97081">
        <ele>340</ele>
        <time>2010-12-05T09:53:11Z</time>
      </trkpt>
      <trkpt lat="49.17793" lon="6.97081">
        <ele>340</ele>
        <time>2010-12-05T09:53:12Z</time>
      </trkpt>
      <trkpt lat="49.17795" lon="6.97079">
        <ele>340</ele>
        <time>2010-12-05T09:53:14Z</time>
      </trkpt>
      <trkpt lat="49.17797" lon="6.97078">
        <ele>340</ele>
        <time>2010-12-05T09:53:16Z</time>
      </trkpt>
      <trkpt lat="49.17799" lon="6.97076">
        <ele>340</ele>
        <time>2010-12-05T09:53:18Z</time>
      </trkpt>
      <trkpt lat="49.178" lon="6.97074">
        <ele>340</ele>
        <time>2010-12-05T09:53:20Z</time>
      </trkpt>
      <trkpt lat="49.17802" lon="6.97072">
        <ele>340</ele>
        <time>2010-12-05T09:53:22Z</time>
      </trkpt>
      <trkpt lat="49.17804" lon="6.9707">
        <ele>340</ele>
        <time>2010-12-05T09:53:24Z</time>
      </trkpt>
      <trkpt lat="49.17805" lon="6.97068">
        <ele>340</ele>
        <time>2010-12-05T09:53:26Z</time>
      </trkpt>
      <trkpt lat="49.17807" lon="6.97066">
        <ele>340</ele>
        <time>2010-12-05T09:53:28Z</time>
      </trkpt>
      <trkpt lat="49.17809" lon="6.97066">
        <ele>340</ele>
        <time>2010-12-05T09:53:29Z</time>
      </trkpt>
      <trkpt lat="49.1781" lon="6.97065">
        <ele>340</ele>
        <time>2010-12-05T09:53:30Z</time>
      </trkpt>
      <trkpt lat="49.17812" lon="6.97064">
        <ele>340</ele>
        <time>2010-12-05T09:53:32Z</time>
      </trkpt>
      <trkpt lat="49.17814" lon="6.97062">
        <ele>340</ele>
        <time>2010-12-05T09:53:34Z</time>
      </trkpt>
      <trkpt lat="49.17816" lon="6.97061">
        <ele>340</ele>
        <time>2010-12-05T09:53:36Z</time>
      </trkpt>
      <trkpt lat="49.17818" lon="6.97059">
        <ele>340</ele>
        <time>2010-12-05T09:53:38Z</time>
      </trkpt>
      <trkpt lat="49.17819" lon="6.97058">
        <ele>340</ele>
        <time>2010-12-05T09:53:39Z</time>
      </trkpt>
      <trkpt lat="49.17821" lon="6.97056">
        <ele>340</ele>
        <time>2010-12-05T09:53:41Z</time>
      </trkpt>
      <trkpt lat="49.17822" lon="6.97056">
        <ele>340</ele>
        <time>2010-12-05T09:53:42Z</time>
      </trkpt>
      <trkpt lat="49.17823" lon="6.97055">
        <ele>340</ele>
        <time>2010-12-05T09:53:43Z</time>
      </trkpt>
      <trkpt lat="49.17825" lon="6.97053">
        <ele>340</ele>
        <time>2010-12-05T09:53:45Z</time>
      </trkpt>
      <trkpt lat="49.17827" lon="6.97053">
        <ele>340</ele>
        <time>2010-12-05T09:53:46Z</time>
      </trkpt>
      <trkpt lat="49.17829" lon="6.97051">
        <ele>340</ele>
        <time>2010-12-05T09:53:48Z</time>
      </trkpt>
      <trkpt lat="49.17831" lon="6.9705">
        <ele>340</ele>
        <time>2010-12-05T09:53:50Z</time>
      </trkpt>
      <trkpt lat="49.17832" lon="6.97049">
        <ele>340</ele>
        <time>2010-12-05T09:53:51Z</time>
      </trkpt>
      <trkpt lat="49.17833" lon="6.97049">
        <ele>340</ele>
        <time>2010-12-05T09:53:52Z</time>
      </trkpt>
      <trkpt lat="49.17835" lon="6.97047">
        <ele>340</ele>
        <time>2010-12-05T09:53:54Z</time>
      </trkpt>
      <trkpt lat="49.17837" lon="6.97045">
        <ele>340</ele>
        <time>2010-12-05T09:53:56Z</time>
      </trkpt>
      <trkpt lat="49.17839" lon="6.97043">
        <ele>340</ele>
        <time>2010-12-05T09:53:58Z</time>
      </trkpt>
      <trkpt lat="49.1784" lon="6.97042">
        <ele>340</ele>
        <time>2010-12-05T09:53:59Z</time>
      </trkpt>
      <trkpt lat="49.17841" lon="6.97041">
        <ele>340</ele>
        <time>2010-12-05T09:54:00Z</time>
      </trkpt>
      <trkpt lat="49.17843" lon="6.9704">
        <ele>340</ele>
        <time>2010-12-05T09:54:02Z</time>
      </trkpt>
      <trkpt lat="49.17845" lon="6.97038">
        <ele>340</ele>
        <time>2010-12-05T09:54:04Z</time>
      </trkpt>
      <trkpt lat="49.17847" lon="6.97035">
        <ele>340</ele>
        <time>2010-12-05T09:54:06Z</time>
      </trkpt>
      <trkpt lat="49.17848" lon="6.97033">
        <ele>340</ele>
        <time>2010-12-05T09:54:08Z</time>
      </trkpt>
      <trkpt lat="49.1785" lon="6.9703">
        <ele>340</ele>
        <time>2010-12-05T09:54:10Z</time>
      </trkpt>
      <trkpt lat="49.17852" lon="6.97028">
        <ele>340</ele>
        <time>2010-12-05T09:54:12Z</time>
      </trkpt>
      <trkpt lat="49.17853" lon="6.97026">
        <ele>340</ele>
        <time>2010-12-05T09:54:14Z</time>
      </trkpt>
      <trkpt lat="49.17855" lon="6.97024">
        <ele>340</ele>
        <time>2010-12-05T09:54:16Z</time>
      </trkpt>
      <trkpt lat="49.17856" lon="6.97023">
        <ele>340</ele>
        <time>2010-12-05T09:54:17Z</time>
      </trkpt>
      <trkpt lat="49.17857" lon="6.97022">
        <ele>340</ele>
        <time>2010-12-05T09:54:18Z</time>
      </trkpt>
      <trkpt lat="49.17859" lon="6.97022">
        <ele>340</ele>
        <time>2010-12-05T09:54:19Z</time>
      </trkpt>
      <trkpt lat="49.1786" lon="6.9702">
        <ele>340</ele>
        <time>2010-12-05T09:54:21Z</time>
      </trkpt>
      <trkpt lat="49.17862" lon="6.97018">
        <ele>340</ele>
        <time>2010-12-05T09:54:23Z</time>
      </trkpt>
      <trkpt lat="49.17864" lon="6.97016">
        <ele>340</ele>
        <time>2010-12-05T09:54:25Z</time>
      </trkpt>
      <trkpt lat="49.17865" lon="6.97014">
        <ele>340</ele>
        <time>2010-12-05T09:54:27Z</time>
      </trkpt>
      <trkpt lat="49.17867" lon="6.97011">
        <ele>340</ele>
        <time>2010-12-05T09:54:29Z</time>
      </trkpt>
      <trkpt lat="49.17869" lon="6.97009">
        <ele>340</ele>
        <time>2010-12-05T09:54:31Z</time>
      </trkpt>
      <trkpt lat="49.17871" lon="6.97007">
        <ele>340</ele>
        <time>2010-12-05T09:54:33Z</time>
      </trkpt>
      <trkpt lat="49.17873" lon="6.97006">
        <ele>340</ele>
        <time>2010-12-05T09:54:35Z</time>
      </trkpt>
      <trkpt lat="49.17874" lon="6.97005">
        <ele>340</ele>
        <time>2010-12-05T09:54:36Z</time>
      </trkpt>
      <trkpt lat="49.17875" lon="6.97005">
        <ele>340</ele>
        <time>2010-12-05T09:54:37Z</time>
      </trkpt>
      <trkpt lat="49.17877" lon="6.97003">
        <ele>340</ele>
        <time>2010-12-05T09:54:39Z</time>
      </trkpt>
      <trkpt lat="49.17878" lon="6.97001">
        <ele>340</ele>
        <time>2010-12-05T09:54:41Z</time>
      </trkpt>
      <trkpt lat="49.1788" lon="6.96999">
        <ele>340</ele>
        <time>2010-12-05T09:54:43Z</time>
      </trkpt>
      <trkpt lat="49.17882" lon="6.96997">
        <ele>340</ele>
        <time>2010-12-05T09:54:45Z</time>
      </trkpt>
      <trkpt lat="49.17884" lon="6.96995">
        <ele>340</ele>
        <time>2010-12-05T09:54:47Z</time>
      </trkpt>
      <trkpt lat="49.17885" lon="6.96994">
        <ele>340</ele>
        <time>2010-12-05T09:54:48Z</time>
      </trkpt>
      <trkpt lat="49.17886" lon="6.96993">
        <ele>340</ele>
        <time>2010-12-05T09:54:49Z</time>
      </trkpt>
      <trkpt lat="49.17887" lon="6.96991">
        <ele>340</ele>
        <time>2010-12-05T09:54:51Z</time>
      </trkpt>
      <trkpt lat="49.17889" lon="6.96989">
        <ele>340</ele>
        <time>2010-12-05T09:54:53Z</time>
      </trkpt>
      <trkpt lat="49.17891" lon="6.96986">
        <ele>340</ele>
        <time>2010-12-05T09:54:55Z</time>
      </trkpt>
      <trkpt lat="49.17892" lon="6.96984">
        <ele>340</ele>
        <time>2010-12-05T09:54:57Z</time>
      </trkpt>
      <trkpt lat="49.17894" lon="6.96984">
        <ele>340</ele>
        <time>2010-12-05T09:54:58Z</time>
      </trkpt>
      <trkpt lat="49.17895" lon="6.96983">
        <ele>340</ele>
        <time>2010-12-05T09:54:59Z</time>
      </trkpt>
      <trkpt lat="49.17896" lon="6.96981">
        <ele>340</ele>
        <time>2010-12-05T09:55:01Z</time>
      </trkpt>
      <trkpt lat="49.17898" lon="6.96979">
        <ele>340</ele>
        <time>2010-12-05T09:55:03Z</time>
      </trkpt>
      <trkpt lat="49.17899" lon="6.96978">
        <ele>340</ele>
        <time>2010-12-05T09:55:04Z</time>
      </trkpt>
      <trkpt lat="49.17901" lon="6.96976">
        <ele>340</ele>
        <time>2010-12-05T09:55:06Z</time>
      </trkpt>
      <trkpt lat="49.17903" lon="6.96974">
        <ele>340</ele>
        <time>2010-12-05T09:55:08Z</time>
      </trkpt>
      <trkpt lat="49.17905" lon="6.96974">
        <ele>340</ele>
        <time>2010-12-05T09:55:09Z</time>
      </trkpt>
      <trkpt lat="49.17907" lon="6.96972">
        <ele>339</ele>
        <time>2010-12-05T09:55:11Z</time>
      </trkpt>
      <trkpt lat="49.17908" lon="6.9697">
        <ele>339</ele>
        <time>2010-12-05T09:55:13Z</time>
      </trkpt>
      <trkpt lat="49.1791" lon="6.96969">
        <ele>339</ele>
        <time>2010-12-05T09:55:15Z</time>
      </trkpt>
      <trkpt lat="49.17912" lon="6.96968">
        <ele>339</ele>
        <time>2010-12-05T09:55:16Z</time>
      </trkpt>
      <trkpt lat="49.17913" lon="6.96966">
        <ele>339</ele>
        <time>2010-12-05T09:55:18Z</time>
      </trkpt>
      <trkpt lat="49.17915" lon="6.96964">
        <ele>339</ele>
        <time>2010-12-05T09:55:20Z</time>
      </trkpt>
      <trkpt lat="49.17917" lon="6.96962">
        <ele>339</ele>
        <time>2010-12-05T09:55:22Z</time>
      </trkpt>
      <trkpt lat="49.17918" lon="6.96962">
        <ele>339</ele>
        <time>2010-12-05T09:55:23Z</time>
      </trkpt>
      <trkpt lat="49.1792" lon="6.9696">
        <ele>339</ele>
        <time>2010-12-05T09:55:25Z</time>
      </trkpt>
      <trkpt lat="49.17921" lon="6.96958">
        <ele>339</ele>
        <time>2010-12-05T09:55:27Z</time>
      </trkpt>
      <trkpt lat="49.17923" lon="6.96956">
        <ele>339</ele>
        <time>2010-12-05T09:55:29Z</time>
      </trkpt>
      <trkpt lat="49.17926" lon="6.96954">
        <ele>339</ele>
        <time>2010-12-05T09:55:31Z</time>
      </trkpt>
      <trkpt lat="49.17927" lon="6.96953">
        <ele>338</ele>
        <time>2010-12-05T09:55:32Z</time>
      </trkpt>
      <trkpt lat="49.17928" lon="6.96953">
        <ele>338</ele>
        <time>2010-12-05T09:55:33Z</time>
      </trkpt>
      <trkpt lat="49.1793" lon="6.96951">
        <ele>338</ele>
        <time>2010-12-05T09:55:35Z</time>
      </trkpt>
      <trkpt lat="49.17932" lon="6.9695">
        <ele>338</ele>
        <time>2010-12-05T09:55:37Z</time>
      </trkpt>
      <trkpt lat="49.17934" lon="6.96948">
        <ele>338</ele>
        <time>2010-12-05T09:55:39Z</time>
      </trkpt>
      <trkpt lat="49.17936" lon="6.96947">
        <ele>338</ele>
        <time>2010-12-05T09:55:41Z</time>
      </trkpt>
      <trkpt lat="49.17937" lon="6.96946">
        <ele>338</ele>
        <time>2010-12-05T09:55:42Z</time>
      </trkpt>
      <trkpt lat="49.17939" lon="6.96943">
        <ele>338</ele>
        <time>2010-12-05T09:55:44Z</time>
      </trkpt>
      <trkpt lat="49.17941" lon="6.96942">
        <ele>338</ele>
        <time>2010-12-05T09:55:46Z</time>
      </trkpt>
      <trkpt lat="49.17942" lon="6.96941">
        <ele>337</ele>
        <time>2010-12-05T09:55:47Z</time>
      </trkpt>
      <trkpt lat="49.17944" lon="6.9694">
        <ele>337</ele>
        <time>2010-12-05T09:55:49Z</time>
      </trkpt>
      <trkpt lat="49.17945" lon="6.96938">
        <ele>336</ele>
        <time>2010-12-05T09:55:51Z</time>
      </trkpt>
      <trkpt lat="49.17946" lon="6.96935">
        <ele>336</ele>
        <time>2010-12-05T09:55:53Z</time>
      </trkpt>
      <trkpt lat="49.17947" lon="6.96933">
        <ele>336</ele>
        <time>2010-12-05T09:55:55Z</time>
      </trkpt>
      <trkpt lat="49.17948" lon="6.9693">
        <ele>336</ele>
        <time>2010-12-05T09:55:57Z</time>
      </trkpt>
      <trkpt lat="49.1795" lon="6.96929">
        <ele>336</ele>
        <time>2010-12-05T09:55:59Z</time>
      </trkpt>
      <trkpt lat="49.17951" lon="6.96927">
        <ele>336</ele>
        <time>2010-12-05T09:56:01Z</time>
      </trkpt>
      <trkpt lat="49.17953" lon="6.96925">
        <ele>336</ele>
        <time>2010-12-05T09:56:03Z</time>
      </trkpt>
      <trkpt lat="49.17955" lon="6.96924">
        <ele>336</ele>
        <time>2010-12-05T09:56:05Z</time>
      </trkpt>
      <trkpt lat="49.17957" lon="6.96922">
        <ele>336</ele>
        <time>2010-12-05T09:56:07Z</time>
      </trkpt>
      <trkpt lat="49.17958" lon="6.96919">
        <ele>336</ele>
        <time>2010-12-05T09:56:09Z</time>
      </trkpt>
      <trkpt lat="49.1796" lon="6.96917">
        <ele>336</ele>
        <time>2010-12-05T09:56:11Z</time>
      </trkpt>
      <trkpt lat="49.17961" lon="6.96915">
        <ele>336</ele>
        <time>2010-12-05T09:56:13Z</time>
      </trkpt>
      <trkpt lat="49.17963" lon="6.96912">
        <ele>336</ele>
        <time>2010-12-05T09:56:15Z</time>
      </trkpt>
      <trkpt lat="49.17965" lon="6.9691">
        <ele>336</ele>
        <time>2010-12-05T09:56:17Z</time>
      </trkpt>
      <trkpt lat="49.17966" lon="6.96908">
        <ele>335</ele>
        <time>2010-12-05T09:56:19Z</time>
      </trkpt>
      <trkpt lat="49.17968" lon="6.96906">
        <ele>335</ele>
        <time>2010-12-05T09:56:21Z</time>
      </trkpt>
      <trkpt lat="49.17971" lon="6.96904">
        <ele>335</ele>
        <time>2010-12-05T09:56:23Z</time>
      </trkpt>
      <trkpt lat="49.17973" lon="6.96902">
        <ele>335</ele>
        <time>2010-12-05T09:56:25Z</time>
      </trkpt>
      <trkpt lat="49.17974" lon="6.96901">
        <ele>335</ele>
        <time>2010-12-05T09:56:26Z</time>
      </trkpt>
      <trkpt lat="49.17975" lon="6.969">
        <ele>334</ele>
        <time>2010-12-05T09:56:27Z</time>
      </trkpt>
      <trkpt lat="49.17976" lon="6.96898">
        <ele>334</ele>
        <time>2010-12-05T09:56:29Z</time>
      </trkpt>
      <trkpt lat="49.17977" lon="6.96896">
        <ele>334</ele>
        <time>2010-12-05T09:56:31Z</time>
      </trkpt>
      <trkpt lat="49.17978" lon="6.96894">
        <ele>334</ele>
        <time>2010-12-05T09:56:32Z</time>
      </trkpt>
      <trkpt lat="49.1798" lon="6.96892">
        <ele>333</ele>
        <time>2010-12-05T09:56:34Z</time>
      </trkpt>
      <trkpt lat="49.17981" lon="6.96889">
        <ele>333</ele>
        <time>2010-12-05T09:56:36Z</time>
      </trkpt>
      <trkpt lat="49.17982" lon="6.96886">
        <ele>333</ele>
        <time>2010-12-05T09:56:38Z</time>
      </trkpt>
      <trkpt lat="49.17984" lon="6.96883">
        <ele>333</ele>
        <time>2010-12-05T09:56:40Z</time>
      </trkpt>
      <trkpt lat="49.17984" lon="6.96881">
        <ele>333</ele>
        <time>2010-12-05T09:56:41Z</time>
      </trkpt>
      <trkpt lat="49.17985" lon="6.96878">
        <ele>333</ele>
        <time>2010-12-05T09:56:43Z</time>
      </trkpt>
      <trkpt lat="49.17987" lon="6.96876">
        <ele>333</ele>
        <time>2010-12-05T09:56:45Z</time>
      </trkpt>
      <trkpt lat="49.17987" lon="6.96874">
        <ele>333</ele>
        <time>2010-12-05T09:56:46Z</time>
      </trkpt>
      <trkpt lat="49.17987" lon="6.96872">
        <ele>333</ele>
        <time>2010-12-05T09:56:47Z</time>
      </trkpt>
      <trkpt lat="49.17989" lon="6.9687">
        <ele>333</ele>
        <time>2010-12-05T09:56:49Z</time>
      </trkpt>
      <trkpt lat="49.1799" lon="6.96869">
        <ele>333</ele>
        <time>2010-12-05T09:56:50Z</time>
      </trkpt>
      <trkpt lat="49.17993" lon="6.96868">
        <ele>333</ele>
        <time>2010-12-05T09:56:52Z</time>
      </trkpt>
      <trkpt lat="49.17995" lon="6.96865">
        <ele>333</ele>
        <time>2010-12-05T09:56:54Z</time>
      </trkpt>
      <trkpt lat="49.17997" lon="6.96862">
        <ele>333</ele>
        <time>2010-12-05T09:56:56Z</time>
      </trkpt>
      <trkpt lat="49.17998" lon="6.96862">
        <ele>333</ele>
        <time>2010-12-05T09:56:57Z</time>
      </trkpt>
      <trkpt lat="49.18" lon="6.96859">
        <ele>333</ele>
        <time>2010-12-05T09:56:59Z</time>
      </trkpt>
      <trkpt lat="49.18002" lon="6.96857">
        <ele>333</ele>
        <time>2010-12-05T09:57:01Z</time>
      </trkpt>
      <trkpt lat="49.18003" lon="6.96854">
        <ele>333</ele>
        <time>2010-12-05T09:57:03Z</time>
      </trkpt>
      <trkpt lat="49.18005" lon="6.96852">
        <ele>333</ele>
        <time>2010-12-05T09:57:05Z</time>
      </trkpt>
      <trkpt lat="49.18006" lon="6.96851">
        <ele>333</ele>
        <time>2010-12-05T09:57:06Z</time>
      </trkpt>
      <trkpt lat="49.18008" lon="6.9685">
        <ele>333</ele>
        <time>2010-12-05T09:57:08Z</time>
      </trkpt>
      <trkpt lat="49.1801" lon="6.96849">
        <ele>332</ele>
        <time>2010-12-05T09:57:10Z</time>
      </trkpt>
      <trkpt lat="49.18012" lon="6.96848">
        <ele>332</ele>
        <time>2010-12-05T09:57:12Z</time>
      </trkpt>
      <trkpt lat="49.18013" lon="6.96847">
        <ele>332</ele>
        <time>2010-12-05T09:57:13Z</time>
      </trkpt>
      <trkpt lat="49.18015" lon="6.96846">
        <ele>332</ele>
        <time>2010-12-05T09:57:15Z</time>
      </trkpt>
      <trkpt lat="49.18017" lon="6.96845">
        <ele>332</ele>
        <time>2010-12-05T09:57:17Z</time>
      </trkpt>
      <trkpt lat="49.18017" lon="6.96842">
        <ele>332</ele>
        <time>2010-12-05T09:57:19Z</time>
      </trkpt>
      <trkpt lat="49.18019" lon="6.9684">
        <ele>332</ele>
        <time>2010-12-05T09:57:21Z</time>
      </trkpt>
      <trkpt lat="49.18021" lon="6.96838">
        <ele>332</ele>
        <time>2010-12-05T09:57:23Z</time>
      </trkpt>
      <trkpt lat="49.18023" lon="6.96837">
        <ele>332</ele>
        <time>2010-12-05T09:57:25Z</time>
      </trkpt>
      <trkpt lat="49.18024" lon="6.96835">
        <ele>332</ele>
        <time>2010-12-05T09:57:26Z</time>
      </trkpt>
      <trkpt lat="49.18025" lon="6.96834">
        <ele>332</ele>
        <time>2010-12-05T09:57:27Z</time>
      </trkpt>
      <trkpt lat="49.18026" lon="6.96833">
        <ele>332</ele>
        <time>2010-12-05T09:57:28Z</time>
      </trkpt>
      <trkpt lat="49.18027" lon="6.96832">
        <ele>332</ele>
        <time>2010-12-05T09:57:29Z</time>
      </trkpt>
      <trkpt lat="49.18029" lon="6.96829">
        <ele>332</ele>
        <time>2010-12-05T09:57:31Z</time>
      </trkpt>
      <trkpt lat="49.18031" lon="6.96827">
        <ele>332</ele>
        <time>2010-12-05T09:57:33Z</time>
      </trkpt>
      <trkpt lat="49.18032" lon="6.96824">
        <ele>332</ele>
        <time>2010-12-05T09:57:35Z</time>
      </trkpt>
      <trkpt lat="49.18034" lon="6.96821">
        <ele>332</ele>
        <time>2010-12-05T09:57:37Z</time>
      </trkpt>
      <trkpt lat="49.18036" lon="6.96819">
        <ele>332</ele>
        <time>2010-12-05T09:57:39Z</time>
      </trkpt>
      <trkpt lat="49.18037" lon="6.96816">
        <ele>332</ele>
        <time>2010-12-05T09:57:41Z</time>
      </trkpt>
      <trkpt lat="49.18037" lon="6.96814">
        <ele>332</ele>
        <time>2010-12-05T09:57:42Z</time>
      </trkpt>
      <trkpt lat="49.18039" lon="6.96811">
        <ele>332</ele>
        <time>2010-12-05T09:57:44Z</time>
      </trkpt>
      <trkpt lat="49.18041" lon="6.96809">
        <ele>332</ele>
        <time>2010-12-05T09:57:46Z</time>
      </trkpt>
      <trkpt lat="49.18043" lon="6.96806">
        <ele>332</ele>
        <time>2010-12-05T09:57:48Z</time>
      </trkpt>
      <trkpt lat="49.18045" lon="6.96804">
        <ele>332</ele>
        <time>2010-12-05T09:57:50Z</time>
      </trkpt>
      <trkpt lat="49.18047" lon="6.96802">
        <ele>332</ele>
        <time>2010-12-05T09:57:52Z</time>
      </trkpt>
      <trkpt lat="49.18048" lon="6.968">
        <ele>332</ele>
        <time>2010-12-05T09:57:54Z</time>
      </trkpt>
      <trkpt lat="49.1805" lon="6.96798">
        <ele>332</ele>
        <time>2010-12-05T09:57:56Z</time>
      </trkpt>
      <trkpt lat="49.18052" lon="6.96795">
        <ele>332</ele>
        <time>2010-12-05T09:57:58Z</time>
      </trkpt>
      <trkpt lat="49.18053" lon="6.96793">
        <ele>332</ele>
        <time>2010-12-05T09:58:00Z</time>
      </trkpt>
      <trkpt lat="49.18055" lon="6.96791">
        <ele>332</ele>
        <time>2010-12-05T09:58:02Z</time>
      </trkpt>
      <trkpt lat="49.18055" lon="6.96789">
        <ele>332</ele>
        <time>2010-12-05T09:58:03Z</time>
      </trkpt>
      <trkpt lat="49.18055" lon="6.96787">
        <ele>332</ele>
        <time>2010-12-05T09:58:04Z</time>
      </trkpt>
      <trkpt lat="49.18057" lon="6.96784">
        <ele>332</ele>
        <time>2010-12-05T09:58:06Z</time>
      </trkpt>
      <trkpt lat="49.18058" lon="6.96782">
        <ele>333</ele>
        <time>2010-12-05T09:58:08Z</time>
      </trkpt>
      <trkpt lat="49.1806" lon="6.9678">
        <ele>333</ele>
        <time>2010-12-05T09:58:10Z</time>
      </trkpt>
      <trkpt lat="49.18062" lon="6.96779">
        <ele>333</ele>
        <time>2010-12-05T09:58:12Z</time>
      </trkpt>
      <trkpt lat="49.18063" lon="6.96779">
        <ele>333</ele>
        <time>2010-12-05T09:58:13Z</time>
      </trkpt>
      <trkpt lat="49.18065" lon="6.9678">
        <ele>333</ele>
        <time>2010-12-05T09:58:14Z</time>
      </trkpt>
      <trkpt lat="49.18066" lon="6.96781">
        <ele>333</ele>
        <time>2010-12-05T09:58:15Z</time>
      </trkpt>
      <trkpt lat="49.18067" lon="6.96781">
        <ele>333</ele>
        <time>2010-12-05T09:58:16Z</time>
      </trkpt>
      <trkpt lat="49.18068" lon="6.96783">
        <ele>333</ele>
        <time>2010-12-05T09:58:18Z</time>
      </trkpt>
      <trkpt lat="49.18069" lon="6.96786">
        <ele>333</ele>
        <time>2010-12-05T09:58:20Z</time>
      </trkpt>
      <trkpt lat="49.1807" lon="6.96789">
        <ele>333</ele>
        <time>2010-12-05T09:58:22Z</time>
      </trkpt>
      <trkpt lat="49.1807" lon="6.96791">
        <ele>333</ele>
        <time>2010-12-05T09:58:23Z</time>
      </trkpt>
      <trkpt lat="49.1807" lon="6.96793">
        <ele>333</ele>
        <time>2010-12-05T09:58:25Z</time>
      </trkpt>
      <trkpt lat="49.18071" lon="6.96796">
        <ele>333</ele>
        <time>2010-12-05T09:58:27Z</time>
      </trkpt>
      <trkpt lat="49.18073" lon="6.96799">
        <ele>333</ele>
        <time>2010-12-05T09:58:29Z</time>
      </trkpt>
      <trkpt lat="49.18075" lon="6.96801">
        <ele>334</ele>
        <time>2010-12-05T09:58:31Z</time>
      </trkpt>
      <trkpt lat="49.18076" lon="6.96804">
        <ele>334</ele>
        <time>2010-12-05T09:58:33Z</time>
      </trkpt>
      <trkpt lat="49.18078" lon="6.96806">
        <ele>334</ele>
        <time>2010-12-05T09:58:35Z</time>
      </trkpt>
      <trkpt lat="49.18079" lon="6.96808">
        <ele>334</ele>
        <time>2010-12-05T09:58:37Z</time>
      </trkpt>
      <trkpt lat="49.18081" lon="6.9681">
        <ele>335</ele>
        <time>2010-12-05T09:58:39Z</time>
      </trkpt>
      <trkpt lat="49.18082" lon="6.96811">
        <ele>335</ele>
        <time>2010-12-05T09:58:40Z</time>
      </trkpt>
      <trkpt lat="49.18084" lon="6.96814">
        <ele>335</ele>
        <time>2010-12-05T09:58:42Z</time>
      </trkpt>
      <trkpt lat="49.18086" lon="6.96816">
        <ele>335</ele>
        <time>2010-12-05T09:58:44Z</time>
      </trkpt>
      <trkpt lat="49.18088" lon="6.96818">
        <ele>335</ele>
        <time>2010-12-05T09:58:46Z</time>
      </trkpt>
      <trkpt lat="49.1809" lon="6.9682">
        <ele>335</ele>
        <time>2010-12-05T09:58:48Z</time>
      </trkpt>
      <trkpt lat="49.18091" lon="6.96822">
        <ele>335</ele>
        <time>2010-12-05T09:58:50Z</time>
      </trkpt>
      <trkpt lat="49.18092" lon="6.96824">
        <ele>335</ele>
        <time>2010-12-05T09:58:52Z</time>
      </trkpt>
      <trkpt lat="49.18093" lon="6.96827">
        <ele>335</ele>
        <time>2010-12-05T09:58:54Z</time>
      </trkpt>
      <trkpt lat="49.18095" lon="6.9683">
        <ele>335</ele>
        <time>2010-12-05T09:58:56Z</time>
      </trkpt>
      <trkpt lat="49.18096" lon="6.96832">
        <ele>336</ele>
        <time>2010-12-05T09:58:58Z</time>
      </trkpt>
      <trkpt lat="49.18098" lon="6.96835">
        <ele>336</ele>
        <time>2010-12-05T09:59:00Z</time>
      </trkpt>
      <trkpt lat="49.18099" lon="6.96836">
        <ele>336</ele>
        <time>2010-12-05T09:59:01Z</time>
      </trkpt>
      <trkpt lat="49.181" lon="6.96838">
        <ele>336</ele>
        <time>2010-12-05T09:59:02Z</time>
      </trkpt>
      <trkpt lat="49.18101" lon="6.96839">
        <ele>336</ele>
        <time>2010-12-05T09:59:03Z</time>
      </trkpt>
      <trkpt lat="49.18102" lon="6.9684">
        <ele>336</ele>
        <time>2010-12-05T09:59:04Z</time>
      </trkpt>
      <trkpt lat="49.18104" lon="6.96842">
        <ele>337</ele>
        <time>2010-12-05T09:59:06Z</time>
      </trkpt>
      <trkpt lat="49.18105" lon="6.96844">
        <ele>337</ele>
        <time>2010-12-05T09:59:08Z</time>
      </trkpt>
      <trkpt lat="49.18107" lon="6.96847">
        <ele>337</ele>
        <time>2010-12-05T09:59:10Z</time>
      </trkpt>
      <trkpt lat="49.18109" lon="6.96849">
        <ele>337</ele>
        <time>2010-12-05T09:59:12Z</time>
      </trkpt>
      <trkpt lat="49.1811" lon="6.9685">
        <ele>338</ele>
        <time>2010-12-05T09:59:13Z</time>
      </trkpt>
      <trkpt lat="49.18112" lon="6.96852">
        <ele>338</ele>
        <time>2010-12-05T09:59:15Z</time>
      </trkpt>
      <trkpt lat="49.18114" lon="6.96855">
        <ele>338</ele>
        <time>2010-12-05T09:59:17Z</time>
      </trkpt>
      <trkpt lat="49.18116" lon="6.96858">
        <ele>338</ele>
        <time>2010-12-05T09:59:19Z</time>
      </trkpt>
      <trkpt lat="49.18117" lon="6.9686">
        <ele>338</ele>
        <time>2010-12-05T09:59:21Z</time>
      </trkpt>
      <trkpt lat="49.18119" lon="6.96862">
        <ele>338</ele>
        <time>2010-12-05T09:59:23Z</time>
      </trkpt>
      <trkpt lat="49.1812" lon="6.96864">
        <ele>339</ele>
        <time>2010-12-05T09:59:25Z</time>
      </trkpt>
      <trkpt lat="49.18122" lon="6.96866">
        <ele>339</ele>
        <time>2010-12-05T09:59:27Z</time>
      </trkpt>
      <trkpt lat="49.18123" lon="6.96867">
        <ele>339</ele>
        <time>2010-12-05T09:59:28Z</time>
      </trkpt>
      <trkpt lat="49.18125" lon="6.9687">
        <ele>339</ele>
        <time>2010-12-05T09:59:30Z</time>
      </trkpt>
      <trkpt lat="49.18126" lon="6.96872">
        <ele>339</ele>
        <time>2010-12-05T09:59:32Z</time>
      </trkpt>
      <trkpt lat="49.18128" lon="6.96874">
        <ele>339</ele>
        <time>2010-12-05T09:59:34Z</time>
      </trkpt>
      <trkpt lat="49.1813" lon="6.96876">
        <ele>339</ele>
        <time>2010-12-05T09:59:36Z</time>
      </trkpt>
      <trkpt lat="49.18132" lon="6.96879">
        <ele>339</ele>
        <time>2010-12-05T09:59:38Z</time>
      </trkpt>
      <trkpt lat="49.18134" lon="6.96881">
        <ele>339</ele>
        <time>2010-12-05T09:59:40Z</time>
      </trkpt>
      <trkpt lat="49.18136" lon="6.96883">
        <ele>339</ele>
        <time>2010-12-05T09:59:43Z</time>
      </trkpt>
      <trkpt lat="49.18137" lon="6.96886">
        <ele>339</ele>
        <time>2010-12-05T09:59:44Z</time>
      </trkpt>
      <trkpt lat="49.1814" lon="6.96889">
        <ele>339</ele>
        <time>2010-12-05T09:59:46Z</time>
      </trkpt>
      <trkpt lat="49.18141" lon="6.9689">
        <ele>339</ele>
        <time>2010-12-05T09:59:47Z</time>
      </trkpt>
      <trkpt lat="49.18142" lon="6.96892">
        <ele>339</ele>
        <time>2010-12-05T09:59:49Z</time>
      </trkpt>
      <trkpt lat="49.18143" lon="6.96895">
        <ele>340</ele>
        <time>2010-12-05T09:59:51Z</time>
      </trkpt>
      <trkpt lat="49.18145" lon="6.96898">
        <ele>340</ele>
        <time>2010-12-05T09:59:53Z</time>
      </trkpt>
      <trkpt lat="49.18146" lon="6.969">
        <ele>340</ele>
        <time>2010-12-05T09:59:55Z</time>
      </trkpt>
      <trkpt lat="49.18148" lon="6.96903">
        <ele>340</ele>
        <time>2010-12-05T09:59:57Z</time>
      </trkpt>
      <trkpt lat="49.1815" lon="6.96905">
        <ele>340</ele>
        <time>2010-12-05T09:59:59Z</time>
      </trkpt>
      <trkpt lat="49.18151" lon="6.96908">
        <ele>340</ele>
        <time>2010-12-05T10:00:01Z</time>
      </trkpt>
      <trkpt lat="49.18154" lon="6.9691">
        <ele>340</ele>
        <time>2010-12-05T10:00:03Z</time>
      </trkpt>
      <trkpt lat="49.18155" lon="6.96911">
        <ele>340</ele>
        <time>2010-12-05T10:00:04Z</time>
      </trkpt>
      <trkpt lat="49.18156" lon="6.96913">
        <ele>340</ele>
        <time>2010-12-05T10:00:06Z</time>
      </trkpt>
      <trkpt lat="49.18157" lon="6.96917">
        <ele>340</ele>
        <time>2010-12-05T10:00:08Z</time>
      </trkpt>
      <trkpt lat="49.18159" lon="6.96919">
        <ele>340</ele>
        <time>2010-12-05T10:00:10Z</time>
      </trkpt>
      <trkpt lat="49.18161" lon="6.96922">
        <ele>340</ele>
        <time>2010-12-05T10:00:12Z</time>
      </trkpt>
      <trkpt lat="49.18163" lon="6.96924">
        <ele>340</ele>
        <time>2010-12-05T10:00:14Z</time>
      </trkpt>
      <trkpt lat="49.18164" lon="6.96927">
        <ele>340</ele>
        <time>2010-12-05T10:00:16Z</time>
      </trkpt>
      <trkpt lat="49.18166" lon="6.96929">
        <ele>340</ele>
        <time>2010-12-05T10:00:18Z</time>
      </trkpt>
      <trkpt lat="49.18167" lon="6.96931">
        <ele>340</ele>
        <time>2010-12-05T10:00:20Z</time>
      </trkpt>
      <trkpt lat="49.18168" lon="6.96933">
        <ele>340</ele>
        <time>2010-12-05T10:00:22Z</time>
      </trkpt>
      <trkpt lat="49.1817" lon="6.96934">
        <ele>340</ele>
        <time>2010-12-05T10:00:24Z</time>
      </trkpt>
      <trkpt lat="49.18171" lon="6.96934">
        <ele>340</ele>
        <time>2010-12-05T10:00:25Z</time>
      </trkpt>
      <trkpt lat="49.18173" lon="6.96933">
        <ele>340</ele>
        <time>2010-12-05T10:00:27Z</time>
      </trkpt>
      <trkpt lat="49.18175" lon="6.96932">
        <ele>340</ele>
        <time>2010-12-05T10:00:29Z</time>
      </trkpt>
      <trkpt lat="49.18177" lon="6.9693">
        <ele>340</ele>
        <time>2010-12-05T10:00:31Z</time>
      </trkpt>
      <trkpt lat="49.18178" lon="6.96929">
        <ele>340</ele>
        <time>2010-12-05T10:00:32Z</time>
      </trkpt>
      <trkpt lat="49.1818" lon="6.96927">
        <ele>340</ele>
        <time>2010-12-05T10:00:34Z</time>
      </trkpt>
      <trkpt lat="49.18182" lon="6.96924">
        <ele>340</ele>
        <time>2010-12-05T10:00:36Z</time>
      </trkpt>
      <trkpt lat="49.18184" lon="6.96921">
        <ele>340</ele>
        <time>2010-12-05T10:00:38Z</time>
      </trkpt>
      <trkpt lat="49.18184" lon="6.96919">
        <ele>340</ele>
        <time>2010-12-05T10:00:39Z</time>
      </trkpt>
      <trkpt lat="49.18186" lon="6.96917">
        <ele>340</ele>
        <time>2010-12-05T10:00:41Z</time>
      </trkpt>
      <trkpt lat="49.18186" lon="6.96915">
        <ele>340</ele>
        <time>2010-12-05T10:00:42Z</time>
      </trkpt>
      <trkpt lat="49.18187" lon="6.96913">
        <ele>340</ele>
        <time>2010-12-05T10:00:43Z</time>
      </trkpt>
      <trkpt lat="49.18188" lon="6.96911">
        <ele>340</ele>
        <time>2010-12-05T10:00:45Z</time>
      </trkpt>
      <trkpt lat="49.18189" lon="6.96909">
        <ele>340</ele>
        <time>2010-12-05T10:00:46Z</time>
      </trkpt>
      <trkpt lat="49.18189" lon="6.96907">
        <ele>340</ele>
        <time>2010-12-05T10:00:47Z</time>
      </trkpt>
      <trkpt lat="49.1819" lon="6.96904">
        <ele>340</ele>
        <time>2010-12-05T10:00:49Z</time>
      </trkpt>
      <trkpt lat="49.1819" lon="6.96902">
        <ele>340</ele>
        <time>2010-12-05T10:00:50Z</time>
      </trkpt>
      <trkpt lat="49.18191" lon="6.96899">
        <ele>340</ele>
        <time>2010-12-05T10:00:52Z</time>
      </trkpt>
      <trkpt lat="49.18193" lon="6.96897">
        <ele>340</ele>
        <time>2010-12-05T10:00:54Z</time>
      </trkpt>
      <trkpt lat="49.18195" lon="6.96895">
        <ele>340</ele>
        <time>2010-12-05T10:00:56Z</time>
      </trkpt>
      <trkpt lat="49.18195" lon="6.96893">
        <ele>340</ele>
        <time>2010-12-05T10:00:57Z</time>
      </trkpt>
      <trkpt lat="49.18196" lon="6.96891">
        <ele>340</ele>
        <time>2010-12-05T10:00:58Z</time>
      </trkpt>
      <trkpt lat="49.18196" lon="6.96889">
        <ele>340</ele>
        <time>2010-12-05T10:00:59Z</time>
      </trkpt>
      <trkpt lat="49.18198" lon="6.96888">
        <ele>340</ele>
        <time>2010-12-05T10:01:00Z</time>
      </trkpt>
      <trkpt lat="49.18199" lon="6.96887">
        <ele>340</ele>
        <time>2010-12-05T10:01:01Z</time>
      </trkpt>
      <trkpt lat="49.18201" lon="6.96884">
        <ele>340</ele>
        <time>2010-12-05T10:01:03Z</time>
      </trkpt>
      <trkpt lat="49.18203" lon="6.96882">
        <ele>340</ele>
        <time>2010-12-05T10:01:05Z</time>
      </trkpt>
      <trkpt lat="49.18204" lon="6.96881">
        <ele>340</ele>
        <time>2010-12-05T10:01:06Z</time>
      </trkpt>
      <trkpt lat="49.18205" lon="6.9688">
        <ele>340</ele>
        <time>2010-12-05T10:01:07Z</time>
      </trkpt>
      <trkpt lat="49.18206" lon="6.9688">
        <ele>340</ele>
        <time>2010-12-05T10:01:08Z</time>
      </trkpt>
      <trkpt lat="49.18208" lon="6.96877">
        <ele>340</ele>
        <time>2010-12-05T10:01:10Z</time>
      </trkpt>
      <trkpt lat="49.18209" lon="6.96876">
        <ele>340</ele>
        <time>2010-12-05T10:01:11Z</time>
      </trkpt>
      <trkpt lat="49.18212" lon="6.96874">
        <ele>340</ele>
        <time>2010-12-05T10:01:13Z</time>
      </trkpt>
      <trkpt lat="49.18213" lon="6.96871">
        <ele>340</ele>
        <time>2010-12-05T10:01:15Z</time>
      </trkpt>
      <trkpt lat="49.18214" lon="6.96869">
        <ele>340</ele>
        <time>2010-12-05T10:01:17Z</time>
      </trkpt>
      <trkpt lat="49.18214" lon="6.96868">
        <ele>340</ele>
        <time>2010-12-05T10:01:19Z</time>
      </trkpt>
      <trkpt lat="49.18216" lon="6.96865">
        <ele>340</ele>
        <time>2010-12-05T10:01:23Z</time>
      </trkpt>
      <trkpt lat="49.18217" lon="6.96862">
        <ele>340</ele>
        <time>2010-12-05T10:01:25Z</time>
      </trkpt>
      <trkpt lat="49.18219" lon="6.9686">
        <ele>340</ele>
        <time>2010-12-05T10:01:27Z</time>
      </trkpt>
      <trkpt lat="49.1822" lon="6.96857">
        <ele>340</ele>
        <time>2010-12-05T10:01:29Z</time>
      </trkpt>
      <trkpt lat="49.18222" lon="6.96854">
        <ele>340</ele>
        <time>2010-12-05T10:01:31Z</time>
      </trkpt>
      <trkpt lat="49.18224" lon="6.96852">
        <ele>340</ele>
        <time>2010-12-05T10:01:33Z</time>
      </trkpt>
      <trkpt lat="49.18226" lon="6.96849">
        <ele>340</ele>
        <time>2010-12-05T10:01:35Z</time>
      </trkpt>
      <trkpt lat="49.18227" lon="6.96847">
        <ele>340</ele>
        <time>2010-12-05T10:01:37Z</time>
      </trkpt>
      <trkpt lat="49.18229" lon="6.96844">
        <ele>340</ele>
        <time>2010-12-05T10:01:39Z</time>
      </trkpt>
      <trkpt lat="49.18231" lon="6.96841">
        <ele>340</ele>
        <time>2010-12-05T10:01:41Z</time>
      </trkpt>
      <trkpt lat="49.18232" lon="6.96838">
        <ele>340</ele>
        <time>2010-12-05T10:01:43Z</time>
      </trkpt>
      <trkpt lat="49.18234" lon="6.96835">
        <ele>340</ele>
        <time>2010-12-05T10:01:45Z</time>
      </trkpt>
      <trkpt lat="49.18235" lon="6.96834">
        <ele>340</ele>
        <time>2010-12-05T10:01:46Z</time>
      </trkpt>
      <trkpt lat="49.18237" lon="6.96831">
        <ele>340</ele>
        <time>2010-12-05T10:01:48Z</time>
      </trkpt>
      <trkpt lat="49.18239" lon="6.96829">
        <ele>340</ele>
        <time>2010-12-05T10:01:50Z</time>
      </trkpt>
      <trkpt lat="49.1824" lon="6.96825">
        <ele>340</ele>
        <time>2010-12-05T10:01:52Z</time>
      </trkpt>
      <trkpt lat="49.18241" lon="6.96823">
        <ele>340</ele>
        <time>2010-12-05T10:01:54Z</time>
      </trkpt>
      <trkpt lat="49.18243" lon="6.9682">
        <ele>340</ele>
        <time>2010-12-05T10:01:56Z</time>
      </trkpt>
      <trkpt lat="49.18244" lon="6.96819">
        <ele>340</ele>
        <time>2010-12-05T10:01:57Z</time>
      </trkpt>
      <trkpt lat="49.18245" lon="6.96818">
        <ele>340</ele>
        <time>2010-12-05T10:01:58Z</time>
      </trkpt>
      <trkpt lat="49.18247" lon="6.96816">
        <ele>340</ele>
        <time>2010-12-05T10:02:00Z</time>
      </trkpt>
      <trkpt lat="49.18249" lon="6.96814">
        <ele>340</ele>
        <time>2010-12-05T10:02:02Z</time>
      </trkpt>
      <trkpt lat="49.18251" lon="6.96812">
        <ele>340</ele>
        <time>2010-12-05T10:02:04Z</time>
      </trkpt>
      <trkpt lat="49.18253" lon="6.96809">
        <ele>340</ele>
        <time>2010-12-05T10:02:06Z</time>
      </trkpt>
      <trkpt lat="49.18253" lon="6.96807">
        <ele>340</ele>
        <time>2010-12-05T10:02:07Z</time>
      </trkpt>
      <trkpt lat="49.18255" lon="6.96805">
        <ele>340</ele>
        <time>2010-12-05T10:02:09Z</time>
      </trkpt>
      <trkpt lat="49.18257" lon="6.96803">
        <ele>340</ele>
        <time>2010-12-05T10:02:11Z</time>
      </trkpt>
      <trkpt lat="49.18258" lon="6.96799">
        <ele>340</ele>
        <time>2010-12-05T10:02:13Z</time>
      </trkpt>
      <trkpt lat="49.18259" lon="6.96796">
        <ele>340</ele>
        <time>2010-12-05T10:02:15Z</time>
      </trkpt>
      <trkpt lat="49.18261" lon="6.96793">
        <ele>340</ele>
        <time>2010-12-05T10:02:17Z</time>
      </trkpt>
      <trkpt lat="49.18263" lon="6.96791">
        <ele>340</ele>
        <time>2010-12-05T10:02:19Z</time>
      </trkpt>
      <trkpt lat="49.18265" lon="6.96788">
        <ele>340</ele>
        <time>2010-12-05T10:02:21Z</time>
      </trkpt>
      <trkpt lat="49.18267" lon="6.96785">
        <ele>340</ele>
        <time>2010-12-05T10:02:23Z</time>
      </trkpt>
      <trkpt lat="49.18269" lon="6.96783">
        <ele>340</ele>
        <time>2010-12-05T10:02:25Z</time>
      </trkpt>
      <trkpt lat="49.18271" lon="6.96781">
        <ele>340</ele>
        <time>2010-12-05T10:02:27Z</time>
      </trkpt>
      <trkpt lat="49.18272" lon="6.96778">
        <ele>340</ele>
        <time>2010-12-05T10:02:29Z</time>
      </trkpt>
      <trkpt lat="49.18274" lon="6.96775">
        <ele>340</ele>
        <time>2010-12-05T10:02:31Z</time>
      </trkpt>
      <trkpt lat="49.18274" lon="6.96773">
        <ele>340</ele>
        <time>2010-12-05T10:02:32Z</time>
      </trkpt>
      <trkpt lat="49.18274" lon="6.9677">
        <ele>340</ele>
        <time>2010-12-05T10:02:33Z</time>
      </trkpt>
      <trkpt lat="49.18274" lon="6.96769">
        <ele>340</ele>
        <time>2010-12-05T10:02:34Z</time>
      </trkpt>
      <trkpt lat="49.18275" lon="6.96767">
        <ele>340</ele>
        <time>2010-12-05T10:02:35Z</time>
      </trkpt>
      <trkpt lat="49.18276" lon="6.96764">
        <ele>340</ele>
        <time>2010-12-05T10:02:37Z</time>
      </trkpt>
      <trkpt lat="49.18277" lon="6.96761">
        <ele>340</ele>
        <time>2010-12-05T10:02:39Z</time>
      </trkpt>
      <trkpt lat="49.18279" lon="6.96759">
        <ele>340</ele>
        <time>2010-12-05T10:02:41Z</time>
      </trkpt>
      <trkpt lat="49.18281" lon="6.96757">
        <ele>340</ele>
        <time>2010-12-05T10:02:43Z</time>
      </trkpt>
      <trkpt lat="49.18282" lon="6.96755">
        <ele>340</ele>
        <time>2010-12-05T10:02:44Z</time>
      </trkpt>
      <trkpt lat="49.18283" lon="6.96752">
        <ele>340</ele>
        <time>2010-12-05T10:02:46Z</time>
      </trkpt>
      <trkpt lat="49.18285" lon="6.9675">
        <ele>340</ele>
        <time>2010-12-05T10:02:48Z</time>
      </trkpt>
      <trkpt lat="49.18286" lon="6.96747">
        <ele>340</ele>
        <time>2010-12-05T10:02:50Z</time>
      </trkpt>
      <trkpt lat="49.18287" lon="6.96743">
        <ele>340</ele>
        <time>2010-12-05T10:02:52Z</time>
      </trkpt>
      <trkpt lat="49.18287" lon="6.96742">
        <ele>340</ele>
        <time>2010-12-05T10:02:53Z</time>
      </trkpt>
      <trkpt lat="49.18288" lon="6.96738">
        <ele>340</ele>
        <time>2010-12-05T10:02:55Z</time>
      </trkpt>
      <trkpt lat="49.18288" lon="6.96736">
        <ele>340</ele>
        <time>2010-12-05T10:02:56Z</time>
      </trkpt>
      <trkpt lat="49.18288" lon="6.96734">
        <ele>340</ele>
        <time>2010-12-05T10:02:57Z</time>
      </trkpt>
      <trkpt lat="49.18288" lon="6.96731">
        <ele>340</ele>
        <time>2010-12-05T10:02:59Z</time>
      </trkpt>
      <trkpt lat="49.18289" lon="6.96729">
        <ele>340</ele>
        <time>2010-12-05T10:03:00Z</time>
      </trkpt>
      <trkpt lat="49.18289" lon="6.96727">
        <ele>340</ele>
        <time>2010-12-05T10:03:01Z</time>
      </trkpt>
      <trkpt lat="49.1829" lon="6.96725">
        <ele>340</ele>
        <time>2010-12-05T10:03:02Z</time>
      </trkpt>
      <trkpt lat="49.1829" lon="6.96723">
        <ele>340</ele>
        <time>2010-12-05T10:03:03Z</time>
      </trkpt>
      <trkpt lat="49.18291" lon="6.96721">
        <ele>340</ele>
        <time>2010-12-05T10:03:04Z</time>
      </trkpt>
      <trkpt lat="49.18292" lon="6.96718">
        <ele>340</ele>
        <time>2010-12-05T10:03:06Z</time>
      </trkpt>
      <trkpt lat="49.18293" lon="6.96715">
        <ele>340</ele>
        <time>2010-12-05T10:03:08Z</time>
      </trkpt>
      <trkpt lat="49.18294" lon="6.96712">
        <ele>340</ele>
        <time>2010-12-05T10:03:10Z</time>
      </trkpt>
      <trkpt lat="49.18295" lon="6.9671">
        <ele>340</ele>
        <time>2010-12-05T10:03:11Z</time>
      </trkpt>
      <trkpt lat="49.18296" lon="6.96708">
        <ele>340</ele>
        <time>2010-12-05T10:03:12Z</time>
      </trkpt>
      <trkpt lat="49.18296" lon="6.96707">
        <ele>340</ele>
        <time>2010-12-05T10:03:13Z</time>
      </trkpt>
      <trkpt lat="49.18297" lon="6.96705">
        <ele>340</ele>
        <time>2010-12-05T10:03:14Z</time>
      </trkpt>
      <trkpt lat="49.18298" lon="6.96703">
        <ele>340</ele>
        <time>2010-12-05T10:03:15Z</time>
      </trkpt>
      <trkpt lat="49.18298" lon="6.967">
        <ele>340</ele>
        <time>2010-12-05T10:03:17Z</time>
      </trkpt>
      <trkpt lat="49.18299" lon="6.96698">
        <ele>340</ele>
        <time>2010-12-05T10:03:18Z</time>
      </trkpt>
      <trkpt lat="49.18299" lon="6.96696">
        <ele>340</ele>
        <time>2010-12-05T10:03:19Z</time>
      </trkpt>
      <trkpt lat="49.183" lon="6.96695">
        <ele>340</ele>
        <time>2010-12-05T10:03:20Z</time>
      </trkpt>
      <trkpt lat="49.183" lon="6.96693">
        <ele>340</ele>
        <time>2010-12-05T10:03:21Z</time>
      </trkpt>
      <trkpt lat="49.18301" lon="6.96691">
        <ele>340</ele>
        <time>2010-12-05T10:03:22Z</time>
      </trkpt>
      <trkpt lat="49.18303" lon="6.96688">
        <ele>340</ele>
        <time>2010-12-05T10:03:24Z</time>
      </trkpt>
      <trkpt lat="49.18303" lon="6.96686">
        <ele>340</ele>
        <time>2010-12-05T10:03:25Z</time>
      </trkpt>
      <trkpt lat="49.18304" lon="6.96684">
        <ele>340</ele>
        <time>2010-12-05T10:03:26Z</time>
      </trkpt>
      <trkpt lat="49.18304" lon="6.96682">
        <ele>340</ele>
        <time>2010-12-05T10:03:27Z</time>
      </trkpt>
      <trkpt lat="49.18304" lon="6.9668">
        <ele>340</ele>
        <time>2010-12-05T10:03:28Z</time>
      </trkpt>
      <trkpt lat="49.18305" lon="6.96678">
        <ele>340</ele>
        <time>2010-12-05T10:03:29Z</time>
      </trkpt>
      <trkpt lat="49.18306" lon="6.96676">
        <ele>340</ele>
        <time>2010-12-05T10:03:30Z</time>
      </trkpt>
      <trkpt lat="49.18306" lon="6.96675">
        <ele>340</ele>
        <time>2010-12-05T10:03:31Z</time>
      </trkpt>
      <trkpt lat="49.18306" lon="6.96673">
        <ele>340</ele>
        <time>2010-12-05T10:03:32Z</time>
      </trkpt>
      <trkpt lat="49.18307" lon="6.96671">
        <ele>340</ele>
        <time>2010-12-05T10:03:33Z</time>
      </trkpt>
      <trkpt lat="49.18307" lon="6.96669">
        <ele>340</ele>
        <time>2010-12-05T10:03:34Z</time>
      </trkpt>
      <trkpt lat="49.18308" lon="6.96667">
        <ele>340</ele>
        <time>2010-12-05T10:03:35Z</time>
      </trkpt>
      <trkpt lat="49.18309" lon="6.96666">
        <ele>340</ele>
        <time>2010-12-05T10:03:36Z</time>
      </trkpt>
      <trkpt lat="49.18309" lon="6.96663">
        <ele>340</ele>
        <time>2010-12-05T10:03:38Z</time>
      </trkpt>
      <trkpt lat="49.1831" lon="6.96661">
        <ele>340</ele>
        <time>2010-12-05T10:03:39Z</time>
      </trkpt>
      <trkpt lat="49.18311" lon="6.96657">
        <ele>340</ele>
        <time>2010-12-05T10:03:41Z</time>
      </trkpt>
      <trkpt lat="49.18311" lon="6.96656">
        <ele>340</ele>
        <time>2010-12-05T10:03:42Z</time>
      </trkpt>
      <trkpt lat="49.18312" lon="6.96654">
        <ele>340</ele>
        <time>2010-12-05T10:03:43Z</time>
      </trkpt>
      <trkpt lat="49.18313" lon="6.96652">
        <ele>340</ele>
        <time>2010-12-05T10:03:44Z</time>
      </trkpt>
      <trkpt lat="49.18314" lon="6.96651">
        <ele>340</ele>
        <time>2010-12-05T10:03:45Z</time>
      </trkpt>
      <trkpt lat="49.18315" lon="6.96648">
        <ele>340</ele>
        <time>2010-12-05T10:03:47Z</time>
      </trkpt>
      <trkpt lat="49.18316" lon="6.96645">
        <ele>340</ele>
        <time>2010-12-05T10:03:49Z</time>
      </trkpt>
      <trkpt lat="49.18317" lon="6.96641">
        <ele>340</ele>
        <time>2010-12-05T10:03:51Z</time>
      </trkpt>
      <trkpt lat="49.18318" lon="6.9664">
        <ele>340</ele>
        <time>2010-12-05T10:03:52Z</time>
      </trkpt>
      <trkpt lat="49.18319" lon="6.96638">
        <ele>340</ele>
        <time>2010-12-05T10:03:53Z</time>
      </trkpt>
      <trkpt lat="49.18319" lon="6.96636">
        <ele>340</ele>
        <time>2010-12-05T10:03:54Z</time>
      </trkpt>
      <trkpt lat="49.1832" lon="6.96634">
        <ele>340</ele>
        <time>2010-12-05T10:03:55Z</time>
      </trkpt>
      <trkpt lat="49.18321" lon="6.96633">
        <ele>340</ele>
        <time>2010-12-05T10:03:56Z</time>
      </trkpt>
      <trkpt lat="49.18322" lon="6.96631">
        <ele>340</ele>
        <time>2010-12-05T10:03:57Z</time>
      </trkpt>
      <trkpt lat="49.18323" lon="6.96628">
        <ele>340</ele>
        <time>2010-12-05T10:03:59Z</time>
      </trkpt>
      <trkpt lat="49.18324" lon="6.96625">
        <ele>340</ele>
        <time>2010-12-05T10:04:01Z</time>
      </trkpt>
      <trkpt lat="49.18326" lon="6.96621">
        <ele>340</ele>
        <time>2010-12-05T10:04:03Z</time>
      </trkpt>
      <trkpt lat="49.18326" lon="6.9662">
        <ele>340</ele>
        <time>2010-12-05T10:04:04Z</time>
      </trkpt>
      <trkpt lat="49.18327" lon="6.96618">
        <ele>340</ele>
        <time>2010-12-05T10:04:05Z</time>
      </trkpt>
      <trkpt lat="49.18327" lon="6.96616">
        <ele>340</ele>
        <time>2010-12-05T10:04:06Z</time>
      </trkpt>
      <trkpt lat="49.18328" lon="6.96614">
        <ele>340</ele>
        <time>2010-12-05T10:04:07Z</time>
      </trkpt>
      <trkpt lat="49.18329" lon="6.96611">
        <ele>340</ele>
        <time>2010-12-05T10:04:09Z</time>
      </trkpt>
      <trkpt lat="49.1833" lon="6.96609">
        <ele>340</ele>
        <time>2010-12-05T10:04:10Z</time>
      </trkpt>
      <trkpt lat="49.1833" lon="6.96608">
        <ele>340</ele>
        <time>2010-12-05T10:04:11Z</time>
      </trkpt>
      <trkpt lat="49.18331" lon="6.96606">
        <ele>340</ele>
        <time>2010-12-05T10:04:12Z</time>
      </trkpt>
      <trkpt lat="49.18332" lon="6.96604">
        <ele>340</ele>
        <time>2010-12-05T10:04:13Z</time>
      </trkpt>
      <trkpt lat="49.18332" lon="6.96602">
        <ele>340</ele>
        <time>2010-12-05T10:04:14Z</time>
      </trkpt>
      <trkpt lat="49.18333" lon="6.96601">
        <ele>340</ele>
        <time>2010-12-05T10:04:15Z</time>
      </trkpt>
      <trkpt lat="49.18333" lon="6.96599">
        <ele>340</ele>
        <time>2010-12-05T10:04:16Z</time>
      </trkpt>
      <trkpt lat="49.18334" lon="6.96595">
        <ele>340</ele>
        <time>2010-12-05T10:04:18Z</time>
      </trkpt>
      <trkpt lat="49.18334" lon="6.96594">
        <ele>340</ele>
        <time>2010-12-05T10:04:19Z</time>
      </trkpt>
      <trkpt lat="49.18334" lon="6.96592">
        <ele>340</ele>
        <time>2010-12-05T10:04:20Z</time>
      </trkpt>
      <trkpt lat="49.18335" lon="6.9659">
        <ele>340</ele>
        <time>2010-12-05T10:04:21Z</time>
      </trkpt>
      <trkpt lat="49.18335" lon="6.96588">
        <ele>340</ele>
        <time>2010-12-05T10:04:22Z</time>
      </trkpt>
      <trkpt lat="49.18335" lon="6.96586">
        <ele>340</ele>
        <time>2010-12-05T10:04:23Z</time>
      </trkpt>
      <trkpt lat="49.18336" lon="6.96584">
        <ele>340</ele>
        <time>2010-12-05T10:04:24Z</time>
      </trkpt>
      <trkpt lat="49.18336" lon="6.96582">
        <ele>340</ele>
        <time>2010-12-05T10:04:25Z</time>
      </trkpt>
      <trkpt lat="49.18337" lon="6.96581">
        <ele>340</ele>
        <time>2010-12-05T10:04:26Z</time>
      </trkpt>
      <trkpt lat="49.18338" lon="6.96577">
        <ele>340</ele>
        <time>2010-12-05T10:04:28Z</time>
      </trkpt>
      <trkpt lat="49.18338" lon="6.96575">
        <ele>340</ele>
        <time>2010-12-05T10:04:29Z</time>
      </trkpt>
      <trkpt lat="49.18339" lon="6.96573">
        <ele>340</ele>
        <time>2010-12-05T10:04:30Z</time>
      </trkpt>
      <trkpt lat="49.18339" lon="6.96571">
        <ele>340</ele>
        <time>2010-12-05T10:04:31Z</time>
      </trkpt>
      <trkpt lat="49.1834" lon="6.9657">
        <ele>340</ele>
        <time>2010-12-05T10:04:32Z</time>
      </trkpt>
      <trkpt lat="49.1834" lon="6.96568">
        <ele>340</ele>
        <time>2010-12-05T10:04:33Z</time>
      </trkpt>
      <trkpt lat="49.18341" lon="6.96566">
        <ele>340</ele>
        <time>2010-12-05T10:04:34Z</time>
      </trkpt>
      <trkpt lat="49.18342" lon="6.96564">
        <ele>340</ele>
        <time>2010-12-05T10:04:35Z</time>
      </trkpt>
      <trkpt lat="49.18343" lon="6.96562">
        <ele>340</ele>
        <time>2010-12-05T10:04:36Z</time>
      </trkpt>
      <trkpt lat="49.18343" lon="6.9656">
        <ele>340</ele>
        <time>2010-12-05T10:04:37Z</time>
      </trkpt>
      <trkpt lat="49.18344" lon="6.96558">
        <ele>340</ele>
        <time>2010-12-05T10:04:38Z</time>
      </trkpt>
      <trkpt lat="49.18345" lon="6.96557">
        <ele>340</ele>
        <time>2010-12-05T10:04:39Z</time>
      </trkpt>
      <trkpt lat="49.18346" lon="6.96554">
        <ele>340</ele>
        <time>2010-12-05T10:04:41Z</time>
      </trkpt>
      <trkpt lat="49.18348" lon="6.96551">
        <ele>340</ele>
        <time>2010-12-05T10:04:43Z</time>
      </trkpt>
      <trkpt lat="49.18349" lon="6.96547">
        <ele>340</ele>
        <time>2010-12-05T10:04:45Z</time>
      </trkpt>
      <trkpt lat="49.1835" lon="6.96546">
        <ele>340</ele>
        <time>2010-12-05T10:04:46Z</time>
      </trkpt>
      <trkpt lat="49.1835" lon="6.96544">
        <ele>340</ele>
        <time>2010-12-05T10:04:47Z</time>
      </trkpt>
      <trkpt lat="49.18351" lon="6.9654">
        <ele>340</ele>
        <time>2010-12-05T10:04:49Z</time>
      </trkpt>
      <trkpt lat="49.18352" lon="6.96539">
        <ele>340</ele>
        <time>2010-12-05T10:04:50Z</time>
      </trkpt>
      <trkpt lat="49.18354" lon="6.96535">
        <ele>340</ele>
        <time>2010-12-05T10:04:52Z</time>
      </trkpt>
      <trkpt lat="49.18354" lon="6.96533">
        <ele>340</ele>
        <time>2010-12-05T10:04:54Z</time>
      </trkpt>
      <trkpt lat="49.18355" lon="6.96529">
        <ele>340</ele>
        <time>2010-12-05T10:04:56Z</time>
      </trkpt>
      <trkpt lat="49.18356" lon="6.96528">
        <ele>340</ele>
        <time>2010-12-05T10:04:57Z</time>
      </trkpt>
      <trkpt lat="49.18357" lon="6.96525">
        <ele>340</ele>
        <time>2010-12-05T10:04:59Z</time>
      </trkpt>
      <trkpt lat="49.18358" lon="6.96522">
        <ele>340</ele>
        <time>2010-12-05T10:05:01Z</time>
      </trkpt>
      <trkpt lat="49.18359" lon="6.9652">
        <ele>340</ele>
        <time>2010-12-05T10:05:03Z</time>
      </trkpt>
      <trkpt lat="49.18361" lon="6.96517">
        <ele>340</ele>
        <time>2010-12-05T10:05:05Z</time>
      </trkpt>
      <trkpt lat="49.18361" lon="6.96515">
        <ele>340</ele>
        <time>2010-12-05T10:05:06Z</time>
      </trkpt>
      <trkpt lat="49.18363" lon="6.96513">
        <ele>340</ele>
        <time>2010-12-05T10:05:08Z</time>
      </trkpt>
      <trkpt lat="49.18364" lon="6.96512">
        <ele>340</ele>
        <time>2010-12-05T10:05:09Z</time>
      </trkpt>
      <trkpt lat="49.18366" lon="6.9651">
        <ele>340</ele>
        <time>2010-12-05T10:05:11Z</time>
      </trkpt>
      <trkpt lat="49.18367" lon="6.9651">
        <ele>340</ele>
        <time>2010-12-05T10:05:12Z</time>
      </trkpt>
      <trkpt lat="49.18369" lon="6.9651">
        <ele>340</ele>
        <time>2010-12-05T10:05:13Z</time>
      </trkpt>
      <trkpt lat="49.18371" lon="6.96511">
        <ele>340</ele>
        <time>2010-12-05T10:05:15Z</time>
      </trkpt>
      <trkpt lat="49.18372" lon="6.96511">
        <ele>340</ele>
        <time>2010-12-05T10:05:16Z</time>
      </trkpt>
      <trkpt lat="49.18374" lon="6.96513">
        <ele>340</ele>
        <time>2010-12-05T10:05:18Z</time>
      </trkpt>
      <trkpt lat="49.18376" lon="6.96515">
        <ele>340</ele>
        <time>2010-12-05T10:05:20Z</time>
      </trkpt>
      <trkpt lat="49.18378" lon="6.96517">
        <ele>340</ele>
        <time>2010-12-05T10:05:22Z</time>
      </trkpt>
      <trkpt lat="49.1838" lon="6.9652">
        <ele>340</ele>
        <time>2010-12-05T10:05:24Z</time>
      </trkpt>
      <trkpt lat="49.18382" lon="6.96522">
        <ele>340</ele>
        <time>2010-12-05T10:05:26Z</time>
      </trkpt>
      <trkpt lat="49.18384" lon="6.96524">
        <ele>340</ele>
        <time>2010-12-05T10:05:28Z</time>
      </trkpt>
      <trkpt lat="49.18386" lon="6.96525">
        <ele>340</ele>
        <time>2010-12-05T10:05:30Z</time>
      </trkpt>
      <trkpt lat="49.18387" lon="6.96526">
        <ele>340</ele>
        <time>2010-12-05T10:05:31Z</time>
      </trkpt>
      <trkpt lat="49.18388" lon="6.96527">
        <ele>340</ele>
        <time>2010-12-05T10:05:32Z</time>
      </trkpt>
      <trkpt lat="49.18389" lon="6.96528">
        <ele>340</ele>
        <time>2010-12-05T10:05:33Z</time>
      </trkpt>
      <trkpt lat="49.18391" lon="6.96528">
        <ele>340</ele>
        <time>2010-12-05T10:05:34Z</time>
      </trkpt>
      <trkpt lat="49.18393" lon="6.96529">
        <ele>340</ele>
        <time>2010-12-05T10:05:36Z</time>
      </trkpt>
      <trkpt lat="49.18394" lon="6.96529">
        <ele>340</ele>
        <time>2010-12-05T10:05:37Z</time>
      </trkpt>
      <trkpt lat="49.18395" lon="6.9653">
        <ele>340</ele>
        <time>2010-12-05T10:05:38Z</time>
      </trkpt>
      <trkpt lat="49.18396" lon="6.9653">
        <ele>340</ele>
        <time>2010-12-05T10:05:39Z</time>
      </trkpt>
      <trkpt lat="49.18397" lon="6.9653">
        <ele>340</ele>
        <time>2010-12-05T10:05:40Z</time>
      </trkpt>
      <trkpt lat="49.18399" lon="6.9653">
        <ele>340</ele>
        <time>2010-12-05T10:05:41Z</time>
      </trkpt>
      <trkpt lat="49.184" lon="6.96531">
        <ele>340</ele>
        <time>2010-12-05T10:05:42Z</time>
      </trkpt>
      <trkpt lat="49.18401" lon="6.96531">
        <ele>340</ele>
        <time>2010-12-05T10:05:43Z</time>
      </trkpt>
      <trkpt lat="49.18402" lon="6.96531">
        <ele>340</ele>
        <time>2010-12-05T10:05:44Z</time>
      </trkpt>
      <trkpt lat="49.18404" lon="6.96531">
        <ele>340</ele>
        <time>2010-12-05T10:05:45Z</time>
      </trkpt>
      <trkpt lat="49.18406" lon="6.96533">
        <ele>340</ele>
        <time>2010-12-05T10:05:47Z</time>
      </trkpt>
      <trkpt lat="49.18407" lon="6.96533">
        <ele>340</ele>
        <time>2010-12-05T10:05:48Z</time>
      </trkpt>
      <trkpt lat="49.18408" lon="6.96534">
        <ele>340</ele>
        <time>2010-12-05T10:05:49Z</time>
      </trkpt>
      <trkpt lat="49.18409" lon="6.96534">
        <ele>340</ele>
        <time>2010-12-05T10:05:50Z</time>
      </trkpt>
      <trkpt lat="49.1841" lon="6.96534">
        <ele>340</ele>
        <time>2010-12-05T10:05:51Z</time>
      </trkpt>
      <trkpt lat="49.18413" lon="6.96535">
        <ele>340</ele>
        <time>2010-12-05T10:05:53Z</time>
      </trkpt>
      <trkpt lat="49.18414" lon="6.96536">
        <ele>340</ele>
        <time>2010-12-05T10:05:54Z</time>
      </trkpt>
      <trkpt lat="49.18415" lon="6.96537">
        <ele>340</ele>
        <time>2010-12-05T10:05:55Z</time>
      </trkpt>
      <trkpt lat="49.18416" lon="6.96537">
        <ele>340</ele>
        <time>2010-12-05T10:05:56Z</time>
      </trkpt>
      <trkpt lat="49.18419" lon="6.96538">
        <ele>340</ele>
        <time>2010-12-05T10:05:58Z</time>
      </trkpt>
      <trkpt lat="49.18421" lon="6.9654">
        <ele>340</ele>
        <time>2010-12-05T10:06:00Z</time>
      </trkpt>
      <trkpt lat="49.18422" lon="6.9654">
        <ele>340</ele>
        <time>2010-12-05T10:06:01Z</time>
      </trkpt>
      <trkpt lat="49.18423" lon="6.96541">
        <ele>340</ele>
        <time>2010-12-05T10:06:02Z</time>
      </trkpt>
      <trkpt lat="49.18424" lon="6.96542">
        <ele>340</ele>
        <time>2010-12-05T10:06:03Z</time>
      </trkpt>
      <trkpt lat="49.18426" lon="6.96543">
        <ele>340</ele>
        <time>2010-12-05T10:06:04Z</time>
      </trkpt>
      <trkpt lat="49.18428" lon="6.96544">
        <ele>340</ele>
        <time>2010-12-05T10:06:06Z</time>
      </trkpt>
      <trkpt lat="49.18429" lon="6.96545">
        <ele>340</ele>
        <time>2010-12-05T10:06:07Z</time>
      </trkpt>
      <trkpt lat="49.18431" lon="6.96547">
        <ele>340</ele>
        <time>2010-12-05T10:06:09Z</time>
      </trkpt>
      <trkpt lat="49.18433" lon="6.96547">
        <ele>340</ele>
        <time>2010-12-05T10:06:10Z</time>
      </trkpt>
      <trkpt lat="49.18434" lon="6.96548">
        <ele>340</ele>
        <time>2010-12-05T10:06:11Z</time>
      </trkpt>
      <trkpt lat="49.18435" lon="6.96549">
        <ele>341</ele>
        <time>2010-12-05T10:06:12Z</time>
      </trkpt>
      <trkpt lat="49.18436" lon="6.9655">
        <ele>341</ele>
        <time>2010-12-05T10:06:13Z</time>
      </trkpt>
      <trkpt lat="49.18437" lon="6.9655">
        <ele>341</ele>
        <time>2010-12-05T10:06:14Z</time>
      </trkpt>
      <trkpt lat="49.18439" lon="6.96551">
        <ele>341</ele>
        <time>2010-12-05T10:06:15Z</time>
      </trkpt>
      <trkpt lat="49.1844" lon="6.96552">
        <ele>341</ele>
        <time>2010-12-05T10:06:16Z</time>
      </trkpt>
      <trkpt lat="49.18442" lon="6.96553">
        <ele>341</ele>
        <time>2010-12-05T10:06:18Z</time>
      </trkpt>
      <trkpt lat="49.18444" lon="6.96555">
        <ele>341</ele>
        <time>2010-12-05T10:06:20Z</time>
      </trkpt>
      <trkpt lat="49.18445" lon="6.96556">
        <ele>342</ele>
        <time>2010-12-05T10:06:21Z</time>
      </trkpt>
      <trkpt lat="49.18447" lon="6.96557">
        <ele>342</ele>
        <time>2010-12-05T10:06:23Z</time>
      </trkpt>
      <trkpt lat="49.18448" lon="6.96558">
        <ele>342</ele>
        <time>2010-12-05T10:06:24Z</time>
      </trkpt>
      <trkpt lat="49.1845" lon="6.96559">
        <ele>342</ele>
        <time>2010-12-05T10:06:26Z</time>
      </trkpt>
      <trkpt lat="49.18452" lon="6.9656">
        <ele>342</ele>
        <time>2010-12-05T10:06:27Z</time>
      </trkpt>
      <trkpt lat="49.18453" lon="6.96561">
        <ele>342</ele>
        <time>2010-12-05T10:06:28Z</time>
      </trkpt>
      <trkpt lat="49.18454" lon="6.96562">
        <ele>343</ele>
        <time>2010-12-05T10:06:30Z</time>
      </trkpt>
      <trkpt lat="49.18456" lon="6.96564">
        <ele>343</ele>
        <time>2010-12-05T10:06:32Z</time>
      </trkpt>
      <trkpt lat="49.18457" lon="6.96565">
        <ele>343</ele>
        <time>2010-12-05T10:06:33Z</time>
      </trkpt>
      <trkpt lat="49.18459" lon="6.96565">
        <ele>343</ele>
        <time>2010-12-05T10:06:34Z</time>
      </trkpt>
      <trkpt lat="49.1846" lon="6.96566">
        <ele>343</ele>
        <time>2010-12-05T10:06:35Z</time>
      </trkpt>
      <trkpt lat="49.18462" lon="6.96567">
        <ele>343</ele>
        <time>2010-12-05T10:06:36Z</time>
      </trkpt>
      <trkpt lat="49.18463" lon="6.96568">
        <ele>343</ele>
        <time>2010-12-05T10:06:37Z</time>
      </trkpt>
      <trkpt lat="49.18464" lon="6.96568">
        <ele>343</ele>
        <time>2010-12-05T10:06:38Z</time>
      </trkpt>
      <trkpt lat="49.18465" lon="6.96569">
        <ele>343</ele>
        <time>2010-12-05T10:06:39Z</time>
      </trkpt>
      <trkpt lat="49.18467" lon="6.9657">
        <ele>343</ele>
        <time>2010-12-05T10:06:40Z</time>
      </trkpt>
      <trkpt lat="49.18468" lon="6.96571">
        <ele>343</ele>
        <time>2010-12-05T10:06:41Z</time>
      </trkpt>
      <trkpt lat="49.18469" lon="6.96572">
        <ele>343</ele>
        <time>2010-12-05T10:06:42Z</time>
      </trkpt>
      <trkpt lat="49.1847" lon="6.96573">
        <ele>343</ele>
        <time>2010-12-05T10:06:43Z</time>
      </trkpt>
      <trkpt lat="49.18471" lon="6.96573">
        <ele>343</ele>
        <time>2010-12-05T10:06:44Z</time>
      </trkpt>
      <trkpt lat="49.18473" lon="6.96574">
        <ele>343</ele>
        <time>2010-12-05T10:06:45Z</time>
      </trkpt>
      <trkpt lat="49.18474" lon="6.96575">
        <ele>343</ele>
        <time>2010-12-05T10:06:46Z</time>
      </trkpt>
      <trkpt lat="49.18475" lon="6.96576">
        <ele>343</ele>
        <time>2010-12-05T10:06:47Z</time>
      </trkpt>
      <trkpt lat="49.18476" lon="6.96577">
        <ele>343</ele>
        <time>2010-12-05T10:06:48Z</time>
      </trkpt>
      <trkpt lat="49.18478" lon="6.96578">
        <ele>343</ele>
        <time>2010-12-05T10:06:50Z</time>
      </trkpt>
      <trkpt lat="49.1848" lon="6.96579">
        <ele>343</ele>
        <time>2010-12-05T10:06:51Z</time>
      </trkpt>
      <trkpt lat="49.18481" lon="6.9658">
        <ele>343</ele>
        <time>2010-12-05T10:06:52Z</time>
      </trkpt>
      <trkpt lat="49.18482" lon="6.96581">
        <ele>343</ele>
        <time>2010-12-05T10:06:53Z</time>
      </trkpt>
      <trkpt lat="49.18484" lon="6.96583">
        <ele>343</ele>
        <time>2010-12-05T10:06:55Z</time>
      </trkpt>
      <trkpt lat="49.18486" lon="6.96584">
        <ele>343</ele>
        <time>2010-12-05T10:06:57Z</time>
      </trkpt>
      <trkpt lat="49.18488" lon="6.96586">
        <ele>343</ele>
        <time>2010-12-05T10:06:59Z</time>
      </trkpt>
      <trkpt lat="49.18489" lon="6.96588">
        <ele>343</ele>
        <time>2010-12-05T10:07:01Z</time>
      </trkpt>
      <trkpt lat="49.18491" lon="6.96589">
        <ele>343</ele>
        <time>2010-12-05T10:07:02Z</time>
      </trkpt>
      <trkpt lat="49.18493" lon="6.96591">
        <ele>343</ele>
        <time>2010-12-05T10:07:04Z</time>
      </trkpt>
      <trkpt lat="49.18495" lon="6.96593">
        <ele>343</ele>
        <time>2010-12-05T10:07:06Z</time>
      </trkpt>
      <trkpt lat="49.18497" lon="6.96594">
        <ele>343</ele>
        <time>2010-12-05T10:07:08Z</time>
      </trkpt>
      <trkpt lat="49.18498" lon="6.96595">
        <ele>343</ele>
        <time>2010-12-05T10:07:09Z</time>
      </trkpt>
      <trkpt lat="49.18499" lon="6.96596">
        <ele>343</ele>
        <time>2010-12-05T10:07:10Z</time>
      </trkpt>
      <trkpt lat="49.185" lon="6.96596">
        <ele>343</ele>
        <time>2010-12-05T10:07:11Z</time>
      </trkpt>
      <trkpt lat="49.18502" lon="6.96597">
        <ele>343</ele>
        <time>2010-12-05T10:07:12Z</time>
      </trkpt>
      <trkpt lat="49.18504" lon="6.96599">
        <ele>343</ele>
        <time>2010-12-05T10:07:14Z</time>
      </trkpt>
      <trkpt lat="49.18505" lon="6.966">
        <ele>343</ele>
        <time>2010-12-05T10:07:15Z</time>
      </trkpt>
      <trkpt lat="49.18506" lon="6.966">
        <ele>343</ele>
        <time>2010-12-05T10:07:16Z</time>
      </trkpt>
      <trkpt lat="49.18507" lon="6.96601">
        <ele>343</ele>
        <time>2010-12-05T10:07:17Z</time>
      </trkpt>
      <trkpt lat="49.18509" lon="6.96602">
        <ele>343</ele>
        <time>2010-12-05T10:07:19Z</time>
      </trkpt>
      <trkpt lat="49.18511" lon="6.96604">
        <ele>343</ele>
        <time>2010-12-05T10:07:21Z</time>
      </trkpt>
      <trkpt lat="49.18512" lon="6.96605">
        <ele>343</ele>
        <time>2010-12-05T10:07:22Z</time>
      </trkpt>
      <trkpt lat="49.18513" lon="6.96606">
        <ele>343</ele>
        <time>2010-12-05T10:07:23Z</time>
      </trkpt>
      <trkpt lat="49.18515" lon="6.96608">
        <ele>343</ele>
        <time>2010-12-05T10:07:25Z</time>
      </trkpt>
      <trkpt lat="49.18517" lon="6.9661">
        <ele>343</ele>
        <time>2010-12-05T10:07:27Z</time>
      </trkpt>
      <trkpt lat="49.18519" lon="6.96612">
        <ele>343</ele>
        <time>2010-12-05T10:07:29Z</time>
      </trkpt>
      <trkpt lat="49.18521" lon="6.96614">
        <ele>343</ele>
        <time>2010-12-05T10:07:31Z</time>
      </trkpt>
      <trkpt lat="49.18523" lon="6.96615">
        <ele>343</ele>
        <time>2010-12-05T10:07:33Z</time>
      </trkpt>
      <trkpt lat="49.18525" lon="6.96617">
        <ele>343</ele>
        <time>2010-12-05T10:07:35Z</time>
      </trkpt>
      <trkpt lat="49.18527" lon="6.96617">
        <ele>343</ele>
        <time>2010-12-05T10:07:36Z</time>
      </trkpt>
      <trkpt lat="49.18529" lon="6.96618">
        <ele>343</ele>
        <time>2010-12-05T10:07:37Z</time>
      </trkpt>
      <trkpt lat="49.18531" lon="6.96618">
        <ele>343</ele>
        <time>2010-12-05T10:07:39Z</time>
      </trkpt>
      <trkpt lat="49.18532" lon="6.96618">
        <ele>343</ele>
        <time>2010-12-05T10:07:41Z</time>
      </trkpt>
      <trkpt lat="49.18533" lon="6.96618">
        <ele>344</ele>
        <time>2010-12-05T10:07:42Z</time>
      </trkpt>
      <trkpt lat="49.18536" lon="6.96617">
        <ele>344</ele>
        <time>2010-12-05T10:07:44Z</time>
      </trkpt>
      <trkpt lat="49.18537" lon="6.96617">
        <ele>344</ele>
        <time>2010-12-05T10:07:46Z</time>
      </trkpt>
      <trkpt lat="49.18539" lon="6.96616">
        <ele>345</ele>
        <time>2010-12-05T10:07:50Z</time>
      </trkpt>
      <trkpt lat="49.1854" lon="6.96613">
        <ele>346</ele>
        <time>2010-12-05T10:07:58Z</time>
      </trkpt>
      <trkpt lat="49.18541" lon="6.96611">
        <ele>346</ele>
        <time>2010-12-05T10:08:00Z</time>
      </trkpt>
      <trkpt lat="49.18542" lon="6.96609">
        <ele>347</ele>
        <time>2010-12-05T10:08:02Z</time>
      </trkpt>
      <trkpt lat="49.18543" lon="6.96607">
        <ele>347</ele>
        <time>2010-12-05T10:08:03Z</time>
      </trkpt>
      <trkpt lat="49.18544" lon="6.96605">
        <ele>347</ele>
        <time>2010-12-05T10:08:04Z</time>
      </trkpt>
      <trkpt lat="49.18545" lon="6.96603">
        <ele>347</ele>
        <time>2010-12-05T10:08:05Z</time>
      </trkpt>
      <trkpt lat="49.18546" lon="6.96601">
        <ele>347</ele>
        <time>2010-12-05T10:08:06Z</time>
      </trkpt>
      <trkpt lat="49.18547" lon="6.96598">
        <ele>347</ele>
        <time>2010-12-05T10:08:08Z</time>
      </trkpt>
      <trkpt lat="49.18548" lon="6.96596">
        <ele>347</ele>
        <time>2010-12-05T10:08:09Z</time>
      </trkpt>
      <trkpt lat="49.18549" lon="6.96595">
        <ele>347</ele>
        <time>2010-12-05T10:08:10Z</time>
      </trkpt>
      <trkpt lat="49.1855" lon="6.96593">
        <ele>347</ele>
        <time>2010-12-05T10:08:11Z</time>
      </trkpt>
      <trkpt lat="49.18551" lon="6.96592">
        <ele>347</ele>
        <time>2010-12-05T10:08:12Z</time>
      </trkpt>
      <trkpt lat="49.18552" lon="6.96589">
        <ele>347</ele>
        <time>2010-12-05T10:08:14Z</time>
      </trkpt>
      <trkpt lat="49.18553" lon="6.96586">
        <ele>347</ele>
        <time>2010-12-05T10:08:16Z</time>
      </trkpt>
      <trkpt lat="49.18555" lon="6.96583">
        <ele>347</ele>
        <time>2010-12-05T10:08:18Z</time>
      </trkpt>
      <trkpt lat="49.18555" lon="6.96581">
        <ele>347</ele>
        <time>2010-12-05T10:08:19Z</time>
      </trkpt>
      <trkpt lat="49.18556" lon="6.96578">
        <ele>347</ele>
        <time>2010-12-05T10:08:21Z</time>
      </trkpt>
      <trkpt lat="49.18557" lon="6.96575">
        <ele>347</ele>
        <time>2010-12-05T10:08:23Z</time>
      </trkpt>
      <trkpt lat="49.18559" lon="6.96572">
        <ele>347</ele>
        <time>2010-12-05T10:08:25Z</time>
      </trkpt>
      <trkpt lat="49.1856" lon="6.96569">
        <ele>347</ele>
        <time>2010-12-05T10:08:27Z</time>
      </trkpt>
      <trkpt lat="49.18561" lon="6.96566">
        <ele>347</ele>
        <time>2010-12-05T10:08:29Z</time>
      </trkpt>
      <trkpt lat="49.18562" lon="6.96563">
        <ele>347</ele>
        <time>2010-12-05T10:08:31Z</time>
      </trkpt>
      <trkpt lat="49.18563" lon="6.96561">
        <ele>347</ele>
        <time>2010-12-05T10:08:32Z</time>
      </trkpt>
      <trkpt lat="49.18564" lon="6.96558">
        <ele>347</ele>
        <time>2010-12-05T10:08:34Z</time>
      </trkpt>
      <trkpt lat="49.18564" lon="6.96556">
        <ele>347</ele>
        <time>2010-12-05T10:08:35Z</time>
      </trkpt>
      <trkpt lat="49.18565" lon="6.96554">
        <ele>347</ele>
        <time>2010-12-05T10:08:36Z</time>
      </trkpt>
      <trkpt lat="49.18565" lon="6.96553">
        <ele>347</ele>
        <time>2010-12-05T10:08:37Z</time>
      </trkpt>
      <trkpt lat="49.18566" lon="6.96551">
        <ele>347</ele>
        <time>2010-12-05T10:08:38Z</time>
      </trkpt>
      <trkpt lat="49.18567" lon="6.96548">
        <ele>347</ele>
        <time>2010-12-05T10:08:40Z</time>
      </trkpt>
      <trkpt lat="49.18568" lon="6.96545">
        <ele>347</ele>
        <time>2010-12-05T10:08:42Z</time>
      </trkpt>
      <trkpt lat="49.18569" lon="6.96542">
        <ele>347</ele>
        <time>2010-12-05T10:08:44Z</time>
      </trkpt>
      <trkpt lat="49.1857" lon="6.9654">
        <ele>347</ele>
        <time>2010-12-05T10:08:45Z</time>
      </trkpt>
      <trkpt lat="49.1857" lon="6.96538">
        <ele>347</ele>
        <time>2010-12-05T10:08:46Z</time>
      </trkpt>
      <trkpt lat="49.1857" lon="6.96537">
        <ele>347</ele>
        <time>2010-12-05T10:08:47Z</time>
      </trkpt>
      <trkpt lat="49.18571" lon="6.96534">
        <ele>347</ele>
        <time>2010-12-05T10:08:49Z</time>
      </trkpt>
      <trkpt lat="49.18572" lon="6.96532">
        <ele>347</ele>
        <time>2010-12-05T10:08:50Z</time>
      </trkpt>
      <trkpt lat="49.18573" lon="6.9653">
        <ele>347</ele>
        <time>2010-12-05T10:08:51Z</time>
      </trkpt>
      <trkpt lat="49.18574" lon="6.96527">
        <ele>347</ele>
        <time>2010-12-05T10:08:53Z</time>
      </trkpt>
      <trkpt lat="49.18575" lon="6.96524">
        <ele>347</ele>
        <time>2010-12-05T10:08:55Z</time>
      </trkpt>
      <trkpt lat="49.18577" lon="6.96522">
        <ele>347</ele>
        <time>2010-12-05T10:08:57Z</time>
      </trkpt>
      <trkpt lat="49.18578" lon="6.96519">
        <ele>347</ele>
        <time>2010-12-05T10:08:59Z</time>
      </trkpt>
      <trkpt lat="49.1858" lon="6.96516">
        <ele>347</ele>
        <time>2010-12-05T10:09:01Z</time>
      </trkpt>
      <trkpt lat="49.18581" lon="6.96513">
        <ele>347</ele>
        <time>2010-12-05T10:09:03Z</time>
      </trkpt>
      <trkpt lat="49.18581" lon="6.96511">
        <ele>347</ele>
        <time>2010-12-05T10:09:04Z</time>
      </trkpt>
      <trkpt lat="49.18582" lon="6.96509">
        <ele>347</ele>
        <time>2010-12-05T10:09:05Z</time>
      </trkpt>
      <trkpt lat="49.18583" lon="6.96506">
        <ele>347</ele>
        <time>2010-12-05T10:09:07Z</time>
      </trkpt>
      <trkpt lat="49.18584" lon="6.96504">
        <ele>347</ele>
        <time>2010-12-05T10:09:08Z</time>
      </trkpt>
      <trkpt lat="49.18584" lon="6.96503">
        <ele>347</ele>
        <time>2010-12-05T10:09:09Z</time>
      </trkpt>
      <trkpt lat="49.18586" lon="6.96499">
        <ele>347</ele>
        <time>2010-12-05T10:09:11Z</time>
      </trkpt>
      <trkpt lat="49.18586" lon="6.96498">
        <ele>347</ele>
        <time>2010-12-05T10:09:12Z</time>
      </trkpt>
      <trkpt lat="49.18587" lon="6.96494">
        <ele>347</ele>
        <time>2010-12-05T10:09:14Z</time>
      </trkpt>
      <trkpt lat="49.18588" lon="6.96493">
        <ele>347</ele>
        <time>2010-12-05T10:09:15Z</time>
      </trkpt>
      <trkpt lat="49.18589" lon="6.96491">
        <ele>347</ele>
        <time>2010-12-05T10:09:16Z</time>
      </trkpt>
      <trkpt lat="49.18589" lon="6.96489">
        <ele>347</ele>
        <time>2010-12-05T10:09:17Z</time>
      </trkpt>
      <trkpt lat="49.1859" lon="6.96488">
        <ele>348</ele>
        <time>2010-12-05T10:09:18Z</time>
      </trkpt>
      <trkpt lat="49.18591" lon="6.96486">
        <ele>348</ele>
        <time>2010-12-05T10:09:19Z</time>
      </trkpt>
      <trkpt lat="49.18592" lon="6.96483">
        <ele>348</ele>
        <time>2010-12-05T10:09:21Z</time>
      </trkpt>
      <trkpt lat="49.18593" lon="6.96481">
        <ele>348</ele>
        <time>2010-12-05T10:09:23Z</time>
      </trkpt>
      <trkpt lat="49.18594" lon="6.96479">
        <ele>348</ele>
        <time>2010-12-05T10:09:24Z</time>
      </trkpt>
      <trkpt lat="49.18594" lon="6.96477">
        <ele>348</ele>
        <time>2010-12-05T10:09:25Z</time>
      </trkpt>
      <trkpt lat="49.18595" lon="6.96476">
        <ele>348</ele>
        <time>2010-12-05T10:09:26Z</time>
      </trkpt>
      <trkpt lat="49.18596" lon="6.96473">
        <ele>348</ele>
        <time>2010-12-05T10:09:28Z</time>
      </trkpt>
      <trkpt lat="49.18598" lon="6.9647">
        <ele>348</ele>
        <time>2010-12-05T10:09:30Z</time>
      </trkpt>
      <trkpt lat="49.18599" lon="6.96467">
        <ele>348</ele>
        <time>2010-12-05T10:09:32Z</time>
      </trkpt>
      <trkpt lat="49.186" lon="6.96466">
        <ele>348</ele>
        <time>2010-12-05T10:09:33Z</time>
      </trkpt>
      <trkpt lat="49.18601" lon="6.96463">
        <ele>348</ele>
        <time>2010-12-05T10:09:35Z</time>
      </trkpt>
      <trkpt lat="49.18602" lon="6.96461">
        <ele>348</ele>
        <time>2010-12-05T10:09:36Z</time>
      </trkpt>
      <trkpt lat="49.18602" lon="6.96459">
        <ele>348</ele>
        <time>2010-12-05T10:09:37Z</time>
      </trkpt>
      <trkpt lat="49.18604" lon="6.96456">
        <ele>348</ele>
        <time>2010-12-05T10:09:39Z</time>
      </trkpt>
      <trkpt lat="49.18605" lon="6.96454">
        <ele>348</ele>
        <time>2010-12-05T10:09:41Z</time>
      </trkpt>
      <trkpt lat="49.18607" lon="6.96451">
        <ele>348</ele>
        <time>2010-12-05T10:09:43Z</time>
      </trkpt>
      <trkpt lat="49.18608" lon="6.96448">
        <ele>348</ele>
        <time>2010-12-05T10:09:45Z</time>
      </trkpt>
      <trkpt lat="49.18608" lon="6.96446">
        <ele>348</ele>
        <time>2010-12-05T10:09:46Z</time>
      </trkpt>
      <trkpt lat="49.18609" lon="6.96444">
        <ele>348</ele>
        <time>2010-12-05T10:09:47Z</time>
      </trkpt>
      <trkpt lat="49.1861" lon="6.96443">
        <ele>348</ele>
        <time>2010-12-05T10:09:48Z</time>
      </trkpt>
      <trkpt lat="49.1861" lon="6.96441">
        <ele>348</ele>
        <time>2010-12-05T10:09:49Z</time>
      </trkpt>
      <trkpt lat="49.1861" lon="6.96439">
        <ele>348</ele>
        <time>2010-12-05T10:09:50Z</time>
      </trkpt>
      <trkpt lat="49.18611" lon="6.96438">
        <ele>348</ele>
        <time>2010-12-05T10:09:51Z</time>
      </trkpt>
      <trkpt lat="49.18612" lon="6.96436">
        <ele>348</ele>
        <time>2010-12-05T10:09:52Z</time>
      </trkpt>
      <trkpt lat="49.18612" lon="6.96434">
        <ele>348</ele>
        <time>2010-12-05T10:09:53Z</time>
      </trkpt>
      <trkpt lat="49.18613" lon="6.96432">
        <ele>349</ele>
        <time>2010-12-05T10:09:54Z</time>
      </trkpt>
      <trkpt lat="49.18614" lon="6.96429">
        <ele>349</ele>
        <time>2010-12-05T10:09:56Z</time>
      </trkpt>
      <trkpt lat="49.18615" lon="6.96426">
        <ele>349</ele>
        <time>2010-12-05T10:09:58Z</time>
      </trkpt>
      <trkpt lat="49.18616" lon="6.96423">
        <ele>349</ele>
        <time>2010-12-05T10:10:00Z</time>
      </trkpt>
      <trkpt lat="49.18618" lon="6.96421">
        <ele>349</ele>
        <time>2010-12-05T10:10:02Z</time>
      </trkpt>
      <trkpt lat="49.18618" lon="6.96418">
        <ele>349</ele>
        <time>2010-12-05T10:10:03Z</time>
      </trkpt>
      <trkpt lat="49.18618" lon="6.96416">
        <ele>349</ele>
        <time>2010-12-05T10:10:04Z</time>
      </trkpt>
      <trkpt lat="49.18619" lon="6.96415">
        <ele>349</ele>
        <time>2010-12-05T10:10:05Z</time>
      </trkpt>
      <trkpt lat="49.18619" lon="6.96413">
        <ele>349</ele>
        <time>2010-12-05T10:10:06Z</time>
      </trkpt>
      <trkpt lat="49.18621" lon="6.9641">
        <ele>349</ele>
        <time>2010-12-05T10:10:08Z</time>
      </trkpt>
      <trkpt lat="49.18621" lon="6.96408">
        <ele>349</ele>
        <time>2010-12-05T10:10:09Z</time>
      </trkpt>
      <trkpt lat="49.18623" lon="6.96405">
        <ele>349</ele>
        <time>2010-12-05T10:10:11Z</time>
      </trkpt>
      <trkpt lat="49.18623" lon="6.96403">
        <ele>349</ele>
        <time>2010-12-05T10:10:12Z</time>
      </trkpt>
      <trkpt lat="49.18624" lon="6.96402">
        <ele>349</ele>
        <time>2010-12-05T10:10:13Z</time>
      </trkpt>
      <trkpt lat="49.18625" lon="6.964">
        <ele>349</ele>
        <time>2010-12-05T10:10:14Z</time>
      </trkpt>
      <trkpt lat="49.18626" lon="6.96397">
        <ele>349</ele>
        <time>2010-12-05T10:10:16Z</time>
      </trkpt>
      <trkpt lat="49.18626" lon="6.96395">
        <ele>350</ele>
        <time>2010-12-05T10:10:17Z</time>
      </trkpt>
      <trkpt lat="49.18628" lon="6.96392">
        <ele>350</ele>
        <time>2010-12-05T10:10:19Z</time>
      </trkpt>
      <trkpt lat="49.18629" lon="6.96389">
        <ele>350</ele>
        <time>2010-12-05T10:10:21Z</time>
      </trkpt>
      <trkpt lat="49.1863" lon="6.96387">
        <ele>350</ele>
        <time>2010-12-05T10:10:22Z</time>
      </trkpt>
      <trkpt lat="49.18631" lon="6.96384">
        <ele>350</ele>
        <time>2010-12-05T10:10:24Z</time>
      </trkpt>
      <trkpt lat="49.18633" lon="6.96382">
        <ele>350</ele>
        <time>2010-12-05T10:10:26Z</time>
      </trkpt>
      <trkpt lat="49.18633" lon="6.9638">
        <ele>350</ele>
        <time>2010-12-05T10:10:27Z</time>
      </trkpt>
      <trkpt lat="49.18635" lon="6.96377">
        <ele>350</ele>
        <time>2010-12-05T10:10:29Z</time>
      </trkpt>
      <trkpt lat="49.18636" lon="6.96376">
        <ele>350</ele>
        <time>2010-12-05T10:10:30Z</time>
      </trkpt>
      <trkpt lat="49.18636" lon="6.96374">
        <ele>350</ele>
        <time>2010-12-05T10:10:31Z</time>
      </trkpt>
      <trkpt lat="49.18637" lon="6.96371">
        <ele>350</ele>
        <time>2010-12-05T10:10:33Z</time>
      </trkpt>
      <trkpt lat="49.18639" lon="6.96368">
        <ele>350</ele>
        <time>2010-12-05T10:10:35Z</time>
      </trkpt>
      <trkpt lat="49.1864" lon="6.96364">
        <ele>350</ele>
        <time>2010-12-05T10:10:37Z</time>
      </trkpt>
      <trkpt lat="49.18641" lon="6.96363">
        <ele>350</ele>
        <time>2010-12-05T10:10:38Z</time>
      </trkpt>
      <trkpt lat="49.18642" lon="6.96361">
        <ele>350</ele>
        <time>2010-12-05T10:10:39Z</time>
      </trkpt>
      <trkpt lat="49.18642" lon="6.96359">
        <ele>350</ele>
        <time>2010-12-05T10:10:40Z</time>
      </trkpt>
      <trkpt lat="49.18644" lon="6.96356">
        <ele>350</ele>
        <time>2010-12-05T10:10:42Z</time>
      </trkpt>
      <trkpt lat="49.18645" lon="6.96353">
        <ele>350</ele>
        <time>2010-12-05T10:10:44Z</time>
      </trkpt>
      <trkpt lat="49.18645" lon="6.96351">
        <ele>350</ele>
        <time>2010-12-05T10:10:45Z</time>
      </trkpt>
      <trkpt lat="49.18646" lon="6.9635">
        <ele>350</ele>
        <time>2010-12-05T10:10:46Z</time>
      </trkpt>
      <trkpt lat="49.18647" lon="6.96348">
        <ele>350</ele>
        <time>2010-12-05T10:10:47Z</time>
      </trkpt>
      <trkpt lat="49.18647" lon="6.96346">
        <ele>350</ele>
        <time>2010-12-05T10:10:48Z</time>
      </trkpt>
      <trkpt lat="49.18648" lon="6.96344">
        <ele>350</ele>
        <time>2010-12-05T10:10:49Z</time>
      </trkpt>
      <trkpt lat="49.18649" lon="6.96342">
        <ele>350</ele>
        <time>2010-12-05T10:10:50Z</time>
      </trkpt>
      <trkpt lat="49.18649" lon="6.96341">
        <ele>350</ele>
        <time>2010-12-05T10:10:51Z</time>
      </trkpt>
      <trkpt lat="49.1865" lon="6.96338">
        <ele>350</ele>
        <time>2010-12-05T10:10:53Z</time>
      </trkpt>
      <trkpt lat="49.18651" lon="6.96335">
        <ele>350</ele>
        <time>2010-12-05T10:10:55Z</time>
      </trkpt>
      <trkpt lat="49.18653" lon="6.96332">
        <ele>350</ele>
        <time>2010-12-05T10:10:57Z</time>
      </trkpt>
      <trkpt lat="49.18653" lon="6.9633">
        <ele>350</ele>
        <time>2010-12-05T10:10:58Z</time>
      </trkpt>
      <trkpt lat="49.18654" lon="6.96328">
        <ele>350</ele>
        <time>2010-12-05T10:10:59Z</time>
      </trkpt>
      <trkpt lat="49.18655" lon="6.96326">
        <ele>350</ele>
        <time>2010-12-05T10:11:00Z</time>
      </trkpt>
      <trkpt lat="49.18655" lon="6.96325">
        <ele>350</ele>
        <time>2010-12-05T10:11:01Z</time>
      </trkpt>
      <trkpt lat="49.18655" lon="6.96323">
        <ele>350</ele>
        <time>2010-12-05T10:11:02Z</time>
      </trkpt>
      <trkpt lat="49.18656" lon="6.96321">
        <ele>350</ele>
        <time>2010-12-05T10:11:03Z</time>
      </trkpt>
      <trkpt lat="49.18657" lon="6.9632">
        <ele>350</ele>
        <time>2010-12-05T10:11:04Z</time>
      </trkpt>
      <trkpt lat="49.18657" lon="6.96318">
        <ele>350</ele>
        <time>2010-12-05T10:11:05Z</time>
      </trkpt>
      <trkpt lat="49.18658" lon="6.96315">
        <ele>350</ele>
        <time>2010-12-05T10:11:07Z</time>
      </trkpt>
      <trkpt lat="49.18659" lon="6.96313">
        <ele>350</ele>
        <time>2010-12-05T10:11:08Z</time>
      </trkpt>
      <trkpt lat="49.1866" lon="6.96312">
        <ele>350</ele>
        <time>2010-12-05T10:11:09Z</time>
      </trkpt>
      <trkpt lat="49.1866" lon="6.9631">
        <ele>350</ele>
        <time>2010-12-05T10:11:10Z</time>
      </trkpt>
      <trkpt lat="49.18661" lon="6.96308">
        <ele>350</ele>
        <time>2010-12-05T10:11:11Z</time>
      </trkpt>
      <trkpt lat="49.18661" lon="6.96306">
        <ele>350</ele>
        <time>2010-12-05T10:11:12Z</time>
      </trkpt>
      <trkpt lat="49.18663" lon="6.96303">
        <ele>350</ele>
        <time>2010-12-05T10:11:14Z</time>
      </trkpt>
      <trkpt lat="49.18664" lon="6.963">
        <ele>350</ele>
        <time>2010-12-05T10:11:16Z</time>
      </trkpt>
      <trkpt lat="49.18665" lon="6.96297">
        <ele>350</ele>
        <time>2010-12-05T10:11:18Z</time>
      </trkpt>
      <trkpt lat="49.18665" lon="6.96295">
        <ele>350</ele>
        <time>2010-12-05T10:11:19Z</time>
      </trkpt>
      <trkpt lat="49.18666" lon="6.96293">
        <ele>350</ele>
        <time>2010-12-05T10:11:20Z</time>
      </trkpt>
      <trkpt lat="49.18667" lon="6.96292">
        <ele>350</ele>
        <time>2010-12-05T10:11:21Z</time>
      </trkpt>
      <trkpt lat="49.18668" lon="6.9629">
        <ele>350</ele>
        <time>2010-12-05T10:11:22Z</time>
      </trkpt>
      <trkpt lat="49.18668" lon="6.96288">
        <ele>350</ele>
        <time>2010-12-05T10:11:23Z</time>
      </trkpt>
      <trkpt lat="49.18669" lon="6.96286">
        <ele>350</ele>
        <time>2010-12-05T10:11:24Z</time>
      </trkpt>
      <trkpt lat="49.1867" lon="6.96283">
        <ele>350</ele>
        <time>2010-12-05T10:11:26Z</time>
      </trkpt>
      <trkpt lat="49.18671" lon="6.96281">
        <ele>350</ele>
        <time>2010-12-05T10:11:27Z</time>
      </trkpt>
      <trkpt lat="49.18671" lon="6.9628">
        <ele>350</ele>
        <time>2010-12-05T10:11:28Z</time>
      </trkpt>
      <trkpt lat="49.18672" lon="6.96278">
        <ele>350</ele>
        <time>2010-12-05T10:11:29Z</time>
      </trkpt>
      <trkpt lat="49.18673" lon="6.96277">
        <ele>350</ele>
        <time>2010-12-05T10:11:30Z</time>
      </trkpt>
      <trkpt lat="49.18674" lon="6.96273">
        <ele>350</ele>
        <time>2010-12-05T10:11:32Z</time>
      </trkpt>
      <trkpt lat="49.18675" lon="6.96272">
        <ele>350</ele>
        <time>2010-12-05T10:11:33Z</time>
      </trkpt>
      <trkpt lat="49.18676" lon="6.9627">
        <ele>350</ele>
        <time>2010-12-05T10:11:34Z</time>
      </trkpt>
      <trkpt lat="49.18676" lon="6.96268">
        <ele>350</ele>
        <time>2010-12-05T10:11:35Z</time>
      </trkpt>
      <trkpt lat="49.18677" lon="6.96265">
        <ele>350</ele>
        <time>2010-12-05T10:11:37Z</time>
      </trkpt>
      <trkpt lat="49.18678" lon="6.96262">
        <ele>350</ele>
        <time>2010-12-05T10:11:39Z</time>
      </trkpt>
      <trkpt lat="49.18679" lon="6.9626">
        <ele>350</ele>
        <time>2010-12-05T10:11:40Z</time>
      </trkpt>
      <trkpt lat="49.1868" lon="6.96257">
        <ele>350</ele>
        <time>2010-12-05T10:11:42Z</time>
      </trkpt>
      <trkpt lat="49.18681" lon="6.96255">
        <ele>350</ele>
        <time>2010-12-05T10:11:43Z</time>
      </trkpt>
      <trkpt lat="49.18681" lon="6.96254">
        <ele>350</ele>
        <time>2010-12-05T10:11:44Z</time>
      </trkpt>
      <trkpt lat="49.18682" lon="6.96251">
        <ele>350</ele>
        <time>2010-12-05T10:11:46Z</time>
      </trkpt>
      <trkpt lat="49.18683" lon="6.96249">
        <ele>350</ele>
        <time>2010-12-05T10:11:47Z</time>
      </trkpt>
      <trkpt lat="49.18684" lon="6.96246">
        <ele>350</ele>
        <time>2010-12-05T10:11:49Z</time>
      </trkpt>
      <trkpt lat="49.18685" lon="6.96244">
        <ele>350</ele>
        <time>2010-12-05T10:11:50Z</time>
      </trkpt>
      <trkpt lat="49.18685" lon="6.96242">
        <ele>350</ele>
        <time>2010-12-05T10:11:51Z</time>
      </trkpt>
      <trkpt lat="49.18685" lon="6.9624">
        <ele>350</ele>
        <time>2010-12-05T10:11:52Z</time>
      </trkpt>
      <trkpt lat="49.18686" lon="6.96237">
        <ele>350</ele>
        <time>2010-12-05T10:11:54Z</time>
      </trkpt>
      <trkpt lat="49.18687" lon="6.96234">
        <ele>350</ele>
        <time>2010-12-05T10:11:56Z</time>
      </trkpt>
      <trkpt lat="49.18688" lon="6.96232">
        <ele>350</ele>
        <time>2010-12-05T10:11:57Z</time>
      </trkpt>
      <trkpt lat="49.18689" lon="6.96231">
        <ele>350</ele>
        <time>2010-12-05T10:11:58Z</time>
      </trkpt>
      <trkpt lat="49.18689" lon="6.96229">
        <ele>350</ele>
        <time>2010-12-05T10:11:59Z</time>
      </trkpt>
      <trkpt lat="49.1869" lon="6.96227">
        <ele>350</ele>
        <time>2010-12-05T10:12:01Z</time>
      </trkpt>
      <trkpt lat="49.18691" lon="6.96224">
        <ele>350</ele>
        <time>2010-12-05T10:12:03Z</time>
      </trkpt>
      <trkpt lat="49.1869" lon="6.96222">
        <ele>350</ele>
        <time>2010-12-05T10:12:07Z</time>
      </trkpt>
      <trkpt lat="49.18691" lon="6.9622">
        <ele>350</ele>
        <time>2010-12-05T10:12:12Z</time>
      </trkpt>
      <trkpt lat="49.18692" lon="6.96218">
        <ele>350</ele>
        <time>2010-12-05T10:12:14Z</time>
      </trkpt>
      <trkpt lat="49.18693" lon="6.96215">
        <ele>350</ele>
        <time>2010-12-05T10:12:16Z</time>
      </trkpt>
      <trkpt lat="49.18694" lon="6.96213">
        <ele>350</ele>
        <time>2010-12-05T10:12:17Z</time>
      </trkpt>
      <trkpt lat="49.18695" lon="6.96211">
        <ele>350</ele>
        <time>2010-12-05T10:12:19Z</time>
      </trkpt>
      <trkpt lat="49.18695" lon="6.96209">
        <ele>350</ele>
        <time>2010-12-05T10:12:21Z</time>
      </trkpt>
      <trkpt lat="49.18696" lon="6.96207">
        <ele>350</ele>
        <time>2010-12-05T10:12:23Z</time>
      </trkpt>
      <trkpt lat="49.18697" lon="6.96204">
        <ele>350</ele>
        <time>2010-12-05T10:12:25Z</time>
      </trkpt>
      <trkpt lat="49.18698" lon="6.96202">
        <ele>350</ele>
        <time>2010-12-05T10:12:27Z</time>
      </trkpt>
      <trkpt lat="49.18699" lon="6.96199">
        <ele>350</ele>
        <time>2010-12-05T10:12:29Z</time>
      </trkpt>
      <trkpt lat="49.187" lon="6.96196">
        <ele>350</ele>
        <time>2010-12-05T10:12:31Z</time>
      </trkpt>
      <trkpt lat="49.18701" lon="6.96193">
        <ele>350</ele>
        <time>2010-12-05T10:12:33Z</time>
      </trkpt>
      <trkpt lat="49.18702" lon="6.9619">
        <ele>350</ele>
        <time>2010-12-05T10:12:35Z</time>
      </trkpt>
      <trkpt lat="49.18702" lon="6.96188">
        <ele>350</ele>
        <time>2010-12-05T10:12:36Z</time>
      </trkpt>
      <trkpt lat="49.18703" lon="6.96186">
        <ele>350</ele>
        <time>2010-12-05T10:12:38Z</time>
      </trkpt>
      <trkpt lat="49.18703" lon="6.96184">
        <ele>350</ele>
        <time>2010-12-05T10:12:39Z</time>
      </trkpt>
      <trkpt lat="49.18704" lon="6.96182">
        <ele>350</ele>
        <time>2010-12-05T10:12:40Z</time>
      </trkpt>
      <trkpt lat="49.18705" lon="6.9618">
        <ele>350</ele>
        <time>2010-12-05T10:12:42Z</time>
      </trkpt>
      <trkpt lat="49.18706" lon="6.96177">
        <ele>350</ele>
        <time>2010-12-05T10:12:44Z</time>
      </trkpt>
      <trkpt lat="49.18708" lon="6.96174">
        <ele>350</ele>
        <time>2010-12-05T10:12:46Z</time>
      </trkpt>
      <trkpt lat="49.18708" lon="6.96172">
        <ele>350</ele>
        <time>2010-12-05T10:12:47Z</time>
      </trkpt>
      <trkpt lat="49.18709" lon="6.96171">
        <ele>350</ele>
        <time>2010-12-05T10:12:48Z</time>
      </trkpt>
      <trkpt lat="49.18709" lon="6.96169">
        <ele>350</ele>
        <time>2010-12-05T10:12:49Z</time>
      </trkpt>
      <trkpt lat="49.1871" lon="6.96167">
        <ele>350</ele>
        <time>2010-12-05T10:12:50Z</time>
      </trkpt>
      <trkpt lat="49.18711" lon="6.96164">
        <ele>350</ele>
        <time>2010-12-05T10:12:52Z</time>
      </trkpt>
      <trkpt lat="49.18711" lon="6.96161">
        <ele>350</ele>
        <time>2010-12-05T10:12:54Z</time>
      </trkpt>
      <trkpt lat="49.18712" lon="6.96159">
        <ele>350</ele>
        <time>2010-12-05T10:12:55Z</time>
      </trkpt>
      <trkpt lat="49.18713" lon="6.96157">
        <ele>350</ele>
        <time>2010-12-05T10:12:57Z</time>
      </trkpt>
      <trkpt lat="49.18712" lon="6.96159">
        <ele>350</ele>
        <time>2010-12-05T10:13:07Z</time>
      </trkpt>
      <trkpt lat="49.18713" lon="6.96161">
        <ele>350</ele>
        <time>2010-12-05T10:13:11Z</time>
      </trkpt>
      <trkpt lat="49.18713" lon="6.96162">
        <ele>350</ele>
        <time>2010-12-05T10:13:13Z</time>
      </trkpt>
      <trkpt lat="49.18712" lon="6.96164">
        <ele>350</ele>
        <time>2010-12-05T10:13:26Z</time>
      </trkpt>
      <trkpt lat="49.18712" lon="6.96162">
        <ele>350</ele>
        <time>2010-12-05T10:13:41Z</time>
      </trkpt>
      <trkpt lat="49.18713" lon="6.96161">
        <ele>350</ele>
        <time>2010-12-05T10:13:43Z</time>
      </trkpt>
      <trkpt lat="49.18714" lon="6.96158">
        <ele>350</ele>
        <time>2010-12-05T10:13:45Z</time>
      </trkpt>
      <trkpt lat="49.18714" lon="6.96155">
        <ele>350</ele>
        <time>2010-12-05T10:13:47Z</time>
      </trkpt>
      <trkpt lat="49.18715" lon="6.96152">
        <ele>350</ele>
        <time>2010-12-05T10:13:49Z</time>
      </trkpt>
      <trkpt lat="49.18716" lon="6.96149">
        <ele>350</ele>
        <time>2010-12-05T10:13:51Z</time>
      </trkpt>
      <trkpt lat="49.18716" lon="6.96147">
        <ele>350</ele>
        <time>2010-12-05T10:13:52Z</time>
      </trkpt>
      <trkpt lat="49.18717" lon="6.96144">
        <ele>350</ele>
        <time>2010-12-05T10:13:54Z</time>
      </trkpt>
      <trkpt lat="49.18718" lon="6.96141">
        <ele>350</ele>
        <time>2010-12-05T10:13:56Z</time>
      </trkpt>
      <trkpt lat="49.18719" lon="6.9614">
        <ele>350</ele>
        <time>2010-12-05T10:13:57Z</time>
      </trkpt>
      <trkpt lat="49.1872" lon="6.96137">
        <ele>350</ele>
        <time>2010-12-05T10:13:59Z</time>
      </trkpt>
      <trkpt lat="49.18721" lon="6.96134">
        <ele>350</ele>
        <time>2010-12-05T10:14:01Z</time>
      </trkpt>
      <trkpt lat="49.18721" lon="6.96132">
        <ele>350</ele>
        <time>2010-12-05T10:14:02Z</time>
      </trkpt>
      <trkpt lat="49.18722" lon="6.96129">
        <ele>350</ele>
        <time>2010-12-05T10:14:04Z</time>
      </trkpt>
      <trkpt lat="49.18723" lon="6.96127">
        <ele>350</ele>
        <time>2010-12-05T10:14:05Z</time>
      </trkpt>
      <trkpt lat="49.18723" lon="6.96126">
        <ele>350</ele>
        <time>2010-12-05T10:14:06Z</time>
      </trkpt>
      <trkpt lat="49.18724" lon="6.96124">
        <ele>350</ele>
        <time>2010-12-05T10:14:07Z</time>
      </trkpt>
      <trkpt lat="49.18724" lon="6.96122">
        <ele>350</ele>
        <time>2010-12-05T10:14:08Z</time>
      </trkpt>
      <trkpt lat="49.18725" lon="6.9612">
        <ele>350</ele>
        <time>2010-12-05T10:14:09Z</time>
      </trkpt>
      <trkpt lat="49.18725" lon="6.96118">
        <ele>350</ele>
        <time>2010-12-05T10:14:10Z</time>
      </trkpt>
      <trkpt lat="49.18726" lon="6.96117">
        <ele>350</ele>
        <time>2010-12-05T10:14:11Z</time>
      </trkpt>
      <trkpt lat="49.18726" lon="6.96115">
        <ele>350</ele>
        <time>2010-12-05T10:14:12Z</time>
      </trkpt>
      <trkpt lat="49.18727" lon="6.96113">
        <ele>350</ele>
        <time>2010-12-05T10:14:13Z</time>
      </trkpt>
      <trkpt lat="49.18728" lon="6.96111">
        <ele>350</ele>
        <time>2010-12-05T10:14:14Z</time>
      </trkpt>
      <trkpt lat="49.18728" lon="6.96109">
        <ele>350</ele>
        <time>2010-12-05T10:14:15Z</time>
      </trkpt>
      <trkpt lat="49.18729" lon="6.96107">
        <ele>350</ele>
        <time>2010-12-05T10:14:16Z</time>
      </trkpt>
      <trkpt lat="49.1873" lon="6.96106">
        <ele>350</ele>
        <time>2010-12-05T10:14:17Z</time>
      </trkpt>
      <trkpt lat="49.18731" lon="6.96103">
        <ele>350</ele>
        <time>2010-12-05T10:14:19Z</time>
      </trkpt>
      <trkpt lat="49.18732" lon="6.96101">
        <ele>350</ele>
        <time>2010-12-05T10:14:20Z</time>
      </trkpt>
      <trkpt lat="49.18732" lon="6.96099">
        <ele>350</ele>
        <time>2010-12-05T10:14:21Z</time>
      </trkpt>
      <trkpt lat="49.18733" lon="6.96097">
        <ele>350</ele>
        <time>2010-12-05T10:14:22Z</time>
      </trkpt>
      <trkpt lat="49.18734" lon="6.96096">
        <ele>350</ele>
        <time>2010-12-05T10:14:23Z</time>
      </trkpt>
      <trkpt lat="49.18734" lon="6.96094">
        <ele>350</ele>
        <time>2010-12-05T10:14:24Z</time>
      </trkpt>
      <trkpt lat="49.18736" lon="6.96091">
        <ele>350</ele>
        <time>2010-12-05T10:14:26Z</time>
      </trkpt>
      <trkpt lat="49.18737" lon="6.96088">
        <ele>350</ele>
        <time>2010-12-05T10:14:28Z</time>
      </trkpt>
      <trkpt lat="49.18739" lon="6.96084">
        <ele>350</ele>
        <time>2010-12-05T10:14:30Z</time>
      </trkpt>
      <trkpt lat="49.18739" lon="6.96083">
        <ele>350</ele>
        <time>2010-12-05T10:14:31Z</time>
      </trkpt>
      <trkpt lat="49.1874" lon="6.96081">
        <ele>350</ele>
        <time>2010-12-05T10:14:32Z</time>
      </trkpt>
      <trkpt lat="49.18741" lon="6.96079">
        <ele>350</ele>
        <time>2010-12-05T10:14:33Z</time>
      </trkpt>
      <trkpt lat="49.18742" lon="6.96078">
        <ele>350</ele>
        <time>2010-12-05T10:14:34Z</time>
      </trkpt>
      <trkpt lat="49.18742" lon="6.96076">
        <ele>350</ele>
        <time>2010-12-05T10:14:35Z</time>
      </trkpt>
      <trkpt lat="49.18743" lon="6.96074">
        <ele>350</ele>
        <time>2010-12-05T10:14:36Z</time>
      </trkpt>
      <trkpt lat="49.18744" lon="6.96072">
        <ele>350</ele>
        <time>2010-12-05T10:14:37Z</time>
      </trkpt>
      <trkpt lat="49.18745" lon="6.96071">
        <ele>350</ele>
        <time>2010-12-05T10:14:38Z</time>
      </trkpt>
      <trkpt lat="49.18745" lon="6.96069">
        <ele>350</ele>
        <time>2010-12-05T10:14:39Z</time>
      </trkpt>
      <trkpt lat="49.18747" lon="6.96066">
        <ele>350</ele>
        <time>2010-12-05T10:14:41Z</time>
      </trkpt>
      <trkpt lat="49.18748" lon="6.96064">
        <ele>350</ele>
        <time>2010-12-05T10:14:42Z</time>
      </trkpt>
      <trkpt lat="49.18749" lon="6.96061">
        <ele>350</ele>
        <time>2010-12-05T10:14:44Z</time>
      </trkpt>
      <trkpt lat="49.1875" lon="6.96059">
        <ele>350</ele>
        <time>2010-12-05T10:14:45Z</time>
      </trkpt>
      <trkpt lat="49.1875" lon="6.96058">
        <ele>350</ele>
        <time>2010-12-05T10:14:46Z</time>
      </trkpt>
      <trkpt lat="49.18752" lon="6.96055">
        <ele>350</ele>
        <time>2010-12-05T10:14:48Z</time>
      </trkpt>
      <trkpt lat="49.18753" lon="6.96053">
        <ele>350</ele>
        <time>2010-12-05T10:14:49Z</time>
      </trkpt>
      <trkpt lat="49.18754" lon="6.9605">
        <ele>350</ele>
        <time>2010-12-05T10:14:51Z</time>
      </trkpt>
      <trkpt lat="49.18755" lon="6.96048">
        <ele>350</ele>
        <time>2010-12-05T10:14:52Z</time>
      </trkpt>
      <trkpt lat="49.18757" lon="6.96045">
        <ele>350</ele>
        <time>2010-12-05T10:14:54Z</time>
      </trkpt>
      <trkpt lat="49.18758" lon="6.96043">
        <ele>350</ele>
        <time>2010-12-05T10:14:55Z</time>
      </trkpt>
      <trkpt lat="49.18758" lon="6.96041">
        <ele>350</ele>
        <time>2010-12-05T10:14:56Z</time>
      </trkpt>
      <trkpt lat="49.18759" lon="6.9604">
        <ele>350</ele>
        <time>2010-12-05T10:14:57Z</time>
      </trkpt>
      <trkpt lat="49.1876" lon="6.96037">
        <ele>350</ele>
        <time>2010-12-05T10:14:59Z</time>
      </trkpt>
      <trkpt lat="49.1876" lon="6.96035">
        <ele>350</ele>
        <time>2010-12-05T10:15:00Z</time>
      </trkpt>
      <trkpt lat="49.18761" lon="6.96033">
        <ele>350</ele>
        <time>2010-12-05T10:15:01Z</time>
      </trkpt>
      <trkpt lat="49.18762" lon="6.96032">
        <ele>350</ele>
        <time>2010-12-05T10:15:02Z</time>
      </trkpt>
      <trkpt lat="49.18763" lon="6.9603">
        <ele>350</ele>
        <time>2010-12-05T10:15:03Z</time>
      </trkpt>
      <trkpt lat="49.18764" lon="6.96028">
        <ele>350</ele>
        <time>2010-12-05T10:15:04Z</time>
      </trkpt>
      <trkpt lat="49.18766" lon="6.96025">
        <ele>350</ele>
        <time>2010-12-05T10:15:06Z</time>
      </trkpt>
      <trkpt lat="49.18767" lon="6.96022">
        <ele>350</ele>
        <time>2010-12-05T10:15:08Z</time>
      </trkpt>
      <trkpt lat="49.18769" lon="6.9602">
        <ele>350</ele>
        <time>2010-12-05T10:15:10Z</time>
      </trkpt>
      <trkpt lat="49.1877" lon="6.96017">
        <ele>350</ele>
        <time>2010-12-05T10:15:12Z</time>
      </trkpt>
      <trkpt lat="49.18772" lon="6.96013">
        <ele>350</ele>
        <time>2010-12-05T10:15:14Z</time>
      </trkpt>
      <trkpt lat="49.18774" lon="6.96012">
        <ele>350</ele>
        <time>2010-12-05T10:15:16Z</time>
      </trkpt>
      <trkpt lat="49.18776" lon="6.96011">
        <ele>350</ele>
        <time>2010-12-05T10:15:18Z</time>
      </trkpt>
      <trkpt lat="49.18777" lon="6.96011">
        <ele>350</ele>
        <time>2010-12-05T10:15:19Z</time>
      </trkpt>
      <trkpt lat="49.18779" lon="6.96011">
        <ele>350</ele>
        <time>2010-12-05T10:15:20Z</time>
      </trkpt>
      <trkpt lat="49.1878" lon="6.96011">
        <ele>350</ele>
        <time>2010-12-05T10:15:21Z</time>
      </trkpt>
      <trkpt lat="49.18781" lon="6.96011">
        <ele>350</ele>
        <time>2010-12-05T10:15:22Z</time>
      </trkpt>
      <trkpt lat="49.18782" lon="6.96011">
        <ele>350</ele>
        <time>2010-12-05T10:15:23Z</time>
      </trkpt>
      <trkpt lat="49.18783" lon="6.96012">
        <ele>350</ele>
        <time>2010-12-05T10:15:24Z</time>
      </trkpt>
      <trkpt lat="49.18785" lon="6.96013">
        <ele>350</ele>
        <time>2010-12-05T10:15:26Z</time>
      </trkpt>
      <trkpt lat="49.18787" lon="6.96014">
        <ele>350</ele>
        <time>2010-12-05T10:15:28Z</time>
      </trkpt>
      <trkpt lat="49.18788" lon="6.96015">
        <ele>350</ele>
        <time>2010-12-05T10:15:29Z</time>
      </trkpt>
      <trkpt lat="49.18789" lon="6.96016">
        <ele>350</ele>
        <time>2010-12-05T10:15:30Z</time>
      </trkpt>
      <trkpt lat="49.1879" lon="6.96016">
        <ele>350</ele>
        <time>2010-12-05T10:15:31Z</time>
      </trkpt>
      <trkpt lat="49.18792" lon="6.96017">
        <ele>350</ele>
        <time>2010-12-05T10:15:32Z</time>
      </trkpt>
      <trkpt lat="49.18794" lon="6.96018">
        <ele>350</ele>
        <time>2010-12-05T10:15:34Z</time>
      </trkpt>
      <trkpt lat="49.18796" lon="6.9602">
        <ele>350</ele>
        <time>2010-12-05T10:15:36Z</time>
      </trkpt>
      <trkpt lat="49.18797" lon="6.9602">
        <ele>350</ele>
        <time>2010-12-05T10:15:37Z</time>
      </trkpt>
      <trkpt lat="49.18798" lon="6.96021">
        <ele>350</ele>
        <time>2010-12-05T10:15:38Z</time>
      </trkpt>
      <trkpt lat="49.188" lon="6.96023">
        <ele>350</ele>
        <time>2010-12-05T10:15:40Z</time>
      </trkpt>
      <trkpt lat="49.18802" lon="6.96025">
        <ele>350</ele>
        <time>2010-12-05T10:15:42Z</time>
      </trkpt>
      <trkpt lat="49.18803" lon="6.96025">
        <ele>350</ele>
        <time>2010-12-05T10:15:43Z</time>
      </trkpt>
      <trkpt lat="49.18805" lon="6.96027">
        <ele>350</ele>
        <time>2010-12-05T10:15:45Z</time>
      </trkpt>
      <trkpt lat="49.18806" lon="6.96028">
        <ele>350</ele>
        <time>2010-12-05T10:15:46Z</time>
      </trkpt>
      <trkpt lat="49.18809" lon="6.96029">
        <ele>350</ele>
        <time>2010-12-05T10:15:48Z</time>
      </trkpt>
      <trkpt lat="49.18811" lon="6.96031">
        <ele>350</ele>
        <time>2010-12-05T10:15:50Z</time>
      </trkpt>
      <trkpt lat="49.18812" lon="6.96032">
        <ele>350</ele>
        <time>2010-12-05T10:15:51Z</time>
      </trkpt>
      <trkpt lat="49.18813" lon="6.96032">
        <ele>350</ele>
        <time>2010-12-05T10:15:52Z</time>
      </trkpt>
      <trkpt lat="49.18814" lon="6.96033">
        <ele>350</ele>
        <time>2010-12-05T10:15:53Z</time>
      </trkpt>
      <trkpt lat="49.18816" lon="6.96034">
        <ele>350</ele>
        <time>2010-12-05T10:15:54Z</time>
      </trkpt>
      <trkpt lat="49.18818" lon="6.96035">
        <ele>350</ele>
        <time>2010-12-05T10:15:56Z</time>
      </trkpt>
      <trkpt lat="49.18819" lon="6.96036">
        <ele>350</ele>
        <time>2010-12-05T10:15:57Z</time>
      </trkpt>
      <trkpt lat="49.18821" lon="6.96037">
        <ele>349</ele>
        <time>2010-12-05T10:15:59Z</time>
      </trkpt>
      <trkpt lat="49.18822" lon="6.96038">
        <ele>349</ele>
        <time>2010-12-05T10:16:00Z</time>
      </trkpt>
      <trkpt lat="49.18823" lon="6.96039">
        <ele>349</ele>
        <time>2010-12-05T10:16:01Z</time>
      </trkpt>
      <trkpt lat="49.18824" lon="6.9604">
        <ele>349</ele>
        <time>2010-12-05T10:16:02Z</time>
      </trkpt>
      <trkpt lat="49.18826" lon="6.96041">
        <ele>349</ele>
        <time>2010-12-05T10:16:03Z</time>
      </trkpt>
      <trkpt lat="49.18827" lon="6.96041">
        <ele>349</ele>
        <time>2010-12-05T10:16:04Z</time>
      </trkpt>
      <trkpt lat="49.18829" lon="6.96043">
        <ele>349</ele>
        <time>2010-12-05T10:16:06Z</time>
      </trkpt>
      <trkpt lat="49.1883" lon="6.96044">
        <ele>349</ele>
        <time>2010-12-05T10:16:07Z</time>
      </trkpt>
      <trkpt lat="49.18832" lon="6.96045">
        <ele>349</ele>
        <time>2010-12-05T10:16:08Z</time>
      </trkpt>
      <trkpt lat="49.18833" lon="6.96045">
        <ele>349</ele>
        <time>2010-12-05T10:16:09Z</time>
      </trkpt>
      <trkpt lat="49.18835" lon="6.96047">
        <ele>349</ele>
        <time>2010-12-05T10:16:11Z</time>
      </trkpt>
      <trkpt lat="49.18837" lon="6.96049">
        <ele>349</ele>
        <time>2010-12-05T10:16:13Z</time>
      </trkpt>
      <trkpt lat="49.18838" lon="6.9605">
        <ele>349</ele>
        <time>2010-12-05T10:16:14Z</time>
      </trkpt>
      <trkpt lat="49.18839" lon="6.96051">
        <ele>349</ele>
        <time>2010-12-05T10:16:15Z</time>
      </trkpt>
      <trkpt lat="49.1884" lon="6.96051">
        <ele>349</ele>
        <time>2010-12-05T10:16:16Z</time>
      </trkpt>
      <trkpt lat="49.18842" lon="6.96052">
        <ele>349</ele>
        <time>2010-12-05T10:16:17Z</time>
      </trkpt>
      <trkpt lat="49.18843" lon="6.96053">
        <ele>349</ele>
        <time>2010-12-05T10:16:18Z</time>
      </trkpt>
      <trkpt lat="49.18844" lon="6.96054">
        <ele>348</ele>
        <time>2010-12-05T10:16:19Z</time>
      </trkpt>
      <trkpt lat="49.18845" lon="6.96055">
        <ele>348</ele>
        <time>2010-12-05T10:16:20Z</time>
      </trkpt>
      <trkpt lat="49.18847" lon="6.96055">
        <ele>348</ele>
        <time>2010-12-05T10:16:21Z</time>
      </trkpt>
      <trkpt lat="49.18849" lon="6.96057">
        <ele>348</ele>
        <time>2010-12-05T10:16:23Z</time>
      </trkpt>
      <trkpt lat="49.1885" lon="6.96059">
        <ele>348</ele>
        <time>2010-12-05T10:16:24Z</time>
      </trkpt>
      <trkpt lat="49.18852" lon="6.9606">
        <ele>348</ele>
        <time>2010-12-05T10:16:26Z</time>
      </trkpt>
      <trkpt lat="49.18853" lon="6.96061">
        <ele>348</ele>
        <time>2010-12-05T10:16:27Z</time>
      </trkpt>
      <trkpt lat="49.18854" lon="6.96062">
        <ele>348</ele>
        <time>2010-12-05T10:16:28Z</time>
      </trkpt>
      <trkpt lat="49.18855" lon="6.96063">
        <ele>348</ele>
        <time>2010-12-05T10:16:29Z</time>
      </trkpt>
      <trkpt lat="49.18858" lon="6.96065">
        <ele>348</ele>
        <time>2010-12-05T10:16:31Z</time>
      </trkpt>
      <trkpt lat="49.18859" lon="6.96067">
        <ele>348</ele>
        <time>2010-12-05T10:16:33Z</time>
      </trkpt>
      <trkpt lat="49.18861" lon="6.96067">
        <ele>347</ele>
        <time>2010-12-05T10:16:34Z</time>
      </trkpt>
      <trkpt lat="49.18863" lon="6.96069">
        <ele>347</ele>
        <time>2010-12-05T10:16:36Z</time>
      </trkpt>
      <trkpt lat="49.18864" lon="6.9607">
        <ele>347</ele>
        <time>2010-12-05T10:16:37Z</time>
      </trkpt>
      <trkpt lat="49.18866" lon="6.96072">
        <ele>347</ele>
        <time>2010-12-05T10:16:39Z</time>
      </trkpt>
      <trkpt lat="49.18868" lon="6.96074">
        <ele>347</ele>
        <time>2010-12-05T10:16:41Z</time>
      </trkpt>
      <trkpt lat="49.1887" lon="6.96076">
        <ele>347</ele>
        <time>2010-12-05T10:16:43Z</time>
      </trkpt>
      <trkpt lat="49.18871" lon="6.96077">
        <ele>347</ele>
        <time>2010-12-05T10:16:45Z</time>
      </trkpt>
      <trkpt lat="49.18873" lon="6.96079">
        <ele>347</ele>
        <time>2010-12-05T10:16:47Z</time>
      </trkpt>
      <trkpt lat="49.18874" lon="6.96079">
        <ele>347</ele>
        <time>2010-12-05T10:16:49Z</time>
      </trkpt>
      <trkpt lat="49.18876" lon="6.9608">
        <ele>346</ele>
        <time>2010-12-05T10:16:52Z</time>
      </trkpt>
      <trkpt lat="49.18877" lon="6.96079">
        <ele>346</ele>
        <time>2010-12-05T10:16:55Z</time>
      </trkpt>
      <trkpt lat="49.18879" lon="6.96079">
        <ele>346</ele>
        <time>2010-12-05T10:17:03Z</time>
      </trkpt>
      <trkpt lat="49.1888" lon="6.96077">
        <ele>346</ele>
        <time>2010-12-05T10:17:06Z</time>
      </trkpt>
      <trkpt lat="49.18882" lon="6.96075">
        <ele>346</ele>
        <time>2010-12-05T10:17:10Z</time>
      </trkpt>
      <trkpt lat="49.18883" lon="6.96072">
        <ele>346</ele>
        <time>2010-12-05T10:17:12Z</time>
      </trkpt>
      <trkpt lat="49.18884" lon="6.9607">
        <ele>346</ele>
        <time>2010-12-05T10:17:14Z</time>
      </trkpt>
      <trkpt lat="49.18884" lon="6.96068">
        <ele>346</ele>
        <time>2010-12-05T10:17:15Z</time>
      </trkpt>
      <trkpt lat="49.18885" lon="6.96065">
        <ele>346</ele>
        <time>2010-12-05T10:17:17Z</time>
      </trkpt>
      <trkpt lat="49.18886" lon="6.96062">
        <ele>346</ele>
        <time>2010-12-05T10:17:19Z</time>
      </trkpt>
      <trkpt lat="49.18887" lon="6.96059">
        <ele>346</ele>
        <time>2010-12-05T10:17:21Z</time>
      </trkpt>
      <trkpt lat="49.18888" lon="6.96057">
        <ele>346</ele>
        <time>2010-12-05T10:17:23Z</time>
      </trkpt>
      <trkpt lat="49.18889" lon="6.96054">
        <ele>346</ele>
        <time>2010-12-05T10:17:25Z</time>
      </trkpt>
      <trkpt lat="49.1889" lon="6.96051">
        <ele>346</ele>
        <time>2010-12-05T10:17:27Z</time>
      </trkpt>
      <trkpt lat="49.18891" lon="6.96048">
        <ele>346</ele>
        <time>2010-12-05T10:17:29Z</time>
      </trkpt>
      <trkpt lat="49.18892" lon="6.96045">
        <ele>346</ele>
        <time>2010-12-05T10:17:31Z</time>
      </trkpt>
      <trkpt lat="49.18892" lon="6.96044">
        <ele>346</ele>
        <time>2010-12-05T10:17:32Z</time>
      </trkpt>
      <trkpt lat="49.18894" lon="6.9604">
        <ele>346</ele>
        <time>2010-12-05T10:17:34Z</time>
      </trkpt>
      <trkpt lat="49.18895" lon="6.96037">
        <ele>346</ele>
        <time>2010-12-05T10:17:36Z</time>
      </trkpt>
      <trkpt lat="49.18895" lon="6.96036">
        <ele>346</ele>
        <time>2010-12-05T10:17:37Z</time>
      </trkpt>
      <trkpt lat="49.18896" lon="6.96034">
        <ele>346</ele>
        <time>2010-12-05T10:17:38Z</time>
      </trkpt>
      <trkpt lat="49.18897" lon="6.96031">
        <ele>346</ele>
        <time>2010-12-05T10:17:40Z</time>
      </trkpt>
      <trkpt lat="49.18898" lon="6.96029">
        <ele>346</ele>
        <time>2010-12-05T10:17:42Z</time>
      </trkpt>
      <trkpt lat="49.18899" lon="6.96027">
        <ele>346</ele>
        <time>2010-12-05T10:17:43Z</time>
      </trkpt>
      <trkpt lat="49.18901" lon="6.96024">
        <ele>346</ele>
        <time>2010-12-05T10:17:45Z</time>
      </trkpt>
      <trkpt lat="49.18902" lon="6.96021">
        <ele>346</ele>
        <time>2010-12-05T10:17:47Z</time>
      </trkpt>
      <trkpt lat="49.18903" lon="6.96018">
        <ele>346</ele>
        <time>2010-12-05T10:17:49Z</time>
      </trkpt>
      <trkpt lat="49.18904" lon="6.96017">
        <ele>346</ele>
        <time>2010-12-05T10:17:50Z</time>
      </trkpt>
      <trkpt lat="49.18905" lon="6.96013">
        <ele>346</ele>
        <time>2010-12-05T10:17:52Z</time>
      </trkpt>
      <trkpt lat="49.18905" lon="6.96012">
        <ele>346</ele>
        <time>2010-12-05T10:17:53Z</time>
      </trkpt>
      <trkpt lat="49.18906" lon="6.96009">
        <ele>346</ele>
        <time>2010-12-05T10:17:55Z</time>
      </trkpt>
      <trkpt lat="49.18907" lon="6.96007">
        <ele>346</ele>
        <time>2010-12-05T10:17:56Z</time>
      </trkpt>
      <trkpt lat="49.18908" lon="6.96005">
        <ele>346</ele>
        <time>2010-12-05T10:17:57Z</time>
      </trkpt>
      <trkpt lat="49.18908" lon="6.96003">
        <ele>346</ele>
        <time>2010-12-05T10:17:58Z</time>
      </trkpt>
      <trkpt lat="49.18909" lon="6.96002">
        <ele>346</ele>
        <time>2010-12-05T10:17:59Z</time>
      </trkpt>
      <trkpt lat="49.1891" lon="6.95999">
        <ele>346</ele>
        <time>2010-12-05T10:18:01Z</time>
      </trkpt>
      <trkpt lat="49.18911" lon="6.95996">
        <ele>346</ele>
        <time>2010-12-05T10:18:03Z</time>
      </trkpt>
      <trkpt lat="49.18913" lon="6.95993">
        <ele>346</ele>
        <time>2010-12-05T10:18:05Z</time>
      </trkpt>
      <trkpt lat="49.18913" lon="6.95991">
        <ele>346</ele>
        <time>2010-12-05T10:18:07Z</time>
      </trkpt>
      <trkpt lat="49.18915" lon="6.95988">
        <ele>346</ele>
        <time>2010-12-05T10:18:09Z</time>
      </trkpt>
      <trkpt lat="49.18916" lon="6.95985">
        <ele>346</ele>
        <time>2010-12-05T10:18:11Z</time>
      </trkpt>
      <trkpt lat="49.18916" lon="6.95983">
        <ele>346</ele>
        <time>2010-12-05T10:18:12Z</time>
      </trkpt>
      <trkpt lat="49.18918" lon="6.9598">
        <ele>346</ele>
        <time>2010-12-05T10:18:14Z</time>
      </trkpt>
      <trkpt lat="49.18919" lon="6.95978">
        <ele>346</ele>
        <time>2010-12-05T10:18:15Z</time>
      </trkpt>
      <trkpt lat="49.1892" lon="6.95976">
        <ele>346</ele>
        <time>2010-12-05T10:18:17Z</time>
      </trkpt>
      <trkpt lat="49.18922" lon="6.95972">
        <ele>345</ele>
        <time>2010-12-05T10:18:19Z</time>
      </trkpt>
      <trkpt lat="49.18922" lon="6.95969">
        <ele>345</ele>
        <time>2010-12-05T10:18:21Z</time>
      </trkpt>
      <trkpt lat="49.18922" lon="6.95966">
        <ele>345</ele>
        <time>2010-12-05T10:18:23Z</time>
      </trkpt>
      <trkpt lat="49.18923" lon="6.95964">
        <ele>345</ele>
        <time>2010-12-05T10:18:25Z</time>
      </trkpt>
      <trkpt lat="49.18924" lon="6.95961">
        <ele>345</ele>
        <time>2010-12-05T10:18:27Z</time>
      </trkpt>
      <trkpt lat="49.18925" lon="6.95959">
        <ele>345</ele>
        <time>2010-12-05T10:18:28Z</time>
      </trkpt>
      <trkpt lat="49.18927" lon="6.95957">
        <ele>345</ele>
        <time>2010-12-05T10:18:30Z</time>
      </trkpt>
      <trkpt lat="49.18928" lon="6.95957">
        <ele>344</ele>
        <time>2010-12-05T10:18:31Z</time>
      </trkpt>
      <trkpt lat="49.1893" lon="6.95955">
        <ele>344</ele>
        <time>2010-12-05T10:18:33Z</time>
      </trkpt>
      <trkpt lat="49.18932" lon="6.95954">
        <ele>344</ele>
        <time>2010-12-05T10:18:35Z</time>
      </trkpt>
      <trkpt lat="49.18933" lon="6.95953">
        <ele>344</ele>
        <time>2010-12-05T10:18:36Z</time>
      </trkpt>
      <trkpt lat="49.18935" lon="6.95953">
        <ele>344</ele>
        <time>2010-12-05T10:18:37Z</time>
      </trkpt>
      <trkpt lat="49.18937" lon="6.95953">
        <ele>344</ele>
        <time>2010-12-05T10:18:39Z</time>
      </trkpt>
      <trkpt lat="49.18939" lon="6.95955">
        <ele>344</ele>
        <time>2010-12-05T10:18:41Z</time>
      </trkpt>
      <trkpt lat="49.18941" lon="6.95956">
        <ele>344</ele>
        <time>2010-12-05T10:18:43Z</time>
      </trkpt>
      <trkpt lat="49.18943" lon="6.95959">
        <ele>344</ele>
        <time>2010-12-05T10:18:45Z</time>
      </trkpt>
      <trkpt lat="49.18945" lon="6.95961">
        <ele>344</ele>
        <time>2010-12-05T10:18:47Z</time>
      </trkpt>
      <trkpt lat="49.18946" lon="6.95962">
        <ele>344</ele>
        <time>2010-12-05T10:18:49Z</time>
      </trkpt>
      <trkpt lat="49.18948" lon="6.95964">
        <ele>344</ele>
        <time>2010-12-05T10:18:51Z</time>
      </trkpt>
      <trkpt lat="49.1895" lon="6.95966">
        <ele>344</ele>
        <time>2010-12-05T10:18:53Z</time>
      </trkpt>
      <trkpt lat="49.18952" lon="6.95968">
        <ele>343</ele>
        <time>2010-12-05T10:18:55Z</time>
      </trkpt>
      <trkpt lat="49.18953" lon="6.95969">
        <ele>343</ele>
        <time>2010-12-05T10:18:56Z</time>
      </trkpt>
      <trkpt lat="49.18955" lon="6.9597">
        <ele>343</ele>
        <time>2010-12-05T10:18:57Z</time>
      </trkpt>
      <trkpt lat="49.18956" lon="6.95971">
        <ele>343</ele>
        <time>2010-12-05T10:18:58Z</time>
      </trkpt>
      <trkpt lat="49.18957" lon="6.95972">
        <ele>343</ele>
        <time>2010-12-05T10:18:59Z</time>
      </trkpt>
      <trkpt lat="49.18959" lon="6.95974">
        <ele>343</ele>
        <time>2010-12-05T10:19:01Z</time>
      </trkpt>
      <trkpt lat="49.1896" lon="6.95975">
        <ele>343</ele>
        <time>2010-12-05T10:19:02Z</time>
      </trkpt>
      <trkpt lat="49.18962" lon="6.95978">
        <ele>343</ele>
        <time>2010-12-05T10:19:04Z</time>
      </trkpt>
      <trkpt lat="49.18964" lon="6.95979">
        <ele>343</ele>
        <time>2010-12-05T10:19:05Z</time>
      </trkpt>
      <trkpt lat="49.18965" lon="6.9598">
        <ele>343</ele>
        <time>2010-12-05T10:19:06Z</time>
      </trkpt>
      <trkpt lat="49.18967" lon="6.95982">
        <ele>343</ele>
        <time>2010-12-05T10:19:08Z</time>
      </trkpt>
      <trkpt lat="49.18968" lon="6.95983">
        <ele>343</ele>
        <time>2010-12-05T10:19:09Z</time>
      </trkpt>
      <trkpt lat="49.1897" lon="6.95986">
        <ele>343</ele>
        <time>2010-12-05T10:19:11Z</time>
      </trkpt>
      <trkpt lat="49.18971" lon="6.95987">
        <ele>343</ele>
        <time>2010-12-05T10:19:12Z</time>
      </trkpt>
      <trkpt lat="49.18973" lon="6.95989">
        <ele>343</ele>
        <time>2010-12-05T10:19:14Z</time>
      </trkpt>
      <trkpt lat="49.18974" lon="6.9599">
        <ele>343</ele>
        <time>2010-12-05T10:19:15Z</time>
      </trkpt>
      <trkpt lat="49.18975" lon="6.95991">
        <ele>343</ele>
        <time>2010-12-05T10:19:16Z</time>
      </trkpt>
      <trkpt lat="49.18977" lon="6.95992">
        <ele>343</ele>
        <time>2010-12-05T10:19:17Z</time>
      </trkpt>
      <trkpt lat="49.18979" lon="6.95994">
        <ele>343</ele>
        <time>2010-12-05T10:19:19Z</time>
      </trkpt>
      <trkpt lat="49.18981" lon="6.95996">
        <ele>342</ele>
        <time>2010-12-05T10:19:21Z</time>
      </trkpt>
      <trkpt lat="49.18983" lon="6.95998">
        <ele>342</ele>
        <time>2010-12-05T10:19:23Z</time>
      </trkpt>
      <trkpt lat="49.18985" lon="6.96">
        <ele>342</ele>
        <time>2010-12-05T10:19:25Z</time>
      </trkpt>
      <trkpt lat="49.18987" lon="6.96002">
        <ele>342</ele>
        <time>2010-12-05T10:19:27Z</time>
      </trkpt>
      <trkpt lat="49.18989" lon="6.96004">
        <ele>341</ele>
        <time>2010-12-05T10:19:29Z</time>
      </trkpt>
      <trkpt lat="49.1899" lon="6.96005">
        <ele>341</ele>
        <time>2010-12-05T10:19:30Z</time>
      </trkpt>
      <trkpt lat="49.18991" lon="6.96006">
        <ele>341</ele>
        <time>2010-12-05T10:19:31Z</time>
      </trkpt>
      <trkpt lat="49.18993" lon="6.96007">
        <ele>341</ele>
        <time>2010-12-05T10:19:32Z</time>
      </trkpt>
      <trkpt lat="49.18994" lon="6.96008">
        <ele>341</ele>
        <time>2010-12-05T10:19:33Z</time>
      </trkpt>
      <trkpt lat="49.18995" lon="6.96008">
        <ele>341</ele>
        <time>2010-12-05T10:19:34Z</time>
      </trkpt>
      <trkpt lat="49.18997" lon="6.9601">
        <ele>341</ele>
        <time>2010-12-05T10:19:36Z</time>
      </trkpt>
      <trkpt lat="49.18999" lon="6.96012">
        <ele>341</ele>
        <time>2010-12-05T10:19:38Z</time>
      </trkpt>
      <trkpt lat="49.19001" lon="6.96014">
        <ele>341</ele>
        <time>2010-12-05T10:19:40Z</time>
      </trkpt>
      <trkpt lat="49.19003" lon="6.96016">
        <ele>341</ele>
        <time>2010-12-05T10:19:42Z</time>
      </trkpt>
      <trkpt lat="49.19004" lon="6.96017">
        <ele>341</ele>
        <time>2010-12-05T10:19:43Z</time>
      </trkpt>
      <trkpt lat="49.19006" lon="6.96019">
        <ele>341</ele>
        <time>2010-12-05T10:19:44Z</time>
      </trkpt>
      <trkpt lat="49.19007" lon="6.9602">
        <ele>341</ele>
        <time>2010-12-05T10:19:45Z</time>
      </trkpt>
      <trkpt lat="49.19008" lon="6.96021">
        <ele>341</ele>
        <time>2010-12-05T10:19:46Z</time>
      </trkpt>
      <trkpt lat="49.1901" lon="6.96024">
        <ele>341</ele>
        <time>2010-12-05T10:19:48Z</time>
      </trkpt>
      <trkpt lat="49.19011" lon="6.96025">
        <ele>341</ele>
        <time>2010-12-05T10:19:49Z</time>
      </trkpt>
      <trkpt lat="49.19012" lon="6.96026">
        <ele>341</ele>
        <time>2010-12-05T10:19:50Z</time>
      </trkpt>
      <trkpt lat="49.19014" lon="6.96027">
        <ele>341</ele>
        <time>2010-12-05T10:19:51Z</time>
      </trkpt>
      <trkpt lat="49.19015" lon="6.96028">
        <ele>341</ele>
        <time>2010-12-05T10:19:52Z</time>
      </trkpt>
      <trkpt lat="49.19016" lon="6.9603">
        <ele>341</ele>
        <time>2010-12-05T10:19:53Z</time>
      </trkpt>
      <trkpt lat="49.19017" lon="6.96031">
        <ele>341</ele>
        <time>2010-12-05T10:19:54Z</time>
      </trkpt>
      <trkpt lat="49.19018" lon="6.96032">
        <ele>341</ele>
        <time>2010-12-05T10:19:55Z</time>
      </trkpt>
      <trkpt lat="49.19019" lon="6.96033">
        <ele>341</ele>
        <time>2010-12-05T10:19:56Z</time>
      </trkpt>
      <trkpt lat="49.1902" lon="6.96034">
        <ele>341</ele>
        <time>2010-12-05T10:19:57Z</time>
      </trkpt>
      <trkpt lat="49.19023" lon="6.96036">
        <ele>341</ele>
        <time>2010-12-05T10:19:59Z</time>
      </trkpt>
      <trkpt lat="49.19024" lon="6.96037">
        <ele>341</ele>
        <time>2010-12-05T10:20:00Z</time>
      </trkpt>
      <trkpt lat="49.19025" lon="6.96038">
        <ele>341</ele>
        <time>2010-12-05T10:20:01Z</time>
      </trkpt>
      <trkpt lat="49.19027" lon="6.96039">
        <ele>341</ele>
        <time>2010-12-05T10:20:02Z</time>
      </trkpt>
      <trkpt lat="49.19028" lon="6.96041">
        <ele>341</ele>
        <time>2010-12-05T10:20:03Z</time>
      </trkpt>
      <trkpt lat="49.19029" lon="6.96042">
        <ele>341</ele>
        <time>2010-12-05T10:20:04Z</time>
      </trkpt>
      <trkpt lat="49.1903" lon="6.96043">
        <ele>341</ele>
        <time>2010-12-05T10:20:05Z</time>
      </trkpt>
      <trkpt lat="49.19031" lon="6.96044">
        <ele>340</ele>
        <time>2010-12-05T10:20:06Z</time>
      </trkpt>
      <trkpt lat="49.19033" lon="6.96045">
        <ele>340</ele>
        <time>2010-12-05T10:20:07Z</time>
      </trkpt>
      <trkpt lat="49.19034" lon="6.96046">
        <ele>340</ele>
        <time>2010-12-05T10:20:08Z</time>
      </trkpt>
      <trkpt lat="49.19035" lon="6.96047">
        <ele>340</ele>
        <time>2010-12-05T10:20:09Z</time>
      </trkpt>
      <trkpt lat="49.19036" lon="6.96048">
        <ele>340</ele>
        <time>2010-12-05T10:20:10Z</time>
      </trkpt>
      <trkpt lat="49.19038" lon="6.96049">
        <ele>340</ele>
        <time>2010-12-05T10:20:11Z</time>
      </trkpt>
      <trkpt lat="49.19039" lon="6.9605">
        <ele>340</ele>
        <time>2010-12-05T10:20:12Z</time>
      </trkpt>
      <trkpt lat="49.1904" lon="6.96052">
        <ele>340</ele>
        <time>2010-12-05T10:20:13Z</time>
      </trkpt>
      <trkpt lat="49.19041" lon="6.96053">
        <ele>340</ele>
        <time>2010-12-05T10:20:14Z</time>
      </trkpt>
      <trkpt lat="49.19043" lon="6.96054">
        <ele>340</ele>
        <time>2010-12-05T10:20:15Z</time>
      </trkpt>
      <trkpt lat="49.19044" lon="6.96056">
        <ele>340</ele>
        <time>2010-12-05T10:20:16Z</time>
      </trkpt>
      <trkpt lat="49.19045" lon="6.96057">
        <ele>340</ele>
        <time>2010-12-05T10:20:17Z</time>
      </trkpt>
      <trkpt lat="49.19046" lon="6.96058">
        <ele>340</ele>
        <time>2010-12-05T10:20:18Z</time>
      </trkpt>
      <trkpt lat="49.19048" lon="6.9606">
        <ele>340</ele>
        <time>2010-12-05T10:20:20Z</time>
      </trkpt>
      <trkpt lat="49.1905" lon="6.96063">
        <ele>340</ele>
        <time>2010-12-05T10:20:22Z</time>
      </trkpt>
      <trkpt lat="49.19052" lon="6.96066">
        <ele>340</ele>
        <time>2010-12-05T10:20:24Z</time>
      </trkpt>
      <trkpt lat="49.19054" lon="6.96068">
        <ele>340</ele>
        <time>2010-12-05T10:20:26Z</time>
      </trkpt>
      <trkpt lat="49.19055" lon="6.96069">
        <ele>340</ele>
        <time>2010-12-05T10:20:27Z</time>
      </trkpt>
      <trkpt lat="49.19057" lon="6.96071">
        <ele>339</ele>
        <time>2010-12-05T10:20:29Z</time>
      </trkpt>
      <trkpt lat="49.19059" lon="6.96073">
        <ele>339</ele>
        <time>2010-12-05T10:20:31Z</time>
      </trkpt>
      <trkpt lat="49.1906" lon="6.96074">
        <ele>338</ele>
        <time>2010-12-05T10:20:38Z</time>
      </trkpt>
      <trkpt lat="49.19062" lon="6.96075">
        <ele>338</ele>
        <time>2010-12-05T10:20:40Z</time>
      </trkpt>
      <trkpt lat="49.19063" lon="6.96077">
        <ele>338</ele>
        <time>2010-12-05T10:20:42Z</time>
      </trkpt>
      <trkpt lat="49.19064" lon="6.96077">
        <ele>338</ele>
        <time>2010-12-05T10:20:44Z</time>
      </trkpt>
      <trkpt lat="49.19066" lon="6.96078">
        <ele>338</ele>
        <time>2010-12-05T10:20:48Z</time>
      </trkpt>
      <trkpt lat="49.19067" lon="6.9608">
        <ele>338</ele>
        <time>2010-12-05T10:20:53Z</time>
      </trkpt>
      <trkpt lat="49.19068" lon="6.96082">
        <ele>337</ele>
        <time>2010-12-05T10:20:56Z</time>
      </trkpt>
      <trkpt lat="49.19069" lon="6.96083">
        <ele>337</ele>
        <time>2010-12-05T10:21:01Z</time>
      </trkpt>
      <trkpt lat="49.19069" lon="6.96085">
        <ele>337</ele>
        <time>2010-12-05T10:21:04Z</time>
      </trkpt>
      <trkpt lat="49.19071" lon="6.96087">
        <ele>337</ele>
        <time>2010-12-05T10:21:07Z</time>
      </trkpt>
      <trkpt lat="49.19072" lon="6.96089">
        <ele>337</ele>
        <time>2010-12-05T10:21:09Z</time>
      </trkpt>
      <trkpt lat="49.19073" lon="6.96092">
        <ele>337</ele>
        <time>2010-12-05T10:21:11Z</time>
      </trkpt>
      <trkpt lat="49.19074" lon="6.96095">
        <ele>337</ele>
        <time>2010-12-05T10:21:13Z</time>
      </trkpt>
      <trkpt lat="49.19075" lon="6.96097">
        <ele>337</ele>
        <time>2010-12-05T10:21:15Z</time>
      </trkpt>
      <trkpt lat="49.19078" lon="6.96101">
        <ele>337</ele>
        <time>2010-12-05T10:21:17Z</time>
      </trkpt>
      <trkpt lat="49.19078" lon="6.96103">
        <ele>337</ele>
        <time>2010-12-05T10:21:18Z</time>
      </trkpt>
      <trkpt lat="49.1908" lon="6.96104">
        <ele>337</ele>
        <time>2010-12-05T10:21:19Z</time>
      </trkpt>
      <trkpt lat="49.19081" lon="6.96106">
        <ele>337</ele>
        <time>2010-12-05T10:21:20Z</time>
      </trkpt>
      <trkpt lat="49.19082" lon="6.96108">
        <ele>337</ele>
        <time>2010-12-05T10:21:21Z</time>
      </trkpt>
      <trkpt lat="49.19083" lon="6.9611">
        <ele>337</ele>
        <time>2010-12-05T10:21:22Z</time>
      </trkpt>
      <trkpt lat="49.19084" lon="6.96112">
        <ele>337</ele>
        <time>2010-12-05T10:21:23Z</time>
      </trkpt>
      <trkpt lat="49.19085" lon="6.96114">
        <ele>336</ele>
        <time>2010-12-05T10:21:24Z</time>
      </trkpt>
      <trkpt lat="49.19085" lon="6.96116">
        <ele>336</ele>
        <time>2010-12-05T10:21:25Z</time>
      </trkpt>
      <trkpt lat="49.19086" lon="6.96118">
        <ele>336</ele>
        <time>2010-12-05T10:21:26Z</time>
      </trkpt>
      <trkpt lat="49.19087" lon="6.9612">
        <ele>336</ele>
        <time>2010-12-05T10:21:27Z</time>
      </trkpt>
      <trkpt lat="49.19088" lon="6.96122">
        <ele>336</ele>
        <time>2010-12-05T10:21:28Z</time>
      </trkpt>
      <trkpt lat="49.19089" lon="6.96123">
        <ele>336</ele>
        <time>2010-12-05T10:21:29Z</time>
      </trkpt>
      <trkpt lat="49.1909" lon="6.96125">
        <ele>335</ele>
        <time>2010-12-05T10:21:30Z</time>
      </trkpt>
      <trkpt lat="49.1909" lon="6.96127">
        <ele>335</ele>
        <time>2010-12-05T10:21:31Z</time>
      </trkpt>
      <trkpt lat="49.19091" lon="6.96128">
        <ele>335</ele>
        <time>2010-12-05T10:21:32Z</time>
      </trkpt>
      <trkpt lat="49.19092" lon="6.9613">
        <ele>335</ele>
        <time>2010-12-05T10:21:33Z</time>
      </trkpt>
      <trkpt lat="49.19093" lon="6.96132">
        <ele>335</ele>
        <time>2010-12-05T10:21:34Z</time>
      </trkpt>
      <trkpt lat="49.19094" lon="6.96134">
        <ele>335</ele>
        <time>2010-12-05T10:21:35Z</time>
      </trkpt>
      <trkpt lat="49.19094" lon="6.96136">
        <ele>335</ele>
        <time>2010-12-05T10:21:36Z</time>
      </trkpt>
      <trkpt lat="49.19095" lon="6.96137">
        <ele>334</ele>
        <time>2010-12-05T10:21:37Z</time>
      </trkpt>
      <trkpt lat="49.19096" lon="6.96139">
        <ele>334</ele>
        <time>2010-12-05T10:21:38Z</time>
      </trkpt>
      <trkpt lat="49.19096" lon="6.96141">
        <ele>334</ele>
        <time>2010-12-05T10:21:39Z</time>
      </trkpt>
      <trkpt lat="49.19097" lon="6.96142">
        <ele>334</ele>
        <time>2010-12-05T10:21:40Z</time>
      </trkpt>
      <trkpt lat="49.19098" lon="6.96144">
        <ele>334</ele>
        <time>2010-12-05T10:21:41Z</time>
      </trkpt>
      <trkpt lat="49.191" lon="6.96147">
        <ele>334</ele>
        <time>2010-12-05T10:21:43Z</time>
      </trkpt>
      <trkpt lat="49.19101" lon="6.96149">
        <ele>333</ele>
        <time>2010-12-05T10:21:44Z</time>
      </trkpt>
      <trkpt lat="49.19103" lon="6.9615">
        <ele>333</ele>
        <time>2010-12-05T10:21:45Z</time>
      </trkpt>
      <trkpt lat="49.19105" lon="6.96152">
        <ele>333</ele>
        <time>2010-12-05T10:21:47Z</time>
      </trkpt>
      <trkpt lat="49.19106" lon="6.96153">
        <ele>333</ele>
        <time>2010-12-05T10:21:48Z</time>
      </trkpt>
      <trkpt lat="49.19108" lon="6.96156">
        <ele>333</ele>
        <time>2010-12-05T10:21:50Z</time>
      </trkpt>
      <trkpt lat="49.19109" lon="6.96158">
        <ele>333</ele>
        <time>2010-12-05T10:21:52Z</time>
      </trkpt>
      <trkpt lat="49.1911" lon="6.96159">
        <ele>332</ele>
        <time>2010-12-05T10:21:53Z</time>
      </trkpt>
      <trkpt lat="49.19112" lon="6.96162">
        <ele>332</ele>
        <time>2010-12-05T10:21:55Z</time>
      </trkpt>
      <trkpt lat="49.19114" lon="6.96163">
        <ele>332</ele>
        <time>2010-12-05T10:21:56Z</time>
      </trkpt>
      <trkpt lat="49.19115" lon="6.96164">
        <ele>332</ele>
        <time>2010-12-05T10:21:57Z</time>
      </trkpt>
      <trkpt lat="49.19116" lon="6.96165">
        <ele>332</ele>
        <time>2010-12-05T10:21:58Z</time>
      </trkpt>
      <trkpt lat="49.19118" lon="6.96168">
        <ele>331</ele>
        <time>2010-12-05T10:22:00Z</time>
      </trkpt>
      <trkpt lat="49.1912" lon="6.9617">
        <ele>330</ele>
        <time>2010-12-05T10:22:02Z</time>
      </trkpt>
      <trkpt lat="49.19122" lon="6.96173">
        <ele>329</ele>
        <time>2010-12-05T10:22:04Z</time>
      </trkpt>
      <trkpt lat="49.19124" lon="6.96175">
        <ele>329</ele>
        <time>2010-12-05T10:22:06Z</time>
      </trkpt>
      <trkpt lat="49.19125" lon="6.96176">
        <ele>328</ele>
        <time>2010-12-05T10:22:07Z</time>
      </trkpt>
      <trkpt lat="49.19126" lon="6.96177">
        <ele>328</ele>
        <time>2010-12-05T10:22:08Z</time>
      </trkpt>
      <trkpt lat="49.19128" lon="6.96178">
        <ele>328</ele>
        <time>2010-12-05T10:22:09Z</time>
      </trkpt>
      <trkpt lat="49.1913" lon="6.9618">
        <ele>327</ele>
        <time>2010-12-05T10:22:11Z</time>
      </trkpt>
      <trkpt lat="49.19131" lon="6.96181">
        <ele>327</ele>
        <time>2010-12-05T10:22:13Z</time>
      </trkpt>
      <trkpt lat="49.19133" lon="6.96183">
        <ele>326</ele>
        <time>2010-12-05T10:22:15Z</time>
      </trkpt>
      <trkpt lat="49.19135" lon="6.96184">
        <ele>326</ele>
        <time>2010-12-05T10:22:16Z</time>
      </trkpt>
      <trkpt lat="49.19136" lon="6.96185">
        <ele>326</ele>
        <time>2010-12-05T10:22:17Z</time>
      </trkpt>
      <trkpt lat="49.19138" lon="6.96185">
        <ele>326</ele>
        <time>2010-12-05T10:22:18Z</time>
      </trkpt>
      <trkpt lat="49.19139" lon="6.96186">
        <ele>326</ele>
        <time>2010-12-05T10:22:19Z</time>
      </trkpt>
      <trkpt lat="49.19141" lon="6.96186">
        <ele>326</ele>
        <time>2010-12-05T10:22:20Z</time>
      </trkpt>
      <trkpt lat="49.19142" lon="6.96187">
        <ele>325</ele>
        <time>2010-12-05T10:22:21Z</time>
      </trkpt>
      <trkpt lat="49.19143" lon="6.96187">
        <ele>325</ele>
        <time>2010-12-05T10:22:22Z</time>
      </trkpt>
      <trkpt lat="49.19146" lon="6.96189">
        <ele>325</ele>
        <time>2010-12-05T10:22:24Z</time>
      </trkpt>
      <trkpt lat="49.19147" lon="6.96189">
        <ele>325</ele>
        <time>2010-12-05T10:22:25Z</time>
      </trkpt>
      <trkpt lat="49.19148" lon="6.9619">
        <ele>325</ele>
        <time>2010-12-05T10:22:26Z</time>
      </trkpt>
      <trkpt lat="49.19149" lon="6.96191">
        <ele>324</ele>
        <time>2010-12-05T10:22:27Z</time>
      </trkpt>
      <trkpt lat="49.19151" lon="6.96191">
        <ele>324</ele>
        <time>2010-12-05T10:22:28Z</time>
      </trkpt>
      <trkpt lat="49.19152" lon="6.96192">
        <ele>323</ele>
        <time>2010-12-05T10:22:29Z</time>
      </trkpt>
      <trkpt lat="49.19153" lon="6.96192">
        <ele>323</ele>
        <time>2010-12-05T10:22:30Z</time>
      </trkpt>
      <trkpt lat="49.19154" lon="6.96192">
        <ele>323</ele>
        <time>2010-12-05T10:22:31Z</time>
      </trkpt>
      <trkpt lat="49.19156" lon="6.96192">
        <ele>322</ele>
        <time>2010-12-05T10:22:32Z</time>
      </trkpt>
      <trkpt lat="49.19157" lon="6.96193">
        <ele>322</ele>
        <time>2010-12-05T10:22:33Z</time>
      </trkpt>
      <trkpt lat="49.19159" lon="6.96194">
        <ele>322</ele>
        <time>2010-12-05T10:22:34Z</time>
      </trkpt>
      <trkpt lat="49.1916" lon="6.96195">
        <ele>322</ele>
        <time>2010-12-05T10:22:35Z</time>
      </trkpt>
      <trkpt lat="49.19161" lon="6.96195">
        <ele>322</ele>
        <time>2010-12-05T10:22:36Z</time>
      </trkpt>
      <trkpt lat="49.19162" lon="6.96196">
        <ele>322</ele>
        <time>2010-12-05T10:22:37Z</time>
      </trkpt>
      <trkpt lat="49.19164" lon="6.96197">
        <ele>322</ele>
        <time>2010-12-05T10:22:38Z</time>
      </trkpt>
      <trkpt lat="49.19165" lon="6.96197">
        <ele>322</ele>
        <time>2010-12-05T10:22:39Z</time>
      </trkpt>
      <trkpt lat="49.19167" lon="6.96197">
        <ele>322</ele>
        <time>2010-12-05T10:22:41Z</time>
      </trkpt>
      <trkpt lat="49.19168" lon="6.96195">
        <ele>322</ele>
        <time>2010-12-05T10:22:43Z</time>
      </trkpt>
      <trkpt lat="49.19168" lon="6.96193">
        <ele>322</ele>
        <time>2010-12-05T10:22:44Z</time>
      </trkpt>
      <trkpt lat="49.19169" lon="6.96191">
        <ele>322</ele>
        <time>2010-12-05T10:22:45Z</time>
      </trkpt>
      <trkpt lat="49.19169" lon="6.96189">
        <ele>322</ele>
        <time>2010-12-05T10:22:46Z</time>
      </trkpt>
      <trkpt lat="49.19169" lon="6.96187">
        <ele>322</ele>
        <time>2010-12-05T10:22:47Z</time>
      </trkpt>
      <trkpt lat="49.1917" lon="6.96184">
        <ele>322</ele>
        <time>2010-12-05T10:22:49Z</time>
      </trkpt>
      <trkpt lat="49.1917" lon="6.96182">
        <ele>322</ele>
        <time>2010-12-05T10:22:50Z</time>
      </trkpt>
      <trkpt lat="49.19171" lon="6.9618">
        <ele>322</ele>
        <time>2010-12-05T10:22:51Z</time>
      </trkpt>
      <trkpt lat="49.19171" lon="6.96178">
        <ele>321</ele>
        <time>2010-12-05T10:22:52Z</time>
      </trkpt>
      <trkpt lat="49.19171" lon="6.96176">
        <ele>321</ele>
        <time>2010-12-05T10:22:53Z</time>
      </trkpt>
      <trkpt lat="49.19171" lon="6.96174">
        <ele>321</ele>
        <time>2010-12-05T10:22:54Z</time>
      </trkpt>
      <trkpt lat="49.19171" lon="6.96172">
        <ele>321</ele>
        <time>2010-12-05T10:22:55Z</time>
      </trkpt>
      <trkpt lat="49.19171" lon="6.96171">
        <ele>321</ele>
        <time>2010-12-05T10:22:56Z</time>
      </trkpt>
      <trkpt lat="49.19171" lon="6.96169">
        <ele>321</ele>
        <time>2010-12-05T10:22:57Z</time>
      </trkpt>
      <trkpt lat="49.19171" lon="6.96167">
        <ele>321</ele>
        <time>2010-12-05T10:22:58Z</time>
      </trkpt>
      <trkpt lat="49.19171" lon="6.96165">
        <ele>321</ele>
        <time>2010-12-05T10:22:59Z</time>
      </trkpt>
      <trkpt lat="49.1917" lon="6.96162">
        <ele>321</ele>
        <time>2010-12-05T10:23:00Z</time>
      </trkpt>
      <trkpt lat="49.19171" lon="6.9616">
        <ele>321</ele>
        <time>2010-12-05T10:23:01Z</time>
      </trkpt>
      <trkpt lat="49.19171" lon="6.96159">
        <ele>321</ele>
        <time>2010-12-05T10:23:02Z</time>
      </trkpt>
      <trkpt lat="49.19171" lon="6.96157">
        <ele>321</ele>
        <time>2010-12-05T10:23:03Z</time>
      </trkpt>
      <trkpt lat="49.19171" lon="6.96155">
        <ele>321</ele>
        <time>2010-12-05T10:23:04Z</time>
      </trkpt>
      <trkpt lat="49.19171" lon="6.96153">
        <ele>321</ele>
        <time>2010-12-05T10:23:05Z</time>
      </trkpt>
      <trkpt lat="49.19171" lon="6.96151">
        <ele>321</ele>
        <time>2010-12-05T10:23:06Z</time>
      </trkpt>
      <trkpt lat="49.19171" lon="6.96149">
        <ele>321</ele>
        <time>2010-12-05T10:23:07Z</time>
      </trkpt>
      <trkpt lat="49.19171" lon="6.96147">
        <ele>321</ele>
        <time>2010-12-05T10:23:08Z</time>
      </trkpt>
      <trkpt lat="49.19171" lon="6.96146">
        <ele>321</ele>
        <time>2010-12-05T10:23:09Z</time>
      </trkpt>
      <trkpt lat="49.1917" lon="6.96143">
        <ele>321</ele>
        <time>2010-12-05T10:23:11Z</time>
      </trkpt>
      <trkpt lat="49.19168" lon="6.96141">
        <ele>321</ele>
        <time>2010-12-05T10:23:13Z</time>
      </trkpt>
      <trkpt lat="49.19166" lon="6.96139">
        <ele>321</ele>
        <time>2010-12-05T10:23:15Z</time>
      </trkpt>
      <trkpt lat="49.19165" lon="6.96137">
        <ele>321</ele>
        <time>2010-12-05T10:23:17Z</time>
      </trkpt>
      <trkpt lat="49.19163" lon="6.96135">
        <ele>321</ele>
        <time>2010-12-05T10:23:19Z</time>
      </trkpt>
      <trkpt lat="49.19161" lon="6.96133">
        <ele>321</ele>
        <time>2010-12-05T10:23:21Z</time>
      </trkpt>
      <trkpt lat="49.1916" lon="6.96133">
        <ele>321</ele>
        <time>2010-12-05T10:23:23Z</time>
      </trkpt>
      <trkpt lat="49.19159" lon="6.96132">
        <ele>321</ele>
        <time>2010-12-05T10:23:25Z</time>
      </trkpt>
      <trkpt lat="49.19162" lon="6.96122">
        <ele>323</ele>
        <time>2010-12-05T10:23:53Z</time>
      </trkpt>
      <trkpt lat="49.19161" lon="6.96119">
        <ele>323</ele>
        <time>2010-12-05T10:23:54Z</time>
      </trkpt>
      <trkpt lat="49.19159" lon="6.96117">
        <ele>323</ele>
        <time>2010-12-05T10:23:55Z</time>
      </trkpt>
      <trkpt lat="49.1916" lon="6.96115">
        <ele>322</ele>
        <time>2010-12-05T10:23:56Z</time>
      </trkpt>
      <trkpt lat="49.19164" lon="6.96114">
        <ele>319</ele>
        <time>2010-12-05T10:23:59Z</time>
      </trkpt>
      <trkpt lat="49.19165" lon="6.96114">
        <ele>318</ele>
        <time>2010-12-05T10:24:00Z</time>
      </trkpt>
      <trkpt lat="49.19166" lon="6.96114">
        <ele>317</ele>
        <time>2010-12-05T10:24:02Z</time>
      </trkpt>
      <trkpt lat="49.19097" lon="6.96112">
        <ele>306</ele>
        <time>2010-12-05T10:24:47Z</time>
      </trkpt>
    </trkseg>
  </trk>
</gpx>